<?xml version="1.0" encoding="utf-8"?>
<gpx xmlns:xsi="http://www.w3.org/2001/XMLSchema-instance" xmlns:xsd="http://www.w3.org/2001/XMLSchema" version="1.1" creator="Shapelink.com" xmlns="http://www.topografix.com/GPX/1/1" xmlns:gpxtpx="http://www.garmin.com/xmlschemas/TrackPointExtension/v1">
  <metadata>
    <name>Ciclismo 21.53 km, 2020-01-21</name>
    <desc></desc>
    <author><name>Peter Littke</name></author> 
    <time>2020-01-21T16:00:13Z</time>
  </metadata>
  <trk>
    <name>Ciclismo 21.53 km, 2020-01-21</name>
    <trkseg>
      <trkpt lat="59.173453" lon="18.14341">
        <ele>0</ele>
        <time>2020-01-21T16:00:13Z</time>
      </trkpt>
      <trkpt lat="59.173482" lon="18.143424">
        <ele>0</ele>
        <time>2020-01-21T16:00:19Z</time>
      </trkpt>
      <trkpt lat="59.173503" lon="18.143428">
        <ele>80</ele>
        <time>2020-01-21T16:00:20Z</time>
      </trkpt>
      <trkpt lat="59.173526" lon="18.143429">
        <ele>80</ele>
        <time>2020-01-21T16:00:21Z</time>
      </trkpt>
      <trkpt lat="59.173548" lon="18.143424">
        <ele>80</ele>
        <time>2020-01-21T16:00:22Z</time>
      </trkpt>
      <trkpt lat="59.173567" lon="18.143416">
        <ele>80</ele>
        <time>2020-01-21T16:00:23Z</time>
      </trkpt>
      <trkpt lat="59.173588" lon="18.143412">
        <ele>80</ele>
        <time>2020-01-21T16:00:24Z</time>
      </trkpt>
      <trkpt lat="59.173608" lon="18.143417">
        <ele>81</ele>
        <time>2020-01-21T16:00:25Z</time>
      </trkpt>
      <trkpt lat="59.173626" lon="18.143427">
        <ele>81</ele>
        <time>2020-01-21T16:00:26Z</time>
      </trkpt>
      <trkpt lat="59.173664" lon="18.143458">
        <ele>80</ele>
        <time>2020-01-21T16:00:28Z</time>
      </trkpt>
      <trkpt lat="59.173684" lon="18.14348">
        <ele>80</ele>
        <time>2020-01-21T16:00:29Z</time>
      </trkpt>
      <trkpt lat="59.173708" lon="18.143492">
        <ele>79</ele>
        <time>2020-01-21T16:00:30Z</time>
      </trkpt>
      <trkpt lat="59.173734" lon="18.143479">
        <ele>79</ele>
        <time>2020-01-21T16:00:31Z</time>
      </trkpt>
      <trkpt lat="59.173754" lon="18.143441">
        <ele>78</ele>
        <time>2020-01-21T16:00:32Z</time>
      </trkpt>
      <trkpt lat="59.173774" lon="18.143364">
        <ele>78</ele>
        <time>2020-01-21T16:00:33Z</time>
      </trkpt>
      <trkpt lat="59.173794" lon="18.143295">
        <ele>77</ele>
        <time>2020-01-21T16:00:34Z</time>
      </trkpt>
      <trkpt lat="59.1738" lon="18.143224">
        <ele>77</ele>
        <time>2020-01-21T16:00:35Z</time>
      </trkpt>
      <trkpt lat="59.173806" lon="18.143156">
        <ele>77</ele>
        <time>2020-01-21T16:00:36Z</time>
      </trkpt>
      <trkpt lat="59.173812" lon="18.143089">
        <ele>77</ele>
        <time>2020-01-21T16:00:38Z</time>
      </trkpt>
      <trkpt lat="59.173816" lon="18.143026">
        <ele>77</ele>
        <time>2020-01-21T16:00:39Z</time>
      </trkpt>
      <trkpt lat="59.173836" lon="18.142975">
        <ele>76</ele>
        <time>2020-01-21T16:00:39Z</time>
      </trkpt>
      <trkpt lat="59.17387" lon="18.142955">
        <ele>76</ele>
        <time>2020-01-21T16:00:40Z</time>
      </trkpt>
      <trkpt lat="59.173906" lon="18.14296">
        <ele>76</ele>
        <time>2020-01-21T16:00:41Z</time>
      </trkpt>
      <trkpt lat="59.17395" lon="18.142971">
        <ele>76</ele>
        <time>2020-01-21T16:00:42Z</time>
      </trkpt>
      <trkpt lat="59.174" lon="18.142987">
        <ele>76</ele>
        <time>2020-01-21T16:00:43Z</time>
      </trkpt>
      <trkpt lat="59.174052" lon="18.143007">
        <ele>76</ele>
        <time>2020-01-21T16:00:44Z</time>
      </trkpt>
      <trkpt lat="59.17411" lon="18.143026">
        <ele>75</ele>
        <time>2020-01-21T16:00:45Z</time>
      </trkpt>
      <trkpt lat="59.174169" lon="18.143045">
        <ele>74</ele>
        <time>2020-01-21T16:00:46Z</time>
      </trkpt>
      <trkpt lat="59.174244" lon="18.143049">
        <ele>73</ele>
        <time>2020-01-21T16:00:48Z</time>
      </trkpt>
      <trkpt lat="59.174321" lon="18.143057">
        <ele>72</ele>
        <time>2020-01-21T16:00:48Z</time>
      </trkpt>
      <trkpt lat="59.174412" lon="18.143053">
        <ele>70</ele>
        <time>2020-01-21T16:00:49Z</time>
      </trkpt>
      <trkpt lat="59.174504" lon="18.143059">
        <ele>69</ele>
        <time>2020-01-21T16:00:50Z</time>
      </trkpt>
      <trkpt lat="59.174573" lon="18.143041">
        <ele>68</ele>
        <time>2020-01-21T16:00:51Z</time>
      </trkpt>
      <trkpt lat="59.174629" lon="18.142992">
        <ele>67</ele>
        <time>2020-01-21T16:00:52Z</time>
      </trkpt>
      <trkpt lat="59.17467" lon="18.142906">
        <ele>67</ele>
        <time>2020-01-21T16:00:53Z</time>
      </trkpt>
      <trkpt lat="59.174699" lon="18.14281">
        <ele>66</ele>
        <time>2020-01-21T16:00:55Z</time>
      </trkpt>
      <trkpt lat="59.174738" lon="18.14274">
        <ele>65</ele>
        <time>2020-01-21T16:00:55Z</time>
      </trkpt>
      <trkpt lat="59.174784" lon="18.1427">
        <ele>65</ele>
        <time>2020-01-21T16:00:56Z</time>
      </trkpt>
      <trkpt lat="59.174835" lon="18.142674">
        <ele>65</ele>
        <time>2020-01-21T16:00:58Z</time>
      </trkpt>
      <trkpt lat="59.174887" lon="18.14265">
        <ele>64</ele>
        <time>2020-01-21T16:00:58Z</time>
      </trkpt>
      <trkpt lat="59.174936" lon="18.142622">
        <ele>64</ele>
        <time>2020-01-21T16:00:59Z</time>
      </trkpt>
      <trkpt lat="59.174984" lon="18.142597">
        <ele>64</ele>
        <time>2020-01-21T16:01:00Z</time>
      </trkpt>
      <trkpt lat="59.175026" lon="18.142572">
        <ele>63</ele>
        <time>2020-01-21T16:01:01Z</time>
      </trkpt>
      <trkpt lat="59.17506" lon="18.14253">
        <ele>62</ele>
        <time>2020-01-21T16:01:02Z</time>
      </trkpt>
      <trkpt lat="59.175085" lon="18.142471">
        <ele>62</ele>
        <time>2020-01-21T16:01:03Z</time>
      </trkpt>
      <trkpt lat="59.175109" lon="18.142408">
        <ele>61</ele>
        <time>2020-01-21T16:01:04Z</time>
      </trkpt>
      <trkpt lat="59.175134" lon="18.142345">
        <ele>61</ele>
        <time>2020-01-21T16:01:06Z</time>
      </trkpt>
      <trkpt lat="59.175158" lon="18.142289">
        <ele>61</ele>
        <time>2020-01-21T16:01:06Z</time>
      </trkpt>
      <trkpt lat="59.17518" lon="18.142227">
        <ele>60</ele>
        <time>2020-01-21T16:01:07Z</time>
      </trkpt>
      <trkpt lat="59.175208" lon="18.142162">
        <ele>60</ele>
        <time>2020-01-21T16:01:08Z</time>
      </trkpt>
      <trkpt lat="59.175234" lon="18.142095">
        <ele>59</ele>
        <time>2020-01-21T16:01:09Z</time>
      </trkpt>
      <trkpt lat="59.175263" lon="18.14203">
        <ele>59</ele>
        <time>2020-01-21T16:01:11Z</time>
      </trkpt>
      <trkpt lat="59.175295" lon="18.141968">
        <ele>58</ele>
        <time>2020-01-21T16:01:11Z</time>
      </trkpt>
      <trkpt lat="59.175318" lon="18.141919">
        <ele>58</ele>
        <time>2020-01-21T16:01:12Z</time>
      </trkpt>
      <trkpt lat="59.175339" lon="18.141878">
        <ele>57</ele>
        <time>2020-01-21T16:01:13Z</time>
      </trkpt>
      <trkpt lat="59.175362" lon="18.141837">
        <ele>56</ele>
        <time>2020-01-21T16:01:14Z</time>
      </trkpt>
      <trkpt lat="59.175376" lon="18.141801">
        <ele>56</ele>
        <time>2020-01-21T16:01:15Z</time>
      </trkpt>
      <trkpt lat="59.175392" lon="18.141761">
        <ele>55</ele>
        <time>2020-01-21T16:01:17Z</time>
      </trkpt>
      <trkpt lat="59.175407" lon="18.141727">
        <ele>55</ele>
        <time>2020-01-21T16:01:17Z</time>
      </trkpt>
      <trkpt lat="59.175422" lon="18.14169">
        <ele>54</ele>
        <time>2020-01-21T16:01:18Z</time>
      </trkpt>
      <trkpt lat="59.175438" lon="18.141644">
        <ele>54</ele>
        <time>2020-01-21T16:01:19Z</time>
      </trkpt>
      <trkpt lat="59.175451" lon="18.141597">
        <ele>53</ele>
        <time>2020-01-21T16:01:21Z</time>
      </trkpt>
      <trkpt lat="59.175471" lon="18.141537">
        <ele>53</ele>
        <time>2020-01-21T16:01:21Z</time>
      </trkpt>
      <trkpt lat="59.17549" lon="18.141488">
        <ele>52</ele>
        <time>2020-01-21T16:01:22Z</time>
      </trkpt>
      <trkpt lat="59.175505" lon="18.141457">
        <ele>52</ele>
        <time>2020-01-21T16:01:23Z</time>
      </trkpt>
      <trkpt lat="59.175516" lon="18.14143">
        <ele>51</ele>
        <time>2020-01-21T16:01:25Z</time>
      </trkpt>
      <trkpt lat="59.175531" lon="18.141369">
        <ele>50</ele>
        <time>2020-01-21T16:01:29Z</time>
      </trkpt>
      <trkpt lat="59.17555" lon="18.141318">
        <ele>50</ele>
        <time>2020-01-21T16:01:30Z</time>
      </trkpt>
      <trkpt lat="59.175581" lon="18.141269">
        <ele>50</ele>
        <time>2020-01-21T16:01:31Z</time>
      </trkpt>
      <trkpt lat="59.175621" lon="18.141236">
        <ele>50</ele>
        <time>2020-01-21T16:01:32Z</time>
      </trkpt>
      <trkpt lat="59.175665" lon="18.141213">
        <ele>49</ele>
        <time>2020-01-21T16:01:33Z</time>
      </trkpt>
      <trkpt lat="59.175711" lon="18.141196">
        <ele>49</ele>
        <time>2020-01-21T16:01:34Z</time>
      </trkpt>
      <trkpt lat="59.17576" lon="18.141189">
        <ele>49</ele>
        <time>2020-01-21T16:01:36Z</time>
      </trkpt>
      <trkpt lat="59.17581" lon="18.141199">
        <ele>49</ele>
        <time>2020-01-21T16:01:36Z</time>
      </trkpt>
      <trkpt lat="59.175861" lon="18.141215">
        <ele>48</ele>
        <time>2020-01-21T16:01:38Z</time>
      </trkpt>
      <trkpt lat="59.175915" lon="18.141233">
        <ele>48</ele>
        <time>2020-01-21T16:01:38Z</time>
      </trkpt>
      <trkpt lat="59.175968" lon="18.14125">
        <ele>48</ele>
        <time>2020-01-21T16:01:39Z</time>
      </trkpt>
      <trkpt lat="59.176022" lon="18.141266">
        <ele>48</ele>
        <time>2020-01-21T16:01:40Z</time>
      </trkpt>
      <trkpt lat="59.176078" lon="18.14128">
        <ele>48</ele>
        <time>2020-01-21T16:01:41Z</time>
      </trkpt>
      <trkpt lat="59.176136" lon="18.141291">
        <ele>48</ele>
        <time>2020-01-21T16:01:42Z</time>
      </trkpt>
      <trkpt lat="59.176195" lon="18.141297">
        <ele>48</ele>
        <time>2020-01-21T16:01:43Z</time>
      </trkpt>
      <trkpt lat="59.176256" lon="18.141299">
        <ele>47</ele>
        <time>2020-01-21T16:01:44Z</time>
      </trkpt>
      <trkpt lat="59.176318" lon="18.141299">
        <ele>47</ele>
        <time>2020-01-21T16:01:46Z</time>
      </trkpt>
      <trkpt lat="59.17638" lon="18.1413">
        <ele>47</ele>
        <time>2020-01-21T16:01:46Z</time>
      </trkpt>
      <trkpt lat="59.176444" lon="18.141305">
        <ele>47</ele>
        <time>2020-01-21T16:01:47Z</time>
      </trkpt>
      <trkpt lat="59.176509" lon="18.141316">
        <ele>47</ele>
        <time>2020-01-21T16:01:48Z</time>
      </trkpt>
      <trkpt lat="59.176575" lon="18.141333">
        <ele>46</ele>
        <time>2020-01-21T16:01:49Z</time>
      </trkpt>
      <trkpt lat="59.176641" lon="18.141358">
        <ele>46</ele>
        <time>2020-01-21T16:01:50Z</time>
      </trkpt>
      <trkpt lat="59.176707" lon="18.141386">
        <ele>46</ele>
        <time>2020-01-21T16:01:51Z</time>
      </trkpt>
      <trkpt lat="59.176774" lon="18.141416">
        <ele>46</ele>
        <time>2020-01-21T16:01:52Z</time>
      </trkpt>
      <trkpt lat="59.176841" lon="18.141445">
        <ele>46</ele>
        <time>2020-01-21T16:01:54Z</time>
      </trkpt>
      <trkpt lat="59.176908" lon="18.141473">
        <ele>45</ele>
        <time>2020-01-21T16:01:55Z</time>
      </trkpt>
      <trkpt lat="59.176973" lon="18.141502">
        <ele>45</ele>
        <time>2020-01-21T16:01:55Z</time>
      </trkpt>
      <trkpt lat="59.177035" lon="18.141528">
        <ele>45</ele>
        <time>2020-01-21T16:01:56Z</time>
      </trkpt>
      <trkpt lat="59.177093" lon="18.14155">
        <ele>45</ele>
        <time>2020-01-21T16:01:57Z</time>
      </trkpt>
      <trkpt lat="59.177148" lon="18.141568">
        <ele>45</ele>
        <time>2020-01-21T16:01:58Z</time>
      </trkpt>
      <trkpt lat="59.1772" lon="18.141575">
        <ele>44</ele>
        <time>2020-01-21T16:01:59Z</time>
      </trkpt>
      <trkpt lat="59.17725" lon="18.141571">
        <ele>44</ele>
        <time>2020-01-21T16:02:00Z</time>
      </trkpt>
      <trkpt lat="59.1773" lon="18.141575">
        <ele>44</ele>
        <time>2020-01-21T16:02:02Z</time>
      </trkpt>
      <trkpt lat="59.177352" lon="18.141597">
        <ele>44</ele>
        <time>2020-01-21T16:02:02Z</time>
      </trkpt>
      <trkpt lat="59.177405" lon="18.141622">
        <ele>44</ele>
        <time>2020-01-21T16:02:03Z</time>
      </trkpt>
      <trkpt lat="59.17746" lon="18.14164">
        <ele>44</ele>
        <time>2020-01-21T16:02:04Z</time>
      </trkpt>
      <trkpt lat="59.17752" lon="18.141651">
        <ele>43</ele>
        <time>2020-01-21T16:02:05Z</time>
      </trkpt>
      <trkpt lat="59.177586" lon="18.141661">
        <ele>43</ele>
        <time>2020-01-21T16:02:06Z</time>
      </trkpt>
      <trkpt lat="59.177651" lon="18.141672">
        <ele>43</ele>
        <time>2020-01-21T16:02:07Z</time>
      </trkpt>
      <trkpt lat="59.17772" lon="18.141699">
        <ele>43</ele>
        <time>2020-01-21T16:02:08Z</time>
      </trkpt>
      <trkpt lat="59.177796" lon="18.141746">
        <ele>43</ele>
        <time>2020-01-21T16:02:10Z</time>
      </trkpt>
      <trkpt lat="59.177871" lon="18.1418">
        <ele>43</ele>
        <time>2020-01-21T16:02:10Z</time>
      </trkpt>
      <trkpt lat="59.177945" lon="18.141856">
        <ele>42</ele>
        <time>2020-01-21T16:02:11Z</time>
      </trkpt>
      <trkpt lat="59.178018" lon="18.141909">
        <ele>42</ele>
        <time>2020-01-21T16:02:12Z</time>
      </trkpt>
      <trkpt lat="59.178084" lon="18.141956">
        <ele>42</ele>
        <time>2020-01-21T16:02:14Z</time>
      </trkpt>
      <trkpt lat="59.178149" lon="18.142004">
        <ele>42</ele>
        <time>2020-01-21T16:02:14Z</time>
      </trkpt>
      <trkpt lat="59.178213" lon="18.142058">
        <ele>41</ele>
        <time>2020-01-21T16:02:15Z</time>
      </trkpt>
      <trkpt lat="59.178274" lon="18.142123">
        <ele>41</ele>
        <time>2020-01-21T16:02:17Z</time>
      </trkpt>
      <trkpt lat="59.178333" lon="18.1422">
        <ele>41</ele>
        <time>2020-01-21T16:02:17Z</time>
      </trkpt>
      <trkpt lat="59.178394" lon="18.142277">
        <ele>40</ele>
        <time>2020-01-21T16:02:18Z</time>
      </trkpt>
      <trkpt lat="59.178459" lon="18.142339">
        <ele>40</ele>
        <time>2020-01-21T16:02:19Z</time>
      </trkpt>
      <trkpt lat="59.178531" lon="18.142385">
        <ele>40</ele>
        <time>2020-01-21T16:02:20Z</time>
      </trkpt>
      <trkpt lat="59.178603" lon="18.142425">
        <ele>40</ele>
        <time>2020-01-21T16:02:21Z</time>
      </trkpt>
      <trkpt lat="59.178675" lon="18.142468">
        <ele>40</ele>
        <time>2020-01-21T16:02:22Z</time>
      </trkpt>
      <trkpt lat="59.178747" lon="18.142515">
        <ele>39</ele>
        <time>2020-01-21T16:02:24Z</time>
      </trkpt>
      <trkpt lat="59.178818" lon="18.142563">
        <ele>39</ele>
        <time>2020-01-21T16:02:24Z</time>
      </trkpt>
      <trkpt lat="59.178887" lon="18.142612">
        <ele>39</ele>
        <time>2020-01-21T16:02:25Z</time>
      </trkpt>
      <trkpt lat="59.178956" lon="18.142661">
        <ele>39</ele>
        <time>2020-01-21T16:02:26Z</time>
      </trkpt>
      <trkpt lat="59.179023" lon="18.14271">
        <ele>38</ele>
        <time>2020-01-21T16:02:27Z</time>
      </trkpt>
      <trkpt lat="59.17909" lon="18.142759">
        <ele>38</ele>
        <time>2020-01-21T16:02:28Z</time>
      </trkpt>
      <trkpt lat="59.179156" lon="18.142806">
        <ele>38</ele>
        <time>2020-01-21T16:02:29Z</time>
      </trkpt>
      <trkpt lat="59.179221" lon="18.142849">
        <ele>38</ele>
        <time>2020-01-21T16:02:31Z</time>
      </trkpt>
      <trkpt lat="59.179283" lon="18.142895">
        <ele>38</ele>
        <time>2020-01-21T16:02:31Z</time>
      </trkpt>
      <trkpt lat="59.179343" lon="18.142945">
        <ele>38</ele>
        <time>2020-01-21T16:02:33Z</time>
      </trkpt>
      <trkpt lat="59.179404" lon="18.142996">
        <ele>38</ele>
        <time>2020-01-21T16:02:33Z</time>
      </trkpt>
      <trkpt lat="59.179463" lon="18.14305">
        <ele>38</ele>
        <time>2020-01-21T16:02:34Z</time>
      </trkpt>
      <trkpt lat="59.17952" lon="18.143105">
        <ele>38</ele>
        <time>2020-01-21T16:02:35Z</time>
      </trkpt>
      <trkpt lat="59.179574" lon="18.143161">
        <ele>38</ele>
        <time>2020-01-21T16:02:36Z</time>
      </trkpt>
      <trkpt lat="59.179627" lon="18.143218">
        <ele>38</ele>
        <time>2020-01-21T16:02:37Z</time>
      </trkpt>
      <trkpt lat="59.179677" lon="18.143273">
        <ele>38</ele>
        <time>2020-01-21T16:02:39Z</time>
      </trkpt>
      <trkpt lat="59.179726" lon="18.143326">
        <ele>38</ele>
        <time>2020-01-21T16:02:39Z</time>
      </trkpt>
      <trkpt lat="59.179775" lon="18.143378">
        <ele>38</ele>
        <time>2020-01-21T16:02:40Z</time>
      </trkpt>
      <trkpt lat="59.179815" lon="18.143431">
        <ele>38</ele>
        <time>2020-01-21T16:02:41Z</time>
      </trkpt>
      <trkpt lat="59.179853" lon="18.143478">
        <ele>38</ele>
        <time>2020-01-21T16:02:42Z</time>
      </trkpt>
      <trkpt lat="59.179891" lon="18.143522">
        <ele>38</ele>
        <time>2020-01-21T16:02:43Z</time>
      </trkpt>
      <trkpt lat="59.179921" lon="18.143563">
        <ele>38</ele>
        <time>2020-01-21T16:02:44Z</time>
      </trkpt>
      <trkpt lat="59.179942" lon="18.1436">
        <ele>38</ele>
        <time>2020-01-21T16:02:45Z</time>
      </trkpt>
      <trkpt lat="59.179953" lon="18.143644">
        <ele>38</ele>
        <time>2020-01-21T16:02:46Z</time>
      </trkpt>
      <trkpt lat="59.179959" lon="18.143697">
        <ele>38</ele>
        <time>2020-01-21T16:02:47Z</time>
      </trkpt>
      <trkpt lat="59.179971" lon="18.143757">
        <ele>38</ele>
        <time>2020-01-21T16:02:48Z</time>
      </trkpt>
      <trkpt lat="59.179992" lon="18.14382">
        <ele>38</ele>
        <time>2020-01-21T16:02:49Z</time>
      </trkpt>
      <trkpt lat="59.180018" lon="18.143883">
        <ele>38</ele>
        <time>2020-01-21T16:02:51Z</time>
      </trkpt>
      <trkpt lat="59.180051" lon="18.143936">
        <ele>38</ele>
        <time>2020-01-21T16:02:52Z</time>
      </trkpt>
      <trkpt lat="59.18009" lon="18.143978">
        <ele>38</ele>
        <time>2020-01-21T16:02:52Z</time>
      </trkpt>
      <trkpt lat="59.180132" lon="18.14402">
        <ele>38</ele>
        <time>2020-01-21T16:02:53Z</time>
      </trkpt>
      <trkpt lat="59.180174" lon="18.144064">
        <ele>38</ele>
        <time>2020-01-21T16:02:54Z</time>
      </trkpt>
      <trkpt lat="59.180217" lon="18.144112">
        <ele>38</ele>
        <time>2020-01-21T16:02:55Z</time>
      </trkpt>
      <trkpt lat="59.180261" lon="18.144164">
        <ele>38</ele>
        <time>2020-01-21T16:02:56Z</time>
      </trkpt>
      <trkpt lat="59.180305" lon="18.144218">
        <ele>38</ele>
        <time>2020-01-21T16:02:57Z</time>
      </trkpt>
      <trkpt lat="59.18035" lon="18.14427">
        <ele>39</ele>
        <time>2020-01-21T16:02:58Z</time>
      </trkpt>
      <trkpt lat="59.180394" lon="18.144324">
        <ele>39</ele>
        <time>2020-01-21T16:02:59Z</time>
      </trkpt>
      <trkpt lat="59.180439" lon="18.144378">
        <ele>39</ele>
        <time>2020-01-21T16:03:01Z</time>
      </trkpt>
      <trkpt lat="59.180484" lon="18.144432">
        <ele>39</ele>
        <time>2020-01-21T16:03:01Z</time>
      </trkpt>
      <trkpt lat="59.180528" lon="18.144486">
        <ele>39</ele>
        <time>2020-01-21T16:03:02Z</time>
      </trkpt>
      <trkpt lat="59.180569" lon="18.144545">
        <ele>39</ele>
        <time>2020-01-21T16:03:03Z</time>
      </trkpt>
      <trkpt lat="59.180607" lon="18.144609">
        <ele>39</ele>
        <time>2020-01-21T16:03:04Z</time>
      </trkpt>
      <trkpt lat="59.180644" lon="18.144674">
        <ele>39</ele>
        <time>2020-01-21T16:03:05Z</time>
      </trkpt>
      <trkpt lat="59.180682" lon="18.144735">
        <ele>39</ele>
        <time>2020-01-21T16:03:06Z</time>
      </trkpt>
      <trkpt lat="59.180725" lon="18.144792">
        <ele>39</ele>
        <time>2020-01-21T16:03:07Z</time>
      </trkpt>
      <trkpt lat="59.180771" lon="18.144842">
        <ele>39</ele>
        <time>2020-01-21T16:03:08Z</time>
      </trkpt>
      <trkpt lat="59.180819" lon="18.144888">
        <ele>39</ele>
        <time>2020-01-21T16:03:09Z</time>
      </trkpt>
      <trkpt lat="59.180864" lon="18.14494">
        <ele>0</ele>
        <time>2020-01-21T16:03:10Z</time>
      </trkpt>
      <trkpt lat="59.180907" lon="18.144996">
        <ele>39</ele>
        <time>2020-01-21T16:03:11Z</time>
      </trkpt>
      <trkpt lat="59.180951" lon="18.14505">
        <ele>40</ele>
        <time>2020-01-21T16:03:12Z</time>
      </trkpt>
      <trkpt lat="59.180996" lon="18.145099">
        <ele>40</ele>
        <time>2020-01-21T16:03:13Z</time>
      </trkpt>
      <trkpt lat="59.18104" lon="18.14515">
        <ele>41</ele>
        <time>2020-01-21T16:03:14Z</time>
      </trkpt>
      <trkpt lat="59.181086" lon="18.145196">
        <ele>41</ele>
        <time>2020-01-21T16:03:15Z</time>
      </trkpt>
      <trkpt lat="59.181132" lon="18.145238">
        <ele>41</ele>
        <time>2020-01-21T16:03:16Z</time>
      </trkpt>
      <trkpt lat="59.181179" lon="18.145282">
        <ele>41</ele>
        <time>2020-01-21T16:03:17Z</time>
      </trkpt>
      <trkpt lat="59.181225" lon="18.14533">
        <ele>41</ele>
        <time>2020-01-21T16:03:18Z</time>
      </trkpt>
      <trkpt lat="59.18127" lon="18.14538">
        <ele>41</ele>
        <time>2020-01-21T16:03:20Z</time>
      </trkpt>
      <trkpt lat="59.181315" lon="18.14543">
        <ele>41</ele>
        <time>2020-01-21T16:03:20Z</time>
      </trkpt>
      <trkpt lat="59.181361" lon="18.14548">
        <ele>41</ele>
        <time>2020-01-21T16:03:21Z</time>
      </trkpt>
      <trkpt lat="59.181406" lon="18.14553">
        <ele>41</ele>
        <time>2020-01-21T16:03:22Z</time>
      </trkpt>
      <trkpt lat="59.181451" lon="18.14558">
        <ele>41</ele>
        <time>2020-01-21T16:03:23Z</time>
      </trkpt>
      <trkpt lat="59.181499" lon="18.145632">
        <ele>41</ele>
        <time>2020-01-21T16:03:24Z</time>
      </trkpt>
      <trkpt lat="59.181547" lon="18.145684">
        <ele>41</ele>
        <time>2020-01-21T16:03:25Z</time>
      </trkpt>
      <trkpt lat="59.181597" lon="18.145738">
        <ele>41</ele>
        <time>2020-01-21T16:03:26Z</time>
      </trkpt>
      <trkpt lat="59.181647" lon="18.145795">
        <ele>41</ele>
        <time>2020-01-21T16:03:27Z</time>
      </trkpt>
      <trkpt lat="59.181699" lon="18.145856">
        <ele>41</ele>
        <time>2020-01-21T16:03:29Z</time>
      </trkpt>
      <trkpt lat="59.181753" lon="18.145918">
        <ele>41</ele>
        <time>2020-01-21T16:03:30Z</time>
      </trkpt>
      <trkpt lat="59.181809" lon="18.14598">
        <ele>41</ele>
        <time>2020-01-21T16:03:30Z</time>
      </trkpt>
      <trkpt lat="59.181866" lon="18.146042">
        <ele>42</ele>
        <time>2020-01-21T16:03:31Z</time>
      </trkpt>
      <trkpt lat="59.181924" lon="18.146106">
        <ele>42</ele>
        <time>2020-01-21T16:03:32Z</time>
      </trkpt>
      <trkpt lat="59.181983" lon="18.14617">
        <ele>42</ele>
        <time>2020-01-21T16:03:33Z</time>
      </trkpt>
      <trkpt lat="59.182039" lon="18.146238">
        <ele>42</ele>
        <time>2020-01-21T16:03:34Z</time>
      </trkpt>
      <trkpt lat="59.182097" lon="18.146306">
        <ele>42</ele>
        <time>2020-01-21T16:03:35Z</time>
      </trkpt>
      <trkpt lat="59.182155" lon="18.146372">
        <ele>42</ele>
        <time>2020-01-21T16:03:37Z</time>
      </trkpt>
      <trkpt lat="59.182214" lon="18.146436">
        <ele>42</ele>
        <time>2020-01-21T16:03:37Z</time>
      </trkpt>
      <trkpt lat="59.182274" lon="18.1465">
        <ele>42</ele>
        <time>2020-01-21T16:03:38Z</time>
      </trkpt>
      <trkpt lat="59.182332" lon="18.146565">
        <ele>42</ele>
        <time>2020-01-21T16:03:39Z</time>
      </trkpt>
      <trkpt lat="59.18239" lon="18.146631">
        <ele>42</ele>
        <time>2020-01-21T16:03:40Z</time>
      </trkpt>
      <trkpt lat="59.182449" lon="18.146692">
        <ele>42</ele>
        <time>2020-01-21T16:03:41Z</time>
      </trkpt>
      <trkpt lat="59.182509" lon="18.146744">
        <ele>42</ele>
        <time>2020-01-21T16:03:42Z</time>
      </trkpt>
      <trkpt lat="59.182567" lon="18.146804">
        <ele>42</ele>
        <time>2020-01-21T16:03:44Z</time>
      </trkpt>
      <trkpt lat="59.182624" lon="18.146864">
        <ele>42</ele>
        <time>2020-01-21T16:03:44Z</time>
      </trkpt>
      <trkpt lat="59.182685" lon="18.146914">
        <ele>42</ele>
        <time>2020-01-21T16:03:45Z</time>
      </trkpt>
      <trkpt lat="59.182747" lon="18.146959">
        <ele>42</ele>
        <time>2020-01-21T16:03:46Z</time>
      </trkpt>
      <trkpt lat="59.18281" lon="18.147004">
        <ele>42</ele>
        <time>2020-01-21T16:03:47Z</time>
      </trkpt>
      <trkpt lat="59.182875" lon="18.14704">
        <ele>42</ele>
        <time>2020-01-21T16:03:49Z</time>
      </trkpt>
      <trkpt lat="59.18294" lon="18.147068">
        <ele>42</ele>
        <time>2020-01-21T16:03:49Z</time>
      </trkpt>
      <trkpt lat="59.183004" lon="18.147094">
        <ele>42</ele>
        <time>2020-01-21T16:03:50Z</time>
      </trkpt>
      <trkpt lat="59.183068" lon="18.147114">
        <ele>42</ele>
        <time>2020-01-21T16:03:52Z</time>
      </trkpt>
      <trkpt lat="59.183129" lon="18.147132">
        <ele>42</ele>
        <time>2020-01-21T16:03:52Z</time>
      </trkpt>
      <trkpt lat="59.183189" lon="18.147154">
        <ele>42</ele>
        <time>2020-01-21T16:03:53Z</time>
      </trkpt>
      <trkpt lat="59.183243" lon="18.147174">
        <ele>42</ele>
        <time>2020-01-21T16:03:54Z</time>
      </trkpt>
      <trkpt lat="59.183287" lon="18.147186">
        <ele>42</ele>
        <time>2020-01-21T16:03:55Z</time>
      </trkpt>
      <trkpt lat="59.183324" lon="18.147194">
        <ele>42</ele>
        <time>2020-01-21T16:03:56Z</time>
      </trkpt>
      <trkpt lat="59.183361" lon="18.147212">
        <ele>42</ele>
        <time>2020-01-21T16:03:57Z</time>
      </trkpt>
      <trkpt lat="59.183394" lon="18.14724">
        <ele>42</ele>
        <time>2020-01-21T16:03:58Z</time>
      </trkpt>
      <trkpt lat="59.183428" lon="18.14728">
        <ele>42</ele>
        <time>2020-01-21T16:03:59Z</time>
      </trkpt>
      <trkpt lat="59.18347" lon="18.147304">
        <ele>42</ele>
        <time>2020-01-21T16:04:00Z</time>
      </trkpt>
      <trkpt lat="59.183517" lon="18.147312">
        <ele>42</ele>
        <time>2020-01-21T16:04:01Z</time>
      </trkpt>
      <trkpt lat="59.183566" lon="18.147309">
        <ele>42</ele>
        <time>2020-01-21T16:04:03Z</time>
      </trkpt>
      <trkpt lat="59.183613" lon="18.147287">
        <ele>42</ele>
        <time>2020-01-21T16:04:03Z</time>
      </trkpt>
      <trkpt lat="59.183663" lon="18.147256">
        <ele>42</ele>
        <time>2020-01-21T16:04:04Z</time>
      </trkpt>
      <trkpt lat="59.183717" lon="18.147237">
        <ele>41</ele>
        <time>2020-01-21T16:04:05Z</time>
      </trkpt>
      <trkpt lat="59.183774" lon="18.147227">
        <ele>41</ele>
        <time>2020-01-21T16:04:06Z</time>
      </trkpt>
      <trkpt lat="59.183833" lon="18.14722">
        <ele>41</ele>
        <time>2020-01-21T16:04:08Z</time>
      </trkpt>
      <trkpt lat="59.183894" lon="18.147214">
        <ele>41</ele>
        <time>2020-01-21T16:04:08Z</time>
      </trkpt>
      <trkpt lat="59.183955" lon="18.147207">
        <ele>41</ele>
        <time>2020-01-21T16:04:09Z</time>
      </trkpt>
      <trkpt lat="59.184017" lon="18.147196">
        <ele>40</ele>
        <time>2020-01-21T16:04:11Z</time>
      </trkpt>
      <trkpt lat="59.184082" lon="18.147184">
        <ele>40</ele>
        <time>2020-01-21T16:04:11Z</time>
      </trkpt>
      <trkpt lat="59.18415" lon="18.14717">
        <ele>39</ele>
        <time>2020-01-21T16:04:12Z</time>
      </trkpt>
      <trkpt lat="59.18422" lon="18.147156">
        <ele>39</ele>
        <time>2020-01-21T16:04:13Z</time>
      </trkpt>
      <trkpt lat="59.184292" lon="18.14714">
        <ele>38</ele>
        <time>2020-01-21T16:04:14Z</time>
      </trkpt>
      <trkpt lat="59.184366" lon="18.147124">
        <ele>38</ele>
        <time>2020-01-21T16:04:15Z</time>
      </trkpt>
      <trkpt lat="59.184442" lon="18.147107">
        <ele>38</ele>
        <time>2020-01-21T16:04:16Z</time>
      </trkpt>
      <trkpt lat="59.184518" lon="18.147089">
        <ele>37</ele>
        <time>2020-01-21T16:04:18Z</time>
      </trkpt>
      <trkpt lat="59.184597" lon="18.147071">
        <ele>37</ele>
        <time>2020-01-21T16:04:18Z</time>
      </trkpt>
      <trkpt lat="59.184677" lon="18.147051">
        <ele>37</ele>
        <time>2020-01-21T16:04:19Z</time>
      </trkpt>
      <trkpt lat="59.184757" lon="18.147033">
        <ele>36</ele>
        <time>2020-01-21T16:04:20Z</time>
      </trkpt>
      <trkpt lat="59.184836" lon="18.147012">
        <ele>36</ele>
        <time>2020-01-21T16:04:21Z</time>
      </trkpt>
      <trkpt lat="59.184913" lon="18.14698">
        <ele>36</ele>
        <time>2020-01-21T16:04:22Z</time>
      </trkpt>
      <trkpt lat="59.184987" lon="18.146932">
        <ele>36</ele>
        <time>2020-01-21T16:04:23Z</time>
      </trkpt>
      <trkpt lat="59.185055" lon="18.146875">
        <ele>35</ele>
        <time>2020-01-21T16:04:25Z</time>
      </trkpt>
      <trkpt lat="59.185118" lon="18.146819">
        <ele>35</ele>
        <time>2020-01-21T16:04:25Z</time>
      </trkpt>
      <trkpt lat="59.185177" lon="18.146768">
        <ele>35</ele>
        <time>2020-01-21T16:04:27Z</time>
      </trkpt>
      <trkpt lat="59.185231" lon="18.146731">
        <ele>34</ele>
        <time>2020-01-21T16:04:27Z</time>
      </trkpt>
      <trkpt lat="59.185282" lon="18.146716">
        <ele>34</ele>
        <time>2020-01-21T16:04:28Z</time>
      </trkpt>
      <trkpt lat="59.185331" lon="18.14673">
        <ele>34</ele>
        <time>2020-01-21T16:04:29Z</time>
      </trkpt>
      <trkpt lat="59.18537" lon="18.146776">
        <ele>33</ele>
        <time>2020-01-21T16:04:30Z</time>
      </trkpt>
      <trkpt lat="59.185402" lon="18.146845">
        <ele>33</ele>
        <time>2020-01-21T16:04:31Z</time>
      </trkpt>
      <trkpt lat="59.185438" lon="18.146901">
        <ele>32</ele>
        <time>2020-01-21T16:04:32Z</time>
      </trkpt>
      <trkpt lat="59.185484" lon="18.146925">
        <ele>32</ele>
        <time>2020-01-21T16:04:34Z</time>
      </trkpt>
      <trkpt lat="59.185537" lon="18.146921">
        <ele>32</ele>
        <time>2020-01-21T16:04:34Z</time>
      </trkpt>
      <trkpt lat="59.185592" lon="18.146909">
        <ele>32</ele>
        <time>2020-01-21T16:04:35Z</time>
      </trkpt>
      <trkpt lat="59.185651" lon="18.146898">
        <ele>32</ele>
        <time>2020-01-21T16:04:36Z</time>
      </trkpt>
      <trkpt lat="59.185712" lon="18.146887">
        <ele>32</ele>
        <time>2020-01-21T16:04:37Z</time>
      </trkpt>
      <trkpt lat="59.185774" lon="18.14688">
        <ele>32</ele>
        <time>2020-01-21T16:04:38Z</time>
      </trkpt>
      <trkpt lat="59.185834" lon="18.146871">
        <ele>32</ele>
        <time>2020-01-21T16:04:39Z</time>
      </trkpt>
      <trkpt lat="59.185894" lon="18.146854">
        <ele>32</ele>
        <time>2020-01-21T16:04:40Z</time>
      </trkpt>
      <trkpt lat="59.185953" lon="18.146836">
        <ele>31</ele>
        <time>2020-01-21T16:04:42Z</time>
      </trkpt>
      <trkpt lat="59.186013" lon="18.146826">
        <ele>31</ele>
        <time>2020-01-21T16:04:42Z</time>
      </trkpt>
      <trkpt lat="59.186075" lon="18.146821">
        <ele>31</ele>
        <time>2020-01-21T16:04:43Z</time>
      </trkpt>
      <trkpt lat="59.186138" lon="18.146818">
        <ele>31</ele>
        <time>2020-01-21T16:04:44Z</time>
      </trkpt>
      <trkpt lat="59.186201" lon="18.14681">
        <ele>31</ele>
        <time>2020-01-21T16:04:46Z</time>
      </trkpt>
      <trkpt lat="59.186265" lon="18.146795">
        <ele>31</ele>
        <time>2020-01-21T16:04:46Z</time>
      </trkpt>
      <trkpt lat="59.186327" lon="18.146773">
        <ele>31</ele>
        <time>2020-01-21T16:04:47Z</time>
      </trkpt>
      <trkpt lat="59.186389" lon="18.14675">
        <ele>31</ele>
        <time>2020-01-21T16:04:48Z</time>
      </trkpt>
      <trkpt lat="59.18645" lon="18.146732">
        <ele>31</ele>
        <time>2020-01-21T16:04:50Z</time>
      </trkpt>
      <trkpt lat="59.186514" lon="18.146716">
        <ele>30</ele>
        <time>2020-01-21T16:04:50Z</time>
      </trkpt>
      <trkpt lat="59.186578" lon="18.146702">
        <ele>30</ele>
        <time>2020-01-21T16:04:51Z</time>
      </trkpt>
      <trkpt lat="59.186642" lon="18.146691">
        <ele>30</ele>
        <time>2020-01-21T16:04:52Z</time>
      </trkpt>
      <trkpt lat="59.186707" lon="18.146679">
        <ele>30</ele>
        <time>2020-01-21T16:04:53Z</time>
      </trkpt>
      <trkpt lat="59.186772" lon="18.146665">
        <ele>30</ele>
        <time>2020-01-21T16:04:54Z</time>
      </trkpt>
      <trkpt lat="59.186837" lon="18.14665">
        <ele>30</ele>
        <time>2020-01-21T16:04:55Z</time>
      </trkpt>
      <trkpt lat="59.186901" lon="18.146636">
        <ele>30</ele>
        <time>2020-01-21T16:04:56Z</time>
      </trkpt>
      <trkpt lat="59.186966" lon="18.14662">
        <ele>29</ele>
        <time>2020-01-21T16:04:58Z</time>
      </trkpt>
      <trkpt lat="59.187031" lon="18.146602">
        <ele>29</ele>
        <time>2020-01-21T16:04:58Z</time>
      </trkpt>
      <trkpt lat="59.187097" lon="18.146586">
        <ele>29</ele>
        <time>2020-01-21T16:04:59Z</time>
      </trkpt>
      <trkpt lat="59.187163" lon="18.146571">
        <ele>29</ele>
        <time>2020-01-21T16:05:00Z</time>
      </trkpt>
      <trkpt lat="59.187229" lon="18.146557">
        <ele>28</ele>
        <time>2020-01-21T16:05:01Z</time>
      </trkpt>
      <trkpt lat="59.187294" lon="18.146542">
        <ele>28</ele>
        <time>2020-01-21T16:05:02Z</time>
      </trkpt>
      <trkpt lat="59.187361" lon="18.146525">
        <ele>28</ele>
        <time>2020-01-21T16:05:03Z</time>
      </trkpt>
      <trkpt lat="59.187429" lon="18.146505">
        <ele>28</ele>
        <time>2020-01-21T16:05:05Z</time>
      </trkpt>
      <trkpt lat="59.187496" lon="18.146485">
        <ele>28</ele>
        <time>2020-01-21T16:05:05Z</time>
      </trkpt>
      <trkpt lat="59.187563" lon="18.14646">
        <ele>28</ele>
        <time>2020-01-21T16:05:06Z</time>
      </trkpt>
      <trkpt lat="59.187626" lon="18.146428">
        <ele>28</ele>
        <time>2020-01-21T16:05:07Z</time>
      </trkpt>
      <trkpt lat="59.187688" lon="18.146391">
        <ele>28</ele>
        <time>2020-01-21T16:05:08Z</time>
      </trkpt>
      <trkpt lat="59.187748" lon="18.14635">
        <ele>28</ele>
        <time>2020-01-21T16:05:09Z</time>
      </trkpt>
      <trkpt lat="59.187808" lon="18.146306">
        <ele>28</ele>
        <time>2020-01-21T16:05:10Z</time>
      </trkpt>
      <trkpt lat="59.187866" lon="18.146262">
        <ele>28</ele>
        <time>2020-01-21T16:05:11Z</time>
      </trkpt>
      <trkpt lat="59.187924" lon="18.146217">
        <ele>28</ele>
        <time>2020-01-21T16:05:13Z</time>
      </trkpt>
      <trkpt lat="59.187982" lon="18.14617">
        <ele>28</ele>
        <time>2020-01-21T16:05:13Z</time>
      </trkpt>
      <trkpt lat="59.188038" lon="18.146123">
        <ele>28</ele>
        <time>2020-01-21T16:05:14Z</time>
      </trkpt>
      <trkpt lat="59.188096" lon="18.146081">
        <ele>28</ele>
        <time>2020-01-21T16:05:15Z</time>
      </trkpt>
      <trkpt lat="59.188152" lon="18.146044">
        <ele>28</ele>
        <time>2020-01-21T16:05:16Z</time>
      </trkpt>
      <trkpt lat="59.188208" lon="18.146003">
        <ele>28</ele>
        <time>2020-01-21T16:05:17Z</time>
      </trkpt>
      <trkpt lat="59.188261" lon="18.145969">
        <ele>28</ele>
        <time>2020-01-21T16:05:18Z</time>
      </trkpt>
      <trkpt lat="59.188314" lon="18.145933">
        <ele>28</ele>
        <time>2020-01-21T16:05:19Z</time>
      </trkpt>
      <trkpt lat="59.188366" lon="18.145894">
        <ele>28</ele>
        <time>2020-01-21T16:05:20Z</time>
      </trkpt>
      <trkpt lat="59.188418" lon="18.145856">
        <ele>29</ele>
        <time>2020-01-21T16:05:22Z</time>
      </trkpt>
      <trkpt lat="59.18847" lon="18.145819">
        <ele>29</ele>
        <time>2020-01-21T16:05:22Z</time>
      </trkpt>
      <trkpt lat="59.18852" lon="18.145781">
        <ele>29</ele>
        <time>2020-01-21T16:05:24Z</time>
      </trkpt>
      <trkpt lat="59.18857" lon="18.145743">
        <ele>29</ele>
        <time>2020-01-21T16:05:24Z</time>
      </trkpt>
      <trkpt lat="59.188618" lon="18.145703">
        <ele>29</ele>
        <time>2020-01-21T16:05:25Z</time>
      </trkpt>
      <trkpt lat="59.188667" lon="18.145656">
        <ele>29</ele>
        <time>2020-01-21T16:05:26Z</time>
      </trkpt>
      <trkpt lat="59.188716" lon="18.145605">
        <ele>29</ele>
        <time>2020-01-21T16:05:27Z</time>
      </trkpt>
      <trkpt lat="59.188762" lon="18.14555">
        <ele>29</ele>
        <time>2020-01-21T16:05:28Z</time>
      </trkpt>
      <trkpt lat="59.188807" lon="18.145492">
        <ele>29</ele>
        <time>2020-01-21T16:05:29Z</time>
      </trkpt>
      <trkpt lat="59.188852" lon="18.145432">
        <ele>29</ele>
        <time>2020-01-21T16:05:30Z</time>
      </trkpt>
      <trkpt lat="59.188897" lon="18.145371">
        <ele>29</ele>
        <time>2020-01-21T16:05:32Z</time>
      </trkpt>
      <trkpt lat="59.188944" lon="18.14531">
        <ele>29</ele>
        <time>2020-01-21T16:05:32Z</time>
      </trkpt>
      <trkpt lat="59.188988" lon="18.145247">
        <ele>30</ele>
        <time>2020-01-21T16:05:33Z</time>
      </trkpt>
      <trkpt lat="59.189029" lon="18.145182">
        <ele>30</ele>
        <time>2020-01-21T16:05:34Z</time>
      </trkpt>
      <trkpt lat="59.18907" lon="18.145116">
        <ele>30</ele>
        <time>2020-01-21T16:05:35Z</time>
      </trkpt>
      <trkpt lat="59.189109" lon="18.14505">
        <ele>30</ele>
        <time>2020-01-21T16:05:36Z</time>
      </trkpt>
      <trkpt lat="59.18915" lon="18.144983">
        <ele>30</ele>
        <time>2020-01-21T16:05:37Z</time>
      </trkpt>
      <trkpt lat="59.189198" lon="18.144922">
        <ele>30</ele>
        <time>2020-01-21T16:05:38Z</time>
      </trkpt>
      <trkpt lat="59.189246" lon="18.144863">
        <ele>30</ele>
        <time>2020-01-21T16:05:40Z</time>
      </trkpt>
      <trkpt lat="59.189298" lon="18.144802">
        <ele>30</ele>
        <time>2020-01-21T16:05:40Z</time>
      </trkpt>
      <trkpt lat="59.189353" lon="18.144745">
        <ele>30</ele>
        <time>2020-01-21T16:05:41Z</time>
      </trkpt>
      <trkpt lat="59.189404" lon="18.144691">
        <ele>30</ele>
        <time>2020-01-21T16:05:43Z</time>
      </trkpt>
      <trkpt lat="59.189458" lon="18.14464">
        <ele>30</ele>
        <time>2020-01-21T16:05:43Z</time>
      </trkpt>
      <trkpt lat="59.189517" lon="18.144592">
        <ele>30</ele>
        <time>2020-01-21T16:05:44Z</time>
      </trkpt>
      <trkpt lat="59.189578" lon="18.14455">
        <ele>30</ele>
        <time>2020-01-21T16:05:45Z</time>
      </trkpt>
      <trkpt lat="59.189642" lon="18.144512">
        <ele>30</ele>
        <time>2020-01-21T16:05:46Z</time>
      </trkpt>
      <trkpt lat="59.189708" lon="18.144472">
        <ele>29</ele>
        <time>2020-01-21T16:05:48Z</time>
      </trkpt>
      <trkpt lat="59.189775" lon="18.144435">
        <ele>29</ele>
        <time>2020-01-21T16:05:48Z</time>
      </trkpt>
      <trkpt lat="59.189844" lon="18.144401">
        <ele>29</ele>
        <time>2020-01-21T16:05:49Z</time>
      </trkpt>
      <trkpt lat="59.189913" lon="18.144374">
        <ele>29</ele>
        <time>2020-01-21T16:05:50Z</time>
      </trkpt>
      <trkpt lat="59.189974" lon="18.14432">
        <ele>29</ele>
        <time>2020-01-21T16:05:51Z</time>
      </trkpt>
      <trkpt lat="59.190034" lon="18.144259">
        <ele>29</ele>
        <time>2020-01-21T16:05:52Z</time>
      </trkpt>
      <trkpt lat="59.190099" lon="18.144207">
        <ele>29</ele>
        <time>2020-01-21T16:05:53Z</time>
      </trkpt>
      <trkpt lat="59.190162" lon="18.144166">
        <ele>29</ele>
        <time>2020-01-21T16:05:55Z</time>
      </trkpt>
      <trkpt lat="59.190234" lon="18.144149">
        <ele>29</ele>
        <time>2020-01-21T16:05:55Z</time>
      </trkpt>
      <trkpt lat="59.190306" lon="18.144158">
        <ele>29</ele>
        <time>2020-01-21T16:05:56Z</time>
      </trkpt>
      <trkpt lat="59.190388" lon="18.144205">
        <ele>29</ele>
        <time>2020-01-21T16:05:57Z</time>
      </trkpt>
      <trkpt lat="59.190465" lon="18.14422">
        <ele>29</ele>
        <time>2020-01-21T16:05:58Z</time>
      </trkpt>
      <trkpt lat="59.190532" lon="18.144213">
        <ele>29</ele>
        <time>2020-01-21T16:05:59Z</time>
      </trkpt>
      <trkpt lat="59.190587" lon="18.144197">
        <ele>30</ele>
        <time>2020-01-21T16:06:00Z</time>
      </trkpt>
      <trkpt lat="59.19064" lon="18.144182">
        <ele>30</ele>
        <time>2020-01-21T16:06:02Z</time>
      </trkpt>
      <trkpt lat="59.190697" lon="18.144181">
        <ele>30</ele>
        <time>2020-01-21T16:06:03Z</time>
      </trkpt>
      <trkpt lat="59.19075" lon="18.144194">
        <ele>30</ele>
        <time>2020-01-21T16:06:03Z</time>
      </trkpt>
      <trkpt lat="59.190801" lon="18.144199">
        <ele>30</ele>
        <time>2020-01-21T16:06:04Z</time>
      </trkpt>
      <trkpt lat="59.190851" lon="18.1442">
        <ele>30</ele>
        <time>2020-01-21T16:06:05Z</time>
      </trkpt>
      <trkpt lat="59.190895" lon="18.144203">
        <ele>30</ele>
        <time>2020-01-21T16:06:06Z</time>
      </trkpt>
      <trkpt lat="59.190941" lon="18.144201">
        <ele>31</ele>
        <time>2020-01-21T16:06:07Z</time>
      </trkpt>
      <trkpt lat="59.19099" lon="18.144185">
        <ele>32</ele>
        <time>2020-01-21T16:06:08Z</time>
      </trkpt>
      <trkpt lat="59.191034" lon="18.144179">
        <ele>32</ele>
        <time>2020-01-21T16:06:09Z</time>
      </trkpt>
      <trkpt lat="59.191079" lon="18.144167">
        <ele>32</ele>
        <time>2020-01-21T16:06:10Z</time>
      </trkpt>
      <trkpt lat="59.191121" lon="18.144161">
        <ele>33</ele>
        <time>2020-01-21T16:06:11Z</time>
      </trkpt>
      <trkpt lat="59.191161" lon="18.144146">
        <ele>33</ele>
        <time>2020-01-21T16:06:12Z</time>
      </trkpt>
      <trkpt lat="59.1912" lon="18.144135">
        <ele>33</ele>
        <time>2020-01-21T16:06:14Z</time>
      </trkpt>
      <trkpt lat="59.191234" lon="18.14412">
        <ele>34</ele>
        <time>2020-01-21T16:06:14Z</time>
      </trkpt>
      <trkpt lat="59.191266" lon="18.144108">
        <ele>34</ele>
        <time>2020-01-21T16:06:15Z</time>
      </trkpt>
      <trkpt lat="59.191299" lon="18.144091">
        <ele>34</ele>
        <time>2020-01-21T16:06:16Z</time>
      </trkpt>
      <trkpt lat="59.191331" lon="18.144078">
        <ele>34</ele>
        <time>2020-01-21T16:06:17Z</time>
      </trkpt>
      <trkpt lat="59.191364" lon="18.144066">
        <ele>34</ele>
        <time>2020-01-21T16:06:18Z</time>
      </trkpt>
      <trkpt lat="59.191396" lon="18.144057">
        <ele>35</ele>
        <time>2020-01-21T16:06:19Z</time>
      </trkpt>
      <trkpt lat="59.191427" lon="18.144043">
        <ele>35</ele>
        <time>2020-01-21T16:06:21Z</time>
      </trkpt>
      <trkpt lat="59.191459" lon="18.144032">
        <ele>35</ele>
        <time>2020-01-21T16:06:21Z</time>
      </trkpt>
      <trkpt lat="59.19149" lon="18.144018">
        <ele>35</ele>
        <time>2020-01-21T16:06:22Z</time>
      </trkpt>
      <trkpt lat="59.191521" lon="18.144005">
        <ele>36</ele>
        <time>2020-01-21T16:06:23Z</time>
      </trkpt>
      <trkpt lat="59.191554" lon="18.143988">
        <ele>36</ele>
        <time>2020-01-21T16:06:24Z</time>
      </trkpt>
      <trkpt lat="59.191586" lon="18.143971">
        <ele>36</ele>
        <time>2020-01-21T16:06:25Z</time>
      </trkpt>
      <trkpt lat="59.191615" lon="18.143956">
        <ele>36</ele>
        <time>2020-01-21T16:06:26Z</time>
      </trkpt>
      <trkpt lat="59.191644" lon="18.143943">
        <ele>36</ele>
        <time>2020-01-21T16:06:27Z</time>
      </trkpt>
      <trkpt lat="59.191673" lon="18.143926">
        <ele>36</ele>
        <time>2020-01-21T16:06:29Z</time>
      </trkpt>
      <trkpt lat="59.191704" lon="18.143907">
        <ele>36</ele>
        <time>2020-01-21T16:06:29Z</time>
      </trkpt>
      <trkpt lat="59.191737" lon="18.143884">
        <ele>37</ele>
        <time>2020-01-21T16:06:30Z</time>
      </trkpt>
      <trkpt lat="59.19177" lon="18.143858">
        <ele>37</ele>
        <time>2020-01-21T16:06:31Z</time>
      </trkpt>
      <trkpt lat="59.191797" lon="18.143833">
        <ele>37</ele>
        <time>2020-01-21T16:06:32Z</time>
      </trkpt>
      <trkpt lat="59.191826" lon="18.143808">
        <ele>37</ele>
        <time>2020-01-21T16:06:33Z</time>
      </trkpt>
      <trkpt lat="59.191857" lon="18.143783">
        <ele>37</ele>
        <time>2020-01-21T16:06:34Z</time>
      </trkpt>
      <trkpt lat="59.191887" lon="18.143757">
        <ele>38</ele>
        <time>2020-01-21T16:06:35Z</time>
      </trkpt>
      <trkpt lat="59.191919" lon="18.14373">
        <ele>38</ele>
        <time>2020-01-21T16:06:36Z</time>
      </trkpt>
      <trkpt lat="59.191952" lon="18.143702">
        <ele>38</ele>
        <time>2020-01-21T16:06:37Z</time>
      </trkpt>
      <trkpt lat="59.191984" lon="18.143674">
        <ele>38</ele>
        <time>2020-01-21T16:06:38Z</time>
      </trkpt>
      <trkpt lat="59.192018" lon="18.143643">
        <ele>38</ele>
        <time>2020-01-21T16:06:40Z</time>
      </trkpt>
      <trkpt lat="59.192052" lon="18.143607">
        <ele>38</ele>
        <time>2020-01-21T16:06:40Z</time>
      </trkpt>
      <trkpt lat="59.192086" lon="18.143571">
        <ele>38</ele>
        <time>2020-01-21T16:06:41Z</time>
      </trkpt>
      <trkpt lat="59.19212" lon="18.143534">
        <ele>37</ele>
        <time>2020-01-21T16:06:43Z</time>
      </trkpt>
      <trkpt lat="59.192153" lon="18.143499">
        <ele>37</ele>
        <time>2020-01-21T16:06:43Z</time>
      </trkpt>
      <trkpt lat="59.192186" lon="18.143462">
        <ele>37</ele>
        <time>2020-01-21T16:06:44Z</time>
      </trkpt>
      <trkpt lat="59.192217" lon="18.143428">
        <ele>37</ele>
        <time>2020-01-21T16:06:45Z</time>
      </trkpt>
      <trkpt lat="59.192248" lon="18.143395">
        <ele>37</ele>
        <time>2020-01-21T16:06:46Z</time>
      </trkpt>
      <trkpt lat="59.192279" lon="18.143363">
        <ele>38</ele>
        <time>2020-01-21T16:06:47Z</time>
      </trkpt>
      <trkpt lat="59.192309" lon="18.143331">
        <ele>38</ele>
        <time>2020-01-21T16:06:48Z</time>
      </trkpt>
      <trkpt lat="59.192338" lon="18.1433">
        <ele>38</ele>
        <time>2020-01-21T16:06:49Z</time>
      </trkpt>
      <trkpt lat="59.192368" lon="18.143268">
        <ele>38</ele>
        <time>2020-01-21T16:06:50Z</time>
      </trkpt>
      <trkpt lat="59.192398" lon="18.143234">
        <ele>38</ele>
        <time>2020-01-21T16:06:51Z</time>
      </trkpt>
      <trkpt lat="59.192428" lon="18.143201">
        <ele>38</ele>
        <time>2020-01-21T16:06:52Z</time>
      </trkpt>
      <trkpt lat="59.19246" lon="18.143167">
        <ele>38</ele>
        <time>2020-01-21T16:06:53Z</time>
      </trkpt>
      <trkpt lat="59.19249" lon="18.143135">
        <ele>38</ele>
        <time>2020-01-21T16:06:54Z</time>
      </trkpt>
      <trkpt lat="59.19252" lon="18.143104">
        <ele>38</ele>
        <time>2020-01-21T16:06:56Z</time>
      </trkpt>
      <trkpt lat="59.192551" lon="18.143072">
        <ele>38</ele>
        <time>2020-01-21T16:06:57Z</time>
      </trkpt>
      <trkpt lat="59.192582" lon="18.143041">
        <ele>39</ele>
        <time>2020-01-21T16:06:57Z</time>
      </trkpt>
      <trkpt lat="59.192612" lon="18.143012">
        <ele>39</ele>
        <time>2020-01-21T16:06:59Z</time>
      </trkpt>
      <trkpt lat="59.192643" lon="18.142981">
        <ele>39</ele>
        <time>2020-01-21T16:06:59Z</time>
      </trkpt>
      <trkpt lat="59.192674" lon="18.14295">
        <ele>39</ele>
        <time>2020-01-21T16:07:00Z</time>
      </trkpt>
      <trkpt lat="59.192706" lon="18.142919">
        <ele>39</ele>
        <time>2020-01-21T16:07:01Z</time>
      </trkpt>
      <trkpt lat="59.192738" lon="18.142886">
        <ele>39</ele>
        <time>2020-01-21T16:07:02Z</time>
      </trkpt>
      <trkpt lat="59.192771" lon="18.142851">
        <ele>39</ele>
        <time>2020-01-21T16:07:03Z</time>
      </trkpt>
      <trkpt lat="59.192804" lon="18.142816">
        <ele>39</ele>
        <time>2020-01-21T16:07:04Z</time>
      </trkpt>
      <trkpt lat="59.192838" lon="18.14278">
        <ele>39</ele>
        <time>2020-01-21T16:07:05Z</time>
      </trkpt>
      <trkpt lat="59.192872" lon="18.142746">
        <ele>40</ele>
        <time>2020-01-21T16:07:06Z</time>
      </trkpt>
      <trkpt lat="59.192905" lon="18.142711">
        <ele>40</ele>
        <time>2020-01-21T16:07:07Z</time>
      </trkpt>
      <trkpt lat="59.192938" lon="18.142678">
        <ele>40</ele>
        <time>2020-01-21T16:07:09Z</time>
      </trkpt>
      <trkpt lat="59.192971" lon="18.142646">
        <ele>40</ele>
        <time>2020-01-21T16:07:09Z</time>
      </trkpt>
      <trkpt lat="59.193002" lon="18.142612">
        <ele>41</ele>
        <time>2020-01-21T16:07:11Z</time>
      </trkpt>
      <trkpt lat="59.193034" lon="18.142574">
        <ele>41</ele>
        <time>2020-01-21T16:07:11Z</time>
      </trkpt>
      <trkpt lat="59.193068" lon="18.142538">
        <ele>41</ele>
        <time>2020-01-21T16:07:12Z</time>
      </trkpt>
      <trkpt lat="59.193102" lon="18.142502">
        <ele>41</ele>
        <time>2020-01-21T16:07:13Z</time>
      </trkpt>
      <trkpt lat="59.193136" lon="18.142469">
        <ele>42</ele>
        <time>2020-01-21T16:07:14Z</time>
      </trkpt>
      <trkpt lat="59.193169" lon="18.142439">
        <ele>42</ele>
        <time>2020-01-21T16:07:15Z</time>
      </trkpt>
      <trkpt lat="59.193203" lon="18.142413">
        <ele>42</ele>
        <time>2020-01-21T16:07:16Z</time>
      </trkpt>
      <trkpt lat="59.193238" lon="18.142387">
        <ele>42</ele>
        <time>2020-01-21T16:07:18Z</time>
      </trkpt>
      <trkpt lat="59.193276" lon="18.142362">
        <ele>43</ele>
        <time>2020-01-21T16:07:18Z</time>
      </trkpt>
      <trkpt lat="59.193316" lon="18.142335">
        <ele>43</ele>
        <time>2020-01-21T16:07:19Z</time>
      </trkpt>
      <trkpt lat="59.193356" lon="18.142308">
        <ele>43</ele>
        <time>2020-01-21T16:07:20Z</time>
      </trkpt>
      <trkpt lat="59.193397" lon="18.142279">
        <ele>43</ele>
        <time>2020-01-21T16:07:21Z</time>
      </trkpt>
      <trkpt lat="59.193438" lon="18.142245">
        <ele>43</ele>
        <time>2020-01-21T16:07:22Z</time>
      </trkpt>
      <trkpt lat="59.193479" lon="18.142208">
        <ele>43</ele>
        <time>2020-01-21T16:07:24Z</time>
      </trkpt>
      <trkpt lat="59.193519" lon="18.142171">
        <ele>43</ele>
        <time>2020-01-21T16:07:24Z</time>
      </trkpt>
      <trkpt lat="59.19356" lon="18.142135">
        <ele>43</ele>
        <time>2020-01-21T16:07:25Z</time>
      </trkpt>
      <trkpt lat="59.193601" lon="18.142098">
        <ele>43</ele>
        <time>2020-01-21T16:07:26Z</time>
      </trkpt>
      <trkpt lat="59.193641" lon="18.142059">
        <ele>43</ele>
        <time>2020-01-21T16:07:27Z</time>
      </trkpt>
      <trkpt lat="59.193681" lon="18.142021">
        <ele>43</ele>
        <time>2020-01-21T16:07:28Z</time>
      </trkpt>
      <trkpt lat="59.193722" lon="18.141979">
        <ele>43</ele>
        <time>2020-01-21T16:07:29Z</time>
      </trkpt>
      <trkpt lat="59.193764" lon="18.141939">
        <ele>43</ele>
        <time>2020-01-21T16:07:30Z</time>
      </trkpt>
      <trkpt lat="59.193806" lon="18.141897">
        <ele>43</ele>
        <time>2020-01-21T16:07:31Z</time>
      </trkpt>
      <trkpt lat="59.193849" lon="18.141855">
        <ele>43</ele>
        <time>2020-01-21T16:07:32Z</time>
      </trkpt>
      <trkpt lat="59.193893" lon="18.141812">
        <ele>43</ele>
        <time>2020-01-21T16:07:34Z</time>
      </trkpt>
      <trkpt lat="59.193939" lon="18.141769">
        <ele>43</ele>
        <time>2020-01-21T16:07:34Z</time>
      </trkpt>
      <trkpt lat="59.193985" lon="18.141728">
        <ele>43</ele>
        <time>2020-01-21T16:07:35Z</time>
      </trkpt>
      <trkpt lat="59.194032" lon="18.141687">
        <ele>43</ele>
        <time>2020-01-21T16:07:37Z</time>
      </trkpt>
      <trkpt lat="59.194081" lon="18.141646">
        <ele>43</ele>
        <time>2020-01-21T16:07:37Z</time>
      </trkpt>
      <trkpt lat="59.19413" lon="18.141603">
        <ele>43</ele>
        <time>2020-01-21T16:07:38Z</time>
      </trkpt>
      <trkpt lat="59.19418" lon="18.14156">
        <ele>43</ele>
        <time>2020-01-21T16:07:39Z</time>
      </trkpt>
      <trkpt lat="59.19423" lon="18.141516">
        <ele>43</ele>
        <time>2020-01-21T16:07:40Z</time>
      </trkpt>
      <trkpt lat="59.19428" lon="18.141471">
        <ele>43</ele>
        <time>2020-01-21T16:07:41Z</time>
      </trkpt>
      <trkpt lat="59.194331" lon="18.141425">
        <ele>43</ele>
        <time>2020-01-21T16:07:42Z</time>
      </trkpt>
      <trkpt lat="59.194382" lon="18.141377">
        <ele>43</ele>
        <time>2020-01-21T16:07:44Z</time>
      </trkpt>
      <trkpt lat="59.194433" lon="18.141327">
        <ele>43</ele>
        <time>2020-01-21T16:07:44Z</time>
      </trkpt>
      <trkpt lat="59.194484" lon="18.141277">
        <ele>43</ele>
        <time>2020-01-21T16:07:45Z</time>
      </trkpt>
      <trkpt lat="59.194533" lon="18.141229">
        <ele>43</ele>
        <time>2020-01-21T16:07:46Z</time>
      </trkpt>
      <trkpt lat="59.194586" lon="18.141183">
        <ele>43</ele>
        <time>2020-01-21T16:07:47Z</time>
      </trkpt>
      <trkpt lat="59.194642" lon="18.141136">
        <ele>43</ele>
        <time>2020-01-21T16:07:48Z</time>
      </trkpt>
      <trkpt lat="59.194696" lon="18.141086">
        <ele>43</ele>
        <time>2020-01-21T16:07:49Z</time>
      </trkpt>
      <trkpt lat="59.19475" lon="18.141035">
        <ele>43</ele>
        <time>2020-01-21T16:07:50Z</time>
      </trkpt>
      <trkpt lat="59.194814" lon="18.140976">
        <ele>43</ele>
        <time>2020-01-21T16:07:52Z</time>
      </trkpt>
      <trkpt lat="59.194882" lon="18.140916">
        <ele>43</ele>
        <time>2020-01-21T16:07:52Z</time>
      </trkpt>
      <trkpt lat="59.194946" lon="18.140861">
        <ele>43</ele>
        <time>2020-01-21T16:07:53Z</time>
      </trkpt>
      <trkpt lat="59.195009" lon="18.14081">
        <ele>43</ele>
        <time>2020-01-21T16:07:54Z</time>
      </trkpt>
      <trkpt lat="59.195081" lon="18.140765">
        <ele>43</ele>
        <time>2020-01-21T16:07:56Z</time>
      </trkpt>
      <trkpt lat="59.195161" lon="18.140735">
        <ele>43</ele>
        <time>2020-01-21T16:07:56Z</time>
      </trkpt>
      <trkpt lat="59.195244" lon="18.140719">
        <ele>42</ele>
        <time>2020-01-21T16:07:58Z</time>
      </trkpt>
      <trkpt lat="59.195326" lon="18.140714">
        <ele>42</ele>
        <time>2020-01-21T16:07:58Z</time>
      </trkpt>
      <trkpt lat="59.19541" lon="18.140714">
        <ele>42</ele>
        <time>2020-01-21T16:07:59Z</time>
      </trkpt>
      <trkpt lat="59.195493" lon="18.140719">
        <ele>41</ele>
        <time>2020-01-21T16:08:00Z</time>
      </trkpt>
      <trkpt lat="59.195577" lon="18.14073">
        <ele>41</ele>
        <time>2020-01-21T16:08:01Z</time>
      </trkpt>
      <trkpt lat="59.195662" lon="18.140744">
        <ele>41</ele>
        <time>2020-01-21T16:08:02Z</time>
      </trkpt>
      <trkpt lat="59.195747" lon="18.14076">
        <ele>41</ele>
        <time>2020-01-21T16:08:03Z</time>
      </trkpt>
      <trkpt lat="59.195831" lon="18.140776">
        <ele>40</ele>
        <time>2020-01-21T16:08:05Z</time>
      </trkpt>
      <trkpt lat="59.195914" lon="18.140792">
        <ele>40</ele>
        <time>2020-01-21T16:08:05Z</time>
      </trkpt>
      <trkpt lat="59.195997" lon="18.140808">
        <ele>39</ele>
        <time>2020-01-21T16:08:06Z</time>
      </trkpt>
      <trkpt lat="59.196082" lon="18.140826">
        <ele>39</ele>
        <time>2020-01-21T16:08:07Z</time>
      </trkpt>
      <trkpt lat="59.196166" lon="18.140846">
        <ele>39</ele>
        <time>2020-01-21T16:08:08Z</time>
      </trkpt>
      <trkpt lat="59.19625" lon="18.140871">
        <ele>39</ele>
        <time>2020-01-21T16:08:10Z</time>
      </trkpt>
      <trkpt lat="59.196333" lon="18.140905">
        <ele>38</ele>
        <time>2020-01-21T16:08:10Z</time>
      </trkpt>
      <trkpt lat="59.196416" lon="18.140945">
        <ele>38</ele>
        <time>2020-01-21T16:08:11Z</time>
      </trkpt>
      <trkpt lat="59.196499" lon="18.140991">
        <ele>38</ele>
        <time>2020-01-21T16:08:12Z</time>
      </trkpt>
      <trkpt lat="59.196579" lon="18.141052">
        <ele>38</ele>
        <time>2020-01-21T16:08:13Z</time>
      </trkpt>
      <trkpt lat="59.19666" lon="18.141124">
        <ele>37</ele>
        <time>2020-01-21T16:08:15Z</time>
      </trkpt>
      <trkpt lat="59.19674" lon="18.141205">
        <ele>37</ele>
        <time>2020-01-21T16:08:16Z</time>
      </trkpt>
      <trkpt lat="59.196818" lon="18.141294">
        <ele>37</ele>
        <time>2020-01-21T16:08:16Z</time>
      </trkpt>
      <trkpt lat="59.196895" lon="18.141394">
        <ele>37</ele>
        <time>2020-01-21T16:08:17Z</time>
      </trkpt>
      <trkpt lat="59.196969" lon="18.141504">
        <ele>36</ele>
        <time>2020-01-21T16:08:18Z</time>
      </trkpt>
      <trkpt lat="59.197042" lon="18.141623">
        <ele>36</ele>
        <time>2020-01-21T16:08:19Z</time>
      </trkpt>
      <trkpt lat="59.197115" lon="18.141744">
        <ele>36</ele>
        <time>2020-01-21T16:08:21Z</time>
      </trkpt>
      <trkpt lat="59.197188" lon="18.141859">
        <ele>36</ele>
        <time>2020-01-21T16:08:21Z</time>
      </trkpt>
      <trkpt lat="59.197265" lon="18.141968">
        <ele>36</ele>
        <time>2020-01-21T16:08:22Z</time>
      </trkpt>
      <trkpt lat="59.197346" lon="18.142069">
        <ele>35</ele>
        <time>2020-01-21T16:08:23Z</time>
      </trkpt>
      <trkpt lat="59.19743" lon="18.142161">
        <ele>35</ele>
        <time>2020-01-21T16:08:24Z</time>
      </trkpt>
      <trkpt lat="59.197515" lon="18.142243">
        <ele>34</ele>
        <time>2020-01-21T16:08:26Z</time>
      </trkpt>
      <trkpt lat="59.197605" lon="18.142312">
        <ele>34</ele>
        <time>2020-01-21T16:08:26Z</time>
      </trkpt>
      <trkpt lat="59.197691" lon="18.14238">
        <ele>34</ele>
        <time>2020-01-21T16:08:27Z</time>
      </trkpt>
      <trkpt lat="59.197779" lon="18.142441">
        <ele>33</ele>
        <time>2020-01-21T16:08:28Z</time>
      </trkpt>
      <trkpt lat="59.197861" lon="18.142499">
        <ele>33</ele>
        <time>2020-01-21T16:08:29Z</time>
      </trkpt>
      <trkpt lat="59.197942" lon="18.142559">
        <ele>33</ele>
        <time>2020-01-21T16:08:30Z</time>
      </trkpt>
      <trkpt lat="59.19802" lon="18.142619">
        <ele>33</ele>
        <time>2020-01-21T16:08:32Z</time>
      </trkpt>
      <trkpt lat="59.198095" lon="18.142677">
        <ele>32</ele>
        <time>2020-01-21T16:08:32Z</time>
      </trkpt>
      <trkpt lat="59.198169" lon="18.142732">
        <ele>32</ele>
        <time>2020-01-21T16:08:34Z</time>
      </trkpt>
      <trkpt lat="59.19824" lon="18.142786">
        <ele>32</ele>
        <time>2020-01-21T16:08:34Z</time>
      </trkpt>
      <trkpt lat="59.198309" lon="18.142838">
        <ele>32</ele>
        <time>2020-01-21T16:08:35Z</time>
      </trkpt>
      <trkpt lat="59.198378" lon="18.142886">
        <ele>32</ele>
        <time>2020-01-21T16:08:36Z</time>
      </trkpt>
      <trkpt lat="59.198446" lon="18.14293">
        <ele>31</ele>
        <time>2020-01-21T16:08:37Z</time>
      </trkpt>
      <trkpt lat="59.198515" lon="18.142967">
        <ele>31</ele>
        <time>2020-01-21T16:08:39Z</time>
      </trkpt>
      <trkpt lat="59.198581" lon="18.142996">
        <ele>31</ele>
        <time>2020-01-21T16:08:39Z</time>
      </trkpt>
      <trkpt lat="59.198649" lon="18.143013">
        <ele>31</ele>
        <time>2020-01-21T16:08:40Z</time>
      </trkpt>
      <trkpt lat="59.198716" lon="18.143023">
        <ele>30</ele>
        <time>2020-01-21T16:08:41Z</time>
      </trkpt>
      <trkpt lat="59.198783" lon="18.143028">
        <ele>30</ele>
        <time>2020-01-21T16:08:42Z</time>
      </trkpt>
      <trkpt lat="59.198849" lon="18.143034">
        <ele>30</ele>
        <time>2020-01-21T16:08:43Z</time>
      </trkpt>
      <trkpt lat="59.198915" lon="18.14304">
        <ele>30</ele>
        <time>2020-01-21T16:08:44Z</time>
      </trkpt>
      <trkpt lat="59.198981" lon="18.143043">
        <ele>29</ele>
        <time>2020-01-21T16:08:46Z</time>
      </trkpt>
      <trkpt lat="59.199048" lon="18.143046">
        <ele>29</ele>
        <time>2020-01-21T16:08:46Z</time>
      </trkpt>
      <trkpt lat="59.199114" lon="18.143048">
        <ele>29</ele>
        <time>2020-01-21T16:08:47Z</time>
      </trkpt>
      <trkpt lat="59.19918" lon="18.143051">
        <ele>29</ele>
        <time>2020-01-21T16:08:48Z</time>
      </trkpt>
      <trkpt lat="59.199244" lon="18.143054">
        <ele>29</ele>
        <time>2020-01-21T16:08:49Z</time>
      </trkpt>
      <trkpt lat="59.199308" lon="18.143054">
        <ele>28</ele>
        <time>2020-01-21T16:08:50Z</time>
      </trkpt>
      <trkpt lat="59.19937" lon="18.143051">
        <ele>28</ele>
        <time>2020-01-21T16:08:51Z</time>
      </trkpt>
      <trkpt lat="59.199434" lon="18.143041">
        <ele>28</ele>
        <time>2020-01-21T16:08:53Z</time>
      </trkpt>
      <trkpt lat="59.199495" lon="18.143014">
        <ele>28</ele>
        <time>2020-01-21T16:08:54Z</time>
      </trkpt>
      <trkpt lat="59.199552" lon="18.142965">
        <ele>27</ele>
        <time>2020-01-21T16:08:54Z</time>
      </trkpt>
      <trkpt lat="59.199605" lon="18.142897">
        <ele>27</ele>
        <time>2020-01-21T16:08:55Z</time>
      </trkpt>
      <trkpt lat="59.199651" lon="18.142815">
        <ele>27</ele>
        <time>2020-01-21T16:08:56Z</time>
      </trkpt>
      <trkpt lat="59.199691" lon="18.142723">
        <ele>27</ele>
        <time>2020-01-21T16:08:57Z</time>
      </trkpt>
      <trkpt lat="59.19973" lon="18.142628">
        <ele>27</ele>
        <time>2020-01-21T16:08:58Z</time>
      </trkpt>
      <trkpt lat="59.199771" lon="18.142537">
        <ele>27</ele>
        <time>2020-01-21T16:08:59Z</time>
      </trkpt>
      <trkpt lat="59.199809" lon="18.142443">
        <ele>27</ele>
        <time>2020-01-21T16:09:00Z</time>
      </trkpt>
      <trkpt lat="59.199839" lon="18.142363">
        <ele>27</ele>
        <time>2020-01-21T16:09:01Z</time>
      </trkpt>
      <trkpt lat="59.199868" lon="18.142289">
        <ele>27</ele>
        <time>2020-01-21T16:09:03Z</time>
      </trkpt>
      <trkpt lat="59.199899" lon="18.142221">
        <ele>28</ele>
        <time>2020-01-21T16:09:03Z</time>
      </trkpt>
      <trkpt lat="59.199931" lon="18.142161">
        <ele>28</ele>
        <time>2020-01-21T16:09:04Z</time>
      </trkpt>
      <trkpt lat="59.199966" lon="18.142106">
        <ele>28</ele>
        <time>2020-01-21T16:09:05Z</time>
      </trkpt>
      <trkpt lat="59.200001" lon="18.142059">
        <ele>28</ele>
        <time>2020-01-21T16:09:06Z</time>
      </trkpt>
      <trkpt lat="59.200034" lon="18.142018">
        <ele>28</ele>
        <time>2020-01-21T16:09:07Z</time>
      </trkpt>
      <trkpt lat="59.200065" lon="18.141977">
        <ele>28</ele>
        <time>2020-01-21T16:09:08Z</time>
      </trkpt>
      <trkpt lat="59.200098" lon="18.14194">
        <ele>28</ele>
        <time>2020-01-21T16:09:09Z</time>
      </trkpt>
      <trkpt lat="59.200131" lon="18.141904">
        <ele>28</ele>
        <time>2020-01-21T16:09:10Z</time>
      </trkpt>
      <trkpt lat="59.200165" lon="18.14187">
        <ele>29</ele>
        <time>2020-01-21T16:09:12Z</time>
      </trkpt>
      <trkpt lat="59.200198" lon="18.141833">
        <ele>29</ele>
        <time>2020-01-21T16:09:12Z</time>
      </trkpt>
      <trkpt lat="59.20023" lon="18.141798">
        <ele>29</ele>
        <time>2020-01-21T16:09:13Z</time>
      </trkpt>
      <trkpt lat="59.200261" lon="18.141766">
        <ele>29</ele>
        <time>2020-01-21T16:09:15Z</time>
      </trkpt>
      <trkpt lat="59.200292" lon="18.141735">
        <ele>29</ele>
        <time>2020-01-21T16:09:15Z</time>
      </trkpt>
      <trkpt lat="59.200324" lon="18.141705">
        <ele>29</ele>
        <time>2020-01-21T16:09:16Z</time>
      </trkpt>
      <trkpt lat="59.200355" lon="18.141676">
        <ele>29</ele>
        <time>2020-01-21T16:09:17Z</time>
      </trkpt>
      <trkpt lat="59.200386" lon="18.141647">
        <ele>30</ele>
        <time>2020-01-21T16:09:18Z</time>
      </trkpt>
      <trkpt lat="59.200417" lon="18.141617">
        <ele>30</ele>
        <time>2020-01-21T16:09:19Z</time>
      </trkpt>
      <trkpt lat="59.200447" lon="18.141587">
        <ele>30</ele>
        <time>2020-01-21T16:09:20Z</time>
      </trkpt>
      <trkpt lat="59.200478" lon="18.141556">
        <ele>30</ele>
        <time>2020-01-21T16:09:21Z</time>
      </trkpt>
      <trkpt lat="59.200508" lon="18.141525">
        <ele>30</ele>
        <time>2020-01-21T16:09:22Z</time>
      </trkpt>
      <trkpt lat="59.200537" lon="18.141493">
        <ele>30</ele>
        <time>2020-01-21T16:09:23Z</time>
      </trkpt>
      <trkpt lat="59.200566" lon="18.141461">
        <ele>30</ele>
        <time>2020-01-21T16:09:24Z</time>
      </trkpt>
      <trkpt lat="59.200596" lon="18.14143">
        <ele>30</ele>
        <time>2020-01-21T16:09:25Z</time>
      </trkpt>
      <trkpt lat="59.200626" lon="18.141402">
        <ele>31</ele>
        <time>2020-01-21T16:09:26Z</time>
      </trkpt>
      <trkpt lat="59.200658" lon="18.141378">
        <ele>31</ele>
        <time>2020-01-21T16:09:27Z</time>
      </trkpt>
      <trkpt lat="59.200689" lon="18.14136">
        <ele>31</ele>
        <time>2020-01-21T16:09:28Z</time>
      </trkpt>
      <trkpt lat="59.200722" lon="18.141352">
        <ele>31</ele>
        <time>2020-01-21T16:09:30Z</time>
      </trkpt>
      <trkpt lat="59.200756" lon="18.141351">
        <ele>31</ele>
        <time>2020-01-21T16:09:31Z</time>
      </trkpt>
      <trkpt lat="59.200789" lon="18.141362">
        <ele>31</ele>
        <time>2020-01-21T16:09:31Z</time>
      </trkpt>
      <trkpt lat="59.200821" lon="18.141381">
        <ele>32</ele>
        <time>2020-01-21T16:09:32Z</time>
      </trkpt>
      <trkpt lat="59.200853" lon="18.141404">
        <ele>32</ele>
        <time>2020-01-21T16:09:33Z</time>
      </trkpt>
      <trkpt lat="59.200885" lon="18.141427">
        <ele>32</ele>
        <time>2020-01-21T16:09:34Z</time>
      </trkpt>
      <trkpt lat="59.200918" lon="18.14145">
        <ele>32</ele>
        <time>2020-01-21T16:09:35Z</time>
      </trkpt>
      <trkpt lat="59.200949" lon="18.141473">
        <ele>32</ele>
        <time>2020-01-21T16:09:36Z</time>
      </trkpt>
      <trkpt lat="59.20098" lon="18.141498">
        <ele>32</ele>
        <time>2020-01-21T16:09:37Z</time>
      </trkpt>
      <trkpt lat="59.201011" lon="18.141524">
        <ele>33</ele>
        <time>2020-01-21T16:09:38Z</time>
      </trkpt>
      <trkpt lat="59.201043" lon="18.14155">
        <ele>33</ele>
        <time>2020-01-21T16:09:39Z</time>
      </trkpt>
      <trkpt lat="59.201074" lon="18.141579">
        <ele>33</ele>
        <time>2020-01-21T16:09:40Z</time>
      </trkpt>
      <trkpt lat="59.201106" lon="18.141609">
        <ele>33</ele>
        <time>2020-01-21T16:09:41Z</time>
      </trkpt>
      <trkpt lat="59.201139" lon="18.141635">
        <ele>33</ele>
        <time>2020-01-21T16:09:42Z</time>
      </trkpt>
      <trkpt lat="59.201173" lon="18.141661">
        <ele>33</ele>
        <time>2020-01-21T16:09:44Z</time>
      </trkpt>
      <trkpt lat="59.201206" lon="18.141689">
        <ele>34</ele>
        <time>2020-01-21T16:09:44Z</time>
      </trkpt>
      <trkpt lat="59.20124" lon="18.141718">
        <ele>34</ele>
        <time>2020-01-21T16:09:45Z</time>
      </trkpt>
      <trkpt lat="59.201273" lon="18.14175">
        <ele>34</ele>
        <time>2020-01-21T16:09:46Z</time>
      </trkpt>
      <trkpt lat="59.201306" lon="18.141781">
        <ele>34</ele>
        <time>2020-01-21T16:09:47Z</time>
      </trkpt>
      <trkpt lat="59.201339" lon="18.141811">
        <ele>34</ele>
        <time>2020-01-21T16:09:48Z</time>
      </trkpt>
      <trkpt lat="59.201372" lon="18.141838">
        <ele>34</ele>
        <time>2020-01-21T16:09:50Z</time>
      </trkpt>
      <trkpt lat="59.201406" lon="18.141864">
        <ele>34</ele>
        <time>2020-01-21T16:09:50Z</time>
      </trkpt>
      <trkpt lat="59.20144" lon="18.141887">
        <ele>34</ele>
        <time>2020-01-21T16:09:51Z</time>
      </trkpt>
      <trkpt lat="59.201474" lon="18.141909">
        <ele>35</ele>
        <time>2020-01-21T16:09:52Z</time>
      </trkpt>
      <trkpt lat="59.201509" lon="18.141929">
        <ele>35</ele>
        <time>2020-01-21T16:09:53Z</time>
      </trkpt>
      <trkpt lat="59.201546" lon="18.141948">
        <ele>35</ele>
        <time>2020-01-21T16:09:54Z</time>
      </trkpt>
      <trkpt lat="59.20158" lon="18.141968">
        <ele>35</ele>
        <time>2020-01-21T16:09:55Z</time>
      </trkpt>
      <trkpt lat="59.201615" lon="18.141988">
        <ele>35</ele>
        <time>2020-01-21T16:09:56Z</time>
      </trkpt>
      <trkpt lat="59.201651" lon="18.142005">
        <ele>35</ele>
        <time>2020-01-21T16:09:58Z</time>
      </trkpt>
      <trkpt lat="59.201688" lon="18.142021">
        <ele>35</ele>
        <time>2020-01-21T16:09:58Z</time>
      </trkpt>
      <trkpt lat="59.201726" lon="18.142035">
        <ele>35</ele>
        <time>2020-01-21T16:09:59Z</time>
      </trkpt>
      <trkpt lat="59.201763" lon="18.14205">
        <ele>35</ele>
        <time>2020-01-21T16:10:00Z</time>
      </trkpt>
      <trkpt lat="59.201801" lon="18.142065">
        <ele>35</ele>
        <time>2020-01-21T16:10:01Z</time>
      </trkpt>
      <trkpt lat="59.20184" lon="18.142081">
        <ele>35</ele>
        <time>2020-01-21T16:10:02Z</time>
      </trkpt>
      <trkpt lat="59.201878" lon="18.142097">
        <ele>36</ele>
        <time>2020-01-21T16:10:03Z</time>
      </trkpt>
      <trkpt lat="59.201917" lon="18.142112">
        <ele>36</ele>
        <time>2020-01-21T16:10:04Z</time>
      </trkpt>
      <trkpt lat="59.201955" lon="18.142129">
        <ele>36</ele>
        <time>2020-01-21T16:10:05Z</time>
      </trkpt>
      <trkpt lat="59.201995" lon="18.142147">
        <ele>36</ele>
        <time>2020-01-21T16:10:06Z</time>
      </trkpt>
      <trkpt lat="59.202033" lon="18.142165">
        <ele>36</ele>
        <time>2020-01-21T16:10:07Z</time>
      </trkpt>
      <trkpt lat="59.202071" lon="18.142183">
        <ele>36</ele>
        <time>2020-01-21T16:10:09Z</time>
      </trkpt>
      <trkpt lat="59.20211" lon="18.142199">
        <ele>36</ele>
        <time>2020-01-21T16:10:09Z</time>
      </trkpt>
      <trkpt lat="59.20215" lon="18.142216">
        <ele>36</ele>
        <time>2020-01-21T16:10:11Z</time>
      </trkpt>
      <trkpt lat="59.202188" lon="18.142233">
        <ele>37</ele>
        <time>2020-01-21T16:10:11Z</time>
      </trkpt>
      <trkpt lat="59.202227" lon="18.142246">
        <ele>37</ele>
        <time>2020-01-21T16:10:12Z</time>
      </trkpt>
      <trkpt lat="59.202265" lon="18.142259">
        <ele>37</ele>
        <time>2020-01-21T16:10:13Z</time>
      </trkpt>
      <trkpt lat="59.202303" lon="18.14227">
        <ele>37</ele>
        <time>2020-01-21T16:10:14Z</time>
      </trkpt>
      <trkpt lat="59.202343" lon="18.142279">
        <ele>37</ele>
        <time>2020-01-21T16:10:15Z</time>
      </trkpt>
      <trkpt lat="59.202381" lon="18.142285">
        <ele>37</ele>
        <time>2020-01-21T16:10:16Z</time>
      </trkpt>
      <trkpt lat="59.202419" lon="18.142287">
        <ele>37</ele>
        <time>2020-01-21T16:10:17Z</time>
      </trkpt>
      <trkpt lat="59.202457" lon="18.142284">
        <ele>37</ele>
        <time>2020-01-21T16:10:18Z</time>
      </trkpt>
      <trkpt lat="59.202494" lon="18.142278">
        <ele>38</ele>
        <time>2020-01-21T16:10:19Z</time>
      </trkpt>
      <trkpt lat="59.202532" lon="18.142273">
        <ele>38</ele>
        <time>2020-01-21T16:10:20Z</time>
      </trkpt>
      <trkpt lat="59.202568" lon="18.142268">
        <ele>38</ele>
        <time>2020-01-21T16:10:21Z</time>
      </trkpt>
      <trkpt lat="59.202605" lon="18.142262">
        <ele>38</ele>
        <time>2020-01-21T16:10:22Z</time>
      </trkpt>
      <trkpt lat="59.202644" lon="18.142257">
        <ele>38</ele>
        <time>2020-01-21T16:10:24Z</time>
      </trkpt>
      <trkpt lat="59.202683" lon="18.142253">
        <ele>38</ele>
        <time>2020-01-21T16:10:24Z</time>
      </trkpt>
      <trkpt lat="59.202723" lon="18.142249">
        <ele>38</ele>
        <time>2020-01-21T16:10:25Z</time>
      </trkpt>
      <trkpt lat="59.202766" lon="18.14225">
        <ele>38</ele>
        <time>2020-01-21T16:10:26Z</time>
      </trkpt>
      <trkpt lat="59.20281" lon="18.142251">
        <ele>38</ele>
        <time>2020-01-21T16:10:28Z</time>
      </trkpt>
      <trkpt lat="59.202855" lon="18.14225">
        <ele>38</ele>
        <time>2020-01-21T16:10:28Z</time>
      </trkpt>
      <trkpt lat="59.202898" lon="18.142253">
        <ele>38</ele>
        <time>2020-01-21T16:10:29Z</time>
      </trkpt>
      <trkpt lat="59.202943" lon="18.142257">
        <ele>38</ele>
        <time>2020-01-21T16:10:30Z</time>
      </trkpt>
      <trkpt lat="59.202988" lon="18.142257">
        <ele>38</ele>
        <time>2020-01-21T16:10:31Z</time>
      </trkpt>
      <trkpt lat="59.203033" lon="18.142258">
        <ele>38</ele>
        <time>2020-01-21T16:10:32Z</time>
      </trkpt>
      <trkpt lat="59.203079" lon="18.142262">
        <ele>38</ele>
        <time>2020-01-21T16:10:33Z</time>
      </trkpt>
      <trkpt lat="59.203125" lon="18.142267">
        <ele>38</ele>
        <time>2020-01-21T16:10:35Z</time>
      </trkpt>
      <trkpt lat="59.203172" lon="18.142275">
        <ele>38</ele>
        <time>2020-01-21T16:10:35Z</time>
      </trkpt>
      <trkpt lat="59.203219" lon="18.142284">
        <ele>38</ele>
        <time>2020-01-21T16:10:36Z</time>
      </trkpt>
      <trkpt lat="59.203266" lon="18.142293">
        <ele>38</ele>
        <time>2020-01-21T16:10:37Z</time>
      </trkpt>
      <trkpt lat="59.203314" lon="18.142301">
        <ele>38</ele>
        <time>2020-01-21T16:10:38Z</time>
      </trkpt>
      <trkpt lat="59.203363" lon="18.142308">
        <ele>39</ele>
        <time>2020-01-21T16:10:39Z</time>
      </trkpt>
      <trkpt lat="59.203411" lon="18.142312">
        <ele>39</ele>
        <time>2020-01-21T16:10:40Z</time>
      </trkpt>
      <trkpt lat="59.203459" lon="18.142312">
        <ele>39</ele>
        <time>2020-01-21T16:10:41Z</time>
      </trkpt>
      <trkpt lat="59.203508" lon="18.142312">
        <ele>39</ele>
        <time>2020-01-21T16:10:42Z</time>
      </trkpt>
      <trkpt lat="59.203557" lon="18.142311">
        <ele>39</ele>
        <time>2020-01-21T16:10:43Z</time>
      </trkpt>
      <trkpt lat="59.203607" lon="18.142307">
        <ele>39</ele>
        <time>2020-01-21T16:10:45Z</time>
      </trkpt>
      <trkpt lat="59.203658" lon="18.142298">
        <ele>39</ele>
        <time>2020-01-21T16:10:45Z</time>
      </trkpt>
      <trkpt lat="59.203709" lon="18.142288">
        <ele>39</ele>
        <time>2020-01-21T16:10:47Z</time>
      </trkpt>
      <trkpt lat="59.203759" lon="18.142275">
        <ele>39</ele>
        <time>2020-01-21T16:10:47Z</time>
      </trkpt>
      <trkpt lat="59.203809" lon="18.14226">
        <ele>39</ele>
        <time>2020-01-21T16:10:48Z</time>
      </trkpt>
      <trkpt lat="59.20386" lon="18.142243">
        <ele>39</ele>
        <time>2020-01-21T16:10:49Z</time>
      </trkpt>
      <trkpt lat="59.20391" lon="18.142227">
        <ele>39</ele>
        <time>2020-01-21T16:10:50Z</time>
      </trkpt>
      <trkpt lat="59.20396" lon="18.142211">
        <ele>39</ele>
        <time>2020-01-21T16:10:51Z</time>
      </trkpt>
      <trkpt lat="59.20401" lon="18.142194">
        <ele>39</ele>
        <time>2020-01-21T16:10:52Z</time>
      </trkpt>
      <trkpt lat="59.20406" lon="18.142177">
        <ele>39</ele>
        <time>2020-01-21T16:10:53Z</time>
      </trkpt>
      <trkpt lat="59.20411" lon="18.142158">
        <ele>39</ele>
        <time>2020-01-21T16:10:55Z</time>
      </trkpt>
      <trkpt lat="59.204158" lon="18.142139">
        <ele>39</ele>
        <time>2020-01-21T16:10:55Z</time>
      </trkpt>
      <trkpt lat="59.204206" lon="18.142121">
        <ele>39</ele>
        <time>2020-01-21T16:10:56Z</time>
      </trkpt>
      <trkpt lat="59.204254" lon="18.142103">
        <ele>39</ele>
        <time>2020-01-21T16:10:57Z</time>
      </trkpt>
      <trkpt lat="59.204301" lon="18.142085">
        <ele>39</ele>
        <time>2020-01-21T16:10:58Z</time>
      </trkpt>
      <trkpt lat="59.204347" lon="18.142066">
        <ele>39</ele>
        <time>2020-01-21T16:10:59Z</time>
      </trkpt>
      <trkpt lat="59.204392" lon="18.142048">
        <ele>39</ele>
        <time>2020-01-21T16:11:00Z</time>
      </trkpt>
      <trkpt lat="59.204438" lon="18.142029">
        <ele>39</ele>
        <time>2020-01-21T16:11:01Z</time>
      </trkpt>
      <trkpt lat="59.204482" lon="18.142009">
        <ele>39</ele>
        <time>2020-01-21T16:11:02Z</time>
      </trkpt>
      <trkpt lat="59.204526" lon="18.141988">
        <ele>39</ele>
        <time>2020-01-21T16:11:03Z</time>
      </trkpt>
      <trkpt lat="59.204569" lon="18.141966">
        <ele>40</ele>
        <time>2020-01-21T16:11:04Z</time>
      </trkpt>
      <trkpt lat="59.204613" lon="18.141945">
        <ele>40</ele>
        <time>2020-01-21T16:11:06Z</time>
      </trkpt>
      <trkpt lat="59.204656" lon="18.141923">
        <ele>40</ele>
        <time>2020-01-21T16:11:06Z</time>
      </trkpt>
      <trkpt lat="59.204698" lon="18.141899">
        <ele>40</ele>
        <time>2020-01-21T16:11:07Z</time>
      </trkpt>
      <trkpt lat="59.204741" lon="18.141874">
        <ele>40</ele>
        <time>2020-01-21T16:11:08Z</time>
      </trkpt>
      <trkpt lat="59.204783" lon="18.14185">
        <ele>40</ele>
        <time>2020-01-21T16:11:09Z</time>
      </trkpt>
      <trkpt lat="59.204823" lon="18.141827">
        <ele>40</ele>
        <time>2020-01-21T16:11:10Z</time>
      </trkpt>
      <trkpt lat="59.20486" lon="18.141805">
        <ele>41</ele>
        <time>2020-01-21T16:11:11Z</time>
      </trkpt>
      <trkpt lat="59.204899" lon="18.141779">
        <ele>41</ele>
        <time>2020-01-21T16:11:12Z</time>
      </trkpt>
      <trkpt lat="59.204938" lon="18.141753">
        <ele>41</ele>
        <time>2020-01-21T16:11:13Z</time>
      </trkpt>
      <trkpt lat="59.20498" lon="18.141727">
        <ele>41</ele>
        <time>2020-01-21T16:11:14Z</time>
      </trkpt>
      <trkpt lat="59.205021" lon="18.141699">
        <ele>41</ele>
        <time>2020-01-21T16:11:15Z</time>
      </trkpt>
      <trkpt lat="59.20506" lon="18.14167">
        <ele>41</ele>
        <time>2020-01-21T16:11:16Z</time>
      </trkpt>
      <trkpt lat="59.205101" lon="18.141642">
        <ele>41</ele>
        <time>2020-01-21T16:11:18Z</time>
      </trkpt>
      <trkpt lat="59.205143" lon="18.141613">
        <ele>42</ele>
        <time>2020-01-21T16:11:18Z</time>
      </trkpt>
      <trkpt lat="59.205183" lon="18.141581">
        <ele>42</ele>
        <time>2020-01-21T16:11:19Z</time>
      </trkpt>
      <trkpt lat="59.205222" lon="18.141549">
        <ele>42</ele>
        <time>2020-01-21T16:11:20Z</time>
      </trkpt>
      <trkpt lat="59.205261" lon="18.141518">
        <ele>42</ele>
        <time>2020-01-21T16:11:21Z</time>
      </trkpt>
      <trkpt lat="59.205299" lon="18.141489">
        <ele>42</ele>
        <time>2020-01-21T16:11:22Z</time>
      </trkpt>
      <trkpt lat="59.205336" lon="18.141463">
        <ele>43</ele>
        <time>2020-01-21T16:11:23Z</time>
      </trkpt>
      <trkpt lat="59.205371" lon="18.141435">
        <ele>43</ele>
        <time>2020-01-21T16:11:25Z</time>
      </trkpt>
      <trkpt lat="59.205405" lon="18.141405">
        <ele>43</ele>
        <time>2020-01-21T16:11:25Z</time>
      </trkpt>
      <trkpt lat="59.205439" lon="18.141378">
        <ele>43</ele>
        <time>2020-01-21T16:11:26Z</time>
      </trkpt>
      <trkpt lat="59.205475" lon="18.141347">
        <ele>44</ele>
        <time>2020-01-21T16:11:27Z</time>
      </trkpt>
      <trkpt lat="59.20551" lon="18.141317">
        <ele>44</ele>
        <time>2020-01-21T16:11:28Z</time>
      </trkpt>
      <trkpt lat="59.205548" lon="18.141281">
        <ele>44</ele>
        <time>2020-01-21T16:11:30Z</time>
      </trkpt>
      <trkpt lat="59.205589" lon="18.141244">
        <ele>44</ele>
        <time>2020-01-21T16:11:30Z</time>
      </trkpt>
      <trkpt lat="59.205634" lon="18.141207">
        <ele>44</ele>
        <time>2020-01-21T16:11:31Z</time>
      </trkpt>
      <trkpt lat="59.205677" lon="18.14117">
        <ele>44</ele>
        <time>2020-01-21T16:11:32Z</time>
      </trkpt>
      <trkpt lat="59.205723" lon="18.14113">
        <ele>44</ele>
        <time>2020-01-21T16:11:33Z</time>
      </trkpt>
      <trkpt lat="59.205769" lon="18.141092">
        <ele>44</ele>
        <time>2020-01-21T16:11:34Z</time>
      </trkpt>
      <trkpt lat="59.205816" lon="18.141054">
        <ele>44</ele>
        <time>2020-01-21T16:11:35Z</time>
      </trkpt>
      <trkpt lat="59.205862" lon="18.141017">
        <ele>44</ele>
        <time>2020-01-21T16:11:36Z</time>
      </trkpt>
      <trkpt lat="59.205907" lon="18.140982">
        <ele>44</ele>
        <time>2020-01-21T16:11:37Z</time>
      </trkpt>
      <trkpt lat="59.205955" lon="18.140948">
        <ele>44</ele>
        <time>2020-01-21T16:11:38Z</time>
      </trkpt>
      <trkpt lat="59.206004" lon="18.14092">
        <ele>44</ele>
        <time>2020-01-21T16:11:40Z</time>
      </trkpt>
      <trkpt lat="59.206055" lon="18.140899">
        <ele>44</ele>
        <time>2020-01-21T16:11:40Z</time>
      </trkpt>
      <trkpt lat="59.206105" lon="18.140878">
        <ele>44</ele>
        <time>2020-01-21T16:11:41Z</time>
      </trkpt>
      <trkpt lat="59.206152" lon="18.140856">
        <ele>44</ele>
        <time>2020-01-21T16:11:42Z</time>
      </trkpt>
      <trkpt lat="59.206197" lon="18.14082">
        <ele>44</ele>
        <time>2020-01-21T16:11:44Z</time>
      </trkpt>
      <trkpt lat="59.206235" lon="18.140764">
        <ele>44</ele>
        <time>2020-01-21T16:11:44Z</time>
      </trkpt>
      <trkpt lat="59.206262" lon="18.140695">
        <ele>44</ele>
        <time>2020-01-21T16:11:45Z</time>
      </trkpt>
      <trkpt lat="59.20628" lon="18.14062">
        <ele>44</ele>
        <time>2020-01-21T16:11:46Z</time>
      </trkpt>
      <trkpt lat="59.206301" lon="18.140553">
        <ele>44</ele>
        <time>2020-01-21T16:11:47Z</time>
      </trkpt>
      <trkpt lat="59.206329" lon="18.140499">
        <ele>44</ele>
        <time>2020-01-21T16:11:48Z</time>
      </trkpt>
      <trkpt lat="59.206362" lon="18.140454">
        <ele>44</ele>
        <time>2020-01-21T16:11:49Z</time>
      </trkpt>
      <trkpt lat="59.206399" lon="18.140421">
        <ele>44</ele>
        <time>2020-01-21T16:11:51Z</time>
      </trkpt>
      <trkpt lat="59.206439" lon="18.140396">
        <ele>44</ele>
        <time>2020-01-21T16:11:51Z</time>
      </trkpt>
      <trkpt lat="59.20648" lon="18.140379">
        <ele>44</ele>
        <time>2020-01-21T16:11:52Z</time>
      </trkpt>
      <trkpt lat="59.206521" lon="18.140369">
        <ele>44</ele>
        <time>2020-01-21T16:11:53Z</time>
      </trkpt>
      <trkpt lat="59.206563" lon="18.140363">
        <ele>44</ele>
        <time>2020-01-21T16:11:54Z</time>
      </trkpt>
      <trkpt lat="59.206605" lon="18.140362">
        <ele>45</ele>
        <time>2020-01-21T16:11:55Z</time>
      </trkpt>
      <trkpt lat="59.206645" lon="18.140363">
        <ele>45</ele>
        <time>2020-01-21T16:11:56Z</time>
      </trkpt>
      <trkpt lat="59.206686" lon="18.140365">
        <ele>45</ele>
        <time>2020-01-21T16:11:57Z</time>
      </trkpt>
      <trkpt lat="59.206727" lon="18.140368">
        <ele>45</ele>
        <time>2020-01-21T16:11:58Z</time>
      </trkpt>
      <trkpt lat="59.206767" lon="18.140374">
        <ele>45</ele>
        <time>2020-01-21T16:11:59Z</time>
      </trkpt>
      <trkpt lat="59.206805" lon="18.140382">
        <ele>45</ele>
        <time>2020-01-21T16:12:00Z</time>
      </trkpt>
      <trkpt lat="59.206843" lon="18.140393">
        <ele>46</ele>
        <time>2020-01-21T16:12:01Z</time>
      </trkpt>
      <trkpt lat="59.206882" lon="18.140403">
        <ele>46</ele>
        <time>2020-01-21T16:12:03Z</time>
      </trkpt>
      <trkpt lat="59.206921" lon="18.140414">
        <ele>46</ele>
        <time>2020-01-21T16:12:04Z</time>
      </trkpt>
      <trkpt lat="59.206958" lon="18.140425">
        <ele>46</ele>
        <time>2020-01-21T16:12:04Z</time>
      </trkpt>
      <trkpt lat="59.206997" lon="18.140436">
        <ele>46</ele>
        <time>2020-01-21T16:12:05Z</time>
      </trkpt>
      <trkpt lat="59.207032" lon="18.140448">
        <ele>47</ele>
        <time>2020-01-21T16:12:06Z</time>
      </trkpt>
      <trkpt lat="59.207067" lon="18.140458">
        <ele>47</ele>
        <time>2020-01-21T16:12:07Z</time>
      </trkpt>
      <trkpt lat="59.207102" lon="18.140472">
        <ele>47</ele>
        <time>2020-01-21T16:12:08Z</time>
      </trkpt>
      <trkpt lat="59.207138" lon="18.14049">
        <ele>47</ele>
        <time>2020-01-21T16:12:09Z</time>
      </trkpt>
      <trkpt lat="59.207177" lon="18.140507">
        <ele>47</ele>
        <time>2020-01-21T16:12:10Z</time>
      </trkpt>
      <trkpt lat="59.207216" lon="18.140524">
        <ele>47</ele>
        <time>2020-01-21T16:12:11Z</time>
      </trkpt>
      <trkpt lat="59.207252" lon="18.140545">
        <ele>48</ele>
        <time>2020-01-21T16:12:12Z</time>
      </trkpt>
      <trkpt lat="59.207285" lon="18.140568">
        <ele>48</ele>
        <time>2020-01-21T16:12:13Z</time>
      </trkpt>
      <trkpt lat="59.207323" lon="18.140591">
        <ele>48</ele>
        <time>2020-01-21T16:12:14Z</time>
      </trkpt>
      <trkpt lat="59.207365" lon="18.14061">
        <ele>48</ele>
        <time>2020-01-21T16:12:15Z</time>
      </trkpt>
      <trkpt lat="59.207407" lon="18.14063">
        <ele>48</ele>
        <time>2020-01-21T16:12:17Z</time>
      </trkpt>
      <trkpt lat="59.207447" lon="18.140653">
        <ele>49</ele>
        <time>2020-01-21T16:12:17Z</time>
      </trkpt>
      <trkpt lat="59.207485" lon="18.140677">
        <ele>49</ele>
        <time>2020-01-21T16:12:18Z</time>
      </trkpt>
      <trkpt lat="59.207525" lon="18.140702">
        <ele>49</ele>
        <time>2020-01-21T16:12:19Z</time>
      </trkpt>
      <trkpt lat="59.207563" lon="18.14073">
        <ele>49</ele>
        <time>2020-01-21T16:12:20Z</time>
      </trkpt>
      <trkpt lat="59.207602" lon="18.14076">
        <ele>49</ele>
        <time>2020-01-21T16:12:22Z</time>
      </trkpt>
      <trkpt lat="59.20764" lon="18.14079">
        <ele>49</ele>
        <time>2020-01-21T16:12:22Z</time>
      </trkpt>
      <trkpt lat="59.207673" lon="18.140823">
        <ele>50</ele>
        <time>2020-01-21T16:12:23Z</time>
      </trkpt>
      <trkpt lat="59.207706" lon="18.140855">
        <ele>50</ele>
        <time>2020-01-21T16:12:24Z</time>
      </trkpt>
      <trkpt lat="59.207738" lon="18.140891">
        <ele>50</ele>
        <time>2020-01-21T16:12:25Z</time>
      </trkpt>
      <trkpt lat="59.207774" lon="18.140925">
        <ele>50</ele>
        <time>2020-01-21T16:12:26Z</time>
      </trkpt>
      <trkpt lat="59.207807" lon="18.140961">
        <ele>50</ele>
        <time>2020-01-21T16:12:27Z</time>
      </trkpt>
      <trkpt lat="59.207843" lon="18.140995">
        <ele>50</ele>
        <time>2020-01-21T16:12:29Z</time>
      </trkpt>
      <trkpt lat="59.207877" lon="18.141031">
        <ele>51</ele>
        <time>2020-01-21T16:12:29Z</time>
      </trkpt>
      <trkpt lat="59.207915" lon="18.141067">
        <ele>51</ele>
        <time>2020-01-21T16:12:30Z</time>
      </trkpt>
      <trkpt lat="59.207946" lon="18.141106">
        <ele>51</ele>
        <time>2020-01-21T16:12:31Z</time>
      </trkpt>
      <trkpt lat="59.20798" lon="18.141146">
        <ele>51</ele>
        <time>2020-01-21T16:12:32Z</time>
      </trkpt>
      <trkpt lat="59.208016" lon="18.141187">
        <ele>52</ele>
        <time>2020-01-21T16:12:33Z</time>
      </trkpt>
      <trkpt lat="59.208048" lon="18.141228">
        <ele>52</ele>
        <time>2020-01-21T16:12:34Z</time>
      </trkpt>
      <trkpt lat="59.20808" lon="18.14127">
        <ele>52</ele>
        <time>2020-01-21T16:12:35Z</time>
      </trkpt>
      <trkpt lat="59.208115" lon="18.14131">
        <ele>53</ele>
        <time>2020-01-21T16:12:36Z</time>
      </trkpt>
      <trkpt lat="59.208151" lon="18.141352">
        <ele>53</ele>
        <time>2020-01-21T16:12:37Z</time>
      </trkpt>
      <trkpt lat="59.208183" lon="18.141398">
        <ele>53</ele>
        <time>2020-01-21T16:12:38Z</time>
      </trkpt>
      <trkpt lat="59.208214" lon="18.141445">
        <ele>53</ele>
        <time>2020-01-21T16:12:39Z</time>
      </trkpt>
      <trkpt lat="59.208247" lon="18.141493">
        <ele>53</ele>
        <time>2020-01-21T16:12:41Z</time>
      </trkpt>
      <trkpt lat="59.208279" lon="18.141541">
        <ele>54</ele>
        <time>2020-01-21T16:12:42Z</time>
      </trkpt>
      <trkpt lat="59.20831" lon="18.141591">
        <ele>54</ele>
        <time>2020-01-21T16:12:42Z</time>
      </trkpt>
      <trkpt lat="59.208338" lon="18.141639">
        <ele>54</ele>
        <time>2020-01-21T16:12:43Z</time>
      </trkpt>
      <trkpt lat="59.208366" lon="18.141686">
        <ele>55</ele>
        <time>2020-01-21T16:12:44Z</time>
      </trkpt>
      <trkpt lat="59.208395" lon="18.141737">
        <ele>55</ele>
        <time>2020-01-21T16:12:45Z</time>
      </trkpt>
      <trkpt lat="59.208422" lon="18.141789">
        <ele>55</ele>
        <time>2020-01-21T16:12:46Z</time>
      </trkpt>
      <trkpt lat="59.208448" lon="18.141843">
        <ele>55</ele>
        <time>2020-01-21T16:12:47Z</time>
      </trkpt>
      <trkpt lat="59.208474" lon="18.141897">
        <ele>55</ele>
        <time>2020-01-21T16:12:48Z</time>
      </trkpt>
      <trkpt lat="59.208498" lon="18.141954">
        <ele>55</ele>
        <time>2020-01-21T16:12:49Z</time>
      </trkpt>
      <trkpt lat="59.208522" lon="18.142012">
        <ele>56</ele>
        <time>2020-01-21T16:12:50Z</time>
      </trkpt>
      <trkpt lat="59.208552" lon="18.142069">
        <ele>56</ele>
        <time>2020-01-21T16:12:51Z</time>
      </trkpt>
      <trkpt lat="59.208583" lon="18.142127">
        <ele>56</ele>
        <time>2020-01-21T16:12:52Z</time>
      </trkpt>
      <trkpt lat="59.208613" lon="18.142189">
        <ele>56</ele>
        <time>2020-01-21T16:12:54Z</time>
      </trkpt>
      <trkpt lat="59.208641" lon="18.142251">
        <ele>56</ele>
        <time>2020-01-21T16:12:54Z</time>
      </trkpt>
      <trkpt lat="59.20867" lon="18.142313">
        <ele>56</ele>
        <time>2020-01-21T16:12:55Z</time>
      </trkpt>
      <trkpt lat="59.208698" lon="18.142376">
        <ele>56</ele>
        <time>2020-01-21T16:12:56Z</time>
      </trkpt>
      <trkpt lat="59.208727" lon="18.142439">
        <ele>57</ele>
        <time>2020-01-21T16:12:57Z</time>
      </trkpt>
      <trkpt lat="59.208757" lon="18.142502">
        <ele>57</ele>
        <time>2020-01-21T16:12:58Z</time>
      </trkpt>
      <trkpt lat="59.208786" lon="18.142567">
        <ele>57</ele>
        <time>2020-01-21T16:13:00Z</time>
      </trkpt>
      <trkpt lat="59.208816" lon="18.142636">
        <ele>57</ele>
        <time>2020-01-21T16:13:00Z</time>
      </trkpt>
      <trkpt lat="59.208846" lon="18.142706">
        <ele>57</ele>
        <time>2020-01-21T16:13:01Z</time>
      </trkpt>
      <trkpt lat="59.208879" lon="18.142775">
        <ele>57</ele>
        <time>2020-01-21T16:13:02Z</time>
      </trkpt>
      <trkpt lat="59.208909" lon="18.142845">
        <ele>57</ele>
        <time>2020-01-21T16:13:03Z</time>
      </trkpt>
      <trkpt lat="59.208938" lon="18.142915">
        <ele>57</ele>
        <time>2020-01-21T16:13:05Z</time>
      </trkpt>
      <trkpt lat="59.208966" lon="18.142988">
        <ele>57</ele>
        <time>2020-01-21T16:13:06Z</time>
      </trkpt>
      <trkpt lat="59.208997" lon="18.14306">
        <ele>57</ele>
        <time>2020-01-21T16:13:06Z</time>
      </trkpt>
      <trkpt lat="59.209027" lon="18.143133">
        <ele>57</ele>
        <time>2020-01-21T16:13:07Z</time>
      </trkpt>
      <trkpt lat="59.209056" lon="18.143206">
        <ele>57</ele>
        <time>2020-01-21T16:13:08Z</time>
      </trkpt>
      <trkpt lat="59.209084" lon="18.143282">
        <ele>57</ele>
        <time>2020-01-21T16:13:09Z</time>
      </trkpt>
      <trkpt lat="59.209115" lon="18.143358">
        <ele>57</ele>
        <time>2020-01-21T16:13:10Z</time>
      </trkpt>
      <trkpt lat="59.209147" lon="18.143436">
        <ele>57</ele>
        <time>2020-01-21T16:13:11Z</time>
      </trkpt>
      <trkpt lat="59.209179" lon="18.143514">
        <ele>57</ele>
        <time>2020-01-21T16:13:12Z</time>
      </trkpt>
      <trkpt lat="59.209213" lon="18.143591">
        <ele>57</ele>
        <time>2020-01-21T16:13:13Z</time>
      </trkpt>
      <trkpt lat="59.209248" lon="18.14367">
        <ele>57</ele>
        <time>2020-01-21T16:13:15Z</time>
      </trkpt>
      <trkpt lat="59.209281" lon="18.14375">
        <ele>57</ele>
        <time>2020-01-21T16:13:15Z</time>
      </trkpt>
      <trkpt lat="59.209314" lon="18.143831">
        <ele>57</ele>
        <time>2020-01-21T16:13:16Z</time>
      </trkpt>
      <trkpt lat="59.209346" lon="18.143913">
        <ele>57</ele>
        <time>2020-01-21T16:13:17Z</time>
      </trkpt>
      <trkpt lat="59.209377" lon="18.143994">
        <ele>57</ele>
        <time>2020-01-21T16:13:19Z</time>
      </trkpt>
      <trkpt lat="59.209409" lon="18.144076">
        <ele>57</ele>
        <time>2020-01-21T16:13:19Z</time>
      </trkpt>
      <trkpt lat="59.209441" lon="18.14416">
        <ele>56</ele>
        <time>2020-01-21T16:13:20Z</time>
      </trkpt>
      <trkpt lat="59.209471" lon="18.144246">
        <ele>56</ele>
        <time>2020-01-21T16:13:21Z</time>
      </trkpt>
      <trkpt lat="59.209495" lon="18.144336">
        <ele>56</ele>
        <time>2020-01-21T16:13:22Z</time>
      </trkpt>
      <trkpt lat="59.209517" lon="18.144428">
        <ele>56</ele>
        <time>2020-01-21T16:13:23Z</time>
      </trkpt>
      <trkpt lat="59.20953" lon="18.144523">
        <ele>56</ele>
        <time>2020-01-21T16:13:25Z</time>
      </trkpt>
      <trkpt lat="59.209534" lon="18.14462">
        <ele>56</ele>
        <time>2020-01-21T16:13:25Z</time>
      </trkpt>
      <trkpt lat="59.209542" lon="18.144713">
        <ele>56</ele>
        <time>2020-01-21T16:13:26Z</time>
      </trkpt>
      <trkpt lat="59.209566" lon="18.144797">
        <ele>56</ele>
        <time>2020-01-21T16:13:27Z</time>
      </trkpt>
      <trkpt lat="59.209603" lon="18.144868">
        <ele>56</ele>
        <time>2020-01-21T16:13:28Z</time>
      </trkpt>
      <trkpt lat="59.209647" lon="18.144923">
        <ele>56</ele>
        <time>2020-01-21T16:13:29Z</time>
      </trkpt>
      <trkpt lat="59.209695" lon="18.144962">
        <ele>56</ele>
        <time>2020-01-21T16:13:30Z</time>
      </trkpt>
      <trkpt lat="59.209742" lon="18.145003">
        <ele>56</ele>
        <time>2020-01-21T16:13:31Z</time>
      </trkpt>
      <trkpt lat="59.209787" lon="18.145053">
        <ele>55</ele>
        <time>2020-01-21T16:13:32Z</time>
      </trkpt>
      <trkpt lat="59.20983" lon="18.145112">
        <ele>55</ele>
        <time>2020-01-21T16:13:33Z</time>
      </trkpt>
      <trkpt lat="59.20987" lon="18.145183">
        <ele>55</ele>
        <time>2020-01-21T16:13:35Z</time>
      </trkpt>
      <trkpt lat="59.209907" lon="18.145263">
        <ele>55</ele>
        <time>2020-01-21T16:13:35Z</time>
      </trkpt>
      <trkpt lat="59.209942" lon="18.145348">
        <ele>55</ele>
        <time>2020-01-21T16:13:36Z</time>
      </trkpt>
      <trkpt lat="59.209975" lon="18.145438">
        <ele>55</ele>
        <time>2020-01-21T16:13:38Z</time>
      </trkpt>
      <trkpt lat="59.210007" lon="18.14553">
        <ele>55</ele>
        <time>2020-01-21T16:13:38Z</time>
      </trkpt>
      <trkpt lat="59.21004" lon="18.145624">
        <ele>55</ele>
        <time>2020-01-21T16:13:39Z</time>
      </trkpt>
      <trkpt lat="59.210076" lon="18.145714">
        <ele>55</ele>
        <time>2020-01-21T16:13:40Z</time>
      </trkpt>
      <trkpt lat="59.210118" lon="18.145796">
        <ele>54</ele>
        <time>2020-01-21T16:13:41Z</time>
      </trkpt>
      <trkpt lat="59.210167" lon="18.145866">
        <ele>54</ele>
        <time>2020-01-21T16:13:43Z</time>
      </trkpt>
      <trkpt lat="59.210224" lon="18.145922">
        <ele>54</ele>
        <time>2020-01-21T16:13:43Z</time>
      </trkpt>
      <trkpt lat="59.210284" lon="18.145971">
        <ele>54</ele>
        <time>2020-01-21T16:13:44Z</time>
      </trkpt>
      <trkpt lat="59.210348" lon="18.146024">
        <ele>54</ele>
        <time>2020-01-21T16:13:45Z</time>
      </trkpt>
      <trkpt lat="59.210412" lon="18.146088">
        <ele>54</ele>
        <time>2020-01-21T16:13:46Z</time>
      </trkpt>
      <trkpt lat="59.210476" lon="18.146161">
        <ele>53</ele>
        <time>2020-01-21T16:13:47Z</time>
      </trkpt>
      <trkpt lat="59.210544" lon="18.146237">
        <ele>53</ele>
        <time>2020-01-21T16:13:48Z</time>
      </trkpt>
      <trkpt lat="59.210614" lon="18.146313">
        <ele>53</ele>
        <time>2020-01-21T16:13:50Z</time>
      </trkpt>
      <trkpt lat="59.210686" lon="18.146392">
        <ele>53</ele>
        <time>2020-01-21T16:13:50Z</time>
      </trkpt>
      <trkpt lat="59.210759" lon="18.146469">
        <ele>53</ele>
        <time>2020-01-21T16:13:51Z</time>
      </trkpt>
      <trkpt lat="59.210833" lon="18.146546">
        <ele>53</ele>
        <time>2020-01-21T16:13:52Z</time>
      </trkpt>
      <trkpt lat="59.210913" lon="18.146621">
        <ele>53</ele>
        <time>2020-01-21T16:13:53Z</time>
      </trkpt>
      <trkpt lat="59.210996" lon="18.146693">
        <ele>53</ele>
        <time>2020-01-21T16:13:54Z</time>
      </trkpt>
      <trkpt lat="59.211079" lon="18.14676">
        <ele>53</ele>
        <time>2020-01-21T16:13:56Z</time>
      </trkpt>
      <trkpt lat="59.211164" lon="18.146823">
        <ele>52</ele>
        <time>2020-01-21T16:13:57Z</time>
      </trkpt>
      <trkpt lat="59.211251" lon="18.146882">
        <ele>52</ele>
        <time>2020-01-21T16:13:57Z</time>
      </trkpt>
      <trkpt lat="59.211339" lon="18.146938">
        <ele>52</ele>
        <time>2020-01-21T16:13:58Z</time>
      </trkpt>
      <trkpt lat="59.211428" lon="18.14699">
        <ele>52</ele>
        <time>2020-01-21T16:13:59Z</time>
      </trkpt>
      <trkpt lat="59.211519" lon="18.147034">
        <ele>52</ele>
        <time>2020-01-21T16:14:01Z</time>
      </trkpt>
      <trkpt lat="59.211609" lon="18.14707">
        <ele>51</ele>
        <time>2020-01-21T16:14:01Z</time>
      </trkpt>
      <trkpt lat="59.211701" lon="18.147104">
        <ele>51</ele>
        <time>2020-01-21T16:14:02Z</time>
      </trkpt>
      <trkpt lat="59.211794" lon="18.147137">
        <ele>51</ele>
        <time>2020-01-21T16:14:03Z</time>
      </trkpt>
      <trkpt lat="59.21189" lon="18.147161">
        <ele>51</ele>
        <time>2020-01-21T16:14:04Z</time>
      </trkpt>
      <trkpt lat="59.211988" lon="18.147176">
        <ele>50</ele>
        <time>2020-01-21T16:14:06Z</time>
      </trkpt>
      <trkpt lat="59.212086" lon="18.147184">
        <ele>50</ele>
        <time>2020-01-21T16:14:06Z</time>
      </trkpt>
      <trkpt lat="59.212183" lon="18.147188">
        <ele>49</ele>
        <time>2020-01-21T16:14:07Z</time>
      </trkpt>
      <trkpt lat="59.212281" lon="18.14719">
        <ele>48</ele>
        <time>2020-01-21T16:14:08Z</time>
      </trkpt>
      <trkpt lat="59.212379" lon="18.147188">
        <ele>48</ele>
        <time>2020-01-21T16:14:09Z</time>
      </trkpt>
      <trkpt lat="59.212476" lon="18.147181">
        <ele>47</ele>
        <time>2020-01-21T16:14:10Z</time>
      </trkpt>
      <trkpt lat="59.212572" lon="18.14717">
        <ele>46</ele>
        <time>2020-01-21T16:14:12Z</time>
      </trkpt>
      <trkpt lat="59.212668" lon="18.147156">
        <ele>45</ele>
        <time>2020-01-21T16:14:12Z</time>
      </trkpt>
      <trkpt lat="59.212765" lon="18.147138">
        <ele>44</ele>
        <time>2020-01-21T16:14:13Z</time>
      </trkpt>
      <trkpt lat="59.212863" lon="18.147117">
        <ele>43</ele>
        <time>2020-01-21T16:14:14Z</time>
      </trkpt>
      <trkpt lat="59.21296" lon="18.147091">
        <ele>42</ele>
        <time>2020-01-21T16:14:16Z</time>
      </trkpt>
      <trkpt lat="59.213059" lon="18.147057">
        <ele>42</ele>
        <time>2020-01-21T16:14:17Z</time>
      </trkpt>
      <trkpt lat="59.213156" lon="18.147017">
        <ele>41</ele>
        <time>2020-01-21T16:14:17Z</time>
      </trkpt>
      <trkpt lat="59.21325" lon="18.146971">
        <ele>40</ele>
        <time>2020-01-21T16:14:18Z</time>
      </trkpt>
      <trkpt lat="59.213343" lon="18.146918">
        <ele>39</ele>
        <time>2020-01-21T16:14:19Z</time>
      </trkpt>
      <trkpt lat="59.213434" lon="18.146858">
        <ele>38</ele>
        <time>2020-01-21T16:14:20Z</time>
      </trkpt>
      <trkpt lat="59.213522" lon="18.146794">
        <ele>37</ele>
        <time>2020-01-21T16:14:22Z</time>
      </trkpt>
      <trkpt lat="59.213607" lon="18.146728">
        <ele>37</ele>
        <time>2020-01-21T16:14:22Z</time>
      </trkpt>
      <trkpt lat="59.213689" lon="18.146661">
        <ele>36</ele>
        <time>2020-01-21T16:14:23Z</time>
      </trkpt>
      <trkpt lat="59.213767" lon="18.146589">
        <ele>35</ele>
        <time>2020-01-21T16:14:24Z</time>
      </trkpt>
      <trkpt lat="59.213842" lon="18.146512">
        <ele>35</ele>
        <time>2020-01-21T16:14:26Z</time>
      </trkpt>
      <trkpt lat="59.213914" lon="18.146434">
        <ele>35</ele>
        <time>2020-01-21T16:14:26Z</time>
      </trkpt>
      <trkpt lat="59.213983" lon="18.146352">
        <ele>34</ele>
        <time>2020-01-21T16:14:28Z</time>
      </trkpt>
      <trkpt lat="59.214049" lon="18.14627">
        <ele>34</ele>
        <time>2020-01-21T16:14:28Z</time>
      </trkpt>
      <trkpt lat="59.214116" lon="18.14619">
        <ele>34</ele>
        <time>2020-01-21T16:14:29Z</time>
      </trkpt>
      <trkpt lat="59.214183" lon="18.146113">
        <ele>33</ele>
        <time>2020-01-21T16:14:30Z</time>
      </trkpt>
      <trkpt lat="59.214249" lon="18.146034">
        <ele>33</ele>
        <time>2020-01-21T16:14:31Z</time>
      </trkpt>
      <trkpt lat="59.214316" lon="18.145955">
        <ele>33</ele>
        <time>2020-01-21T16:14:32Z</time>
      </trkpt>
      <trkpt lat="59.214384" lon="18.145876">
        <ele>32</ele>
        <time>2020-01-21T16:14:34Z</time>
      </trkpt>
      <trkpt lat="59.214451" lon="18.145796">
        <ele>32</ele>
        <time>2020-01-21T16:14:35Z</time>
      </trkpt>
      <trkpt lat="59.214517" lon="18.145714">
        <ele>32</ele>
        <time>2020-01-21T16:14:35Z</time>
      </trkpt>
      <trkpt lat="59.214582" lon="18.145633">
        <ele>31</ele>
        <time>2020-01-21T16:14:36Z</time>
      </trkpt>
      <trkpt lat="59.214648" lon="18.145552">
        <ele>31</ele>
        <time>2020-01-21T16:14:37Z</time>
      </trkpt>
      <trkpt lat="59.214713" lon="18.145471">
        <ele>31</ele>
        <time>2020-01-21T16:14:38Z</time>
      </trkpt>
      <trkpt lat="59.214777" lon="18.145393">
        <ele>31</ele>
        <time>2020-01-21T16:14:39Z</time>
      </trkpt>
      <trkpt lat="59.214841" lon="18.145315">
        <ele>30</ele>
        <time>2020-01-21T16:14:41Z</time>
      </trkpt>
      <trkpt lat="59.214904" lon="18.145238">
        <ele>30</ele>
        <time>2020-01-21T16:14:41Z</time>
      </trkpt>
      <trkpt lat="59.214967" lon="18.145163">
        <ele>30</ele>
        <time>2020-01-21T16:14:42Z</time>
      </trkpt>
      <trkpt lat="59.21503" lon="18.145089">
        <ele>30</ele>
        <time>2020-01-21T16:14:43Z</time>
      </trkpt>
      <trkpt lat="59.215093" lon="18.145015">
        <ele>30</ele>
        <time>2020-01-21T16:14:44Z</time>
      </trkpt>
      <trkpt lat="59.215154" lon="18.144939">
        <ele>30</ele>
        <time>2020-01-21T16:14:45Z</time>
      </trkpt>
      <trkpt lat="59.215216" lon="18.144865">
        <ele>29</ele>
        <time>2020-01-21T16:14:47Z</time>
      </trkpt>
      <trkpt lat="59.215278" lon="18.144789">
        <ele>29</ele>
        <time>2020-01-21T16:14:47Z</time>
      </trkpt>
      <trkpt lat="59.215339" lon="18.144713">
        <ele>29</ele>
        <time>2020-01-21T16:14:48Z</time>
      </trkpt>
      <trkpt lat="59.2154" lon="18.144641">
        <ele>29</ele>
        <time>2020-01-21T16:14:49Z</time>
      </trkpt>
      <trkpt lat="59.21546" lon="18.144568">
        <ele>28</ele>
        <time>2020-01-21T16:14:50Z</time>
      </trkpt>
      <trkpt lat="59.21552" lon="18.144496">
        <ele>28</ele>
        <time>2020-01-21T16:14:51Z</time>
      </trkpt>
      <trkpt lat="59.21558" lon="18.144425">
        <ele>28</ele>
        <time>2020-01-21T16:14:52Z</time>
      </trkpt>
      <trkpt lat="59.215642" lon="18.144358">
        <ele>28</ele>
        <time>2020-01-21T16:14:54Z</time>
      </trkpt>
      <trkpt lat="59.215703" lon="18.144287">
        <ele>27</ele>
        <time>2020-01-21T16:14:54Z</time>
      </trkpt>
      <trkpt lat="59.215762" lon="18.144216">
        <ele>27</ele>
        <time>2020-01-21T16:14:55Z</time>
      </trkpt>
      <trkpt lat="59.215819" lon="18.144145">
        <ele>27</ele>
        <time>2020-01-21T16:14:56Z</time>
      </trkpt>
      <trkpt lat="59.215877" lon="18.144077">
        <ele>27</ele>
        <time>2020-01-21T16:14:57Z</time>
      </trkpt>
      <trkpt lat="59.215937" lon="18.144012">
        <ele>26</ele>
        <time>2020-01-21T16:14:58Z</time>
      </trkpt>
      <trkpt lat="59.215996" lon="18.143945">
        <ele>26</ele>
        <time>2020-01-21T16:14:59Z</time>
      </trkpt>
      <trkpt lat="59.216055" lon="18.143873">
        <ele>26</ele>
        <time>2020-01-21T16:15:01Z</time>
      </trkpt>
      <trkpt lat="59.216116" lon="18.143802">
        <ele>26</ele>
        <time>2020-01-21T16:15:02Z</time>
      </trkpt>
      <trkpt lat="59.216177" lon="18.143728">
        <ele>26</ele>
        <time>2020-01-21T16:15:02Z</time>
      </trkpt>
      <trkpt lat="59.216238" lon="18.143656">
        <ele>26</ele>
        <time>2020-01-21T16:15:03Z</time>
      </trkpt>
      <trkpt lat="59.216299" lon="18.143583">
        <ele>25</ele>
        <time>2020-01-21T16:15:04Z</time>
      </trkpt>
      <trkpt lat="59.216359" lon="18.143509">
        <ele>25</ele>
        <time>2020-01-21T16:15:05Z</time>
      </trkpt>
      <trkpt lat="59.216418" lon="18.143436">
        <ele>25</ele>
        <time>2020-01-21T16:15:06Z</time>
      </trkpt>
      <trkpt lat="59.216477" lon="18.143363">
        <ele>25</ele>
        <time>2020-01-21T16:15:07Z</time>
      </trkpt>
      <trkpt lat="59.216537" lon="18.143294">
        <ele>25</ele>
        <time>2020-01-21T16:15:09Z</time>
      </trkpt>
      <trkpt lat="59.216597" lon="18.143228">
        <ele>25</ele>
        <time>2020-01-21T16:15:09Z</time>
      </trkpt>
      <trkpt lat="59.216655" lon="18.14316">
        <ele>25</ele>
        <time>2020-01-21T16:15:10Z</time>
      </trkpt>
      <trkpt lat="59.216711" lon="18.143092">
        <ele>25</ele>
        <time>2020-01-21T16:15:11Z</time>
      </trkpt>
      <trkpt lat="59.216767" lon="18.143027">
        <ele>25</ele>
        <time>2020-01-21T16:15:13Z</time>
      </trkpt>
      <trkpt lat="59.216821" lon="18.142964">
        <ele>25</ele>
        <time>2020-01-21T16:15:13Z</time>
      </trkpt>
      <trkpt lat="59.216874" lon="18.142902">
        <ele>25</ele>
        <time>2020-01-21T16:15:14Z</time>
      </trkpt>
      <trkpt lat="59.216927" lon="18.14284">
        <ele>25</ele>
        <time>2020-01-21T16:15:16Z</time>
      </trkpt>
      <trkpt lat="59.21698" lon="18.142779">
        <ele>25</ele>
        <time>2020-01-21T16:15:16Z</time>
      </trkpt>
      <trkpt lat="59.217032" lon="18.14272">
        <ele>25</ele>
        <time>2020-01-21T16:15:17Z</time>
      </trkpt>
      <trkpt lat="59.217082" lon="18.142661">
        <ele>25</ele>
        <time>2020-01-21T16:15:18Z</time>
      </trkpt>
      <trkpt lat="59.217132" lon="18.142603">
        <ele>25</ele>
        <time>2020-01-21T16:15:19Z</time>
      </trkpt>
      <trkpt lat="59.217181" lon="18.142546">
        <ele>25</ele>
        <time>2020-01-21T16:15:20Z</time>
      </trkpt>
      <trkpt lat="59.21723" lon="18.142488">
        <ele>25</ele>
        <time>2020-01-21T16:15:21Z</time>
      </trkpt>
      <trkpt lat="59.21728" lon="18.14243">
        <ele>25</ele>
        <time>2020-01-21T16:15:22Z</time>
      </trkpt>
      <trkpt lat="59.217329" lon="18.14237">
        <ele>25</ele>
        <time>2020-01-21T16:15:23Z</time>
      </trkpt>
      <trkpt lat="59.217379" lon="18.142312">
        <ele>25</ele>
        <time>2020-01-21T16:15:25Z</time>
      </trkpt>
      <trkpt lat="59.217429" lon="18.142255">
        <ele>25</ele>
        <time>2020-01-21T16:15:25Z</time>
      </trkpt>
      <trkpt lat="59.21748" lon="18.142199">
        <ele>25</ele>
        <time>2020-01-21T16:15:26Z</time>
      </trkpt>
      <trkpt lat="59.21753" lon="18.142143">
        <ele>25</ele>
        <time>2020-01-21T16:15:27Z</time>
      </trkpt>
      <trkpt lat="59.217579" lon="18.142087">
        <ele>25</ele>
        <time>2020-01-21T16:15:28Z</time>
      </trkpt>
      <trkpt lat="59.217629" lon="18.142032">
        <ele>25</ele>
        <time>2020-01-21T16:15:29Z</time>
      </trkpt>
      <trkpt lat="59.217678" lon="18.141978">
        <ele>25</ele>
        <time>2020-01-21T16:15:30Z</time>
      </trkpt>
      <trkpt lat="59.217728" lon="18.141925">
        <ele>25</ele>
        <time>2020-01-21T16:15:32Z</time>
      </trkpt>
      <trkpt lat="59.217778" lon="18.141871">
        <ele>25</ele>
        <time>2020-01-21T16:15:32Z</time>
      </trkpt>
      <trkpt lat="59.217827" lon="18.141817">
        <ele>25</ele>
        <time>2020-01-21T16:15:34Z</time>
      </trkpt>
      <trkpt lat="59.217877" lon="18.14176">
        <ele>25</ele>
        <time>2020-01-21T16:15:34Z</time>
      </trkpt>
      <trkpt lat="59.217927" lon="18.141701">
        <ele>25</ele>
        <time>2020-01-21T16:15:35Z</time>
      </trkpt>
      <trkpt lat="59.217978" lon="18.141645">
        <ele>25</ele>
        <time>2020-01-21T16:15:36Z</time>
      </trkpt>
      <trkpt lat="59.218028" lon="18.141589">
        <ele>25</ele>
        <time>2020-01-21T16:15:37Z</time>
      </trkpt>
      <trkpt lat="59.218078" lon="18.141532">
        <ele>25</ele>
        <time>2020-01-21T16:15:38Z</time>
      </trkpt>
      <trkpt lat="59.218127" lon="18.141488">
        <ele>25</ele>
        <time>2020-01-21T16:15:39Z</time>
      </trkpt>
      <trkpt lat="59.218177" lon="18.141472">
        <ele>25</ele>
        <time>2020-01-21T16:15:40Z</time>
      </trkpt>
      <trkpt lat="59.218227" lon="18.14149">
        <ele>25</ele>
        <time>2020-01-21T16:15:41Z</time>
      </trkpt>
      <trkpt lat="59.218273" lon="18.141539">
        <ele>25</ele>
        <time>2020-01-21T16:15:43Z</time>
      </trkpt>
      <trkpt lat="59.218315" lon="18.141593">
        <ele>25</ele>
        <time>2020-01-21T16:15:43Z</time>
      </trkpt>
      <trkpt lat="59.218362" lon="18.141616">
        <ele>25</ele>
        <time>2020-01-21T16:15:44Z</time>
      </trkpt>
      <trkpt lat="59.218409" lon="18.141603">
        <ele>25</ele>
        <time>2020-01-21T16:15:45Z</time>
      </trkpt>
      <trkpt lat="59.218457" lon="18.141579">
        <ele>25</ele>
        <time>2020-01-21T16:15:46Z</time>
      </trkpt>
      <trkpt lat="59.218507" lon="18.141561">
        <ele>25</ele>
        <time>2020-01-21T16:15:47Z</time>
      </trkpt>
      <trkpt lat="59.218557" lon="18.141542">
        <ele>25</ele>
        <time>2020-01-21T16:15:48Z</time>
      </trkpt>
      <trkpt lat="59.218601" lon="18.141496">
        <ele>25</ele>
        <time>2020-01-21T16:15:49Z</time>
      </trkpt>
      <trkpt lat="59.218627" lon="18.141419">
        <ele>25</ele>
        <time>2020-01-21T16:15:51Z</time>
      </trkpt>
      <trkpt lat="59.218637" lon="18.141323">
        <ele>25</ele>
        <time>2020-01-21T16:15:51Z</time>
      </trkpt>
      <trkpt lat="59.218645" lon="18.141219">
        <ele>25</ele>
        <time>2020-01-21T16:15:53Z</time>
      </trkpt>
      <trkpt lat="59.218656" lon="18.141116">
        <ele>25</ele>
        <time>2020-01-21T16:15:53Z</time>
      </trkpt>
      <trkpt lat="59.218669" lon="18.141012">
        <ele>25</ele>
        <time>2020-01-21T16:15:54Z</time>
      </trkpt>
      <trkpt lat="59.218686" lon="18.14091">
        <ele>25</ele>
        <time>2020-01-21T16:15:55Z</time>
      </trkpt>
      <trkpt lat="59.218713" lon="18.140815">
        <ele>25</ele>
        <time>2020-01-21T16:15:56Z</time>
      </trkpt>
      <trkpt lat="59.218748" lon="18.140731">
        <ele>25</ele>
        <time>2020-01-21T16:15:57Z</time>
      </trkpt>
      <trkpt lat="59.218789" lon="18.140655">
        <ele>25</ele>
        <time>2020-01-21T16:15:58Z</time>
      </trkpt>
      <trkpt lat="59.218834" lon="18.140587">
        <ele>25</ele>
        <time>2020-01-21T16:15:59Z</time>
      </trkpt>
      <trkpt lat="59.218882" lon="18.140526">
        <ele>25</ele>
        <time>2020-01-21T16:16:00Z</time>
      </trkpt>
      <trkpt lat="59.218931" lon="18.140471">
        <ele>25</ele>
        <time>2020-01-21T16:16:02Z</time>
      </trkpt>
      <trkpt lat="59.218982" lon="18.140422">
        <ele>25</ele>
        <time>2020-01-21T16:16:02Z</time>
      </trkpt>
      <trkpt lat="59.219033" lon="18.140372">
        <ele>25</ele>
        <time>2020-01-21T16:16:03Z</time>
      </trkpt>
      <trkpt lat="59.219083" lon="18.140315">
        <ele>25</ele>
        <time>2020-01-21T16:16:04Z</time>
      </trkpt>
      <trkpt lat="59.219132" lon="18.140258">
        <ele>25</ele>
        <time>2020-01-21T16:16:05Z</time>
      </trkpt>
      <trkpt lat="59.219181" lon="18.140201">
        <ele>25</ele>
        <time>2020-01-21T16:16:06Z</time>
      </trkpt>
      <trkpt lat="59.219229" lon="18.140144">
        <ele>25</ele>
        <time>2020-01-21T16:16:07Z</time>
      </trkpt>
      <trkpt lat="59.219277" lon="18.140088">
        <ele>25</ele>
        <time>2020-01-21T16:16:08Z</time>
      </trkpt>
      <trkpt lat="59.219324" lon="18.140029">
        <ele>25</ele>
        <time>2020-01-21T16:16:10Z</time>
      </trkpt>
      <trkpt lat="59.21937" lon="18.139968">
        <ele>25</ele>
        <time>2020-01-21T16:16:11Z</time>
      </trkpt>
      <trkpt lat="59.219416" lon="18.139907">
        <ele>26</ele>
        <time>2020-01-21T16:16:11Z</time>
      </trkpt>
      <trkpt lat="59.219461" lon="18.139848">
        <ele>26</ele>
        <time>2020-01-21T16:16:12Z</time>
      </trkpt>
      <trkpt lat="59.219507" lon="18.13979">
        <ele>26</ele>
        <time>2020-01-21T16:16:13Z</time>
      </trkpt>
      <trkpt lat="59.219553" lon="18.13974">
        <ele>26</ele>
        <time>2020-01-21T16:16:14Z</time>
      </trkpt>
      <trkpt lat="59.219599" lon="18.139694">
        <ele>26</ele>
        <time>2020-01-21T16:16:15Z</time>
      </trkpt>
      <trkpt lat="59.219644" lon="18.139651">
        <ele>26</ele>
        <time>2020-01-21T16:16:16Z</time>
      </trkpt>
      <trkpt lat="59.219687" lon="18.139607">
        <ele>26</ele>
        <time>2020-01-21T16:16:17Z</time>
      </trkpt>
      <trkpt lat="59.219731" lon="18.139562">
        <ele>26</ele>
        <time>2020-01-21T16:16:18Z</time>
      </trkpt>
      <trkpt lat="59.219772" lon="18.139516">
        <ele>27</ele>
        <time>2020-01-21T16:16:20Z</time>
      </trkpt>
      <trkpt lat="59.219811" lon="18.13947">
        <ele>27</ele>
        <time>2020-01-21T16:16:20Z</time>
      </trkpt>
      <trkpt lat="59.219847" lon="18.139427">
        <ele>27</ele>
        <time>2020-01-21T16:16:21Z</time>
      </trkpt>
      <trkpt lat="59.219884" lon="18.139382">
        <ele>27</ele>
        <time>2020-01-21T16:16:22Z</time>
      </trkpt>
      <trkpt lat="59.219919" lon="18.139342">
        <ele>27</ele>
        <time>2020-01-21T16:16:23Z</time>
      </trkpt>
      <trkpt lat="59.219954" lon="18.139302">
        <ele>27</ele>
        <time>2020-01-21T16:16:24Z</time>
      </trkpt>
      <trkpt lat="59.219986" lon="18.13926">
        <ele>27</ele>
        <time>2020-01-21T16:16:25Z</time>
      </trkpt>
      <trkpt lat="59.220019" lon="18.139217">
        <ele>27</ele>
        <time>2020-01-21T16:16:26Z</time>
      </trkpt>
      <trkpt lat="59.22005" lon="18.139173">
        <ele>27</ele>
        <time>2020-01-21T16:16:27Z</time>
      </trkpt>
      <trkpt lat="59.220083" lon="18.139129">
        <ele>27</ele>
        <time>2020-01-21T16:16:29Z</time>
      </trkpt>
      <trkpt lat="59.220116" lon="18.139088">
        <ele>27</ele>
        <time>2020-01-21T16:16:29Z</time>
      </trkpt>
      <trkpt lat="59.220148" lon="18.139054">
        <ele>27</ele>
        <time>2020-01-21T16:16:30Z</time>
      </trkpt>
      <trkpt lat="59.220179" lon="18.139017">
        <ele>28</ele>
        <time>2020-01-21T16:16:31Z</time>
      </trkpt>
      <trkpt lat="59.220212" lon="18.138979">
        <ele>28</ele>
        <time>2020-01-21T16:16:33Z</time>
      </trkpt>
      <trkpt lat="59.220245" lon="18.138941">
        <ele>28</ele>
        <time>2020-01-21T16:16:33Z</time>
      </trkpt>
      <trkpt lat="59.220278" lon="18.138904">
        <ele>28</ele>
        <time>2020-01-21T16:16:34Z</time>
      </trkpt>
      <trkpt lat="59.220311" lon="18.138869">
        <ele>28</ele>
        <time>2020-01-21T16:16:35Z</time>
      </trkpt>
      <trkpt lat="59.220347" lon="18.138836">
        <ele>29</ele>
        <time>2020-01-21T16:16:36Z</time>
      </trkpt>
      <trkpt lat="59.220383" lon="18.138806">
        <ele>29</ele>
        <time>2020-01-21T16:16:37Z</time>
      </trkpt>
      <trkpt lat="59.22042" lon="18.138779">
        <ele>29</ele>
        <time>2020-01-21T16:16:38Z</time>
      </trkpt>
      <trkpt lat="59.220458" lon="18.138753">
        <ele>29</ele>
        <time>2020-01-21T16:16:39Z</time>
      </trkpt>
      <trkpt lat="59.220496" lon="18.138726">
        <ele>29</ele>
        <time>2020-01-21T16:16:40Z</time>
      </trkpt>
      <trkpt lat="59.220534" lon="18.138699">
        <ele>29</ele>
        <time>2020-01-21T16:16:41Z</time>
      </trkpt>
      <trkpt lat="59.220573" lon="18.138674">
        <ele>30</ele>
        <time>2020-01-21T16:16:42Z</time>
      </trkpt>
      <trkpt lat="59.220612" lon="18.138652">
        <ele>30</ele>
        <time>2020-01-21T16:16:43Z</time>
      </trkpt>
      <trkpt lat="59.22065" lon="18.13863">
        <ele>30</ele>
        <time>2020-01-21T16:16:44Z</time>
      </trkpt>
      <trkpt lat="59.220689" lon="18.138608">
        <ele>30</ele>
        <time>2020-01-21T16:16:46Z</time>
      </trkpt>
      <trkpt lat="59.220728" lon="18.13859">
        <ele>30</ele>
        <time>2020-01-21T16:16:46Z</time>
      </trkpt>
      <trkpt lat="59.220767" lon="18.138575">
        <ele>30</ele>
        <time>2020-01-21T16:16:48Z</time>
      </trkpt>
      <trkpt lat="59.220806" lon="18.13856">
        <ele>30</ele>
        <time>2020-01-21T16:16:48Z</time>
      </trkpt>
      <trkpt lat="59.220845" lon="18.138544">
        <ele>30</ele>
        <time>2020-01-21T16:16:49Z</time>
      </trkpt>
      <trkpt lat="59.220885" lon="18.138527">
        <ele>31</ele>
        <time>2020-01-21T16:16:50Z</time>
      </trkpt>
      <trkpt lat="59.220925" lon="18.13851">
        <ele>31</ele>
        <time>2020-01-21T16:16:51Z</time>
      </trkpt>
      <trkpt lat="59.220965" lon="18.138494">
        <ele>31</ele>
        <time>2020-01-21T16:16:52Z</time>
      </trkpt>
      <trkpt lat="59.221006" lon="18.138478">
        <ele>31</ele>
        <time>2020-01-21T16:16:53Z</time>
      </trkpt>
      <trkpt lat="59.221048" lon="18.138461">
        <ele>31</ele>
        <time>2020-01-21T16:16:54Z</time>
      </trkpt>
      <trkpt lat="59.221089" lon="18.138445">
        <ele>31</ele>
        <time>2020-01-21T16:16:55Z</time>
      </trkpt>
      <trkpt lat="59.221131" lon="18.13843">
        <ele>31</ele>
        <time>2020-01-21T16:16:56Z</time>
      </trkpt>
      <trkpt lat="59.221174" lon="18.138412">
        <ele>31</ele>
        <time>2020-01-21T16:16:58Z</time>
      </trkpt>
      <trkpt lat="59.221216" lon="18.138394">
        <ele>31</ele>
        <time>2020-01-21T16:16:58Z</time>
      </trkpt>
      <trkpt lat="59.221258" lon="18.138377">
        <ele>31</ele>
        <time>2020-01-21T16:16:59Z</time>
      </trkpt>
      <trkpt lat="59.221301" lon="18.138361">
        <ele>31</ele>
        <time>2020-01-21T16:17:00Z</time>
      </trkpt>
      <trkpt lat="59.221345" lon="18.138343">
        <ele>31</ele>
        <time>2020-01-21T16:17:01Z</time>
      </trkpt>
      <trkpt lat="59.221389" lon="18.138322">
        <ele>31</ele>
        <time>2020-01-21T16:17:02Z</time>
      </trkpt>
      <trkpt lat="59.221436" lon="18.1383">
        <ele>31</ele>
        <time>2020-01-21T16:17:03Z</time>
      </trkpt>
      <trkpt lat="59.221481" lon="18.138283">
        <ele>31</ele>
        <time>2020-01-21T16:17:04Z</time>
      </trkpt>
      <trkpt lat="59.221526" lon="18.138265">
        <ele>32</ele>
        <time>2020-01-21T16:17:05Z</time>
      </trkpt>
      <trkpt lat="59.221569" lon="18.138248">
        <ele>32</ele>
        <time>2020-01-21T16:17:07Z</time>
      </trkpt>
      <trkpt lat="59.221613" lon="18.13823">
        <ele>32</ele>
        <time>2020-01-21T16:17:07Z</time>
      </trkpt>
      <trkpt lat="59.221657" lon="18.138213">
        <ele>32</ele>
        <time>2020-01-21T16:17:09Z</time>
      </trkpt>
      <trkpt lat="59.221698" lon="18.138199">
        <ele>32</ele>
        <time>2020-01-21T16:17:09Z</time>
      </trkpt>
      <trkpt lat="59.221739" lon="18.138186">
        <ele>32</ele>
        <time>2020-01-21T16:17:10Z</time>
      </trkpt>
      <trkpt lat="59.221785" lon="18.13817">
        <ele>33</ele>
        <time>2020-01-21T16:17:11Z</time>
      </trkpt>
      <trkpt lat="59.221833" lon="18.13815">
        <ele>33</ele>
        <time>2020-01-21T16:17:12Z</time>
      </trkpt>
      <trkpt lat="59.221874" lon="18.138136">
        <ele>33</ele>
        <time>2020-01-21T16:17:13Z</time>
      </trkpt>
      <trkpt lat="59.221914" lon="18.138126">
        <ele>33</ele>
        <time>2020-01-21T16:17:14Z</time>
      </trkpt>
      <trkpt lat="59.22196" lon="18.138108">
        <ele>33</ele>
        <time>2020-01-21T16:17:15Z</time>
      </trkpt>
      <trkpt lat="59.22201" lon="18.138086">
        <ele>33</ele>
        <time>2020-01-21T16:17:16Z</time>
      </trkpt>
      <trkpt lat="59.222057" lon="18.138069">
        <ele>34</ele>
        <time>2020-01-21T16:17:17Z</time>
      </trkpt>
      <trkpt lat="59.222107" lon="18.138049">
        <ele>34</ele>
        <time>2020-01-21T16:17:18Z</time>
      </trkpt>
      <trkpt lat="59.22216" lon="18.138025">
        <ele>34</ele>
        <time>2020-01-21T16:17:19Z</time>
      </trkpt>
      <trkpt lat="59.222213" lon="18.137996">
        <ele>34</ele>
        <time>2020-01-21T16:17:21Z</time>
      </trkpt>
      <trkpt lat="59.222266" lon="18.137965">
        <ele>34</ele>
        <time>2020-01-21T16:17:21Z</time>
      </trkpt>
      <trkpt lat="59.222323" lon="18.137933">
        <ele>34</ele>
        <time>2020-01-21T16:17:22Z</time>
      </trkpt>
      <trkpt lat="59.222379" lon="18.137901">
        <ele>35</ele>
        <time>2020-01-21T16:17:23Z</time>
      </trkpt>
      <trkpt lat="59.222438" lon="18.137863">
        <ele>35</ele>
        <time>2020-01-21T16:17:24Z</time>
      </trkpt>
      <trkpt lat="59.222498" lon="18.137822">
        <ele>35</ele>
        <time>2020-01-21T16:17:26Z</time>
      </trkpt>
      <trkpt lat="59.222556" lon="18.137781">
        <ele>35</ele>
        <time>2020-01-21T16:17:26Z</time>
      </trkpt>
      <trkpt lat="59.222612" lon="18.13774">
        <ele>35</ele>
        <time>2020-01-21T16:17:28Z</time>
      </trkpt>
      <trkpt lat="59.222668" lon="18.137696">
        <ele>35</ele>
        <time>2020-01-21T16:17:28Z</time>
      </trkpt>
      <trkpt lat="59.222724" lon="18.137648">
        <ele>35</ele>
        <time>2020-01-21T16:17:29Z</time>
      </trkpt>
      <trkpt lat="59.22278" lon="18.137598">
        <ele>35</ele>
        <time>2020-01-21T16:17:30Z</time>
      </trkpt>
      <trkpt lat="59.222835" lon="18.137547">
        <ele>35</ele>
        <time>2020-01-21T16:17:31Z</time>
      </trkpt>
      <trkpt lat="59.222892" lon="18.13749">
        <ele>35</ele>
        <time>2020-01-21T16:17:32Z</time>
      </trkpt>
      <trkpt lat="59.222944" lon="18.137435">
        <ele>35</ele>
        <time>2020-01-21T16:17:33Z</time>
      </trkpt>
      <trkpt lat="59.222994" lon="18.137378">
        <ele>35</ele>
        <time>2020-01-21T16:17:34Z</time>
      </trkpt>
      <trkpt lat="59.223049" lon="18.137316">
        <ele>35</ele>
        <time>2020-01-21T16:17:36Z</time>
      </trkpt>
      <trkpt lat="59.223104" lon="18.137248">
        <ele>35</ele>
        <time>2020-01-21T16:17:36Z</time>
      </trkpt>
      <trkpt lat="59.223157" lon="18.137175">
        <ele>35</ele>
        <time>2020-01-21T16:17:37Z</time>
      </trkpt>
      <trkpt lat="59.22321" lon="18.137104">
        <ele>35</ele>
        <time>2020-01-21T16:17:38Z</time>
      </trkpt>
      <trkpt lat="59.223259" lon="18.137037">
        <ele>35</ele>
        <time>2020-01-21T16:17:39Z</time>
      </trkpt>
      <trkpt lat="59.223307" lon="18.136962">
        <ele>35</ele>
        <time>2020-01-21T16:17:40Z</time>
      </trkpt>
      <trkpt lat="59.223352" lon="18.136887">
        <ele>35</ele>
        <time>2020-01-21T16:17:41Z</time>
      </trkpt>
      <trkpt lat="59.223404" lon="18.136802">
        <ele>35</ele>
        <time>2020-01-21T16:17:42Z</time>
      </trkpt>
      <trkpt lat="59.223448" lon="18.136721">
        <ele>35</ele>
        <time>2020-01-21T16:17:44Z</time>
      </trkpt>
      <trkpt lat="59.22349" lon="18.136634">
        <ele>35</ele>
        <time>2020-01-21T16:17:45Z</time>
      </trkpt>
      <trkpt lat="59.223532" lon="18.136545">
        <ele>35</ele>
        <time>2020-01-21T16:17:45Z</time>
      </trkpt>
      <trkpt lat="59.223573" lon="18.136457">
        <ele>35</ele>
        <time>2020-01-21T16:17:46Z</time>
      </trkpt>
      <trkpt lat="59.223612" lon="18.136369">
        <ele>35</ele>
        <time>2020-01-21T16:17:47Z</time>
      </trkpt>
      <trkpt lat="59.223649" lon="18.136281">
        <ele>35</ele>
        <time>2020-01-21T16:17:48Z</time>
      </trkpt>
      <trkpt lat="59.223681" lon="18.136195">
        <ele>35</ele>
        <time>2020-01-21T16:17:49Z</time>
      </trkpt>
      <trkpt lat="59.223712" lon="18.136106">
        <ele>35</ele>
        <time>2020-01-21T16:17:50Z</time>
      </trkpt>
      <trkpt lat="59.223749" lon="18.13601">
        <ele>35</ele>
        <time>2020-01-21T16:17:51Z</time>
      </trkpt>
      <trkpt lat="59.223788" lon="18.135917">
        <ele>35</ele>
        <time>2020-01-21T16:17:53Z</time>
      </trkpt>
      <trkpt lat="59.223818" lon="18.135836">
        <ele>35</ele>
        <time>2020-01-21T16:17:53Z</time>
      </trkpt>
      <trkpt lat="59.223854" lon="18.135745">
        <ele>35</ele>
        <time>2020-01-21T16:17:54Z</time>
      </trkpt>
      <trkpt lat="59.223892" lon="18.135647">
        <ele>35</ele>
        <time>2020-01-21T16:17:55Z</time>
      </trkpt>
      <trkpt lat="59.223929" lon="18.135549">
        <ele>35</ele>
        <time>2020-01-21T16:17:56Z</time>
      </trkpt>
      <trkpt lat="59.223958" lon="18.135457">
        <ele>35</ele>
        <time>2020-01-21T16:17:57Z</time>
      </trkpt>
      <trkpt lat="59.223994" lon="18.135358">
        <ele>35</ele>
        <time>2020-01-21T16:17:58Z</time>
      </trkpt>
      <trkpt lat="59.224037" lon="18.13525">
        <ele>35</ele>
        <time>2020-01-21T16:17:59Z</time>
      </trkpt>
      <trkpt lat="59.22408" lon="18.135142">
        <ele>35</ele>
        <time>2020-01-21T16:18:01Z</time>
      </trkpt>
      <trkpt lat="59.224123" lon="18.135034">
        <ele>35</ele>
        <time>2020-01-21T16:18:01Z</time>
      </trkpt>
      <trkpt lat="59.224163" lon="18.13493">
        <ele>35</ele>
        <time>2020-01-21T16:18:02Z</time>
      </trkpt>
      <trkpt lat="59.2242" lon="18.13483">
        <ele>36</ele>
        <time>2020-01-21T16:18:04Z</time>
      </trkpt>
      <trkpt lat="59.224243" lon="18.134723">
        <ele>36</ele>
        <time>2020-01-21T16:18:04Z</time>
      </trkpt>
      <trkpt lat="59.224284" lon="18.134616">
        <ele>36</ele>
        <time>2020-01-21T16:18:05Z</time>
      </trkpt>
      <trkpt lat="59.22432" lon="18.134517">
        <ele>36</ele>
        <time>2020-01-21T16:18:06Z</time>
      </trkpt>
      <trkpt lat="59.224358" lon="18.134418">
        <ele>36</ele>
        <time>2020-01-21T16:18:08Z</time>
      </trkpt>
      <trkpt lat="59.224398" lon="18.134317">
        <ele>36</ele>
        <time>2020-01-21T16:18:08Z</time>
      </trkpt>
      <trkpt lat="59.22444" lon="18.134214">
        <ele>36</ele>
        <time>2020-01-21T16:18:09Z</time>
      </trkpt>
      <trkpt lat="59.224478" lon="18.134119">
        <ele>36</ele>
        <time>2020-01-21T16:18:10Z</time>
      </trkpt>
      <trkpt lat="59.224515" lon="18.134025">
        <ele>36</ele>
        <time>2020-01-21T16:18:11Z</time>
      </trkpt>
      <trkpt lat="59.224556" lon="18.133932">
        <ele>36</ele>
        <time>2020-01-21T16:18:12Z</time>
      </trkpt>
      <trkpt lat="59.224604" lon="18.133834">
        <ele>36</ele>
        <time>2020-01-21T16:18:13Z</time>
      </trkpt>
      <trkpt lat="59.224648" lon="18.133742">
        <ele>36</ele>
        <time>2020-01-21T16:18:14Z</time>
      </trkpt>
      <trkpt lat="59.22469" lon="18.133656">
        <ele>36</ele>
        <time>2020-01-21T16:18:16Z</time>
      </trkpt>
      <trkpt lat="59.224732" lon="18.133573">
        <ele>36</ele>
        <time>2020-01-21T16:18:16Z</time>
      </trkpt>
      <trkpt lat="59.22477" lon="18.133497">
        <ele>36</ele>
        <time>2020-01-21T16:18:17Z</time>
      </trkpt>
      <trkpt lat="59.224809" lon="18.133421">
        <ele>36</ele>
        <time>2020-01-21T16:18:18Z</time>
      </trkpt>
      <trkpt lat="59.22484" lon="18.133356">
        <ele>36</ele>
        <time>2020-01-21T16:18:19Z</time>
      </trkpt>
      <trkpt lat="59.224879" lon="18.133286">
        <ele>36</ele>
        <time>2020-01-21T16:18:20Z</time>
      </trkpt>
      <trkpt lat="59.224911" lon="18.133225">
        <ele>36</ele>
        <time>2020-01-21T16:18:21Z</time>
      </trkpt>
      <trkpt lat="59.224942" lon="18.133172">
        <ele>36</ele>
        <time>2020-01-21T16:18:23Z</time>
      </trkpt>
      <trkpt lat="59.22497" lon="18.133121">
        <ele>36</ele>
        <time>2020-01-21T16:18:23Z</time>
      </trkpt>
      <trkpt lat="59.225" lon="18.133071">
        <ele>36</ele>
        <time>2020-01-21T16:18:24Z</time>
      </trkpt>
      <trkpt lat="59.225025" lon="18.133028">
        <ele>36</ele>
        <time>2020-01-21T16:18:25Z</time>
      </trkpt>
      <trkpt lat="59.225054" lon="18.132982">
        <ele>37</ele>
        <time>2020-01-21T16:18:27Z</time>
      </trkpt>
      <trkpt lat="59.225083" lon="18.13293">
        <ele>37</ele>
        <time>2020-01-21T16:18:27Z</time>
      </trkpt>
      <trkpt lat="59.225111" lon="18.132879">
        <ele>37</ele>
        <time>2020-01-21T16:18:28Z</time>
      </trkpt>
      <trkpt lat="59.225137" lon="18.132825">
        <ele>37</ele>
        <time>2020-01-21T16:18:29Z</time>
      </trkpt>
      <trkpt lat="59.225163" lon="18.132769">
        <ele>37</ele>
        <time>2020-01-21T16:18:30Z</time>
      </trkpt>
      <trkpt lat="59.225187" lon="18.132717">
        <ele>37</ele>
        <time>2020-01-21T16:18:31Z</time>
      </trkpt>
      <trkpt lat="59.225217" lon="18.132665">
        <ele>37</ele>
        <time>2020-01-21T16:18:32Z</time>
      </trkpt>
      <trkpt lat="59.22525" lon="18.132618">
        <ele>37</ele>
        <time>2020-01-21T16:18:33Z</time>
      </trkpt>
      <trkpt lat="59.225233" lon="18.132637">
        <ele>37</ele>
        <time>2020-01-21T16:18:34Z</time>
      </trkpt>
      <trkpt lat="59.225251" lon="18.132614">
        <ele>38</ele>
        <time>2020-01-21T16:18:35Z</time>
      </trkpt>
      <trkpt lat="59.225288" lon="18.132571">
        <ele>38</ele>
        <time>2020-01-21T16:18:36Z</time>
      </trkpt>
      <trkpt lat="59.22532" lon="18.132529">
        <ele>38</ele>
        <time>2020-01-21T16:18:37Z</time>
      </trkpt>
      <trkpt lat="59.225351" lon="18.132482">
        <ele>38</ele>
        <time>2020-01-21T16:18:38Z</time>
      </trkpt>
      <trkpt lat="59.225378" lon="18.132429">
        <ele>38</ele>
        <time>2020-01-21T16:18:39Z</time>
      </trkpt>
      <trkpt lat="59.225416" lon="18.13237">
        <ele>38</ele>
        <time>2020-01-21T16:18:41Z</time>
      </trkpt>
      <trkpt lat="59.225455" lon="18.132319">
        <ele>38</ele>
        <time>2020-01-21T16:18:42Z</time>
      </trkpt>
      <trkpt lat="59.225506" lon="18.132254">
        <ele>39</ele>
        <time>2020-01-21T16:18:42Z</time>
      </trkpt>
      <trkpt lat="59.225555" lon="18.13219">
        <ele>39</ele>
        <time>2020-01-21T16:18:43Z</time>
      </trkpt>
      <trkpt lat="59.225597" lon="18.132131">
        <ele>38</ele>
        <time>2020-01-21T16:18:44Z</time>
      </trkpt>
      <trkpt lat="59.225642" lon="18.132068">
        <ele>39</ele>
        <time>2020-01-21T16:18:45Z</time>
      </trkpt>
      <trkpt lat="59.22567" lon="18.132009">
        <ele>39</ele>
        <time>2020-01-21T16:18:46Z</time>
      </trkpt>
      <trkpt lat="59.225683" lon="18.13194">
        <ele>39</ele>
        <time>2020-01-21T16:18:47Z</time>
      </trkpt>
      <trkpt lat="59.225689" lon="18.131861">
        <ele>39</ele>
        <time>2020-01-21T16:18:48Z</time>
      </trkpt>
      <trkpt lat="59.225695" lon="18.131774">
        <ele>39</ele>
        <time>2020-01-21T16:18:49Z</time>
      </trkpt>
      <trkpt lat="59.225711" lon="18.131681">
        <ele>39</ele>
        <time>2020-01-21T16:18:51Z</time>
      </trkpt>
      <trkpt lat="59.225734" lon="18.1316">
        <ele>39</ele>
        <time>2020-01-21T16:18:51Z</time>
      </trkpt>
      <trkpt lat="59.225763" lon="18.131533">
        <ele>40</ele>
        <time>2020-01-21T16:18:52Z</time>
      </trkpt>
      <trkpt lat="59.225796" lon="18.131475">
        <ele>40</ele>
        <time>2020-01-21T16:18:53Z</time>
      </trkpt>
      <trkpt lat="59.225831" lon="18.13142">
        <ele>40</ele>
        <time>2020-01-21T16:18:54Z</time>
      </trkpt>
      <trkpt lat="59.225866" lon="18.131371">
        <ele>40</ele>
        <time>2020-01-21T16:18:55Z</time>
      </trkpt>
      <trkpt lat="59.225902" lon="18.131321">
        <ele>40</ele>
        <time>2020-01-21T16:18:56Z</time>
      </trkpt>
      <trkpt lat="59.225939" lon="18.131269">
        <ele>40</ele>
        <time>2020-01-21T16:18:57Z</time>
      </trkpt>
      <trkpt lat="59.225975" lon="18.131216">
        <ele>40</ele>
        <time>2020-01-21T16:18:58Z</time>
      </trkpt>
      <trkpt lat="59.226009" lon="18.131166">
        <ele>40</ele>
        <time>2020-01-21T16:18:59Z</time>
      </trkpt>
      <trkpt lat="59.226049" lon="18.131109">
        <ele>40</ele>
        <time>2020-01-21T16:19:01Z</time>
      </trkpt>
      <trkpt lat="59.226085" lon="18.131055">
        <ele>40</ele>
        <time>2020-01-21T16:19:01Z</time>
      </trkpt>
      <trkpt lat="59.226117" lon="18.131005">
        <ele>40</ele>
        <time>2020-01-21T16:19:03Z</time>
      </trkpt>
      <trkpt lat="59.22615" lon="18.130955">
        <ele>41</ele>
        <time>2020-01-21T16:19:03Z</time>
      </trkpt>
      <trkpt lat="59.226182" lon="18.130908">
        <ele>41</ele>
        <time>2020-01-21T16:19:04Z</time>
      </trkpt>
      <trkpt lat="59.226214" lon="18.130862">
        <ele>41</ele>
        <time>2020-01-21T16:19:05Z</time>
      </trkpt>
      <trkpt lat="59.226246" lon="18.130815">
        <ele>41</ele>
        <time>2020-01-21T16:19:06Z</time>
      </trkpt>
      <trkpt lat="59.22628" lon="18.130767">
        <ele>41</ele>
        <time>2020-01-21T16:19:07Z</time>
      </trkpt>
      <trkpt lat="59.226313" lon="18.13072">
        <ele>42</ele>
        <time>2020-01-21T16:19:08Z</time>
      </trkpt>
      <trkpt lat="59.226347" lon="18.130673">
        <ele>42</ele>
        <time>2020-01-21T16:19:09Z</time>
      </trkpt>
      <trkpt lat="59.226383" lon="18.130617">
        <ele>42</ele>
        <time>2020-01-21T16:19:10Z</time>
      </trkpt>
      <trkpt lat="59.226423" lon="18.130558">
        <ele>42</ele>
        <time>2020-01-21T16:19:11Z</time>
      </trkpt>
      <trkpt lat="59.226458" lon="18.130501">
        <ele>42</ele>
        <time>2020-01-21T16:19:12Z</time>
      </trkpt>
      <trkpt lat="59.226499" lon="18.13044">
        <ele>41</ele>
        <time>2020-01-21T16:19:14Z</time>
      </trkpt>
      <trkpt lat="59.226532" lon="18.130382">
        <ele>42</ele>
        <time>2020-01-21T16:19:14Z</time>
      </trkpt>
      <trkpt lat="59.226562" lon="18.130319">
        <ele>42</ele>
        <time>2020-01-21T16:19:15Z</time>
      </trkpt>
      <trkpt lat="59.226587" lon="18.130251">
        <ele>42</ele>
        <time>2020-01-21T16:19:16Z</time>
      </trkpt>
      <trkpt lat="59.226614" lon="18.130179">
        <ele>42</ele>
        <time>2020-01-21T16:19:17Z</time>
      </trkpt>
      <trkpt lat="59.226639" lon="18.130106">
        <ele>42</ele>
        <time>2020-01-21T16:19:18Z</time>
      </trkpt>
      <trkpt lat="59.226666" lon="18.130033">
        <ele>42</ele>
        <time>2020-01-21T16:19:20Z</time>
      </trkpt>
      <trkpt lat="59.226693" lon="18.129961">
        <ele>42</ele>
        <time>2020-01-21T16:19:20Z</time>
      </trkpt>
      <trkpt lat="59.226722" lon="18.129886">
        <ele>42</ele>
        <time>2020-01-21T16:19:21Z</time>
      </trkpt>
      <trkpt lat="59.226749" lon="18.129812">
        <ele>42</ele>
        <time>2020-01-21T16:19:22Z</time>
      </trkpt>
      <trkpt lat="59.226776" lon="18.129738">
        <ele>42</ele>
        <time>2020-01-21T16:19:23Z</time>
      </trkpt>
      <trkpt lat="59.226802" lon="18.129665">
        <ele>43</ele>
        <time>2020-01-21T16:19:25Z</time>
      </trkpt>
      <trkpt lat="59.226829" lon="18.129592">
        <ele>43</ele>
        <time>2020-01-21T16:19:25Z</time>
      </trkpt>
      <trkpt lat="59.226855" lon="18.129519">
        <ele>43</ele>
        <time>2020-01-21T16:19:26Z</time>
      </trkpt>
      <trkpt lat="59.226878" lon="18.129447">
        <ele>43</ele>
        <time>2020-01-21T16:19:27Z</time>
      </trkpt>
      <trkpt lat="59.226896" lon="18.129378">
        <ele>43</ele>
        <time>2020-01-21T16:19:28Z</time>
      </trkpt>
      <trkpt lat="59.226913" lon="18.129305">
        <ele>43</ele>
        <time>2020-01-21T16:19:29Z</time>
      </trkpt>
      <trkpt lat="59.226933" lon="18.129232">
        <ele>43</ele>
        <time>2020-01-21T16:19:30Z</time>
      </trkpt>
      <trkpt lat="59.226957" lon="18.129158">
        <ele>44</ele>
        <time>2020-01-21T16:19:31Z</time>
      </trkpt>
      <trkpt lat="59.226978" lon="18.129084">
        <ele>44</ele>
        <time>2020-01-21T16:19:32Z</time>
      </trkpt>
      <trkpt lat="59.226996" lon="18.129014">
        <ele>44</ele>
        <time>2020-01-21T16:19:33Z</time>
      </trkpt>
      <trkpt lat="59.227014" lon="18.128949">
        <ele>44</ele>
        <time>2020-01-21T16:19:34Z</time>
      </trkpt>
      <trkpt lat="59.227032" lon="18.128883">
        <ele>45</ele>
        <time>2020-01-21T16:19:36Z</time>
      </trkpt>
      <trkpt lat="59.227054" lon="18.128809">
        <ele>45</ele>
        <time>2020-01-21T16:19:36Z</time>
      </trkpt>
      <trkpt lat="59.227079" lon="18.128728">
        <ele>45</ele>
        <time>2020-01-21T16:19:37Z</time>
      </trkpt>
      <trkpt lat="59.227111" lon="18.128644">
        <ele>45</ele>
        <time>2020-01-21T16:19:39Z</time>
      </trkpt>
      <trkpt lat="59.22714" lon="18.128565">
        <ele>46</ele>
        <time>2020-01-21T16:19:39Z</time>
      </trkpt>
      <trkpt lat="59.227164" lon="18.128489">
        <ele>46</ele>
        <time>2020-01-21T16:19:40Z</time>
      </trkpt>
      <trkpt lat="59.227192" lon="18.128413">
        <ele>45</ele>
        <time>2020-01-21T16:19:41Z</time>
      </trkpt>
      <trkpt lat="59.227221" lon="18.128336">
        <ele>45</ele>
        <time>2020-01-21T16:19:42Z</time>
      </trkpt>
      <trkpt lat="59.227252" lon="18.128256">
        <ele>45</ele>
        <time>2020-01-21T16:19:43Z</time>
      </trkpt>
      <trkpt lat="59.227283" lon="18.128177">
        <ele>45</ele>
        <time>2020-01-21T16:19:44Z</time>
      </trkpt>
      <trkpt lat="59.227313" lon="18.128099">
        <ele>45</ele>
        <time>2020-01-21T16:19:45Z</time>
      </trkpt>
      <trkpt lat="59.227339" lon="18.128024">
        <ele>46</ele>
        <time>2020-01-21T16:19:47Z</time>
      </trkpt>
      <trkpt lat="59.227363" lon="18.127951">
        <ele>46</ele>
        <time>2020-01-21T16:19:47Z</time>
      </trkpt>
      <trkpt lat="59.227392" lon="18.127871">
        <ele>46</ele>
        <time>2020-01-21T16:19:48Z</time>
      </trkpt>
      <trkpt lat="59.227422" lon="18.127792">
        <ele>46</ele>
        <time>2020-01-21T16:19:49Z</time>
      </trkpt>
      <trkpt lat="59.227451" lon="18.127717">
        <ele>46</ele>
        <time>2020-01-21T16:19:50Z</time>
      </trkpt>
      <trkpt lat="59.22748" lon="18.127641">
        <ele>46</ele>
        <time>2020-01-21T16:19:51Z</time>
      </trkpt>
      <trkpt lat="59.227504" lon="18.127572">
        <ele>46</ele>
        <time>2020-01-21T16:19:52Z</time>
      </trkpt>
      <trkpt lat="59.227534" lon="18.1275">
        <ele>46</ele>
        <time>2020-01-21T16:19:53Z</time>
      </trkpt>
      <trkpt lat="59.227572" lon="18.127418">
        <ele>46</ele>
        <time>2020-01-21T16:19:54Z</time>
      </trkpt>
      <trkpt lat="59.227607" lon="18.127339">
        <ele>46</ele>
        <time>2020-01-21T16:19:55Z</time>
      </trkpt>
      <trkpt lat="59.227636" lon="18.127262">
        <ele>46</ele>
        <time>2020-01-21T16:19:57Z</time>
      </trkpt>
      <trkpt lat="59.22766" lon="18.127187">
        <ele>46</ele>
        <time>2020-01-21T16:19:58Z</time>
      </trkpt>
      <trkpt lat="59.227682" lon="18.12711">
        <ele>46</ele>
        <time>2020-01-21T16:19:58Z</time>
      </trkpt>
      <trkpt lat="59.227703" lon="18.127028">
        <ele>46</ele>
        <time>2020-01-21T16:19:59Z</time>
      </trkpt>
      <trkpt lat="59.227719" lon="18.126945">
        <ele>46</ele>
        <time>2020-01-21T16:20:00Z</time>
      </trkpt>
      <trkpt lat="59.227733" lon="18.126861">
        <ele>46</ele>
        <time>2020-01-21T16:20:01Z</time>
      </trkpt>
      <trkpt lat="59.227746" lon="18.126775">
        <ele>46</ele>
        <time>2020-01-21T16:20:02Z</time>
      </trkpt>
      <trkpt lat="59.227759" lon="18.12669">
        <ele>46</ele>
        <time>2020-01-21T16:20:03Z</time>
      </trkpt>
      <trkpt lat="59.227784" lon="18.126608">
        <ele>46</ele>
        <time>2020-01-21T16:20:04Z</time>
      </trkpt>
      <trkpt lat="59.227815" lon="18.126548">
        <ele>45</ele>
        <time>2020-01-21T16:20:05Z</time>
      </trkpt>
      <trkpt lat="59.227855" lon="18.126509">
        <ele>45</ele>
        <time>2020-01-21T16:20:06Z</time>
      </trkpt>
      <trkpt lat="59.227899" lon="18.126493">
        <ele>45</ele>
        <time>2020-01-21T16:20:07Z</time>
      </trkpt>
      <trkpt lat="59.227947" lon="18.126486">
        <ele>45</ele>
        <time>2020-01-21T16:20:09Z</time>
      </trkpt>
      <trkpt lat="59.227996" lon="18.126477">
        <ele>44</ele>
        <time>2020-01-21T16:20:09Z</time>
      </trkpt>
      <trkpt lat="59.228046" lon="18.126467">
        <ele>44</ele>
        <time>2020-01-21T16:20:10Z</time>
      </trkpt>
      <trkpt lat="59.228099" lon="18.126457">
        <ele>44</ele>
        <time>2020-01-21T16:20:11Z</time>
      </trkpt>
      <trkpt lat="59.228151" lon="18.126447">
        <ele>44</ele>
        <time>2020-01-21T16:20:12Z</time>
      </trkpt>
      <trkpt lat="59.228207" lon="18.126437">
        <ele>43</ele>
        <time>2020-01-21T16:20:13Z</time>
      </trkpt>
      <trkpt lat="59.228266" lon="18.126428">
        <ele>43</ele>
        <time>2020-01-21T16:20:14Z</time>
      </trkpt>
      <trkpt lat="59.228327" lon="18.126421">
        <ele>43</ele>
        <time>2020-01-21T16:20:15Z</time>
      </trkpt>
      <trkpt lat="59.22839" lon="18.126419">
        <ele>0</ele>
        <time>2020-01-21T16:20:16Z</time>
      </trkpt>
      <trkpt lat="59.228455" lon="18.126427">
        <ele>43</ele>
        <time>2020-01-21T16:20:17Z</time>
      </trkpt>
      <trkpt lat="59.22852" lon="18.126428">
        <ele>42</ele>
        <time>2020-01-21T16:20:18Z</time>
      </trkpt>
      <trkpt lat="59.228583" lon="18.126395">
        <ele>42</ele>
        <time>2020-01-21T16:20:19Z</time>
      </trkpt>
      <trkpt lat="59.228639" lon="18.126326">
        <ele>42</ele>
        <time>2020-01-21T16:20:20Z</time>
      </trkpt>
      <trkpt lat="59.228689" lon="18.126238">
        <ele>42</ele>
        <time>2020-01-21T16:20:21Z</time>
      </trkpt>
      <trkpt lat="59.228737" lon="18.126141">
        <ele>42</ele>
        <time>2020-01-21T16:20:22Z</time>
      </trkpt>
      <trkpt lat="59.228786" lon="18.126042">
        <ele>42</ele>
        <time>2020-01-21T16:20:24Z</time>
      </trkpt>
      <trkpt lat="59.228837" lon="18.125936">
        <ele>42</ele>
        <time>2020-01-21T16:20:24Z</time>
      </trkpt>
      <trkpt lat="59.22889" lon="18.125822">
        <ele>42</ele>
        <time>2020-01-21T16:20:25Z</time>
      </trkpt>
      <trkpt lat="59.228942" lon="18.125709">
        <ele>42</ele>
        <time>2020-01-21T16:20:26Z</time>
      </trkpt>
      <trkpt lat="59.228989" lon="18.125602">
        <ele>42</ele>
        <time>2020-01-21T16:20:27Z</time>
      </trkpt>
      <trkpt lat="59.229038" lon="18.125503">
        <ele>42</ele>
        <time>2020-01-21T16:20:28Z</time>
      </trkpt>
      <trkpt lat="59.229087" lon="18.12541">
        <ele>42</ele>
        <time>2020-01-21T16:20:29Z</time>
      </trkpt>
      <trkpt lat="59.229131" lon="18.125319">
        <ele>42</ele>
        <time>2020-01-21T16:20:31Z</time>
      </trkpt>
      <trkpt lat="59.229169" lon="18.125232">
        <ele>42</ele>
        <time>2020-01-21T16:20:31Z</time>
      </trkpt>
      <trkpt lat="59.229204" lon="18.125143">
        <ele>42</ele>
        <time>2020-01-21T16:20:32Z</time>
      </trkpt>
      <trkpt lat="59.229236" lon="18.125039">
        <ele>41</ele>
        <time>2020-01-21T16:20:33Z</time>
      </trkpt>
      <trkpt lat="59.229267" lon="18.124919">
        <ele>41</ele>
        <time>2020-01-21T16:20:34Z</time>
      </trkpt>
      <trkpt lat="59.22929" lon="18.124812">
        <ele>41</ele>
        <time>2020-01-21T16:20:36Z</time>
      </trkpt>
      <trkpt lat="59.229293" lon="18.124707">
        <ele>41</ele>
        <time>2020-01-21T16:20:36Z</time>
      </trkpt>
      <trkpt lat="59.229289" lon="18.124605">
        <ele>41</ele>
        <time>2020-01-21T16:20:37Z</time>
      </trkpt>
      <trkpt lat="59.229279" lon="18.124505">
        <ele>41</ele>
        <time>2020-01-21T16:20:38Z</time>
      </trkpt>
      <trkpt lat="59.229277" lon="18.124401">
        <ele>41</ele>
        <time>2020-01-21T16:20:40Z</time>
      </trkpt>
      <trkpt lat="59.2293" lon="18.124284">
        <ele>41</ele>
        <time>2020-01-21T16:20:40Z</time>
      </trkpt>
      <trkpt lat="59.229332" lon="18.124184">
        <ele>41</ele>
        <time>2020-01-21T16:20:41Z</time>
      </trkpt>
      <trkpt lat="59.229372" lon="18.124113">
        <ele>41</ele>
        <time>2020-01-21T16:20:42Z</time>
      </trkpt>
      <trkpt lat="59.229416" lon="18.124061">
        <ele>41</ele>
        <time>2020-01-21T16:20:43Z</time>
      </trkpt>
      <trkpt lat="59.229464" lon="18.124013">
        <ele>41</ele>
        <time>2020-01-21T16:20:44Z</time>
      </trkpt>
      <trkpt lat="59.229509" lon="18.123965">
        <ele>41</ele>
        <time>2020-01-21T16:20:45Z</time>
      </trkpt>
      <trkpt lat="59.229557" lon="18.123914">
        <ele>41</ele>
        <time>2020-01-21T16:20:46Z</time>
      </trkpt>
      <trkpt lat="59.229603" lon="18.123867">
        <ele>41</ele>
        <time>2020-01-21T16:20:47Z</time>
      </trkpt>
      <trkpt lat="59.229651" lon="18.123819">
        <ele>41</ele>
        <time>2020-01-21T16:20:49Z</time>
      </trkpt>
      <trkpt lat="59.2297" lon="18.12377">
        <ele>41</ele>
        <time>2020-01-21T16:20:49Z</time>
      </trkpt>
      <trkpt lat="59.229749" lon="18.12372">
        <ele>40</ele>
        <time>2020-01-21T16:20:50Z</time>
      </trkpt>
      <trkpt lat="59.229803" lon="18.123665">
        <ele>40</ele>
        <time>2020-01-21T16:20:51Z</time>
      </trkpt>
      <trkpt lat="59.229857" lon="18.123614">
        <ele>40</ele>
        <time>2020-01-21T16:20:52Z</time>
      </trkpt>
      <trkpt lat="59.229909" lon="18.123562">
        <ele>40</ele>
        <time>2020-01-21T16:20:53Z</time>
      </trkpt>
      <trkpt lat="59.229958" lon="18.123506">
        <ele>39</ele>
        <time>2020-01-21T16:20:55Z</time>
      </trkpt>
      <trkpt lat="59.230001" lon="18.123434">
        <ele>39</ele>
        <time>2020-01-21T16:20:55Z</time>
      </trkpt>
      <trkpt lat="59.230031" lon="18.123344">
        <ele>39</ele>
        <time>2020-01-21T16:20:56Z</time>
      </trkpt>
      <trkpt lat="59.230051" lon="18.123239">
        <ele>39</ele>
        <time>2020-01-21T16:20:58Z</time>
      </trkpt>
      <trkpt lat="59.230061" lon="18.123126">
        <ele>39</ele>
        <time>2020-01-21T16:20:58Z</time>
      </trkpt>
      <trkpt lat="59.230058" lon="18.123008">
        <ele>38</ele>
        <time>2020-01-21T16:20:59Z</time>
      </trkpt>
      <trkpt lat="59.230042" lon="18.122888">
        <ele>38</ele>
        <time>2020-01-21T16:21:01Z</time>
      </trkpt>
      <trkpt lat="59.230015" lon="18.122772">
        <ele>38</ele>
        <time>2020-01-21T16:21:01Z</time>
      </trkpt>
      <trkpt lat="59.229984" lon="18.12265">
        <ele>38</ele>
        <time>2020-01-21T16:21:02Z</time>
      </trkpt>
      <trkpt lat="59.229949" lon="18.122527">
        <ele>38</ele>
        <time>2020-01-21T16:21:03Z</time>
      </trkpt>
      <trkpt lat="59.229908" lon="18.122411">
        <ele>38</ele>
        <time>2020-01-21T16:21:05Z</time>
      </trkpt>
      <trkpt lat="59.229861" lon="18.1223">
        <ele>37</ele>
        <time>2020-01-21T16:21:05Z</time>
      </trkpt>
      <trkpt lat="59.229817" lon="18.122188">
        <ele>37</ele>
        <time>2020-01-21T16:21:06Z</time>
      </trkpt>
      <trkpt lat="59.229782" lon="18.12207">
        <ele>37</ele>
        <time>2020-01-21T16:21:07Z</time>
      </trkpt>
      <trkpt lat="59.229755" lon="18.121947">
        <ele>37</ele>
        <time>2020-01-21T16:21:08Z</time>
      </trkpt>
      <trkpt lat="59.229746" lon="18.121819">
        <ele>37</ele>
        <time>2020-01-21T16:21:09Z</time>
      </trkpt>
      <trkpt lat="59.229763" lon="18.121698">
        <ele>37</ele>
        <time>2020-01-21T16:21:10Z</time>
      </trkpt>
      <trkpt lat="59.229798" lon="18.121603">
        <ele>38</ele>
        <time>2020-01-21T16:21:11Z</time>
      </trkpt>
      <trkpt lat="59.22984" lon="18.121539">
        <ele>38</ele>
        <time>2020-01-21T16:21:13Z</time>
      </trkpt>
      <trkpt lat="59.229885" lon="18.121489">
        <ele>38</ele>
        <time>2020-01-21T16:21:14Z</time>
      </trkpt>
      <trkpt lat="59.229932" lon="18.121448">
        <ele>38</ele>
        <time>2020-01-21T16:21:14Z</time>
      </trkpt>
      <trkpt lat="59.229977" lon="18.121408">
        <ele>39</ele>
        <time>2020-01-21T16:21:15Z</time>
      </trkpt>
      <trkpt lat="59.230018" lon="18.121371">
        <ele>39</ele>
        <time>2020-01-21T16:21:16Z</time>
      </trkpt>
      <trkpt lat="59.230055" lon="18.121336">
        <ele>39</ele>
        <time>2020-01-21T16:21:17Z</time>
      </trkpt>
      <trkpt lat="59.230098" lon="18.1213">
        <ele>39</ele>
        <time>2020-01-21T16:21:18Z</time>
      </trkpt>
      <trkpt lat="59.230139" lon="18.121264">
        <ele>39</ele>
        <time>2020-01-21T16:21:19Z</time>
      </trkpt>
      <trkpt lat="59.230178" lon="18.121232">
        <ele>40</ele>
        <time>2020-01-21T16:21:20Z</time>
      </trkpt>
      <trkpt lat="59.23022" lon="18.121208">
        <ele>40</ele>
        <time>2020-01-21T16:21:21Z</time>
      </trkpt>
      <trkpt lat="59.230262" lon="18.121192">
        <ele>40</ele>
        <time>2020-01-21T16:21:22Z</time>
      </trkpt>
      <trkpt lat="59.230303" lon="18.121181">
        <ele>40</ele>
        <time>2020-01-21T16:21:24Z</time>
      </trkpt>
      <trkpt lat="59.230349" lon="18.121173">
        <ele>40</ele>
        <time>2020-01-21T16:21:24Z</time>
      </trkpt>
      <trkpt lat="59.230397" lon="18.121172">
        <ele>40</ele>
        <time>2020-01-21T16:21:25Z</time>
      </trkpt>
      <trkpt lat="59.230443" lon="18.121174">
        <ele>40</ele>
        <time>2020-01-21T16:21:26Z</time>
      </trkpt>
      <trkpt lat="59.230493" lon="18.121173">
        <ele>40</ele>
        <time>2020-01-21T16:21:27Z</time>
      </trkpt>
      <trkpt lat="59.23054" lon="18.121168">
        <ele>40</ele>
        <time>2020-01-21T16:21:28Z</time>
      </trkpt>
      <trkpt lat="59.230583" lon="18.121164">
        <ele>40</ele>
        <time>2020-01-21T16:21:29Z</time>
      </trkpt>
      <trkpt lat="59.230626" lon="18.121154">
        <ele>41</ele>
        <time>2020-01-21T16:21:30Z</time>
      </trkpt>
      <trkpt lat="59.230665" lon="18.121143">
        <ele>41</ele>
        <time>2020-01-21T16:21:31Z</time>
      </trkpt>
      <trkpt lat="59.230703" lon="18.121127">
        <ele>41</ele>
        <time>2020-01-21T16:21:33Z</time>
      </trkpt>
      <trkpt lat="59.230741" lon="18.121102">
        <ele>41</ele>
        <time>2020-01-21T16:21:33Z</time>
      </trkpt>
      <trkpt lat="59.23078" lon="18.121073">
        <ele>42</ele>
        <time>2020-01-21T16:21:35Z</time>
      </trkpt>
      <trkpt lat="59.230821" lon="18.121046">
        <ele>42</ele>
        <time>2020-01-21T16:21:35Z</time>
      </trkpt>
      <trkpt lat="59.230865" lon="18.121018">
        <ele>42</ele>
        <time>2020-01-21T16:21:36Z</time>
      </trkpt>
      <trkpt lat="59.230905" lon="18.12099">
        <ele>43</ele>
        <time>2020-01-21T16:21:37Z</time>
      </trkpt>
      <trkpt lat="59.230941" lon="18.12096">
        <ele>43</ele>
        <time>2020-01-21T16:21:38Z</time>
      </trkpt>
      <trkpt lat="59.230977" lon="18.120925">
        <ele>43</ele>
        <time>2020-01-21T16:21:39Z</time>
      </trkpt>
      <trkpt lat="59.231016" lon="18.12089">
        <ele>43</ele>
        <time>2020-01-21T16:21:40Z</time>
      </trkpt>
      <trkpt lat="59.231055" lon="18.120867">
        <ele>44</ele>
        <time>2020-01-21T16:21:41Z</time>
      </trkpt>
      <trkpt lat="59.231094" lon="18.120853">
        <ele>44</ele>
        <time>2020-01-21T16:21:42Z</time>
      </trkpt>
      <trkpt lat="59.231133" lon="18.120836">
        <ele>44</ele>
        <time>2020-01-21T16:21:43Z</time>
      </trkpt>
      <trkpt lat="59.231171" lon="18.120813">
        <ele>44</ele>
        <time>2020-01-21T16:21:44Z</time>
      </trkpt>
      <trkpt lat="59.231212" lon="18.120785">
        <ele>44</ele>
        <time>2020-01-21T16:21:45Z</time>
      </trkpt>
      <trkpt lat="59.231244" lon="18.120764">
        <ele>44</ele>
        <time>2020-01-21T16:21:46Z</time>
      </trkpt>
      <trkpt lat="59.231275" lon="18.120746">
        <ele>45</ele>
        <time>2020-01-21T16:21:48Z</time>
      </trkpt>
      <trkpt lat="59.231302" lon="18.120734">
        <ele>45</ele>
        <time>2020-01-21T16:21:48Z</time>
      </trkpt>
      <trkpt lat="59.231326" lon="18.12072">
        <ele>45</ele>
        <time>2020-01-21T16:21:49Z</time>
      </trkpt>
      <trkpt lat="59.231348" lon="18.120706">
        <ele>45</ele>
        <time>2020-01-21T16:21:50Z</time>
      </trkpt>
      <trkpt lat="59.231368" lon="18.120689">
        <ele>46</ele>
        <time>2020-01-21T16:21:52Z</time>
      </trkpt>
      <trkpt lat="59.231389" lon="18.120664">
        <ele>46</ele>
        <time>2020-01-21T16:21:52Z</time>
      </trkpt>
      <trkpt lat="59.231419" lon="18.120635">
        <ele>46</ele>
        <time>2020-01-21T16:21:53Z</time>
      </trkpt>
      <trkpt lat="59.231457" lon="18.120611">
        <ele>46</ele>
        <time>2020-01-21T16:21:54Z</time>
      </trkpt>
      <trkpt lat="59.231494" lon="18.120593">
        <ele>46</ele>
        <time>2020-01-21T16:21:56Z</time>
      </trkpt>
      <trkpt lat="59.231538" lon="18.120564">
        <ele>46</ele>
        <time>2020-01-21T16:21:56Z</time>
      </trkpt>
      <trkpt lat="59.231583" lon="18.120533">
        <ele>46</ele>
        <time>2020-01-21T16:21:57Z</time>
      </trkpt>
      <trkpt lat="59.231631" lon="18.120499">
        <ele>47</ele>
        <time>2020-01-21T16:21:58Z</time>
      </trkpt>
      <trkpt lat="59.231678" lon="18.120467">
        <ele>47</ele>
        <time>2020-01-21T16:21:59Z</time>
      </trkpt>
      <trkpt lat="59.231723" lon="18.120439">
        <ele>47</ele>
        <time>2020-01-21T16:22:01Z</time>
      </trkpt>
      <trkpt lat="59.231769" lon="18.120419">
        <ele>47</ele>
        <time>2020-01-21T16:22:01Z</time>
      </trkpt>
      <trkpt lat="59.231821" lon="18.120401">
        <ele>47</ele>
        <time>2020-01-21T16:22:02Z</time>
      </trkpt>
      <trkpt lat="59.231872" lon="18.120381">
        <ele>47</ele>
        <time>2020-01-21T16:22:03Z</time>
      </trkpt>
      <trkpt lat="59.231929" lon="18.120358">
        <ele>47</ele>
        <time>2020-01-21T16:22:04Z</time>
      </trkpt>
      <trkpt lat="59.231991" lon="18.120343">
        <ele>47</ele>
        <time>2020-01-21T16:22:05Z</time>
      </trkpt>
      <trkpt lat="59.232055" lon="18.120338">
        <ele>47</ele>
        <time>2020-01-21T16:22:06Z</time>
      </trkpt>
      <trkpt lat="59.232128" lon="18.12033">
        <ele>47</ele>
        <time>2020-01-21T16:22:07Z</time>
      </trkpt>
      <trkpt lat="59.232196" lon="18.120326">
        <ele>47</ele>
        <time>2020-01-21T16:22:09Z</time>
      </trkpt>
      <trkpt lat="59.232266" lon="18.120325">
        <ele>47</ele>
        <time>2020-01-21T16:22:09Z</time>
      </trkpt>
      <trkpt lat="59.232322" lon="18.120343">
        <ele>47</ele>
        <time>2020-01-21T16:22:11Z</time>
      </trkpt>
      <trkpt lat="59.232372" lon="18.120374">
        <ele>47</ele>
        <time>2020-01-21T16:22:11Z</time>
      </trkpt>
      <trkpt lat="59.232412" lon="18.120418">
        <ele>47</ele>
        <time>2020-01-21T16:22:12Z</time>
      </trkpt>
      <trkpt lat="59.232442" lon="18.120473">
        <ele>47</ele>
        <time>2020-01-21T16:22:13Z</time>
      </trkpt>
      <trkpt lat="59.232461" lon="18.120534">
        <ele>47</ele>
        <time>2020-01-21T16:22:14Z</time>
      </trkpt>
      <trkpt lat="59.232472" lon="18.120591">
        <ele>47</ele>
        <time>2020-01-21T16:22:15Z</time>
      </trkpt>
      <trkpt lat="59.232482" lon="18.120637">
        <ele>48</ele>
        <time>2020-01-21T16:22:16Z</time>
      </trkpt>
      <trkpt lat="59.232494" lon="18.120668">
        <ele>48</ele>
        <time>2020-01-21T16:22:17Z</time>
      </trkpt>
      <trkpt lat="59.232503" lon="18.120685">
        <ele>0</ele>
        <time>2020-01-21T16:22:22Z</time>
      </trkpt>
      <trkpt lat="59.232559" lon="18.120789">
        <ele>47</ele>
        <time>2020-01-21T16:22:52Z</time>
      </trkpt>
      <trkpt lat="59.232581" lon="18.120844">
        <ele>47</ele>
        <time>2020-01-21T16:22:52Z</time>
      </trkpt>
      <trkpt lat="59.2326" lon="18.120911">
        <ele>47</ele>
        <time>2020-01-21T16:22:53Z</time>
      </trkpt>
      <trkpt lat="59.232625" lon="18.120974">
        <ele>47</ele>
        <time>2020-01-21T16:22:54Z</time>
      </trkpt>
      <trkpt lat="59.23266" lon="18.121017">
        <ele>47</ele>
        <time>2020-01-21T16:22:55Z</time>
      </trkpt>
      <trkpt lat="59.232702" lon="18.121052">
        <ele>47</ele>
        <time>2020-01-21T16:22:57Z</time>
      </trkpt>
      <trkpt lat="59.232745" lon="18.121099">
        <ele>47</ele>
        <time>2020-01-21T16:22:57Z</time>
      </trkpt>
      <trkpt lat="59.232786" lon="18.121154">
        <ele>47</ele>
        <time>2020-01-21T16:22:58Z</time>
      </trkpt>
      <trkpt lat="59.232828" lon="18.121211">
        <ele>47</ele>
        <time>2020-01-21T16:22:59Z</time>
      </trkpt>
      <trkpt lat="59.232872" lon="18.121264">
        <ele>47</ele>
        <time>2020-01-21T16:23:00Z</time>
      </trkpt>
      <trkpt lat="59.232918" lon="18.121308">
        <ele>47</ele>
        <time>2020-01-21T16:23:01Z</time>
      </trkpt>
      <trkpt lat="59.232968" lon="18.121343">
        <ele>46</ele>
        <time>2020-01-21T16:23:02Z</time>
      </trkpt>
      <trkpt lat="59.23302" lon="18.121364">
        <ele>46</ele>
        <time>2020-01-21T16:23:03Z</time>
      </trkpt>
      <trkpt lat="59.233076" lon="18.121368">
        <ele>46</ele>
        <time>2020-01-21T16:23:04Z</time>
      </trkpt>
      <trkpt lat="59.233133" lon="18.121353">
        <ele>45</ele>
        <time>2020-01-21T16:23:06Z</time>
      </trkpt>
      <trkpt lat="59.233191" lon="18.121323">
        <ele>45</ele>
        <time>2020-01-21T16:23:06Z</time>
      </trkpt>
      <trkpt lat="59.233248" lon="18.121283">
        <ele>44</ele>
        <time>2020-01-21T16:23:07Z</time>
      </trkpt>
      <trkpt lat="59.233308" lon="18.121238">
        <ele>44</ele>
        <time>2020-01-21T16:23:08Z</time>
      </trkpt>
      <trkpt lat="59.233374" lon="18.121189">
        <ele>43</ele>
        <time>2020-01-21T16:23:09Z</time>
      </trkpt>
      <trkpt lat="59.233447" lon="18.121142">
        <ele>43</ele>
        <time>2020-01-21T16:23:11Z</time>
      </trkpt>
      <trkpt lat="59.233517" lon="18.121101">
        <ele>43</ele>
        <time>2020-01-21T16:23:11Z</time>
      </trkpt>
      <trkpt lat="59.233584" lon="18.121067">
        <ele>42</ele>
        <time>2020-01-21T16:23:13Z</time>
      </trkpt>
      <trkpt lat="59.233649" lon="18.121026">
        <ele>42</ele>
        <time>2020-01-21T16:23:13Z</time>
      </trkpt>
      <trkpt lat="59.233723" lon="18.120974">
        <ele>42</ele>
        <time>2020-01-21T16:23:14Z</time>
      </trkpt>
      <trkpt lat="59.233792" lon="18.12092">
        <ele>42</ele>
        <time>2020-01-21T16:23:15Z</time>
      </trkpt>
      <trkpt lat="59.233867" lon="18.120861">
        <ele>42</ele>
        <time>2020-01-21T16:23:16Z</time>
      </trkpt>
      <trkpt lat="59.233941" lon="18.120802">
        <ele>42</ele>
        <time>2020-01-21T16:23:17Z</time>
      </trkpt>
      <trkpt lat="59.234018" lon="18.120746">
        <ele>41</ele>
        <time>2020-01-21T16:23:18Z</time>
      </trkpt>
      <trkpt lat="59.234097" lon="18.12069">
        <ele>41</ele>
        <time>2020-01-21T16:23:20Z</time>
      </trkpt>
      <trkpt lat="59.234177" lon="18.120635">
        <ele>41</ele>
        <time>2020-01-21T16:23:20Z</time>
      </trkpt>
      <trkpt lat="59.234255" lon="18.120587">
        <ele>41</ele>
        <time>2020-01-21T16:23:21Z</time>
      </trkpt>
      <trkpt lat="59.234337" lon="18.120534">
        <ele>41</ele>
        <time>2020-01-21T16:23:23Z</time>
      </trkpt>
      <trkpt lat="59.234415" lon="18.120481">
        <ele>40</ele>
        <time>2020-01-21T16:23:23Z</time>
      </trkpt>
      <trkpt lat="59.234494" lon="18.12043">
        <ele>40</ele>
        <time>2020-01-21T16:23:24Z</time>
      </trkpt>
      <trkpt lat="59.234571" lon="18.120378">
        <ele>39</ele>
        <time>2020-01-21T16:23:26Z</time>
      </trkpt>
      <trkpt lat="59.234651" lon="18.120327">
        <ele>38</ele>
        <time>2020-01-21T16:23:26Z</time>
      </trkpt>
      <trkpt lat="59.234732" lon="18.120275">
        <ele>38</ele>
        <time>2020-01-21T16:23:27Z</time>
      </trkpt>
      <trkpt lat="59.234813" lon="18.12022">
        <ele>37</ele>
        <time>2020-01-21T16:23:28Z</time>
      </trkpt>
      <trkpt lat="59.234895" lon="18.120168">
        <ele>37</ele>
        <time>2020-01-21T16:23:30Z</time>
      </trkpt>
      <trkpt lat="59.234976" lon="18.120119">
        <ele>36</ele>
        <time>2020-01-21T16:23:30Z</time>
      </trkpt>
      <trkpt lat="59.235058" lon="18.120081">
        <ele>35</ele>
        <time>2020-01-21T16:23:32Z</time>
      </trkpt>
      <trkpt lat="59.235136" lon="18.120065">
        <ele>35</ele>
        <time>2020-01-21T16:23:32Z</time>
      </trkpt>
      <trkpt lat="59.235216" lon="18.120054">
        <ele>34</ele>
        <time>2020-01-21T16:23:33Z</time>
      </trkpt>
      <trkpt lat="59.235294" lon="18.120037">
        <ele>34</ele>
        <time>2020-01-21T16:23:34Z</time>
      </trkpt>
      <trkpt lat="59.23537" lon="18.120006">
        <ele>34</ele>
        <time>2020-01-21T16:23:35Z</time>
      </trkpt>
      <trkpt lat="59.235445" lon="18.11997">
        <ele>33</ele>
        <time>2020-01-21T16:23:36Z</time>
      </trkpt>
      <trkpt lat="59.235515" lon="18.119934">
        <ele>33</ele>
        <time>2020-01-21T16:23:38Z</time>
      </trkpt>
      <trkpt lat="59.235581" lon="18.119896">
        <ele>33</ele>
        <time>2020-01-21T16:23:38Z</time>
      </trkpt>
      <trkpt lat="59.235646" lon="18.119848">
        <ele>32</ele>
        <time>2020-01-21T16:23:39Z</time>
      </trkpt>
      <trkpt lat="59.235709" lon="18.119799">
        <ele>32</ele>
        <time>2020-01-21T16:23:40Z</time>
      </trkpt>
      <trkpt lat="59.235771" lon="18.11976">
        <ele>32</ele>
        <time>2020-01-21T16:23:41Z</time>
      </trkpt>
      <trkpt lat="59.235833" lon="18.119727">
        <ele>31</ele>
        <time>2020-01-21T16:23:42Z</time>
      </trkpt>
      <trkpt lat="59.235897" lon="18.1197">
        <ele>31</ele>
        <time>2020-01-21T16:23:43Z</time>
      </trkpt>
      <trkpt lat="59.23596" lon="18.119679">
        <ele>31</ele>
        <time>2020-01-21T16:23:44Z</time>
      </trkpt>
      <trkpt lat="59.236023" lon="18.11966">
        <ele>31</ele>
        <time>2020-01-21T16:23:46Z</time>
      </trkpt>
      <trkpt lat="59.236084" lon="18.119643">
        <ele>31</ele>
        <time>2020-01-21T16:23:46Z</time>
      </trkpt>
      <trkpt lat="59.236144" lon="18.119628">
        <ele>31</ele>
        <time>2020-01-21T16:23:47Z</time>
      </trkpt>
      <trkpt lat="59.236208" lon="18.119615">
        <ele>30</ele>
        <time>2020-01-21T16:23:49Z</time>
      </trkpt>
      <trkpt lat="59.236275" lon="18.119602">
        <ele>30</ele>
        <time>2020-01-21T16:23:49Z</time>
      </trkpt>
      <trkpt lat="59.236343" lon="18.11959">
        <ele>30</ele>
        <time>2020-01-21T16:23:50Z</time>
      </trkpt>
      <trkpt lat="59.23641" lon="18.11958">
        <ele>29</ele>
        <time>2020-01-21T16:23:51Z</time>
      </trkpt>
      <trkpt lat="59.236478" lon="18.119571">
        <ele>29</ele>
        <time>2020-01-21T16:23:52Z</time>
      </trkpt>
      <trkpt lat="59.236546" lon="18.119566">
        <ele>29</ele>
        <time>2020-01-21T16:23:54Z</time>
      </trkpt>
      <trkpt lat="59.236612" lon="18.119565">
        <ele>29</ele>
        <time>2020-01-21T16:23:54Z</time>
      </trkpt>
      <trkpt lat="59.236678" lon="18.119563">
        <ele>29</ele>
        <time>2020-01-21T16:23:55Z</time>
      </trkpt>
      <trkpt lat="59.236743" lon="18.119563">
        <ele>29</ele>
        <time>2020-01-21T16:23:56Z</time>
      </trkpt>
      <trkpt lat="59.236808" lon="18.119565">
        <ele>29</ele>
        <time>2020-01-21T16:23:57Z</time>
      </trkpt>
      <trkpt lat="59.236874" lon="18.119568">
        <ele>29</ele>
        <time>2020-01-21T16:23:58Z</time>
      </trkpt>
      <trkpt lat="59.236939" lon="18.119573">
        <ele>29</ele>
        <time>2020-01-21T16:23:59Z</time>
      </trkpt>
      <trkpt lat="59.237003" lon="18.11958">
        <ele>29</ele>
        <time>2020-01-21T16:24:01Z</time>
      </trkpt>
      <trkpt lat="59.237067" lon="18.11959">
        <ele>29</ele>
        <time>2020-01-21T16:24:01Z</time>
      </trkpt>
      <trkpt lat="59.237132" lon="18.1196">
        <ele>29</ele>
        <time>2020-01-21T16:24:02Z</time>
      </trkpt>
      <trkpt lat="59.237198" lon="18.119609">
        <ele>28</ele>
        <time>2020-01-21T16:24:03Z</time>
      </trkpt>
      <trkpt lat="59.237263" lon="18.119618">
        <ele>28</ele>
        <time>2020-01-21T16:24:04Z</time>
      </trkpt>
      <trkpt lat="59.237328" lon="18.119629">
        <ele>28</ele>
        <time>2020-01-21T16:24:05Z</time>
      </trkpt>
      <trkpt lat="59.237392" lon="18.11964">
        <ele>28</ele>
        <time>2020-01-21T16:24:06Z</time>
      </trkpt>
      <trkpt lat="59.237457" lon="18.119649">
        <ele>28</ele>
        <time>2020-01-21T16:24:08Z</time>
      </trkpt>
      <trkpt lat="59.237521" lon="18.119657">
        <ele>28</ele>
        <time>2020-01-21T16:24:09Z</time>
      </trkpt>
      <trkpt lat="59.237586" lon="18.119668">
        <ele>28</ele>
        <time>2020-01-21T16:24:09Z</time>
      </trkpt>
      <trkpt lat="59.23765" lon="18.119679">
        <ele>28</ele>
        <time>2020-01-21T16:24:10Z</time>
      </trkpt>
      <trkpt lat="59.237715" lon="18.119691">
        <ele>28</ele>
        <time>2020-01-21T16:24:11Z</time>
      </trkpt>
      <trkpt lat="59.23778" lon="18.119703">
        <ele>27</ele>
        <time>2020-01-21T16:24:12Z</time>
      </trkpt>
      <trkpt lat="59.237845" lon="18.119715">
        <ele>27</ele>
        <time>2020-01-21T16:24:13Z</time>
      </trkpt>
      <trkpt lat="59.237911" lon="18.119726">
        <ele>27</ele>
        <time>2020-01-21T16:24:14Z</time>
      </trkpt>
      <trkpt lat="59.237977" lon="18.119737">
        <ele>27</ele>
        <time>2020-01-21T16:24:16Z</time>
      </trkpt>
      <trkpt lat="59.238044" lon="18.119748">
        <ele>27</ele>
        <time>2020-01-21T16:24:16Z</time>
      </trkpt>
      <trkpt lat="59.238109" lon="18.119761">
        <ele>26</ele>
        <time>2020-01-21T16:24:17Z</time>
      </trkpt>
      <trkpt lat="59.238176" lon="18.119772">
        <ele>26</ele>
        <time>2020-01-21T16:24:18Z</time>
      </trkpt>
      <trkpt lat="59.238242" lon="18.119783">
        <ele>26</ele>
        <time>2020-01-21T16:24:19Z</time>
      </trkpt>
      <trkpt lat="59.238309" lon="18.119792">
        <ele>26</ele>
        <time>2020-01-21T16:24:20Z</time>
      </trkpt>
      <trkpt lat="59.238376" lon="18.119804">
        <ele>26</ele>
        <time>2020-01-21T16:24:21Z</time>
      </trkpt>
      <trkpt lat="59.238443" lon="18.119815">
        <ele>26</ele>
        <time>2020-01-21T16:24:22Z</time>
      </trkpt>
      <trkpt lat="59.23851" lon="18.119825">
        <ele>26</ele>
        <time>2020-01-21T16:24:24Z</time>
      </trkpt>
      <trkpt lat="59.238577" lon="18.119836">
        <ele>26</ele>
        <time>2020-01-21T16:24:24Z</time>
      </trkpt>
      <trkpt lat="59.238644" lon="18.119846">
        <ele>26</ele>
        <time>2020-01-21T16:24:25Z</time>
      </trkpt>
      <trkpt lat="59.238711" lon="18.119858">
        <ele>25</ele>
        <time>2020-01-21T16:24:27Z</time>
      </trkpt>
      <trkpt lat="59.238776" lon="18.119869">
        <ele>26</ele>
        <time>2020-01-21T16:24:27Z</time>
      </trkpt>
      <trkpt lat="59.238842" lon="18.119875">
        <ele>25</ele>
        <time>2020-01-21T16:24:28Z</time>
      </trkpt>
      <trkpt lat="59.238908" lon="18.11988">
        <ele>25</ele>
        <time>2020-01-21T16:24:29Z</time>
      </trkpt>
      <trkpt lat="59.238974" lon="18.119885">
        <ele>25</ele>
        <time>2020-01-21T16:24:31Z</time>
      </trkpt>
      <trkpt lat="59.23904" lon="18.119885">
        <ele>25</ele>
        <time>2020-01-21T16:24:31Z</time>
      </trkpt>
      <trkpt lat="59.239106" lon="18.119878">
        <ele>25</ele>
        <time>2020-01-21T16:24:32Z</time>
      </trkpt>
      <trkpt lat="59.239171" lon="18.119871">
        <ele>25</ele>
        <time>2020-01-21T16:24:33Z</time>
      </trkpt>
      <trkpt lat="59.239236" lon="18.11986">
        <ele>25</ele>
        <time>2020-01-21T16:24:34Z</time>
      </trkpt>
      <trkpt lat="59.239301" lon="18.119846">
        <ele>25</ele>
        <time>2020-01-21T16:24:35Z</time>
      </trkpt>
      <trkpt lat="59.239367" lon="18.119827">
        <ele>25</ele>
        <time>2020-01-21T16:24:36Z</time>
      </trkpt>
      <trkpt lat="59.239431" lon="18.119806">
        <ele>25</ele>
        <time>2020-01-21T16:24:37Z</time>
      </trkpt>
      <trkpt lat="59.239496" lon="18.119782">
        <ele>25</ele>
        <time>2020-01-21T16:24:39Z</time>
      </trkpt>
      <trkpt lat="59.239559" lon="18.119758">
        <ele>25</ele>
        <time>2020-01-21T16:24:39Z</time>
      </trkpt>
      <trkpt lat="59.239622" lon="18.119736">
        <ele>25</ele>
        <time>2020-01-21T16:24:40Z</time>
      </trkpt>
      <trkpt lat="59.239686" lon="18.119714">
        <ele>25</ele>
        <time>2020-01-21T16:24:41Z</time>
      </trkpt>
      <trkpt lat="59.239748" lon="18.11969">
        <ele>25</ele>
        <time>2020-01-21T16:24:42Z</time>
      </trkpt>
      <trkpt lat="59.239812" lon="18.119663">
        <ele>26</ele>
        <time>2020-01-21T16:24:43Z</time>
      </trkpt>
      <trkpt lat="59.239874" lon="18.11964">
        <ele>26</ele>
        <time>2020-01-21T16:24:44Z</time>
      </trkpt>
      <trkpt lat="59.239938" lon="18.119614">
        <ele>26</ele>
        <time>2020-01-21T16:24:46Z</time>
      </trkpt>
      <trkpt lat="59.240004" lon="18.119584">
        <ele>26</ele>
        <time>2020-01-21T16:24:47Z</time>
      </trkpt>
      <trkpt lat="59.240067" lon="18.119558">
        <ele>26</ele>
        <time>2020-01-21T16:24:47Z</time>
      </trkpt>
      <trkpt lat="59.240129" lon="18.119529">
        <ele>26</ele>
        <time>2020-01-21T16:24:48Z</time>
      </trkpt>
      <trkpt lat="59.240193" lon="18.119498">
        <ele>26</ele>
        <time>2020-01-21T16:24:49Z</time>
      </trkpt>
      <trkpt lat="59.240255" lon="18.119468">
        <ele>26</ele>
        <time>2020-01-21T16:24:50Z</time>
      </trkpt>
      <trkpt lat="59.240312" lon="18.119443">
        <ele>26</ele>
        <time>2020-01-21T16:24:51Z</time>
      </trkpt>
      <trkpt lat="59.240369" lon="18.119423">
        <ele>26</ele>
        <time>2020-01-21T16:24:52Z</time>
      </trkpt>
      <trkpt lat="59.240423" lon="18.119423">
        <ele>26</ele>
        <time>2020-01-21T16:24:53Z</time>
      </trkpt>
      <trkpt lat="59.240468" lon="18.119457">
        <ele>26</ele>
        <time>2020-01-21T16:24:55Z</time>
      </trkpt>
      <trkpt lat="59.24051" lon="18.119514">
        <ele>27</ele>
        <time>2020-01-21T16:24:55Z</time>
      </trkpt>
      <trkpt lat="59.240556" lon="18.11956">
        <ele>27</ele>
        <time>2020-01-21T16:24:56Z</time>
      </trkpt>
      <trkpt lat="59.240606" lon="18.119577">
        <ele>27</ele>
        <time>2020-01-21T16:24:57Z</time>
      </trkpt>
      <trkpt lat="59.240657" lon="18.119574">
        <ele>26</ele>
        <time>2020-01-21T16:24:58Z</time>
      </trkpt>
      <trkpt lat="59.240709" lon="18.11957">
        <ele>26</ele>
        <time>2020-01-21T16:24:59Z</time>
      </trkpt>
      <trkpt lat="59.240761" lon="18.119573">
        <ele>26</ele>
        <time>2020-01-21T16:25:00Z</time>
      </trkpt>
      <trkpt lat="59.240815" lon="18.119588">
        <ele>26</ele>
        <time>2020-01-21T16:25:01Z</time>
      </trkpt>
      <trkpt lat="59.240867" lon="18.119619">
        <ele>26</ele>
        <time>2020-01-21T16:25:02Z</time>
      </trkpt>
      <trkpt lat="59.240916" lon="18.119663">
        <ele>26</ele>
        <time>2020-01-21T16:25:03Z</time>
      </trkpt>
      <trkpt lat="59.240962" lon="18.119712">
        <ele>26</ele>
        <time>2020-01-21T16:25:05Z</time>
      </trkpt>
      <trkpt lat="59.241007" lon="18.119767">
        <ele>26</ele>
        <time>2020-01-21T16:25:05Z</time>
      </trkpt>
      <trkpt lat="59.241049" lon="18.119824">
        <ele>26</ele>
        <time>2020-01-21T16:25:06Z</time>
      </trkpt>
      <trkpt lat="59.241088" lon="18.119871">
        <ele>25</ele>
        <time>2020-01-21T16:25:07Z</time>
      </trkpt>
      <trkpt lat="59.241112" lon="18.11989">
        <ele>25</ele>
        <time>2020-01-21T16:25:08Z</time>
      </trkpt>
      <trkpt lat="59.24113" lon="18.119858">
        <ele>25</ele>
        <time>2020-01-21T16:25:09Z</time>
      </trkpt>
      <trkpt lat="59.241141" lon="18.119807">
        <ele>25</ele>
        <time>2020-01-21T16:25:10Z</time>
      </trkpt>
      <trkpt lat="59.241149" lon="18.119748">
        <ele>25</ele>
        <time>2020-01-21T16:25:11Z</time>
      </trkpt>
      <trkpt lat="59.241148" lon="18.119668">
        <ele>25</ele>
        <time>2020-01-21T16:25:12Z</time>
      </trkpt>
      <trkpt lat="59.241133" lon="18.11958">
        <ele>25</ele>
        <time>2020-01-21T16:25:13Z</time>
      </trkpt>
      <trkpt lat="59.241122" lon="18.119479">
        <ele>25</ele>
        <time>2020-01-21T16:25:14Z</time>
      </trkpt>
      <trkpt lat="59.241134" lon="18.119378">
        <ele>25</ele>
        <time>2020-01-21T16:25:16Z</time>
      </trkpt>
      <trkpt lat="59.241167" lon="18.119288">
        <ele>25</ele>
        <time>2020-01-21T16:25:16Z</time>
      </trkpt>
      <trkpt lat="59.241222" lon="18.119243">
        <ele>25</ele>
        <time>2020-01-21T16:25:17Z</time>
      </trkpt>
      <trkpt lat="59.241274" lon="18.119232">
        <ele>26</ele>
        <time>2020-01-21T16:25:18Z</time>
      </trkpt>
      <trkpt lat="59.24132" lon="18.11923">
        <ele>26</ele>
        <time>2020-01-21T16:25:19Z</time>
      </trkpt>
      <trkpt lat="59.241363" lon="18.119229">
        <ele>26</ele>
        <time>2020-01-21T16:25:20Z</time>
      </trkpt>
      <trkpt lat="59.241405" lon="18.119228">
        <ele>26</ele>
        <time>2020-01-21T16:25:21Z</time>
      </trkpt>
      <trkpt lat="59.241441" lon="18.119226">
        <ele>25</ele>
        <time>2020-01-21T16:25:22Z</time>
      </trkpt>
      <trkpt lat="59.241483" lon="18.119237">
        <ele>25</ele>
        <time>2020-01-21T16:25:24Z</time>
      </trkpt>
      <trkpt lat="59.241526" lon="18.119268">
        <ele>25</ele>
        <time>2020-01-21T16:25:24Z</time>
      </trkpt>
      <trkpt lat="59.241574" lon="18.119293">
        <ele>25</ele>
        <time>2020-01-21T16:25:25Z</time>
      </trkpt>
      <trkpt lat="59.241632" lon="18.119306">
        <ele>25</ele>
        <time>2020-01-21T16:25:27Z</time>
      </trkpt>
      <trkpt lat="59.241691" lon="18.119331">
        <ele>25</ele>
        <time>2020-01-21T16:25:27Z</time>
      </trkpt>
      <trkpt lat="59.241744" lon="18.119346">
        <ele>25</ele>
        <time>2020-01-21T16:25:28Z</time>
      </trkpt>
      <trkpt lat="59.241798" lon="18.119358">
        <ele>25</ele>
        <time>2020-01-21T16:25:29Z</time>
      </trkpt>
      <trkpt lat="59.241851" lon="18.119364">
        <ele>25</ele>
        <time>2020-01-21T16:25:30Z</time>
      </trkpt>
      <trkpt lat="59.241904" lon="18.119355">
        <ele>25</ele>
        <time>2020-01-21T16:25:31Z</time>
      </trkpt>
      <trkpt lat="59.241956" lon="18.119339">
        <ele>25</ele>
        <time>2020-01-21T16:25:32Z</time>
      </trkpt>
      <trkpt lat="59.242008" lon="18.119321">
        <ele>26</ele>
        <time>2020-01-21T16:25:33Z</time>
      </trkpt>
      <trkpt lat="59.242059" lon="18.119296">
        <ele>26</ele>
        <time>2020-01-21T16:25:34Z</time>
      </trkpt>
      <trkpt lat="59.242109" lon="18.119273">
        <ele>26</ele>
        <time>2020-01-21T16:25:36Z</time>
      </trkpt>
      <trkpt lat="59.242159" lon="18.119246">
        <ele>26</ele>
        <time>2020-01-21T16:25:36Z</time>
      </trkpt>
      <trkpt lat="59.242206" lon="18.119214">
        <ele>26</ele>
        <time>2020-01-21T16:25:37Z</time>
      </trkpt>
      <trkpt lat="59.242252" lon="18.119181">
        <ele>26</ele>
        <time>2020-01-21T16:25:38Z</time>
      </trkpt>
      <trkpt lat="59.242299" lon="18.119142">
        <ele>26</ele>
        <time>2020-01-21T16:25:39Z</time>
      </trkpt>
      <trkpt lat="59.242345" lon="18.119098">
        <ele>26</ele>
        <time>2020-01-21T16:25:40Z</time>
      </trkpt>
      <trkpt lat="59.242392" lon="18.119049">
        <ele>26</ele>
        <time>2020-01-21T16:25:41Z</time>
      </trkpt>
      <trkpt lat="59.242437" lon="18.118997">
        <ele>26</ele>
        <time>2020-01-21T16:25:43Z</time>
      </trkpt>
      <trkpt lat="59.242483" lon="18.118939">
        <ele>26</ele>
        <time>2020-01-21T16:25:43Z</time>
      </trkpt>
      <trkpt lat="59.242523" lon="18.118872">
        <ele>26</ele>
        <time>2020-01-21T16:25:44Z</time>
      </trkpt>
      <trkpt lat="59.242557" lon="18.118799">
        <ele>26</ele>
        <time>2020-01-21T16:25:45Z</time>
      </trkpt>
      <trkpt lat="59.24259" lon="18.118717">
        <ele>26</ele>
        <time>2020-01-21T16:25:47Z</time>
      </trkpt>
      <trkpt lat="59.242623" lon="18.118633">
        <ele>26</ele>
        <time>2020-01-21T16:25:47Z</time>
      </trkpt>
      <trkpt lat="59.242652" lon="18.118546">
        <ele>26</ele>
        <time>2020-01-21T16:25:48Z</time>
      </trkpt>
      <trkpt lat="59.24268" lon="18.118456">
        <ele>26</ele>
        <time>2020-01-21T16:25:49Z</time>
      </trkpt>
      <trkpt lat="59.242707" lon="18.118364">
        <ele>26</ele>
        <time>2020-01-21T16:25:50Z</time>
      </trkpt>
      <trkpt lat="59.242735" lon="18.118275">
        <ele>26</ele>
        <time>2020-01-21T16:25:51Z</time>
      </trkpt>
      <trkpt lat="59.242762" lon="18.118186">
        <ele>26</ele>
        <time>2020-01-21T16:25:52Z</time>
      </trkpt>
      <trkpt lat="59.242791" lon="18.118097">
        <ele>26</ele>
        <time>2020-01-21T16:25:53Z</time>
      </trkpt>
      <trkpt lat="59.242817" lon="18.118007">
        <ele>26</ele>
        <time>2020-01-21T16:25:55Z</time>
      </trkpt>
      <trkpt lat="59.242843" lon="18.117915">
        <ele>26</ele>
        <time>2020-01-21T16:25:55Z</time>
      </trkpt>
      <trkpt lat="59.242871" lon="18.11782">
        <ele>26</ele>
        <time>2020-01-21T16:25:56Z</time>
      </trkpt>
      <trkpt lat="59.242899" lon="18.117726">
        <ele>26</ele>
        <time>2020-01-21T16:25:57Z</time>
      </trkpt>
      <trkpt lat="59.242928" lon="18.11763">
        <ele>26</ele>
        <time>2020-01-21T16:25:58Z</time>
      </trkpt>
      <trkpt lat="59.242957" lon="18.117536">
        <ele>26</ele>
        <time>2020-01-21T16:25:59Z</time>
      </trkpt>
      <trkpt lat="59.242985" lon="18.117444">
        <ele>26</ele>
        <time>2020-01-21T16:26:00Z</time>
      </trkpt>
      <trkpt lat="59.243013" lon="18.117354">
        <ele>26</ele>
        <time>2020-01-21T16:26:02Z</time>
      </trkpt>
      <trkpt lat="59.243041" lon="18.117265">
        <ele>26</ele>
        <time>2020-01-21T16:26:02Z</time>
      </trkpt>
      <trkpt lat="59.243068" lon="18.117177">
        <ele>26</ele>
        <time>2020-01-21T16:26:04Z</time>
      </trkpt>
      <trkpt lat="59.243095" lon="18.117091">
        <ele>26</ele>
        <time>2020-01-21T16:26:04Z</time>
      </trkpt>
      <trkpt lat="59.243122" lon="18.117007">
        <ele>26</ele>
        <time>2020-01-21T16:26:05Z</time>
      </trkpt>
      <trkpt lat="59.243148" lon="18.116923">
        <ele>26</ele>
        <time>2020-01-21T16:26:06Z</time>
      </trkpt>
      <trkpt lat="59.243174" lon="18.11684">
        <ele>26</ele>
        <time>2020-01-21T16:26:07Z</time>
      </trkpt>
      <trkpt lat="59.2432" lon="18.116758">
        <ele>26</ele>
        <time>2020-01-21T16:26:08Z</time>
      </trkpt>
      <trkpt lat="59.243225" lon="18.116676">
        <ele>26</ele>
        <time>2020-01-21T16:26:09Z</time>
      </trkpt>
      <trkpt lat="59.24325" lon="18.116596">
        <ele>26</ele>
        <time>2020-01-21T16:26:10Z</time>
      </trkpt>
      <trkpt lat="59.243276" lon="18.116516">
        <ele>26</ele>
        <time>2020-01-21T16:26:11Z</time>
      </trkpt>
      <trkpt lat="59.243301" lon="18.116434">
        <ele>26</ele>
        <time>2020-01-21T16:26:12Z</time>
      </trkpt>
      <trkpt lat="59.243327" lon="18.116351">
        <ele>26</ele>
        <time>2020-01-21T16:26:13Z</time>
      </trkpt>
      <trkpt lat="59.243354" lon="18.116267">
        <ele>26</ele>
        <time>2020-01-21T16:26:15Z</time>
      </trkpt>
      <trkpt lat="59.243381" lon="18.116184">
        <ele>26</ele>
        <time>2020-01-21T16:26:15Z</time>
      </trkpt>
      <trkpt lat="59.243409" lon="18.116101">
        <ele>26</ele>
        <time>2020-01-21T16:26:16Z</time>
      </trkpt>
      <trkpt lat="59.243436" lon="18.116018">
        <ele>26</ele>
        <time>2020-01-21T16:26:17Z</time>
      </trkpt>
      <trkpt lat="59.24346" lon="18.115935">
        <ele>26</ele>
        <time>2020-01-21T16:26:18Z</time>
      </trkpt>
      <trkpt lat="59.243484" lon="18.115851">
        <ele>26</ele>
        <time>2020-01-21T16:26:19Z</time>
      </trkpt>
      <trkpt lat="59.243509" lon="18.115769">
        <ele>26</ele>
        <time>2020-01-21T16:26:21Z</time>
      </trkpt>
      <trkpt lat="59.243534" lon="18.115684">
        <ele>26</ele>
        <time>2020-01-21T16:26:21Z</time>
      </trkpt>
      <trkpt lat="59.243555" lon="18.115598">
        <ele>26</ele>
        <time>2020-01-21T16:26:22Z</time>
      </trkpt>
      <trkpt lat="59.243572" lon="18.11551">
        <ele>26</ele>
        <time>2020-01-21T16:26:24Z</time>
      </trkpt>
      <trkpt lat="59.243584" lon="18.115418">
        <ele>26</ele>
        <time>2020-01-21T16:26:24Z</time>
      </trkpt>
      <trkpt lat="59.243592" lon="18.115327">
        <ele>26</ele>
        <time>2020-01-21T16:26:25Z</time>
      </trkpt>
      <trkpt lat="59.243596" lon="18.115237">
        <ele>27</ele>
        <time>2020-01-21T16:26:26Z</time>
      </trkpt>
      <trkpt lat="59.243601" lon="18.115154">
        <ele>27</ele>
        <time>2020-01-21T16:26:27Z</time>
      </trkpt>
      <trkpt lat="59.243608" lon="18.115079">
        <ele>27</ele>
        <time>2020-01-21T16:26:28Z</time>
      </trkpt>
      <trkpt lat="59.243616" lon="18.115003">
        <ele>27</ele>
        <time>2020-01-21T16:26:29Z</time>
      </trkpt>
      <trkpt lat="59.243626" lon="18.114926">
        <ele>27</ele>
        <time>2020-01-21T16:26:30Z</time>
      </trkpt>
      <trkpt lat="59.243639" lon="18.114849">
        <ele>27</ele>
        <time>2020-01-21T16:26:31Z</time>
      </trkpt>
      <trkpt lat="59.243653" lon="18.114771">
        <ele>27</ele>
        <time>2020-01-21T16:26:32Z</time>
      </trkpt>
      <trkpt lat="59.243668" lon="18.114691">
        <ele>27</ele>
        <time>2020-01-21T16:26:33Z</time>
      </trkpt>
      <trkpt lat="59.243685" lon="18.114612">
        <ele>27</ele>
        <time>2020-01-21T16:26:34Z</time>
      </trkpt>
      <trkpt lat="59.2437" lon="18.11453">
        <ele>27</ele>
        <time>2020-01-21T16:26:36Z</time>
      </trkpt>
      <trkpt lat="59.243714" lon="18.114446">
        <ele>27</ele>
        <time>2020-01-21T16:26:36Z</time>
      </trkpt>
      <trkpt lat="59.243724" lon="18.114362">
        <ele>27</ele>
        <time>2020-01-21T16:26:37Z</time>
      </trkpt>
      <trkpt lat="59.243736" lon="18.114278">
        <ele>27</ele>
        <time>2020-01-21T16:26:38Z</time>
      </trkpt>
      <trkpt lat="59.243747" lon="18.114191">
        <ele>27</ele>
        <time>2020-01-21T16:26:40Z</time>
      </trkpt>
      <trkpt lat="59.243757" lon="18.114102">
        <ele>27</ele>
        <time>2020-01-21T16:26:40Z</time>
      </trkpt>
      <trkpt lat="59.243767" lon="18.114013">
        <ele>27</ele>
        <time>2020-01-21T16:26:41Z</time>
      </trkpt>
      <trkpt lat="59.243777" lon="18.113925">
        <ele>28</ele>
        <time>2020-01-21T16:26:42Z</time>
      </trkpt>
      <trkpt lat="59.243787" lon="18.113837">
        <ele>28</ele>
        <time>2020-01-21T16:26:43Z</time>
      </trkpt>
      <trkpt lat="59.243798" lon="18.11375">
        <ele>28</ele>
        <time>2020-01-21T16:26:44Z</time>
      </trkpt>
      <trkpt lat="59.243808" lon="18.113663">
        <ele>28</ele>
        <time>2020-01-21T16:26:45Z</time>
      </trkpt>
      <trkpt lat="59.243815" lon="18.113576">
        <ele>28</ele>
        <time>2020-01-21T16:26:46Z</time>
      </trkpt>
      <trkpt lat="59.243825" lon="18.11349">
        <ele>28</ele>
        <time>2020-01-21T16:26:48Z</time>
      </trkpt>
      <trkpt lat="59.243833" lon="18.113404">
        <ele>28</ele>
        <time>2020-01-21T16:26:48Z</time>
      </trkpt>
      <trkpt lat="59.24384" lon="18.113318">
        <ele>28</ele>
        <time>2020-01-21T16:26:49Z</time>
      </trkpt>
      <trkpt lat="59.243843" lon="18.113232">
        <ele>28</ele>
        <time>2020-01-21T16:26:50Z</time>
      </trkpt>
      <trkpt lat="59.243848" lon="18.113145">
        <ele>28</ele>
        <time>2020-01-21T16:26:51Z</time>
      </trkpt>
      <trkpt lat="59.243854" lon="18.113058">
        <ele>28</ele>
        <time>2020-01-21T16:26:52Z</time>
      </trkpt>
      <trkpt lat="59.243859" lon="18.112971">
        <ele>28</ele>
        <time>2020-01-21T16:26:53Z</time>
      </trkpt>
      <trkpt lat="59.243863" lon="18.112882">
        <ele>28</ele>
        <time>2020-01-21T16:26:54Z</time>
      </trkpt>
      <trkpt lat="59.243868" lon="18.112792">
        <ele>28</ele>
        <time>2020-01-21T16:26:55Z</time>
      </trkpt>
      <trkpt lat="59.243871" lon="18.112703">
        <ele>29</ele>
        <time>2020-01-21T16:26:56Z</time>
      </trkpt>
      <trkpt lat="59.243874" lon="18.112613">
        <ele>29</ele>
        <time>2020-01-21T16:26:58Z</time>
      </trkpt>
      <trkpt lat="59.243876" lon="18.112524">
        <ele>29</ele>
        <time>2020-01-21T16:26:59Z</time>
      </trkpt>
      <trkpt lat="59.243877" lon="18.112436">
        <ele>29</ele>
        <time>2020-01-21T16:26:59Z</time>
      </trkpt>
      <trkpt lat="59.243879" lon="18.112346">
        <ele>29</ele>
        <time>2020-01-21T16:27:00Z</time>
      </trkpt>
      <trkpt lat="59.243881" lon="18.112255">
        <ele>29</ele>
        <time>2020-01-21T16:27:01Z</time>
      </trkpt>
      <trkpt lat="59.243883" lon="18.112165">
        <ele>29</ele>
        <time>2020-01-21T16:27:02Z</time>
      </trkpt>
      <trkpt lat="59.243885" lon="18.112076">
        <ele>29</ele>
        <time>2020-01-21T16:27:03Z</time>
      </trkpt>
      <trkpt lat="59.243886" lon="18.111987">
        <ele>29</ele>
        <time>2020-01-21T16:27:04Z</time>
      </trkpt>
      <trkpt lat="59.243886" lon="18.111898">
        <ele>29</ele>
        <time>2020-01-21T16:27:05Z</time>
      </trkpt>
      <trkpt lat="59.243888" lon="18.111811">
        <ele>29</ele>
        <time>2020-01-21T16:27:06Z</time>
      </trkpt>
      <trkpt lat="59.24389" lon="18.111725">
        <ele>30</ele>
        <time>2020-01-21T16:27:07Z</time>
      </trkpt>
      <trkpt lat="59.243892" lon="18.111644">
        <ele>30</ele>
        <time>2020-01-21T16:27:08Z</time>
      </trkpt>
      <trkpt lat="59.243893" lon="18.111565">
        <ele>30</ele>
        <time>2020-01-21T16:27:10Z</time>
      </trkpt>
      <trkpt lat="59.243896" lon="18.111485">
        <ele>30</ele>
        <time>2020-01-21T16:27:10Z</time>
      </trkpt>
      <trkpt lat="59.243897" lon="18.111407">
        <ele>30</ele>
        <time>2020-01-21T16:27:11Z</time>
      </trkpt>
      <trkpt lat="59.243898" lon="18.11133">
        <ele>30</ele>
        <time>2020-01-21T16:27:12Z</time>
      </trkpt>
      <trkpt lat="59.243899" lon="18.111255">
        <ele>30</ele>
        <time>2020-01-21T16:27:13Z</time>
      </trkpt>
      <trkpt lat="59.243899" lon="18.111179">
        <ele>30</ele>
        <time>2020-01-21T16:27:14Z</time>
      </trkpt>
      <trkpt lat="59.243899" lon="18.111104">
        <ele>30</ele>
        <time>2020-01-21T16:27:15Z</time>
      </trkpt>
      <trkpt lat="59.243899" lon="18.11103">
        <ele>30</ele>
        <time>2020-01-21T16:27:16Z</time>
      </trkpt>
      <trkpt lat="59.243898" lon="18.110956">
        <ele>31</ele>
        <time>2020-01-21T16:27:18Z</time>
      </trkpt>
      <trkpt lat="59.243896" lon="18.110884">
        <ele>31</ele>
        <time>2020-01-21T16:27:18Z</time>
      </trkpt>
      <trkpt lat="59.243895" lon="18.110812">
        <ele>31</ele>
        <time>2020-01-21T16:27:20Z</time>
      </trkpt>
      <trkpt lat="59.243893" lon="18.11074">
        <ele>31</ele>
        <time>2020-01-21T16:27:20Z</time>
      </trkpt>
      <trkpt lat="59.243892" lon="18.110668">
        <ele>31</ele>
        <time>2020-01-21T16:27:21Z</time>
      </trkpt>
      <trkpt lat="59.243892" lon="18.110596">
        <ele>32</ele>
        <time>2020-01-21T16:27:23Z</time>
      </trkpt>
      <trkpt lat="59.243894" lon="18.110522">
        <ele>32</ele>
        <time>2020-01-21T16:27:23Z</time>
      </trkpt>
      <trkpt lat="59.243893" lon="18.11045">
        <ele>32</ele>
        <time>2020-01-21T16:27:24Z</time>
      </trkpt>
      <trkpt lat="59.243893" lon="18.110377">
        <ele>32</ele>
        <time>2020-01-21T16:27:25Z</time>
      </trkpt>
      <trkpt lat="59.243893" lon="18.110302">
        <ele>32</ele>
        <time>2020-01-21T16:27:26Z</time>
      </trkpt>
      <trkpt lat="59.243894" lon="18.110225">
        <ele>32</ele>
        <time>2020-01-21T16:27:27Z</time>
      </trkpt>
      <trkpt lat="59.243898" lon="18.110149">
        <ele>32</ele>
        <time>2020-01-21T16:27:28Z</time>
      </trkpt>
      <trkpt lat="59.243902" lon="18.110073">
        <ele>32</ele>
        <time>2020-01-21T16:27:29Z</time>
      </trkpt>
      <trkpt lat="59.243906" lon="18.109995">
        <ele>32</ele>
        <time>2020-01-21T16:27:30Z</time>
      </trkpt>
      <trkpt lat="59.243912" lon="18.109918">
        <ele>32</ele>
        <time>2020-01-21T16:27:31Z</time>
      </trkpt>
      <trkpt lat="59.243921" lon="18.10984">
        <ele>32</ele>
        <time>2020-01-21T16:27:32Z</time>
      </trkpt>
      <trkpt lat="59.24393" lon="18.109761">
        <ele>32</ele>
        <time>2020-01-21T16:27:33Z</time>
      </trkpt>
      <trkpt lat="59.243941" lon="18.109685">
        <ele>32</ele>
        <time>2020-01-21T16:27:35Z</time>
      </trkpt>
      <trkpt lat="59.243954" lon="18.10961">
        <ele>32</ele>
        <time>2020-01-21T16:27:35Z</time>
      </trkpt>
      <trkpt lat="59.243968" lon="18.109536">
        <ele>32</ele>
        <time>2020-01-21T16:27:37Z</time>
      </trkpt>
      <trkpt lat="59.243983" lon="18.109462">
        <ele>32</ele>
        <time>2020-01-21T16:27:37Z</time>
      </trkpt>
      <trkpt lat="59.244" lon="18.109392">
        <ele>32</ele>
        <time>2020-01-21T16:27:38Z</time>
      </trkpt>
      <trkpt lat="59.24402" lon="18.109324">
        <ele>32</ele>
        <time>2020-01-21T16:27:39Z</time>
      </trkpt>
      <trkpt lat="59.244041" lon="18.109258">
        <ele>32</ele>
        <time>2020-01-21T16:27:40Z</time>
      </trkpt>
      <trkpt lat="59.244063" lon="18.109193">
        <ele>32</ele>
        <time>2020-01-21T16:27:41Z</time>
      </trkpt>
      <trkpt lat="59.244086" lon="18.109131">
        <ele>32</ele>
        <time>2020-01-21T16:27:42Z</time>
      </trkpt>
      <trkpt lat="59.244111" lon="18.10907">
        <ele>32</ele>
        <time>2020-01-21T16:27:43Z</time>
      </trkpt>
      <trkpt lat="59.244137" lon="18.109012">
        <ele>32</ele>
        <time>2020-01-21T16:27:44Z</time>
      </trkpt>
      <trkpt lat="59.244163" lon="18.108955">
        <ele>32</ele>
        <time>2020-01-21T16:27:45Z</time>
      </trkpt>
      <trkpt lat="59.24419" lon="18.108899">
        <ele>32</ele>
        <time>2020-01-21T16:27:46Z</time>
      </trkpt>
      <trkpt lat="59.244217" lon="18.108845">
        <ele>33</ele>
        <time>2020-01-21T16:27:48Z</time>
      </trkpt>
      <trkpt lat="59.244245" lon="18.108792">
        <ele>33</ele>
        <time>2020-01-21T16:27:48Z</time>
      </trkpt>
      <trkpt lat="59.244274" lon="18.10874">
        <ele>33</ele>
        <time>2020-01-21T16:27:49Z</time>
      </trkpt>
      <trkpt lat="59.244304" lon="18.108686">
        <ele>33</ele>
        <time>2020-01-21T16:27:50Z</time>
      </trkpt>
      <trkpt lat="59.244334" lon="18.108631">
        <ele>33</ele>
        <time>2020-01-21T16:27:51Z</time>
      </trkpt>
      <trkpt lat="59.244365" lon="18.108574">
        <ele>33</ele>
        <time>2020-01-21T16:27:52Z</time>
      </trkpt>
      <trkpt lat="59.244396" lon="18.108516">
        <ele>33</ele>
        <time>2020-01-21T16:27:53Z</time>
      </trkpt>
      <trkpt lat="59.244426" lon="18.108461">
        <ele>33</ele>
        <time>2020-01-21T16:27:54Z</time>
      </trkpt>
      <trkpt lat="59.244456" lon="18.108406">
        <ele>33</ele>
        <time>2020-01-21T16:27:56Z</time>
      </trkpt>
      <trkpt lat="59.244486" lon="18.10835">
        <ele>33</ele>
        <time>2020-01-21T16:27:56Z</time>
      </trkpt>
      <trkpt lat="59.244517" lon="18.108295">
        <ele>33</ele>
        <time>2020-01-21T16:27:57Z</time>
      </trkpt>
      <trkpt lat="59.244547" lon="18.108242">
        <ele>33</ele>
        <time>2020-01-21T16:27:58Z</time>
      </trkpt>
      <trkpt lat="59.244577" lon="18.108186">
        <ele>33</ele>
        <time>2020-01-21T16:27:59Z</time>
      </trkpt>
      <trkpt lat="59.244606" lon="18.10813">
        <ele>33</ele>
        <time>2020-01-21T16:28:01Z</time>
      </trkpt>
      <trkpt lat="59.244634" lon="18.108074">
        <ele>33</ele>
        <time>2020-01-21T16:28:01Z</time>
      </trkpt>
      <trkpt lat="59.244663" lon="18.108017">
        <ele>33</ele>
        <time>2020-01-21T16:28:02Z</time>
      </trkpt>
      <trkpt lat="59.244694" lon="18.10796">
        <ele>33</ele>
        <time>2020-01-21T16:28:03Z</time>
      </trkpt>
      <trkpt lat="59.244722" lon="18.107901">
        <ele>33</ele>
        <time>2020-01-21T16:28:04Z</time>
      </trkpt>
      <trkpt lat="59.244752" lon="18.107843">
        <ele>33</ele>
        <time>2020-01-21T16:28:05Z</time>
      </trkpt>
      <trkpt lat="59.244781" lon="18.107788">
        <ele>33</ele>
        <time>2020-01-21T16:28:06Z</time>
      </trkpt>
      <trkpt lat="59.244812" lon="18.107734">
        <ele>33</ele>
        <time>2020-01-21T16:28:07Z</time>
      </trkpt>
      <trkpt lat="59.244842" lon="18.107678">
        <ele>33</ele>
        <time>2020-01-21T16:28:08Z</time>
      </trkpt>
      <trkpt lat="59.244871" lon="18.107621">
        <ele>33</ele>
        <time>2020-01-21T16:28:09Z</time>
      </trkpt>
      <trkpt lat="59.244902" lon="18.107562">
        <ele>33</ele>
        <time>2020-01-21T16:28:10Z</time>
      </trkpt>
      <trkpt lat="59.244936" lon="18.107506">
        <ele>33</ele>
        <time>2020-01-21T16:28:12Z</time>
      </trkpt>
      <trkpt lat="59.24497" lon="18.107454">
        <ele>33</ele>
        <time>2020-01-21T16:28:12Z</time>
      </trkpt>
      <trkpt lat="59.245003" lon="18.1074">
        <ele>34</ele>
        <time>2020-01-21T16:28:13Z</time>
      </trkpt>
      <trkpt lat="59.245035" lon="18.107342">
        <ele>34</ele>
        <time>2020-01-21T16:28:15Z</time>
      </trkpt>
      <trkpt lat="59.24507" lon="18.107283">
        <ele>34</ele>
        <time>2020-01-21T16:28:15Z</time>
      </trkpt>
      <trkpt lat="59.245106" lon="18.10722">
        <ele>34</ele>
        <time>2020-01-21T16:28:16Z</time>
      </trkpt>
      <trkpt lat="59.245141" lon="18.107154">
        <ele>34</ele>
        <time>2020-01-21T16:28:17Z</time>
      </trkpt>
      <trkpt lat="59.245178" lon="18.107086">
        <ele>33</ele>
        <time>2020-01-21T16:28:18Z</time>
      </trkpt>
      <trkpt lat="59.245214" lon="18.107018">
        <ele>33</ele>
        <time>2020-01-21T16:28:19Z</time>
      </trkpt>
      <trkpt lat="59.245252" lon="18.106948">
        <ele>33</ele>
        <time>2020-01-21T16:28:20Z</time>
      </trkpt>
      <trkpt lat="59.245293" lon="18.106878">
        <ele>33</ele>
        <time>2020-01-21T16:28:22Z</time>
      </trkpt>
      <trkpt lat="59.245335" lon="18.106804">
        <ele>33</ele>
        <time>2020-01-21T16:28:22Z</time>
      </trkpt>
      <trkpt lat="59.245378" lon="18.106728">
        <ele>33</ele>
        <time>2020-01-21T16:28:23Z</time>
      </trkpt>
      <trkpt lat="59.245422" lon="18.106649">
        <ele>32</ele>
        <time>2020-01-21T16:28:24Z</time>
      </trkpt>
      <trkpt lat="59.245468" lon="18.10657">
        <ele>32</ele>
        <time>2020-01-21T16:28:25Z</time>
      </trkpt>
      <trkpt lat="59.245512" lon="18.106488">
        <ele>32</ele>
        <time>2020-01-21T16:28:26Z</time>
      </trkpt>
      <trkpt lat="59.245558" lon="18.106404">
        <ele>32</ele>
        <time>2020-01-21T16:28:27Z</time>
      </trkpt>
      <trkpt lat="59.245606" lon="18.106323">
        <ele>32</ele>
        <time>2020-01-21T16:28:28Z</time>
      </trkpt>
      <trkpt lat="59.245657" lon="18.106243">
        <ele>32</ele>
        <time>2020-01-21T16:28:30Z</time>
      </trkpt>
      <trkpt lat="59.24571" lon="18.106163">
        <ele>32</ele>
        <time>2020-01-21T16:28:30Z</time>
      </trkpt>
      <trkpt lat="59.245764" lon="18.106083">
        <ele>32</ele>
        <time>2020-01-21T16:28:31Z</time>
      </trkpt>
      <trkpt lat="59.245821" lon="18.106003">
        <ele>31</ele>
        <time>2020-01-21T16:28:32Z</time>
      </trkpt>
      <trkpt lat="59.245879" lon="18.105919">
        <ele>31</ele>
        <time>2020-01-21T16:28:34Z</time>
      </trkpt>
      <trkpt lat="59.245938" lon="18.105837">
        <ele>31</ele>
        <time>2020-01-21T16:28:34Z</time>
      </trkpt>
      <trkpt lat="59.245996" lon="18.105753">
        <ele>31</ele>
        <time>2020-01-21T16:28:35Z</time>
      </trkpt>
      <trkpt lat="59.24606" lon="18.105668">
        <ele>30</ele>
        <time>2020-01-21T16:28:36Z</time>
      </trkpt>
      <trkpt lat="59.246118" lon="18.105586">
        <ele>29</ele>
        <time>2020-01-21T16:28:38Z</time>
      </trkpt>
      <trkpt lat="59.246186" lon="18.105506">
        <ele>29</ele>
        <time>2020-01-21T16:28:38Z</time>
      </trkpt>
      <trkpt lat="59.246253" lon="18.105447">
        <ele>29</ele>
        <time>2020-01-21T16:28:39Z</time>
      </trkpt>
      <trkpt lat="59.246324" lon="18.105412">
        <ele>29</ele>
        <time>2020-01-21T16:28:40Z</time>
      </trkpt>
      <trkpt lat="59.246394" lon="18.105389">
        <ele>28</ele>
        <time>2020-01-21T16:28:41Z</time>
      </trkpt>
      <trkpt lat="59.246466" lon="18.10537">
        <ele>28</ele>
        <time>2020-01-21T16:28:42Z</time>
      </trkpt>
      <trkpt lat="59.246536" lon="18.105341">
        <ele>28</ele>
        <time>2020-01-21T16:28:44Z</time>
      </trkpt>
      <trkpt lat="59.246602" lon="18.105287">
        <ele>28</ele>
        <time>2020-01-21T16:28:44Z</time>
      </trkpt>
      <trkpt lat="59.246664" lon="18.105207">
        <ele>28</ele>
        <time>2020-01-21T16:28:45Z</time>
      </trkpt>
      <trkpt lat="59.246726" lon="18.105129">
        <ele>28</ele>
        <time>2020-01-21T16:28:46Z</time>
      </trkpt>
      <trkpt lat="59.246788" lon="18.105052">
        <ele>27</ele>
        <time>2020-01-21T16:28:47Z</time>
      </trkpt>
      <trkpt lat="59.246851" lon="18.104968">
        <ele>27</ele>
        <time>2020-01-21T16:28:48Z</time>
      </trkpt>
      <trkpt lat="59.246906" lon="18.104879">
        <ele>27</ele>
        <time>2020-01-21T16:28:49Z</time>
      </trkpt>
      <trkpt lat="59.246942" lon="18.104778">
        <ele>27</ele>
        <time>2020-01-21T16:28:51Z</time>
      </trkpt>
      <trkpt lat="59.246958" lon="18.104657">
        <ele>27</ele>
        <time>2020-01-21T16:28:51Z</time>
      </trkpt>
      <trkpt lat="59.246959" lon="18.104528">
        <ele>27</ele>
        <time>2020-01-21T16:28:53Z</time>
      </trkpt>
      <trkpt lat="59.246953" lon="18.104411">
        <ele>27</ele>
        <time>2020-01-21T16:28:53Z</time>
      </trkpt>
      <trkpt lat="59.24694" lon="18.104296">
        <ele>27</ele>
        <time>2020-01-21T16:28:54Z</time>
      </trkpt>
      <trkpt lat="59.246937" lon="18.104167">
        <ele>27</ele>
        <time>2020-01-21T16:28:55Z</time>
      </trkpt>
      <trkpt lat="59.246942" lon="18.104047">
        <ele>27</ele>
        <time>2020-01-21T16:28:56Z</time>
      </trkpt>
      <trkpt lat="59.246962" lon="18.103934">
        <ele>27</ele>
        <time>2020-01-21T16:28:57Z</time>
      </trkpt>
      <trkpt lat="59.246984" lon="18.103832">
        <ele>27</ele>
        <time>2020-01-21T16:28:59Z</time>
      </trkpt>
      <trkpt lat="59.247006" lon="18.103743">
        <ele>27</ele>
        <time>2020-01-21T16:28:59Z</time>
      </trkpt>
      <trkpt lat="59.247036" lon="18.103657">
        <ele>27</ele>
        <time>2020-01-21T16:29:00Z</time>
      </trkpt>
      <trkpt lat="59.247066" lon="18.103581">
        <ele>27</ele>
        <time>2020-01-21T16:29:01Z</time>
      </trkpt>
      <trkpt lat="59.2471" lon="18.103514">
        <ele>28</ele>
        <time>2020-01-21T16:29:02Z</time>
      </trkpt>
      <trkpt lat="59.247132" lon="18.103457">
        <ele>28</ele>
        <time>2020-01-21T16:29:03Z</time>
      </trkpt>
      <trkpt lat="59.247175" lon="18.1034">
        <ele>28</ele>
        <time>2020-01-21T16:29:04Z</time>
      </trkpt>
      <trkpt lat="59.247214" lon="18.103348">
        <ele>28</ele>
        <time>2020-01-21T16:29:05Z</time>
      </trkpt>
      <trkpt lat="59.247252" lon="18.103294">
        <ele>28</ele>
        <time>2020-01-21T16:29:06Z</time>
      </trkpt>
      <trkpt lat="59.247287" lon="18.103244">
        <ele>28</ele>
        <time>2020-01-21T16:29:07Z</time>
      </trkpt>
      <trkpt lat="59.247323" lon="18.10319">
        <ele>28</ele>
        <time>2020-01-21T16:29:08Z</time>
      </trkpt>
      <trkpt lat="59.247355" lon="18.103133">
        <ele>28</ele>
        <time>2020-01-21T16:29:09Z</time>
      </trkpt>
      <trkpt lat="59.247388" lon="18.10307">
        <ele>29</ele>
        <time>2020-01-21T16:29:11Z</time>
      </trkpt>
      <trkpt lat="59.247419" lon="18.103006">
        <ele>29</ele>
        <time>2020-01-21T16:29:12Z</time>
      </trkpt>
      <trkpt lat="59.247446" lon="18.102945">
        <ele>29</ele>
        <time>2020-01-21T16:29:12Z</time>
      </trkpt>
      <trkpt lat="59.247472" lon="18.102879">
        <ele>29</ele>
        <time>2020-01-21T16:29:13Z</time>
      </trkpt>
      <trkpt lat="59.247498" lon="18.102808">
        <ele>29</ele>
        <time>2020-01-21T16:29:14Z</time>
      </trkpt>
      <trkpt lat="59.247516" lon="18.102741">
        <ele>30</ele>
        <time>2020-01-21T16:29:15Z</time>
      </trkpt>
      <trkpt lat="59.247531" lon="18.102678">
        <ele>30</ele>
        <time>2020-01-21T16:29:16Z</time>
      </trkpt>
      <trkpt lat="59.247549" lon="18.102604">
        <ele>30</ele>
        <time>2020-01-21T16:29:17Z</time>
      </trkpt>
      <trkpt lat="59.247565" lon="18.102531">
        <ele>31</ele>
        <time>2020-01-21T16:29:18Z</time>
      </trkpt>
      <trkpt lat="59.247584" lon="18.102453">
        <ele>31</ele>
        <time>2020-01-21T16:29:19Z</time>
      </trkpt>
      <trkpt lat="59.247603" lon="18.102373">
        <ele>31</ele>
        <time>2020-01-21T16:29:20Z</time>
      </trkpt>
      <trkpt lat="59.247622" lon="18.102294">
        <ele>32</ele>
        <time>2020-01-21T16:29:22Z</time>
      </trkpt>
      <trkpt lat="59.247642" lon="18.102211">
        <ele>32</ele>
        <time>2020-01-21T16:29:22Z</time>
      </trkpt>
      <trkpt lat="59.247662" lon="18.102129">
        <ele>32</ele>
        <time>2020-01-21T16:29:23Z</time>
      </trkpt>
      <trkpt lat="59.247684" lon="18.102047">
        <ele>33</ele>
        <time>2020-01-21T16:29:24Z</time>
      </trkpt>
      <trkpt lat="59.247702" lon="18.101973">
        <ele>33</ele>
        <time>2020-01-21T16:29:26Z</time>
      </trkpt>
      <trkpt lat="59.24772" lon="18.101897">
        <ele>33</ele>
        <time>2020-01-21T16:29:26Z</time>
      </trkpt>
      <trkpt lat="59.247743" lon="18.101814">
        <ele>33</ele>
        <time>2020-01-21T16:29:27Z</time>
      </trkpt>
      <trkpt lat="59.247766" lon="18.101728">
        <ele>34</ele>
        <time>2020-01-21T16:29:28Z</time>
      </trkpt>
      <trkpt lat="59.247792" lon="18.101642">
        <ele>34</ele>
        <time>2020-01-21T16:29:29Z</time>
      </trkpt>
      <trkpt lat="59.247819" lon="18.10156">
        <ele>34</ele>
        <time>2020-01-21T16:29:31Z</time>
      </trkpt>
      <trkpt lat="59.247846" lon="18.101483">
        <ele>34</ele>
        <time>2020-01-21T16:29:32Z</time>
      </trkpt>
      <trkpt lat="59.247874" lon="18.101403">
        <ele>34</ele>
        <time>2020-01-21T16:29:32Z</time>
      </trkpt>
      <trkpt lat="59.247902" lon="18.101324">
        <ele>34</ele>
        <time>2020-01-21T16:29:33Z</time>
      </trkpt>
      <trkpt lat="59.24793" lon="18.101244">
        <ele>34</ele>
        <time>2020-01-21T16:29:34Z</time>
      </trkpt>
      <trkpt lat="59.247967" lon="18.101154">
        <ele>34</ele>
        <time>2020-01-21T16:29:35Z</time>
      </trkpt>
      <trkpt lat="59.248005" lon="18.101064">
        <ele>33</ele>
        <time>2020-01-21T16:29:36Z</time>
      </trkpt>
      <trkpt lat="59.248042" lon="18.100973">
        <ele>33</ele>
        <time>2020-01-21T16:29:37Z</time>
      </trkpt>
      <trkpt lat="59.24808" lon="18.100888">
        <ele>33</ele>
        <time>2020-01-21T16:29:38Z</time>
      </trkpt>
      <trkpt lat="59.248119" lon="18.100811">
        <ele>33</ele>
        <time>2020-01-21T16:29:39Z</time>
      </trkpt>
      <trkpt lat="59.248158" lon="18.100742">
        <ele>32</ele>
        <time>2020-01-21T16:29:41Z</time>
      </trkpt>
      <trkpt lat="59.248206" lon="18.100678">
        <ele>32</ele>
        <time>2020-01-21T16:29:41Z</time>
      </trkpt>
      <trkpt lat="59.248257" lon="18.100623">
        <ele>32</ele>
        <time>2020-01-21T16:29:42Z</time>
      </trkpt>
      <trkpt lat="59.248311" lon="18.100573">
        <ele>32</ele>
        <time>2020-01-21T16:29:43Z</time>
      </trkpt>
      <trkpt lat="59.248368" lon="18.100525">
        <ele>31</ele>
        <time>2020-01-21T16:29:44Z</time>
      </trkpt>
      <trkpt lat="59.248427" lon="18.100474">
        <ele>31</ele>
        <time>2020-01-21T16:29:45Z</time>
      </trkpt>
      <trkpt lat="59.248488" lon="18.100415">
        <ele>30</ele>
        <time>2020-01-21T16:29:46Z</time>
      </trkpt>
      <trkpt lat="59.248545" lon="18.100354">
        <ele>30</ele>
        <time>2020-01-21T16:29:47Z</time>
      </trkpt>
      <trkpt lat="59.248597" lon="18.100289">
        <ele>30</ele>
        <time>2020-01-21T16:29:48Z</time>
      </trkpt>
      <trkpt lat="59.248643" lon="18.10022">
        <ele>0</ele>
        <time>2020-01-21T16:29:49Z</time>
      </trkpt>
      <trkpt lat="59.24869" lon="18.100152">
        <ele>30</ele>
        <time>2020-01-21T16:29:50Z</time>
      </trkpt>
      <trkpt lat="59.248739" lon="18.100086">
        <ele>30</ele>
        <time>2020-01-21T16:29:51Z</time>
      </trkpt>
      <trkpt lat="59.248785" lon="18.100023">
        <ele>29</ele>
        <time>2020-01-21T16:29:52Z</time>
      </trkpt>
      <trkpt lat="59.248834" lon="18.099964">
        <ele>29</ele>
        <time>2020-01-21T16:29:53Z</time>
      </trkpt>
      <trkpt lat="59.248885" lon="18.099909">
        <ele>29</ele>
        <time>2020-01-21T16:29:54Z</time>
      </trkpt>
      <trkpt lat="59.248934" lon="18.099852">
        <ele>29</ele>
        <time>2020-01-21T16:29:55Z</time>
      </trkpt>
      <trkpt lat="59.248985" lon="18.099802">
        <ele>29</ele>
        <time>2020-01-21T16:29:56Z</time>
      </trkpt>
      <trkpt lat="59.249043" lon="18.099755">
        <ele>29</ele>
        <time>2020-01-21T16:29:57Z</time>
      </trkpt>
      <trkpt lat="59.249103" lon="18.099711">
        <ele>28</ele>
        <time>2020-01-21T16:29:59Z</time>
      </trkpt>
      <trkpt lat="59.249164" lon="18.099675">
        <ele>28</ele>
        <time>2020-01-21T16:29:59Z</time>
      </trkpt>
      <trkpt lat="59.249226" lon="18.099644">
        <ele>28</ele>
        <time>2020-01-21T16:30:00Z</time>
      </trkpt>
      <trkpt lat="59.249288" lon="18.099616">
        <ele>28</ele>
        <time>2020-01-21T16:30:01Z</time>
      </trkpt>
      <trkpt lat="59.249348" lon="18.099591">
        <ele>28</ele>
        <time>2020-01-21T16:30:02Z</time>
      </trkpt>
      <trkpt lat="59.249408" lon="18.099565">
        <ele>28</ele>
        <time>2020-01-21T16:30:03Z</time>
      </trkpt>
      <trkpt lat="59.249467" lon="18.099538">
        <ele>28</ele>
        <time>2020-01-21T16:30:04Z</time>
      </trkpt>
      <trkpt lat="59.249525" lon="18.099514">
        <ele>28</ele>
        <time>2020-01-21T16:30:06Z</time>
      </trkpt>
      <trkpt lat="59.249585" lon="18.099497">
        <ele>27</ele>
        <time>2020-01-21T16:30:06Z</time>
      </trkpt>
      <trkpt lat="59.249645" lon="18.099492">
        <ele>27</ele>
        <time>2020-01-21T16:30:07Z</time>
      </trkpt>
      <trkpt lat="59.249704" lon="18.099496">
        <ele>28</ele>
        <time>2020-01-21T16:30:09Z</time>
      </trkpt>
      <trkpt lat="59.249761" lon="18.099507">
        <ele>28</ele>
        <time>2020-01-21T16:30:09Z</time>
      </trkpt>
      <trkpt lat="59.249813" lon="18.099523">
        <ele>28</ele>
        <time>2020-01-21T16:30:10Z</time>
      </trkpt>
      <trkpt lat="59.249861" lon="18.099544">
        <ele>28</ele>
        <time>2020-01-21T16:30:11Z</time>
      </trkpt>
      <trkpt lat="59.249906" lon="18.099566">
        <ele>28</ele>
        <time>2020-01-21T16:30:12Z</time>
      </trkpt>
      <trkpt lat="59.24995" lon="18.099587">
        <ele>28</ele>
        <time>2020-01-21T16:30:13Z</time>
      </trkpt>
      <trkpt lat="59.249994" lon="18.099608">
        <ele>28</ele>
        <time>2020-01-21T16:30:15Z</time>
      </trkpt>
      <trkpt lat="59.250038" lon="18.099628">
        <ele>28</ele>
        <time>2020-01-21T16:30:15Z</time>
      </trkpt>
      <trkpt lat="59.250081" lon="18.09965">
        <ele>28</ele>
        <time>2020-01-21T16:30:16Z</time>
      </trkpt>
      <trkpt lat="59.250124" lon="18.099674">
        <ele>28</ele>
        <time>2020-01-21T16:30:17Z</time>
      </trkpt>
      <trkpt lat="59.250166" lon="18.099692">
        <ele>28</ele>
        <time>2020-01-21T16:30:18Z</time>
      </trkpt>
      <trkpt lat="59.250208" lon="18.099707">
        <ele>28</ele>
        <time>2020-01-21T16:30:19Z</time>
      </trkpt>
      <trkpt lat="59.25025" lon="18.099724">
        <ele>29</ele>
        <time>2020-01-21T16:30:20Z</time>
      </trkpt>
      <trkpt lat="59.250292" lon="18.099743">
        <ele>29</ele>
        <time>2020-01-21T16:30:21Z</time>
      </trkpt>
      <trkpt lat="59.250334" lon="18.099764">
        <ele>29</ele>
        <time>2020-01-21T16:30:22Z</time>
      </trkpt>
      <trkpt lat="59.250376" lon="18.099788">
        <ele>29</ele>
        <time>2020-01-21T16:30:23Z</time>
      </trkpt>
      <trkpt lat="59.250417" lon="18.099813">
        <ele>29</ele>
        <time>2020-01-21T16:30:24Z</time>
      </trkpt>
      <trkpt lat="59.250458" lon="18.099837">
        <ele>29</ele>
        <time>2020-01-21T16:30:25Z</time>
      </trkpt>
      <trkpt lat="59.250498" lon="18.099866">
        <ele>29</ele>
        <time>2020-01-21T16:30:27Z</time>
      </trkpt>
      <trkpt lat="59.250536" lon="18.099906">
        <ele>29</ele>
        <time>2020-01-21T16:30:28Z</time>
      </trkpt>
      <trkpt lat="59.250572" lon="18.099952">
        <ele>29</ele>
        <time>2020-01-21T16:30:28Z</time>
      </trkpt>
      <trkpt lat="59.250608" lon="18.100002">
        <ele>30</ele>
        <time>2020-01-21T16:30:29Z</time>
      </trkpt>
      <trkpt lat="59.250643" lon="18.100052">
        <ele>30</ele>
        <time>2020-01-21T16:30:30Z</time>
      </trkpt>
      <trkpt lat="59.250677" lon="18.100107">
        <ele>30</ele>
        <time>2020-01-21T16:30:31Z</time>
      </trkpt>
      <trkpt lat="59.250709" lon="18.100168">
        <ele>30</ele>
        <time>2020-01-21T16:30:32Z</time>
      </trkpt>
      <trkpt lat="59.25074" lon="18.100237">
        <ele>30</ele>
        <time>2020-01-21T16:30:33Z</time>
      </trkpt>
      <trkpt lat="59.250772" lon="18.10031">
        <ele>30</ele>
        <time>2020-01-21T16:30:34Z</time>
      </trkpt>
      <trkpt lat="59.250805" lon="18.100387">
        <ele>30</ele>
        <time>2020-01-21T16:30:35Z</time>
      </trkpt>
      <trkpt lat="59.250842" lon="18.100466">
        <ele>30</ele>
        <time>2020-01-21T16:30:37Z</time>
      </trkpt>
      <trkpt lat="59.250882" lon="18.100542">
        <ele>30</ele>
        <time>2020-01-21T16:30:37Z</time>
      </trkpt>
      <trkpt lat="59.250926" lon="18.100614">
        <ele>30</ele>
        <time>2020-01-21T16:30:38Z</time>
      </trkpt>
      <trkpt lat="59.250974" lon="18.100681">
        <ele>30</ele>
        <time>2020-01-21T16:30:39Z</time>
      </trkpt>
      <trkpt lat="59.251026" lon="18.100742">
        <ele>30</ele>
        <time>2020-01-21T16:30:40Z</time>
      </trkpt>
      <trkpt lat="59.251083" lon="18.100796">
        <ele>30</ele>
        <time>2020-01-21T16:30:41Z</time>
      </trkpt>
      <trkpt lat="59.251142" lon="18.100849">
        <ele>30</ele>
        <time>2020-01-21T16:30:42Z</time>
      </trkpt>
      <trkpt lat="59.251203" lon="18.100896">
        <ele>29</ele>
        <time>2020-01-21T16:30:43Z</time>
      </trkpt>
      <trkpt lat="59.251268" lon="18.100932">
        <ele>29</ele>
        <time>2020-01-21T16:30:45Z</time>
      </trkpt>
      <trkpt lat="59.251334" lon="18.100957">
        <ele>29</ele>
        <time>2020-01-21T16:30:45Z</time>
      </trkpt>
      <trkpt lat="59.251402" lon="18.100968">
        <ele>30</ele>
        <time>2020-01-21T16:30:47Z</time>
      </trkpt>
      <trkpt lat="59.251469" lon="18.100961">
        <ele>30</ele>
        <time>2020-01-21T16:30:47Z</time>
      </trkpt>
      <trkpt lat="59.251536" lon="18.100933">
        <ele>30</ele>
        <time>2020-01-21T16:30:48Z</time>
      </trkpt>
      <trkpt lat="59.251603" lon="18.100894">
        <ele>30</ele>
        <time>2020-01-21T16:30:49Z</time>
      </trkpt>
      <trkpt lat="59.25167" lon="18.100854">
        <ele>29</ele>
        <time>2020-01-21T16:30:50Z</time>
      </trkpt>
      <trkpt lat="59.251738" lon="18.100815">
        <ele>29</ele>
        <time>2020-01-21T16:30:52Z</time>
      </trkpt>
      <trkpt lat="59.251803" lon="18.100776">
        <ele>29</ele>
        <time>2020-01-21T16:30:52Z</time>
      </trkpt>
      <trkpt lat="59.25187" lon="18.100735">
        <ele>28</ele>
        <time>2020-01-21T16:30:53Z</time>
      </trkpt>
      <trkpt lat="59.251939" lon="18.100691">
        <ele>28</ele>
        <time>2020-01-21T16:30:54Z</time>
      </trkpt>
      <trkpt lat="59.252011" lon="18.100646">
        <ele>28</ele>
        <time>2020-01-21T16:30:55Z</time>
      </trkpt>
      <trkpt lat="59.252084" lon="18.100599">
        <ele>27</ele>
        <time>2020-01-21T16:30:56Z</time>
      </trkpt>
      <trkpt lat="59.252159" lon="18.100553">
        <ele>27</ele>
        <time>2020-01-21T16:30:57Z</time>
      </trkpt>
      <trkpt lat="59.252234" lon="18.100508">
        <ele>27</ele>
        <time>2020-01-21T16:30:58Z</time>
      </trkpt>
      <trkpt lat="59.252311" lon="18.100461">
        <ele>26</ele>
        <time>2020-01-21T16:31:00Z</time>
      </trkpt>
      <trkpt lat="59.252388" lon="18.100414">
        <ele>25</ele>
        <time>2020-01-21T16:31:00Z</time>
      </trkpt>
      <trkpt lat="59.252465" lon="18.10037">
        <ele>25</ele>
        <time>2020-01-21T16:31:01Z</time>
      </trkpt>
      <trkpt lat="59.252541" lon="18.100331">
        <ele>24</ele>
        <time>2020-01-21T16:31:02Z</time>
      </trkpt>
      <trkpt lat="59.252618" lon="18.100297">
        <ele>24</ele>
        <time>2020-01-21T16:31:03Z</time>
      </trkpt>
      <trkpt lat="59.252694" lon="18.100267">
        <ele>24</ele>
        <time>2020-01-21T16:31:05Z</time>
      </trkpt>
      <trkpt lat="59.25277" lon="18.100241">
        <ele>24</ele>
        <time>2020-01-21T16:31:06Z</time>
      </trkpt>
      <trkpt lat="59.252844" lon="18.100219">
        <ele>24</ele>
        <time>2020-01-21T16:31:06Z</time>
      </trkpt>
      <trkpt lat="59.252919" lon="18.100202">
        <ele>24</ele>
        <time>2020-01-21T16:31:07Z</time>
      </trkpt>
      <trkpt lat="59.252992" lon="18.100194">
        <ele>24</ele>
        <time>2020-01-21T16:31:08Z</time>
      </trkpt>
      <trkpt lat="59.253063" lon="18.100191">
        <ele>24</ele>
        <time>2020-01-21T16:31:09Z</time>
      </trkpt>
      <trkpt lat="59.253131" lon="18.100195">
        <ele>24</ele>
        <time>2020-01-21T16:31:10Z</time>
      </trkpt>
      <trkpt lat="59.253195" lon="18.10021">
        <ele>24</ele>
        <time>2020-01-21T16:31:11Z</time>
      </trkpt>
      <trkpt lat="59.253256" lon="18.10023">
        <ele>24</ele>
        <time>2020-01-21T16:31:12Z</time>
      </trkpt>
      <trkpt lat="59.253314" lon="18.100259">
        <ele>24</ele>
        <time>2020-01-21T16:31:14Z</time>
      </trkpt>
      <trkpt lat="59.253368" lon="18.1003">
        <ele>24</ele>
        <time>2020-01-21T16:31:14Z</time>
      </trkpt>
      <trkpt lat="59.253422" lon="18.100346">
        <ele>24</ele>
        <time>2020-01-21T16:31:15Z</time>
      </trkpt>
      <trkpt lat="59.253477" lon="18.10039">
        <ele>24</ele>
        <time>2020-01-21T16:31:16Z</time>
      </trkpt>
      <trkpt lat="59.253533" lon="18.100428">
        <ele>24</ele>
        <time>2020-01-21T16:31:17Z</time>
      </trkpt>
      <trkpt lat="59.253589" lon="18.100465">
        <ele>24</ele>
        <time>2020-01-21T16:31:18Z</time>
      </trkpt>
      <trkpt lat="59.253644" lon="18.100503">
        <ele>24</ele>
        <time>2020-01-21T16:31:19Z</time>
      </trkpt>
      <trkpt lat="59.253697" lon="18.100534">
        <ele>24</ele>
        <time>2020-01-21T16:31:21Z</time>
      </trkpt>
      <trkpt lat="59.253751" lon="18.100557">
        <ele>24</ele>
        <time>2020-01-21T16:31:21Z</time>
      </trkpt>
      <trkpt lat="59.253805" lon="18.100576">
        <ele>24</ele>
        <time>2020-01-21T16:31:22Z</time>
      </trkpt>
      <trkpt lat="59.253859" lon="18.100594">
        <ele>24</ele>
        <time>2020-01-21T16:31:23Z</time>
      </trkpt>
      <trkpt lat="59.25391" lon="18.100614">
        <ele>24</ele>
        <time>2020-01-21T16:31:25Z</time>
      </trkpt>
      <trkpt lat="59.25396" lon="18.100636">
        <ele>25</ele>
        <time>2020-01-21T16:31:25Z</time>
      </trkpt>
      <trkpt lat="59.25401" lon="18.100656">
        <ele>25</ele>
        <time>2020-01-21T16:31:26Z</time>
      </trkpt>
      <trkpt lat="59.254059" lon="18.100667">
        <ele>25</ele>
        <time>2020-01-21T16:31:27Z</time>
      </trkpt>
      <trkpt lat="59.254107" lon="18.100674">
        <ele>25</ele>
        <time>2020-01-21T16:31:28Z</time>
      </trkpt>
      <trkpt lat="59.254155" lon="18.100676">
        <ele>25</ele>
        <time>2020-01-21T16:31:29Z</time>
      </trkpt>
      <trkpt lat="59.254205" lon="18.100681">
        <ele>25</ele>
        <time>2020-01-21T16:31:30Z</time>
      </trkpt>
      <trkpt lat="59.254257" lon="18.100693">
        <ele>25</ele>
        <time>2020-01-21T16:31:32Z</time>
      </trkpt>
      <trkpt lat="59.25431" lon="18.10071">
        <ele>25</ele>
        <time>2020-01-21T16:31:32Z</time>
      </trkpt>
      <trkpt lat="59.254363" lon="18.100727">
        <ele>25</ele>
        <time>2020-01-21T16:31:33Z</time>
      </trkpt>
      <trkpt lat="59.254417" lon="18.100747">
        <ele>25</ele>
        <time>2020-01-21T16:31:34Z</time>
      </trkpt>
      <trkpt lat="59.254472" lon="18.100765">
        <ele>25</ele>
        <time>2020-01-21T16:31:35Z</time>
      </trkpt>
      <trkpt lat="59.254526" lon="18.100781">
        <ele>25</ele>
        <time>2020-01-21T16:31:36Z</time>
      </trkpt>
      <trkpt lat="59.25458" lon="18.100798">
        <ele>25</ele>
        <time>2020-01-21T16:31:37Z</time>
      </trkpt>
      <trkpt lat="59.254633" lon="18.100814">
        <ele>25</ele>
        <time>2020-01-21T16:31:38Z</time>
      </trkpt>
      <trkpt lat="59.254686" lon="18.10083">
        <ele>26</ele>
        <time>2020-01-21T16:31:40Z</time>
      </trkpt>
      <trkpt lat="59.254736" lon="18.100848">
        <ele>26</ele>
        <time>2020-01-21T16:31:40Z</time>
      </trkpt>
      <trkpt lat="59.254785" lon="18.100863">
        <ele>26</ele>
        <time>2020-01-21T16:31:41Z</time>
      </trkpt>
      <trkpt lat="59.254833" lon="18.100877">
        <ele>26</ele>
        <time>2020-01-21T16:31:42Z</time>
      </trkpt>
      <trkpt lat="59.25488" lon="18.10089">
        <ele>26</ele>
        <time>2020-01-21T16:31:44Z</time>
      </trkpt>
      <trkpt lat="59.254927" lon="18.100905">
        <ele>26</ele>
        <time>2020-01-21T16:31:44Z</time>
      </trkpt>
      <trkpt lat="59.254976" lon="18.100916">
        <ele>26</ele>
        <time>2020-01-21T16:31:45Z</time>
      </trkpt>
      <trkpt lat="59.255026" lon="18.100927">
        <ele>26</ele>
        <time>2020-01-21T16:31:46Z</time>
      </trkpt>
      <trkpt lat="59.255081" lon="18.100935">
        <ele>26</ele>
        <time>2020-01-21T16:31:47Z</time>
      </trkpt>
      <trkpt lat="59.255135" lon="18.100948">
        <ele>27</ele>
        <time>2020-01-21T16:31:48Z</time>
      </trkpt>
      <trkpt lat="59.255192" lon="18.100956">
        <ele>27</ele>
        <time>2020-01-21T16:31:49Z</time>
      </trkpt>
      <trkpt lat="59.255248" lon="18.100963">
        <ele>27</ele>
        <time>2020-01-21T16:31:51Z</time>
      </trkpt>
      <trkpt lat="59.255302" lon="18.100974">
        <ele>27</ele>
        <time>2020-01-21T16:31:51Z</time>
      </trkpt>
      <trkpt lat="59.255358" lon="18.100983">
        <ele>27</ele>
        <time>2020-01-21T16:31:52Z</time>
      </trkpt>
      <trkpt lat="59.255412" lon="18.100992">
        <ele>27</ele>
        <time>2020-01-21T16:31:53Z</time>
      </trkpt>
      <trkpt lat="59.255465" lon="18.101001">
        <ele>27</ele>
        <time>2020-01-21T16:31:54Z</time>
      </trkpt>
      <trkpt lat="59.255519" lon="18.101011">
        <ele>28</ele>
        <time>2020-01-21T16:31:55Z</time>
      </trkpt>
      <trkpt lat="59.255571" lon="18.101022">
        <ele>28</ele>
        <time>2020-01-21T16:31:56Z</time>
      </trkpt>
      <trkpt lat="59.255622" lon="18.101034">
        <ele>28</ele>
        <time>2020-01-21T16:31:57Z</time>
      </trkpt>
      <trkpt lat="59.255673" lon="18.101046">
        <ele>28</ele>
        <time>2020-01-21T16:31:59Z</time>
      </trkpt>
      <trkpt lat="59.255725" lon="18.101054">
        <ele>28</ele>
        <time>2020-01-21T16:31:59Z</time>
      </trkpt>
      <trkpt lat="59.255779" lon="18.101061">
        <ele>28</ele>
        <time>2020-01-21T16:32:00Z</time>
      </trkpt>
      <trkpt lat="59.255833" lon="18.101067">
        <ele>28</ele>
        <time>2020-01-21T16:32:01Z</time>
      </trkpt>
      <trkpt lat="59.255884" lon="18.101073">
        <ele>28</ele>
        <time>2020-01-21T16:32:03Z</time>
      </trkpt>
      <trkpt lat="59.255934" lon="18.101083">
        <ele>29</ele>
        <time>2020-01-21T16:32:03Z</time>
      </trkpt>
      <trkpt lat="59.255987" lon="18.10109">
        <ele>29</ele>
        <time>2020-01-21T16:32:04Z</time>
      </trkpt>
      <trkpt lat="59.256041" lon="18.101097">
        <ele>29</ele>
        <time>2020-01-21T16:32:05Z</time>
      </trkpt>
      <trkpt lat="59.256097" lon="18.1011">
        <ele>29</ele>
        <time>2020-01-21T16:32:06Z</time>
      </trkpt>
      <trkpt lat="59.256154" lon="18.101103">
        <ele>29</ele>
        <time>2020-01-21T16:32:08Z</time>
      </trkpt>
      <trkpt lat="59.256209" lon="18.101109">
        <ele>29</ele>
        <time>2020-01-21T16:32:08Z</time>
      </trkpt>
      <trkpt lat="59.256266" lon="18.101113">
        <ele>29</ele>
        <time>2020-01-21T16:32:09Z</time>
      </trkpt>
      <trkpt lat="59.256323" lon="18.101117">
        <ele>29</ele>
        <time>2020-01-21T16:32:10Z</time>
      </trkpt>
      <trkpt lat="59.25638" lon="18.101119">
        <ele>29</ele>
        <time>2020-01-21T16:32:11Z</time>
      </trkpt>
      <trkpt lat="59.256436" lon="18.10112">
        <ele>29</ele>
        <time>2020-01-21T16:32:12Z</time>
      </trkpt>
      <trkpt lat="59.256492" lon="18.101124">
        <ele>29</ele>
        <time>2020-01-21T16:32:13Z</time>
      </trkpt>
      <trkpt lat="59.256547" lon="18.10113">
        <ele>29</ele>
        <time>2020-01-21T16:32:14Z</time>
      </trkpt>
      <trkpt lat="59.256599" lon="18.101135">
        <ele>29</ele>
        <time>2020-01-21T16:32:15Z</time>
      </trkpt>
      <trkpt lat="59.256651" lon="18.101136">
        <ele>29</ele>
        <time>2020-01-21T16:32:16Z</time>
      </trkpt>
      <trkpt lat="59.256703" lon="18.101138">
        <ele>29</ele>
        <time>2020-01-21T16:32:17Z</time>
      </trkpt>
      <trkpt lat="59.256753" lon="18.101142">
        <ele>29</ele>
        <time>2020-01-21T16:32:19Z</time>
      </trkpt>
      <trkpt lat="59.256801" lon="18.101143">
        <ele>29</ele>
        <time>2020-01-21T16:32:19Z</time>
      </trkpt>
      <trkpt lat="59.25685" lon="18.10114">
        <ele>29</ele>
        <time>2020-01-21T16:32:20Z</time>
      </trkpt>
      <trkpt lat="59.256898" lon="18.101126">
        <ele>29</ele>
        <time>2020-01-21T16:32:22Z</time>
      </trkpt>
      <trkpt lat="59.256944" lon="18.101096">
        <ele>29</ele>
        <time>2020-01-21T16:32:22Z</time>
      </trkpt>
      <trkpt lat="59.256985" lon="18.101046">
        <ele>28</ele>
        <time>2020-01-21T16:32:23Z</time>
      </trkpt>
      <trkpt lat="59.257014" lon="18.100973">
        <ele>28</ele>
        <time>2020-01-21T16:32:24Z</time>
      </trkpt>
      <trkpt lat="59.257037" lon="18.100881">
        <ele>28</ele>
        <time>2020-01-21T16:32:25Z</time>
      </trkpt>
      <trkpt lat="59.257059" lon="18.100786">
        <ele>28</ele>
        <time>2020-01-21T16:32:26Z</time>
      </trkpt>
      <trkpt lat="59.257078" lon="18.100696">
        <ele>28</ele>
        <time>2020-01-21T16:32:28Z</time>
      </trkpt>
      <trkpt lat="59.257095" lon="18.100601">
        <ele>29</ele>
        <time>2020-01-21T16:32:28Z</time>
      </trkpt>
      <trkpt lat="59.25712" lon="18.100415">
        <ele>29</ele>
        <time>2020-01-21T16:32:31Z</time>
      </trkpt>
      <trkpt lat="59.257189" lon="18.100076">
        <ele>29</ele>
        <time>2020-01-21T16:32:33Z</time>
      </trkpt>
      <trkpt lat="59.257289" lon="18.099839">
        <ele>29</ele>
        <time>2020-01-21T16:32:36Z</time>
      </trkpt>
      <trkpt lat="59.257325" lon="18.099732">
        <ele>29</ele>
        <time>2020-01-21T16:32:36Z</time>
      </trkpt>
      <trkpt lat="59.25737" lon="18.099634">
        <ele>29</ele>
        <time>2020-01-21T16:32:37Z</time>
      </trkpt>
      <trkpt lat="59.257411" lon="18.099551">
        <ele>29</ele>
        <time>2020-01-21T16:32:38Z</time>
      </trkpt>
      <trkpt lat="59.257443" lon="18.099479">
        <ele>29</ele>
        <time>2020-01-21T16:32:39Z</time>
      </trkpt>
      <trkpt lat="59.257478" lon="18.099411">
        <ele>30</ele>
        <time>2020-01-21T16:32:41Z</time>
      </trkpt>
      <trkpt lat="59.257508" lon="18.099358">
        <ele>30</ele>
        <time>2020-01-21T16:32:41Z</time>
      </trkpt>
      <trkpt lat="59.257542" lon="18.099316">
        <ele>30</ele>
        <time>2020-01-21T16:32:42Z</time>
      </trkpt>
      <trkpt lat="59.257576" lon="18.099284">
        <ele>30</ele>
        <time>2020-01-21T16:32:43Z</time>
      </trkpt>
      <trkpt lat="59.257611" lon="18.099256">
        <ele>30</ele>
        <time>2020-01-21T16:32:44Z</time>
      </trkpt>
      <trkpt lat="59.257648" lon="18.09923">
        <ele>30</ele>
        <time>2020-01-21T16:32:46Z</time>
      </trkpt>
      <trkpt lat="59.257685" lon="18.099212">
        <ele>31</ele>
        <time>2020-01-21T16:32:46Z</time>
      </trkpt>
      <trkpt lat="59.25772" lon="18.099201">
        <ele>31</ele>
        <time>2020-01-21T16:32:47Z</time>
      </trkpt>
      <trkpt lat="59.257759" lon="18.099189">
        <ele>31</ele>
        <time>2020-01-21T16:32:48Z</time>
      </trkpt>
      <trkpt lat="59.257802" lon="18.099186">
        <ele>31</ele>
        <time>2020-01-21T16:32:49Z</time>
      </trkpt>
      <trkpt lat="59.257846" lon="18.099193">
        <ele>31</ele>
        <time>2020-01-21T16:32:50Z</time>
      </trkpt>
      <trkpt lat="59.257888" lon="18.099205">
        <ele>31</ele>
        <time>2020-01-21T16:32:51Z</time>
      </trkpt>
      <trkpt lat="59.25793" lon="18.099218">
        <ele>31</ele>
        <time>2020-01-21T16:32:52Z</time>
      </trkpt>
      <trkpt lat="59.257973" lon="18.099229">
        <ele>31</ele>
        <time>2020-01-21T16:32:53Z</time>
      </trkpt>
      <trkpt lat="59.258018" lon="18.099239">
        <ele>32</ele>
        <time>2020-01-21T16:32:54Z</time>
      </trkpt>
      <trkpt lat="59.258063" lon="18.099249">
        <ele>32</ele>
        <time>2020-01-21T16:32:55Z</time>
      </trkpt>
      <trkpt lat="59.258107" lon="18.09926">
        <ele>32</ele>
        <time>2020-01-21T16:32:56Z</time>
      </trkpt>
      <trkpt lat="59.258151" lon="18.099269">
        <ele>32</ele>
        <time>2020-01-21T16:32:57Z</time>
      </trkpt>
      <trkpt lat="59.258194" lon="18.099273">
        <ele>32</ele>
        <time>2020-01-21T16:32:59Z</time>
      </trkpt>
      <trkpt lat="59.258239" lon="18.099273">
        <ele>32</ele>
        <time>2020-01-21T16:33:00Z</time>
      </trkpt>
      <trkpt lat="59.258286" lon="18.099273">
        <ele>32</ele>
        <time>2020-01-21T16:33:00Z</time>
      </trkpt>
      <trkpt lat="59.258331" lon="18.099272">
        <ele>32</ele>
        <time>2020-01-21T16:33:01Z</time>
      </trkpt>
      <trkpt lat="59.258378" lon="18.099274">
        <ele>33</ele>
        <time>2020-01-21T16:33:02Z</time>
      </trkpt>
      <trkpt lat="59.258426" lon="18.099275">
        <ele>33</ele>
        <time>2020-01-21T16:33:03Z</time>
      </trkpt>
      <trkpt lat="59.258474" lon="18.099279">
        <ele>33</ele>
        <time>2020-01-21T16:33:04Z</time>
      </trkpt>
      <trkpt lat="59.258525" lon="18.099286">
        <ele>33</ele>
        <time>2020-01-21T16:33:05Z</time>
      </trkpt>
      <trkpt lat="59.258577" lon="18.099292">
        <ele>34</ele>
        <time>2020-01-21T16:33:06Z</time>
      </trkpt>
      <trkpt lat="59.258629" lon="18.099288">
        <ele>34</ele>
        <time>2020-01-21T16:33:08Z</time>
      </trkpt>
      <trkpt lat="59.25868" lon="18.099284">
        <ele>34</ele>
        <time>2020-01-21T16:33:08Z</time>
      </trkpt>
      <trkpt lat="59.258731" lon="18.099279">
        <ele>34</ele>
        <time>2020-01-21T16:33:09Z</time>
      </trkpt>
      <trkpt lat="59.258782" lon="18.099274">
        <ele>34</ele>
        <time>2020-01-21T16:33:10Z</time>
      </trkpt>
      <trkpt lat="59.258833" lon="18.099268">
        <ele>34</ele>
        <time>2020-01-21T16:33:11Z</time>
      </trkpt>
      <trkpt lat="59.258882" lon="18.099264">
        <ele>33</ele>
        <time>2020-01-21T16:33:12Z</time>
      </trkpt>
      <trkpt lat="59.258931" lon="18.09926">
        <ele>33</ele>
        <time>2020-01-21T16:33:13Z</time>
      </trkpt>
      <trkpt lat="59.258981" lon="18.099256">
        <ele>33</ele>
        <time>2020-01-21T16:33:14Z</time>
      </trkpt>
      <trkpt lat="59.259029" lon="18.099251">
        <ele>33</ele>
        <time>2020-01-21T16:33:15Z</time>
      </trkpt>
      <trkpt lat="59.259077" lon="18.09925">
        <ele>32</ele>
        <time>2020-01-21T16:33:16Z</time>
      </trkpt>
      <trkpt lat="59.25913" lon="18.099248">
        <ele>32</ele>
        <time>2020-01-21T16:33:17Z</time>
      </trkpt>
      <trkpt lat="59.259185" lon="18.09924">
        <ele>32</ele>
        <time>2020-01-21T16:33:19Z</time>
      </trkpt>
      <trkpt lat="59.259243" lon="18.099226">
        <ele>31</ele>
        <time>2020-01-21T16:33:19Z</time>
      </trkpt>
      <trkpt lat="59.2593" lon="18.099199">
        <ele>31</ele>
        <time>2020-01-21T16:33:20Z</time>
      </trkpt>
      <trkpt lat="59.259356" lon="18.099161">
        <ele>31</ele>
        <time>2020-01-21T16:33:21Z</time>
      </trkpt>
      <trkpt lat="59.259409" lon="18.099113">
        <ele>31</ele>
        <time>2020-01-21T16:33:22Z</time>
      </trkpt>
      <trkpt lat="59.259457" lon="18.099054">
        <ele>31</ele>
        <time>2020-01-21T16:33:23Z</time>
      </trkpt>
      <trkpt lat="59.259502" lon="18.098982">
        <ele>31</ele>
        <time>2020-01-21T16:33:24Z</time>
      </trkpt>
      <trkpt lat="59.25954" lon="18.098902">
        <ele>31</ele>
        <time>2020-01-21T16:33:25Z</time>
      </trkpt>
      <trkpt lat="59.259573" lon="18.098812">
        <ele>31</ele>
        <time>2020-01-21T16:33:27Z</time>
      </trkpt>
      <trkpt lat="59.259599" lon="18.098719">
        <ele>31</ele>
        <time>2020-01-21T16:33:27Z</time>
      </trkpt>
      <trkpt lat="59.259619" lon="18.098618">
        <ele>31</ele>
        <time>2020-01-21T16:33:28Z</time>
      </trkpt>
      <trkpt lat="59.259635" lon="18.098514">
        <ele>31</ele>
        <time>2020-01-21T16:33:29Z</time>
      </trkpt>
      <trkpt lat="59.259648" lon="18.098411">
        <ele>31</ele>
        <time>2020-01-21T16:33:30Z</time>
      </trkpt>
      <trkpt lat="59.259655" lon="18.098308">
        <ele>31</ele>
        <time>2020-01-21T16:33:31Z</time>
      </trkpt>
      <trkpt lat="59.259661" lon="18.098204">
        <ele>31</ele>
        <time>2020-01-21T16:33:32Z</time>
      </trkpt>
      <trkpt lat="59.259665" lon="18.098102">
        <ele>31</ele>
        <time>2020-01-21T16:33:33Z</time>
      </trkpt>
      <trkpt lat="59.259673" lon="18.098">
        <ele>31</ele>
        <time>2020-01-21T16:33:34Z</time>
      </trkpt>
      <trkpt lat="59.259682" lon="18.097902">
        <ele>31</ele>
        <time>2020-01-21T16:33:35Z</time>
      </trkpt>
      <trkpt lat="59.259688" lon="18.097806">
        <ele>31</ele>
        <time>2020-01-21T16:33:37Z</time>
      </trkpt>
      <trkpt lat="59.259692" lon="18.097714">
        <ele>31</ele>
        <time>2020-01-21T16:33:38Z</time>
      </trkpt>
      <trkpt lat="59.259696" lon="18.097623">
        <ele>31</ele>
        <time>2020-01-21T16:33:38Z</time>
      </trkpt>
      <trkpt lat="59.259703" lon="18.097529">
        <ele>31</ele>
        <time>2020-01-21T16:33:39Z</time>
      </trkpt>
      <trkpt lat="59.259716" lon="18.09744">
        <ele>31</ele>
        <time>2020-01-21T16:33:40Z</time>
      </trkpt>
      <trkpt lat="59.259733" lon="18.097352">
        <ele>31</ele>
        <time>2020-01-21T16:33:41Z</time>
      </trkpt>
      <trkpt lat="59.25975" lon="18.097266">
        <ele>31</ele>
        <time>2020-01-21T16:33:42Z</time>
      </trkpt>
      <trkpt lat="59.25978" lon="18.097184">
        <ele>31</ele>
        <time>2020-01-21T16:33:43Z</time>
      </trkpt>
      <trkpt lat="59.259815" lon="18.097107">
        <ele>31</ele>
        <time>2020-01-21T16:33:44Z</time>
      </trkpt>
      <trkpt lat="59.259856" lon="18.097038">
        <ele>30</ele>
        <time>2020-01-21T16:33:46Z</time>
      </trkpt>
      <trkpt lat="59.259902" lon="18.096975">
        <ele>30</ele>
        <time>2020-01-21T16:33:46Z</time>
      </trkpt>
      <trkpt lat="59.259953" lon="18.096912">
        <ele>30</ele>
        <time>2020-01-21T16:33:47Z</time>
      </trkpt>
      <trkpt lat="59.260008" lon="18.096852">
        <ele>30</ele>
        <time>2020-01-21T16:33:48Z</time>
      </trkpt>
      <trkpt lat="59.260067" lon="18.0968">
        <ele>30</ele>
        <time>2020-01-21T16:33:49Z</time>
      </trkpt>
      <trkpt lat="59.260123" lon="18.096756">
        <ele>29</ele>
        <time>2020-01-21T16:33:50Z</time>
      </trkpt>
      <trkpt lat="59.26018" lon="18.096717">
        <ele>29</ele>
        <time>2020-01-21T16:33:51Z</time>
      </trkpt>
      <trkpt lat="59.260234" lon="18.096682">
        <ele>29</ele>
        <time>2020-01-21T16:33:52Z</time>
      </trkpt>
      <trkpt lat="59.260274" lon="18.096658">
        <ele>29</ele>
        <time>2020-01-21T16:33:53Z</time>
      </trkpt>
      <trkpt lat="59.260304" lon="18.096642">
        <ele>29</ele>
        <time>2020-01-21T16:33:54Z</time>
      </trkpt>
      <trkpt lat="59.26044" lon="18.09657">
        <ele>29</ele>
        <time>2020-01-21T16:33:57Z</time>
      </trkpt>
      <trkpt lat="59.260503" lon="18.096552">
        <ele>29</ele>
        <time>2020-01-21T16:33:57Z</time>
      </trkpt>
      <trkpt lat="59.260566" lon="18.096546">
        <ele>29</ele>
        <time>2020-01-21T16:33:58Z</time>
      </trkpt>
      <trkpt lat="59.260612" lon="18.096538">
        <ele>29</ele>
        <time>2020-01-21T16:33:59Z</time>
      </trkpt>
      <trkpt lat="59.260661" lon="18.096524">
        <ele>30</ele>
        <time>2020-01-21T16:34:00Z</time>
      </trkpt>
      <trkpt lat="59.260704" lon="18.096515">
        <ele>30</ele>
        <time>2020-01-21T16:34:01Z</time>
      </trkpt>
      <trkpt lat="59.260745" lon="18.096505">
        <ele>30</ele>
        <time>2020-01-21T16:34:02Z</time>
      </trkpt>
      <trkpt lat="59.260784" lon="18.096497">
        <ele>30</ele>
        <time>2020-01-21T16:34:03Z</time>
      </trkpt>
      <trkpt lat="59.260827" lon="18.096487">
        <ele>30</ele>
        <time>2020-01-21T16:34:04Z</time>
      </trkpt>
      <trkpt lat="59.260868" lon="18.096479">
        <ele>30</ele>
        <time>2020-01-21T16:34:06Z</time>
      </trkpt>
      <trkpt lat="59.260906" lon="18.096474">
        <ele>30</ele>
        <time>2020-01-21T16:34:06Z</time>
      </trkpt>
      <trkpt lat="59.260944" lon="18.096474">
        <ele>30</ele>
        <time>2020-01-21T16:34:07Z</time>
      </trkpt>
      <trkpt lat="59.260983" lon="18.096481">
        <ele>30</ele>
        <time>2020-01-21T16:34:08Z</time>
      </trkpt>
      <trkpt lat="59.261022" lon="18.096491">
        <ele>30</ele>
        <time>2020-01-21T16:34:09Z</time>
      </trkpt>
      <trkpt lat="59.261062" lon="18.096505">
        <ele>30</ele>
        <time>2020-01-21T16:34:10Z</time>
      </trkpt>
      <trkpt lat="59.261102" lon="18.096526">
        <ele>30</ele>
        <time>2020-01-21T16:34:11Z</time>
      </trkpt>
      <trkpt lat="59.261142" lon="18.096549">
        <ele>30</ele>
        <time>2020-01-21T16:34:12Z</time>
      </trkpt>
      <trkpt lat="59.261184" lon="18.096574">
        <ele>30</ele>
        <time>2020-01-21T16:34:13Z</time>
      </trkpt>
      <trkpt lat="59.261228" lon="18.096604">
        <ele>30</ele>
        <time>2020-01-21T16:34:14Z</time>
      </trkpt>
      <trkpt lat="59.261271" lon="18.096637">
        <ele>30</ele>
        <time>2020-01-21T16:34:16Z</time>
      </trkpt>
      <trkpt lat="59.261315" lon="18.096673">
        <ele>30</ele>
        <time>2020-01-21T16:34:17Z</time>
      </trkpt>
      <trkpt lat="59.261359" lon="18.096713">
        <ele>30</ele>
        <time>2020-01-21T16:34:17Z</time>
      </trkpt>
      <trkpt lat="59.261401" lon="18.096759">
        <ele>30</ele>
        <time>2020-01-21T16:34:18Z</time>
      </trkpt>
      <trkpt lat="59.261444" lon="18.096809">
        <ele>30</ele>
        <time>2020-01-21T16:34:19Z</time>
      </trkpt>
      <trkpt lat="59.261485" lon="18.096864">
        <ele>30</ele>
        <time>2020-01-21T16:34:20Z</time>
      </trkpt>
      <trkpt lat="59.261525" lon="18.096925">
        <ele>30</ele>
        <time>2020-01-21T16:34:21Z</time>
      </trkpt>
      <trkpt lat="59.261565" lon="18.096987">
        <ele>30</ele>
        <time>2020-01-21T16:34:22Z</time>
      </trkpt>
      <trkpt lat="59.261604" lon="18.097049">
        <ele>30</ele>
        <time>2020-01-21T16:34:23Z</time>
      </trkpt>
      <trkpt lat="59.261643" lon="18.097113">
        <ele>30</ele>
        <time>2020-01-21T16:34:24Z</time>
      </trkpt>
      <trkpt lat="59.261682" lon="18.097177">
        <ele>30</ele>
        <time>2020-01-21T16:34:25Z</time>
      </trkpt>
      <trkpt lat="59.261721" lon="18.097242">
        <ele>30</ele>
        <time>2020-01-21T16:34:26Z</time>
      </trkpt>
      <trkpt lat="59.261761" lon="18.097307">
        <ele>30</ele>
        <time>2020-01-21T16:34:28Z</time>
      </trkpt>
      <trkpt lat="59.261801" lon="18.097372">
        <ele>30</ele>
        <time>2020-01-21T16:34:28Z</time>
      </trkpt>
      <trkpt lat="59.261842" lon="18.097437">
        <ele>30</ele>
        <time>2020-01-21T16:34:29Z</time>
      </trkpt>
      <trkpt lat="59.261882" lon="18.097503">
        <ele>31</ele>
        <time>2020-01-21T16:34:30Z</time>
      </trkpt>
      <trkpt lat="59.261922" lon="18.09757">
        <ele>31</ele>
        <time>2020-01-21T16:34:31Z</time>
      </trkpt>
      <trkpt lat="59.261964" lon="18.097635">
        <ele>31</ele>
        <time>2020-01-21T16:34:32Z</time>
      </trkpt>
      <trkpt lat="59.262006" lon="18.097699">
        <ele>31</ele>
        <time>2020-01-21T16:34:33Z</time>
      </trkpt>
      <trkpt lat="59.262048" lon="18.097764">
        <ele>31</ele>
        <time>2020-01-21T16:34:35Z</time>
      </trkpt>
      <trkpt lat="59.262091" lon="18.097829">
        <ele>31</ele>
        <time>2020-01-21T16:34:36Z</time>
      </trkpt>
      <trkpt lat="59.262133" lon="18.097893">
        <ele>31</ele>
        <time>2020-01-21T16:34:36Z</time>
      </trkpt>
      <trkpt lat="59.262175" lon="18.097953">
        <ele>31</ele>
        <time>2020-01-21T16:34:37Z</time>
      </trkpt>
      <trkpt lat="59.262218" lon="18.098009">
        <ele>31</ele>
        <time>2020-01-21T16:34:38Z</time>
      </trkpt>
      <trkpt lat="59.262262" lon="18.098058">
        <ele>31</ele>
        <time>2020-01-21T16:34:39Z</time>
      </trkpt>
      <trkpt lat="59.262308" lon="18.098098">
        <ele>31</ele>
        <time>2020-01-21T16:34:40Z</time>
      </trkpt>
      <trkpt lat="59.262357" lon="18.098131">
        <ele>31</ele>
        <time>2020-01-21T16:34:41Z</time>
      </trkpt>
      <trkpt lat="59.262407" lon="18.098154">
        <ele>31</ele>
        <time>2020-01-21T16:34:42Z</time>
      </trkpt>
      <trkpt lat="59.262457" lon="18.098168">
        <ele>31</ele>
        <time>2020-01-21T16:34:43Z</time>
      </trkpt>
      <trkpt lat="59.262507" lon="18.098177">
        <ele>32</ele>
        <time>2020-01-21T16:34:44Z</time>
      </trkpt>
      <trkpt lat="59.262555" lon="18.098182">
        <ele>32</ele>
        <time>2020-01-21T16:34:45Z</time>
      </trkpt>
      <trkpt lat="59.262603" lon="18.098184">
        <ele>32</ele>
        <time>2020-01-21T16:34:47Z</time>
      </trkpt>
      <trkpt lat="59.262649" lon="18.098185">
        <ele>32</ele>
        <time>2020-01-21T16:34:47Z</time>
      </trkpt>
      <trkpt lat="59.262696" lon="18.098185">
        <ele>32</ele>
        <time>2020-01-21T16:34:48Z</time>
      </trkpt>
      <trkpt lat="59.26274" lon="18.098187">
        <ele>32</ele>
        <time>2020-01-21T16:34:49Z</time>
      </trkpt>
      <trkpt lat="59.262783" lon="18.098189">
        <ele>32</ele>
        <time>2020-01-21T16:34:50Z</time>
      </trkpt>
      <trkpt lat="59.262826" lon="18.098188">
        <ele>32</ele>
        <time>2020-01-21T16:34:51Z</time>
      </trkpt>
      <trkpt lat="59.262865" lon="18.098187">
        <ele>32</ele>
        <time>2020-01-21T16:34:52Z</time>
      </trkpt>
      <trkpt lat="59.262908" lon="18.098185">
        <ele>32</ele>
        <time>2020-01-21T16:34:54Z</time>
      </trkpt>
      <trkpt lat="59.262949" lon="18.098182">
        <ele>32</ele>
        <time>2020-01-21T16:34:54Z</time>
      </trkpt>
      <trkpt lat="59.262989" lon="18.09818">
        <ele>33</ele>
        <time>2020-01-21T16:34:55Z</time>
      </trkpt>
      <trkpt lat="59.26303" lon="18.098177">
        <ele>33</ele>
        <time>2020-01-21T16:34:56Z</time>
      </trkpt>
      <trkpt lat="59.263069" lon="18.098174">
        <ele>33</ele>
        <time>2020-01-21T16:34:57Z</time>
      </trkpt>
      <trkpt lat="59.263111" lon="18.098167">
        <ele>33</ele>
        <time>2020-01-21T16:34:59Z</time>
      </trkpt>
      <trkpt lat="59.263148" lon="18.098159">
        <ele>34</ele>
        <time>2020-01-21T16:34:59Z</time>
      </trkpt>
      <trkpt lat="59.26318" lon="18.098153">
        <ele>34</ele>
        <time>2020-01-21T16:35:00Z</time>
      </trkpt>
      <trkpt lat="59.263214" lon="18.098143">
        <ele>34</ele>
        <time>2020-01-21T16:35:01Z</time>
      </trkpt>
      <trkpt lat="59.263247" lon="18.098133">
        <ele>34</ele>
        <time>2020-01-21T16:35:02Z</time>
      </trkpt>
      <trkpt lat="59.263279" lon="18.098124">
        <ele>34</ele>
        <time>2020-01-21T16:35:03Z</time>
      </trkpt>
      <trkpt lat="59.263316" lon="18.098115">
        <ele>34</ele>
        <time>2020-01-21T16:35:04Z</time>
      </trkpt>
      <trkpt lat="59.263356" lon="18.098102">
        <ele>34</ele>
        <time>2020-01-21T16:35:05Z</time>
      </trkpt>
      <trkpt lat="59.263396" lon="18.098091">
        <ele>34</ele>
        <time>2020-01-21T16:35:06Z</time>
      </trkpt>
      <trkpt lat="59.263433" lon="18.098081">
        <ele>35</ele>
        <time>2020-01-21T16:35:07Z</time>
      </trkpt>
      <trkpt lat="59.263468" lon="18.098072">
        <ele>35</ele>
        <time>2020-01-21T16:35:08Z</time>
      </trkpt>
      <trkpt lat="59.2635" lon="18.098066">
        <ele>35</ele>
        <time>2020-01-21T16:35:09Z</time>
      </trkpt>
      <trkpt lat="59.263537" lon="18.098056">
        <ele>35</ele>
        <time>2020-01-21T16:35:11Z</time>
      </trkpt>
      <trkpt lat="59.263577" lon="18.098044">
        <ele>35</ele>
        <time>2020-01-21T16:35:11Z</time>
      </trkpt>
      <trkpt lat="59.263615" lon="18.098034">
        <ele>35</ele>
        <time>2020-01-21T16:35:13Z</time>
      </trkpt>
      <trkpt lat="59.263659" lon="18.098021">
        <ele>35</ele>
        <time>2020-01-21T16:35:13Z</time>
      </trkpt>
      <trkpt lat="59.263706" lon="18.098007">
        <ele>36</ele>
        <time>2020-01-21T16:35:14Z</time>
      </trkpt>
      <trkpt lat="59.263756" lon="18.097988">
        <ele>36</ele>
        <time>2020-01-21T16:35:15Z</time>
      </trkpt>
      <trkpt lat="59.263803" lon="18.097971">
        <ele>36</ele>
        <time>2020-01-21T16:35:16Z</time>
      </trkpt>
      <trkpt lat="59.263851" lon="18.097953">
        <ele>36</ele>
        <time>2020-01-21T16:35:17Z</time>
      </trkpt>
      <trkpt lat="59.263896" lon="18.097939">
        <ele>36</ele>
        <time>2020-01-21T16:35:18Z</time>
      </trkpt>
      <trkpt lat="59.263944" lon="18.097922">
        <ele>36</ele>
        <time>2020-01-21T16:35:19Z</time>
      </trkpt>
      <trkpt lat="59.263988" lon="18.097907">
        <ele>36</ele>
        <time>2020-01-21T16:35:20Z</time>
      </trkpt>
      <trkpt lat="59.264037" lon="18.097888">
        <ele>37</ele>
        <time>2020-01-21T16:35:22Z</time>
      </trkpt>
      <trkpt lat="59.264084" lon="18.097871">
        <ele>37</ele>
        <time>2020-01-21T16:35:22Z</time>
      </trkpt>
      <trkpt lat="59.264133" lon="18.097852">
        <ele>37</ele>
        <time>2020-01-21T16:35:23Z</time>
      </trkpt>
      <trkpt lat="59.264179" lon="18.097834">
        <ele>37</ele>
        <time>2020-01-21T16:35:24Z</time>
      </trkpt>
      <trkpt lat="59.264226" lon="18.097814">
        <ele>37</ele>
        <time>2020-01-21T16:35:25Z</time>
      </trkpt>
      <trkpt lat="59.264274" lon="18.097794">
        <ele>38</ele>
        <time>2020-01-21T16:35:26Z</time>
      </trkpt>
      <trkpt lat="59.264318" lon="18.097777">
        <ele>38</ele>
        <time>2020-01-21T16:35:27Z</time>
      </trkpt>
      <trkpt lat="59.264364" lon="18.097759">
        <ele>38</ele>
        <time>2020-01-21T16:35:28Z</time>
      </trkpt>
      <trkpt lat="59.264418" lon="18.097736">
        <ele>38</ele>
        <time>2020-01-21T16:35:29Z</time>
      </trkpt>
      <trkpt lat="59.264473" lon="18.097711">
        <ele>39</ele>
        <time>2020-01-21T16:35:30Z</time>
      </trkpt>
      <trkpt lat="59.264527" lon="18.097687">
        <ele>39</ele>
        <time>2020-01-21T16:35:32Z</time>
      </trkpt>
      <trkpt lat="59.264581" lon="18.097664">
        <ele>39</ele>
        <time>2020-01-21T16:35:33Z</time>
      </trkpt>
      <trkpt lat="59.264634" lon="18.097641">
        <ele>39</ele>
        <time>2020-01-21T16:35:33Z</time>
      </trkpt>
      <trkpt lat="59.264687" lon="18.097619">
        <ele>39</ele>
        <time>2020-01-21T16:35:34Z</time>
      </trkpt>
      <trkpt lat="59.264744" lon="18.0976">
        <ele>39</ele>
        <time>2020-01-21T16:35:35Z</time>
      </trkpt>
      <trkpt lat="59.264802" lon="18.097578">
        <ele>39</ele>
        <time>2020-01-21T16:35:36Z</time>
      </trkpt>
      <trkpt lat="59.264861" lon="18.097552">
        <ele>39</ele>
        <time>2020-01-21T16:35:37Z</time>
      </trkpt>
      <trkpt lat="59.264918" lon="18.097521">
        <ele>39</ele>
        <time>2020-01-21T16:35:38Z</time>
      </trkpt>
      <trkpt lat="59.264981" lon="18.09749">
        <ele>39</ele>
        <time>2020-01-21T16:35:40Z</time>
      </trkpt>
      <trkpt lat="59.265047" lon="18.09746">
        <ele>39</ele>
        <time>2020-01-21T16:35:40Z</time>
      </trkpt>
      <trkpt lat="59.265111" lon="18.09743">
        <ele>39</ele>
        <time>2020-01-21T16:35:41Z</time>
      </trkpt>
      <trkpt lat="59.265177" lon="18.097399">
        <ele>39</ele>
        <time>2020-01-21T16:35:42Z</time>
      </trkpt>
      <trkpt lat="59.265236" lon="18.097383">
        <ele>39</ele>
        <time>2020-01-21T16:35:43Z</time>
      </trkpt>
      <trkpt lat="59.265293" lon="18.097395">
        <ele>39</ele>
        <time>2020-01-21T16:35:44Z</time>
      </trkpt>
      <trkpt lat="59.265343" lon="18.097444">
        <ele>39</ele>
        <time>2020-01-21T16:35:45Z</time>
      </trkpt>
      <trkpt lat="59.265372" lon="18.097513">
        <ele>39</ele>
        <time>2020-01-21T16:35:46Z</time>
      </trkpt>
      <trkpt lat="59.265386" lon="18.097584">
        <ele>39</ele>
        <time>2020-01-21T16:35:47Z</time>
      </trkpt>
      <trkpt lat="59.265422" lon="18.097753">
        <ele>39</ele>
        <time>2020-01-21T16:35:49Z</time>
      </trkpt>
      <trkpt lat="59.265479" lon="18.097931">
        <ele>39</ele>
        <time>2020-01-21T16:35:51Z</time>
      </trkpt>
      <trkpt lat="59.265569" lon="18.098112">
        <ele>38</ele>
        <time>2020-01-21T16:35:53Z</time>
      </trkpt>
      <trkpt lat="59.265679" lon="18.098117">
        <ele>37</ele>
        <time>2020-01-21T16:35:57Z</time>
      </trkpt>
      <trkpt lat="59.265715" lon="18.098093">
        <ele>36</ele>
        <time>2020-01-21T16:35:58Z</time>
      </trkpt>
      <trkpt lat="59.265748" lon="18.098073">
        <ele>36</ele>
        <time>2020-01-21T16:35:59Z</time>
      </trkpt>
      <trkpt lat="59.265783" lon="18.098053">
        <ele>36</ele>
        <time>2020-01-21T16:36:00Z</time>
      </trkpt>
      <trkpt lat="59.265818" lon="18.09803">
        <ele>36</ele>
        <time>2020-01-21T16:36:01Z</time>
      </trkpt>
      <trkpt lat="59.265853" lon="18.098004">
        <ele>36</ele>
        <time>2020-01-21T16:36:03Z</time>
      </trkpt>
      <trkpt lat="59.265884" lon="18.097981">
        <ele>37</ele>
        <time>2020-01-21T16:36:03Z</time>
      </trkpt>
      <trkpt lat="59.265915" lon="18.097957">
        <ele>37</ele>
        <time>2020-01-21T16:36:04Z</time>
      </trkpt>
      <trkpt lat="59.265947" lon="18.097934">
        <ele>37</ele>
        <time>2020-01-21T16:36:05Z</time>
      </trkpt>
      <trkpt lat="59.265979" lon="18.097914">
        <ele>37</ele>
        <time>2020-01-21T16:36:06Z</time>
      </trkpt>
      <trkpt lat="59.266009" lon="18.097892">
        <ele>37</ele>
        <time>2020-01-21T16:36:07Z</time>
      </trkpt>
      <trkpt lat="59.26604" lon="18.097866">
        <ele>37</ele>
        <time>2020-01-21T16:36:08Z</time>
      </trkpt>
      <trkpt lat="59.266068" lon="18.09784">
        <ele>37</ele>
        <time>2020-01-21T16:36:10Z</time>
      </trkpt>
      <trkpt lat="59.266093" lon="18.097824">
        <ele>37</ele>
        <time>2020-01-21T16:36:10Z</time>
      </trkpt>
      <trkpt lat="59.266113" lon="18.097822">
        <ele>37</ele>
        <time>2020-01-21T16:36:11Z</time>
      </trkpt>
      <trkpt lat="59.266132" lon="18.097839">
        <ele>37</ele>
        <time>2020-01-21T16:36:13Z</time>
      </trkpt>
      <trkpt lat="59.266147" lon="18.097865">
        <ele>37</ele>
        <time>2020-01-21T16:36:15Z</time>
      </trkpt>
      <trkpt lat="59.266164" lon="18.097933">
        <ele>37</ele>
        <time>2020-01-21T16:36:17Z</time>
      </trkpt>
      <trkpt lat="59.266178" lon="18.097984">
        <ele>37</ele>
        <time>2020-01-21T16:36:18Z</time>
      </trkpt>
      <trkpt lat="59.2662" lon="18.098028">
        <ele>38</ele>
        <time>2020-01-21T16:36:19Z</time>
      </trkpt>
      <trkpt lat="59.266229" lon="18.098043">
        <ele>37</ele>
        <time>2020-01-21T16:36:21Z</time>
      </trkpt>
      <trkpt lat="59.266263" lon="18.098032">
        <ele>38</ele>
        <time>2020-01-21T16:36:21Z</time>
      </trkpt>
      <trkpt lat="59.266301" lon="18.098011">
        <ele>38</ele>
        <time>2020-01-21T16:36:22Z</time>
      </trkpt>
      <trkpt lat="59.266342" lon="18.097992">
        <ele>38</ele>
        <time>2020-01-21T16:36:23Z</time>
      </trkpt>
      <trkpt lat="59.266386" lon="18.097978">
        <ele>38</ele>
        <time>2020-01-21T16:36:24Z</time>
      </trkpt>
      <trkpt lat="59.266431" lon="18.097963">
        <ele>37</ele>
        <time>2020-01-21T16:36:25Z</time>
      </trkpt>
      <trkpt lat="59.266476" lon="18.097947">
        <ele>37</ele>
        <time>2020-01-21T16:36:26Z</time>
      </trkpt>
      <trkpt lat="59.266522" lon="18.097928">
        <ele>37</ele>
        <time>2020-01-21T16:36:27Z</time>
      </trkpt>
      <trkpt lat="59.266566" lon="18.097911">
        <ele>37</ele>
        <time>2020-01-21T16:36:29Z</time>
      </trkpt>
      <trkpt lat="59.266612" lon="18.09789">
        <ele>37</ele>
        <time>2020-01-21T16:36:29Z</time>
      </trkpt>
      <trkpt lat="59.266659" lon="18.097864">
        <ele>37</ele>
        <time>2020-01-21T16:36:30Z</time>
      </trkpt>
      <trkpt lat="59.266706" lon="18.097835">
        <ele>37</ele>
        <time>2020-01-21T16:36:31Z</time>
      </trkpt>
      <trkpt lat="59.266754" lon="18.097808">
        <ele>37</ele>
        <time>2020-01-21T16:36:33Z</time>
      </trkpt>
      <trkpt lat="59.266802" lon="18.09778">
        <ele>37</ele>
        <time>2020-01-21T16:36:33Z</time>
      </trkpt>
      <trkpt lat="59.26685" lon="18.097751">
        <ele>37</ele>
        <time>2020-01-21T16:36:34Z</time>
      </trkpt>
      <trkpt lat="59.266897" lon="18.097721">
        <ele>37</ele>
        <time>2020-01-21T16:36:35Z</time>
      </trkpt>
      <trkpt lat="59.266945" lon="18.09769">
        <ele>37</ele>
        <time>2020-01-21T16:36:36Z</time>
      </trkpt>
      <trkpt lat="59.266992" lon="18.097657">
        <ele>37</ele>
        <time>2020-01-21T16:36:37Z</time>
      </trkpt>
      <trkpt lat="59.267041" lon="18.097622">
        <ele>37</ele>
        <time>2020-01-21T16:36:38Z</time>
      </trkpt>
      <trkpt lat="59.267091" lon="18.097589">
        <ele>37</ele>
        <time>2020-01-21T16:36:39Z</time>
      </trkpt>
      <trkpt lat="59.267142" lon="18.097559">
        <ele>37</ele>
        <time>2020-01-21T16:36:40Z</time>
      </trkpt>
      <trkpt lat="59.267193" lon="18.097531">
        <ele>37</ele>
        <time>2020-01-21T16:36:42Z</time>
      </trkpt>
      <trkpt lat="59.267246" lon="18.097499">
        <ele>37</ele>
        <time>2020-01-21T16:36:42Z</time>
      </trkpt>
      <trkpt lat="59.267295" lon="18.097467">
        <ele>37</ele>
        <time>2020-01-21T16:36:43Z</time>
      </trkpt>
      <trkpt lat="59.267342" lon="18.097432">
        <ele>37</ele>
        <time>2020-01-21T16:36:44Z</time>
      </trkpt>
      <trkpt lat="59.267388" lon="18.097397">
        <ele>37</ele>
        <time>2020-01-21T16:36:45Z</time>
      </trkpt>
      <trkpt lat="59.267435" lon="18.097363">
        <ele>37</ele>
        <time>2020-01-21T16:36:46Z</time>
      </trkpt>
      <trkpt lat="59.267484" lon="18.097329">
        <ele>37</ele>
        <time>2020-01-21T16:36:48Z</time>
      </trkpt>
      <trkpt lat="59.267533" lon="18.097294">
        <ele>37</ele>
        <time>2020-01-21T16:36:48Z</time>
      </trkpt>
      <trkpt lat="59.267583" lon="18.097259">
        <ele>37</ele>
        <time>2020-01-21T16:36:49Z</time>
      </trkpt>
      <trkpt lat="59.267632" lon="18.097223">
        <ele>37</ele>
        <time>2020-01-21T16:36:50Z</time>
      </trkpt>
      <trkpt lat="59.26768" lon="18.097186">
        <ele>37</ele>
        <time>2020-01-21T16:36:52Z</time>
      </trkpt>
      <trkpt lat="59.267729" lon="18.097152">
        <ele>37</ele>
        <time>2020-01-21T16:36:52Z</time>
      </trkpt>
      <trkpt lat="59.267779" lon="18.097128">
        <ele>37</ele>
        <time>2020-01-21T16:36:53Z</time>
      </trkpt>
      <trkpt lat="59.26783" lon="18.097112">
        <ele>37</ele>
        <time>2020-01-21T16:36:54Z</time>
      </trkpt>
      <trkpt lat="59.267881" lon="18.097096">
        <ele>37</ele>
        <time>2020-01-21T16:36:56Z</time>
      </trkpt>
      <trkpt lat="59.267931" lon="18.097077">
        <ele>37</ele>
        <time>2020-01-21T16:36:56Z</time>
      </trkpt>
      <trkpt lat="59.267981" lon="18.097057">
        <ele>37</ele>
        <time>2020-01-21T16:36:57Z</time>
      </trkpt>
      <trkpt lat="59.268029" lon="18.097038">
        <ele>37</ele>
        <time>2020-01-21T16:36:58Z</time>
      </trkpt>
      <trkpt lat="59.268077" lon="18.097014">
        <ele>37</ele>
        <time>2020-01-21T16:36:59Z</time>
      </trkpt>
      <trkpt lat="59.268122" lon="18.096985">
        <ele>37</ele>
        <time>2020-01-21T16:37:00Z</time>
      </trkpt>
      <trkpt lat="59.268166" lon="18.096955">
        <ele>37</ele>
        <time>2020-01-21T16:37:01Z</time>
      </trkpt>
      <trkpt lat="59.26821" lon="18.096924">
        <ele>37</ele>
        <time>2020-01-21T16:37:03Z</time>
      </trkpt>
      <trkpt lat="59.268253" lon="18.096891">
        <ele>37</ele>
        <time>2020-01-21T16:37:03Z</time>
      </trkpt>
      <trkpt lat="59.268297" lon="18.096858">
        <ele>37</ele>
        <time>2020-01-21T16:37:04Z</time>
      </trkpt>
      <trkpt lat="59.268342" lon="18.096825">
        <ele>38</ele>
        <time>2020-01-21T16:37:05Z</time>
      </trkpt>
      <trkpt lat="59.268384" lon="18.096791">
        <ele>38</ele>
        <time>2020-01-21T16:37:07Z</time>
      </trkpt>
      <trkpt lat="59.26843" lon="18.096757">
        <ele>38</ele>
        <time>2020-01-21T16:37:07Z</time>
      </trkpt>
      <trkpt lat="59.268475" lon="18.096724">
        <ele>38</ele>
        <time>2020-01-21T16:37:08Z</time>
      </trkpt>
      <trkpt lat="59.268522" lon="18.096692">
        <ele>38</ele>
        <time>2020-01-21T16:37:09Z</time>
      </trkpt>
      <trkpt lat="59.268568" lon="18.09666">
        <ele>38</ele>
        <time>2020-01-21T16:37:10Z</time>
      </trkpt>
      <trkpt lat="59.268614" lon="18.096626">
        <ele>38</ele>
        <time>2020-01-21T16:37:12Z</time>
      </trkpt>
      <trkpt lat="59.26866" lon="18.096593">
        <ele>38</ele>
        <time>2020-01-21T16:37:12Z</time>
      </trkpt>
      <trkpt lat="59.268706" lon="18.096565">
        <ele>38</ele>
        <time>2020-01-21T16:37:13Z</time>
      </trkpt>
      <trkpt lat="59.268754" lon="18.096538">
        <ele>38</ele>
        <time>2020-01-21T16:37:14Z</time>
      </trkpt>
      <trkpt lat="59.2688" lon="18.096512">
        <ele>38</ele>
        <time>2020-01-21T16:37:15Z</time>
      </trkpt>
      <trkpt lat="59.268849" lon="18.096487">
        <ele>38</ele>
        <time>2020-01-21T16:37:16Z</time>
      </trkpt>
      <trkpt lat="59.268896" lon="18.096461">
        <ele>38</ele>
        <time>2020-01-21T16:37:17Z</time>
      </trkpt>
      <trkpt lat="59.268946" lon="18.096438">
        <ele>38</ele>
        <time>2020-01-21T16:37:18Z</time>
      </trkpt>
      <trkpt lat="59.268997" lon="18.096419">
        <ele>38</ele>
        <time>2020-01-21T16:37:19Z</time>
      </trkpt>
      <trkpt lat="59.269046" lon="18.096402">
        <ele>38</ele>
        <time>2020-01-21T16:37:20Z</time>
      </trkpt>
      <trkpt lat="59.269096" lon="18.096384">
        <ele>38</ele>
        <time>2020-01-21T16:37:22Z</time>
      </trkpt>
      <trkpt lat="59.269144" lon="18.096362">
        <ele>38</ele>
        <time>2020-01-21T16:37:22Z</time>
      </trkpt>
      <trkpt lat="59.26919" lon="18.096339">
        <ele>38</ele>
        <time>2020-01-21T16:37:23Z</time>
      </trkpt>
      <trkpt lat="59.269238" lon="18.096316">
        <ele>38</ele>
        <time>2020-01-21T16:37:24Z</time>
      </trkpt>
      <trkpt lat="59.269285" lon="18.09629">
        <ele>38</ele>
        <time>2020-01-21T16:37:26Z</time>
      </trkpt>
      <trkpt lat="59.269334" lon="18.096263">
        <ele>38</ele>
        <time>2020-01-21T16:37:26Z</time>
      </trkpt>
      <trkpt lat="59.269384" lon="18.096238">
        <ele>38</ele>
        <time>2020-01-21T16:37:27Z</time>
      </trkpt>
      <trkpt lat="59.269434" lon="18.096213">
        <ele>38</ele>
        <time>2020-01-21T16:37:28Z</time>
      </trkpt>
      <trkpt lat="59.269482" lon="18.096189">
        <ele>38</ele>
        <time>2020-01-21T16:37:29Z</time>
      </trkpt>
      <trkpt lat="59.26953" lon="18.096164">
        <ele>38</ele>
        <time>2020-01-21T16:37:30Z</time>
      </trkpt>
      <trkpt lat="59.269578" lon="18.09614">
        <ele>39</ele>
        <time>2020-01-21T16:37:32Z</time>
      </trkpt>
      <trkpt lat="59.269624" lon="18.096109">
        <ele>39</ele>
        <time>2020-01-21T16:37:32Z</time>
      </trkpt>
      <trkpt lat="59.26967" lon="18.096076">
        <ele>39</ele>
        <time>2020-01-21T16:37:33Z</time>
      </trkpt>
      <trkpt lat="59.269718" lon="18.096045">
        <ele>39</ele>
        <time>2020-01-21T16:37:34Z</time>
      </trkpt>
      <trkpt lat="59.269766" lon="18.096014">
        <ele>39</ele>
        <time>2020-01-21T16:37:35Z</time>
      </trkpt>
      <trkpt lat="59.269814" lon="18.095981">
        <ele>39</ele>
        <time>2020-01-21T16:37:36Z</time>
      </trkpt>
      <trkpt lat="59.269864" lon="18.095948">
        <ele>39</ele>
        <time>2020-01-21T16:37:37Z</time>
      </trkpt>
      <trkpt lat="59.269913" lon="18.095919">
        <ele>39</ele>
        <time>2020-01-21T16:37:38Z</time>
      </trkpt>
      <trkpt lat="59.26996" lon="18.095889">
        <ele>39</ele>
        <time>2020-01-21T16:37:39Z</time>
      </trkpt>
      <trkpt lat="59.270016" lon="18.095854">
        <ele>39</ele>
        <time>2020-01-21T16:37:40Z</time>
      </trkpt>
      <trkpt lat="59.270072" lon="18.095818">
        <ele>39</ele>
        <time>2020-01-21T16:37:41Z</time>
      </trkpt>
      <trkpt lat="59.270128" lon="18.095788">
        <ele>39</ele>
        <time>2020-01-21T16:37:43Z</time>
      </trkpt>
      <trkpt lat="59.27018" lon="18.095762">
        <ele>39</ele>
        <time>2020-01-21T16:37:43Z</time>
      </trkpt>
      <trkpt lat="59.270233" lon="18.095738">
        <ele>39</ele>
        <time>2020-01-21T16:37:45Z</time>
      </trkpt>
      <trkpt lat="59.270286" lon="18.095715">
        <ele>39</ele>
        <time>2020-01-21T16:37:45Z</time>
      </trkpt>
      <trkpt lat="59.270338" lon="18.095696">
        <ele>39</ele>
        <time>2020-01-21T16:37:46Z</time>
      </trkpt>
      <trkpt lat="59.27039" lon="18.095675">
        <ele>39</ele>
        <time>2020-01-21T16:37:47Z</time>
      </trkpt>
      <trkpt lat="59.270442" lon="18.095654">
        <ele>39</ele>
        <time>2020-01-21T16:37:48Z</time>
      </trkpt>
      <trkpt lat="59.270495" lon="18.095631">
        <ele>39</ele>
        <time>2020-01-21T16:37:49Z</time>
      </trkpt>
      <trkpt lat="59.270548" lon="18.095609">
        <ele>39</ele>
        <time>2020-01-21T16:37:50Z</time>
      </trkpt>
      <trkpt lat="59.270602" lon="18.095588">
        <ele>39</ele>
        <time>2020-01-21T16:37:52Z</time>
      </trkpt>
      <trkpt lat="59.270653" lon="18.095564">
        <ele>39</ele>
        <time>2020-01-21T16:37:52Z</time>
      </trkpt>
      <trkpt lat="59.270701" lon="18.095531">
        <ele>39</ele>
        <time>2020-01-21T16:37:53Z</time>
      </trkpt>
      <trkpt lat="59.27075" lon="18.095496">
        <ele>39</ele>
        <time>2020-01-21T16:37:54Z</time>
      </trkpt>
      <trkpt lat="59.270805" lon="18.095457">
        <ele>39</ele>
        <time>2020-01-21T16:37:55Z</time>
      </trkpt>
      <trkpt lat="59.270861" lon="18.095418">
        <ele>39</ele>
        <time>2020-01-21T16:37:56Z</time>
      </trkpt>
      <trkpt lat="59.270914" lon="18.095383">
        <ele>39</ele>
        <time>2020-01-21T16:37:57Z</time>
      </trkpt>
      <trkpt lat="59.270968" lon="18.095352">
        <ele>39</ele>
        <time>2020-01-21T16:37:58Z</time>
      </trkpt>
      <trkpt lat="59.271021" lon="18.095324">
        <ele>39</ele>
        <time>2020-01-21T16:38:00Z</time>
      </trkpt>
      <trkpt lat="59.271077" lon="18.095295">
        <ele>39</ele>
        <time>2020-01-21T16:38:00Z</time>
      </trkpt>
      <trkpt lat="59.271132" lon="18.095264">
        <ele>39</ele>
        <time>2020-01-21T16:38:01Z</time>
      </trkpt>
      <trkpt lat="59.271186" lon="18.095232">
        <ele>39</ele>
        <time>2020-01-21T16:38:02Z</time>
      </trkpt>
      <trkpt lat="59.271237" lon="18.095204">
        <ele>39</ele>
        <time>2020-01-21T16:38:04Z</time>
      </trkpt>
      <trkpt lat="59.271289" lon="18.095181">
        <ele>39</ele>
        <time>2020-01-21T16:38:04Z</time>
      </trkpt>
      <trkpt lat="59.271339" lon="18.095161">
        <ele>39</ele>
        <time>2020-01-21T16:38:05Z</time>
      </trkpt>
      <trkpt lat="59.271389" lon="18.095145">
        <ele>39</ele>
        <time>2020-01-21T16:38:06Z</time>
      </trkpt>
      <trkpt lat="59.271437" lon="18.095129">
        <ele>39</ele>
        <time>2020-01-21T16:38:07Z</time>
      </trkpt>
      <trkpt lat="59.271482" lon="18.095108">
        <ele>39</ele>
        <time>2020-01-21T16:38:08Z</time>
      </trkpt>
      <trkpt lat="59.271526" lon="18.095092">
        <ele>39</ele>
        <time>2020-01-21T16:38:10Z</time>
      </trkpt>
      <trkpt lat="59.271568" lon="18.095078">
        <ele>39</ele>
        <time>2020-01-21T16:38:10Z</time>
      </trkpt>
      <trkpt lat="59.271615" lon="18.09506">
        <ele>39</ele>
        <time>2020-01-21T16:38:11Z</time>
      </trkpt>
      <trkpt lat="59.27166" lon="18.095043">
        <ele>40</ele>
        <time>2020-01-21T16:38:12Z</time>
      </trkpt>
      <trkpt lat="59.271703" lon="18.095027">
        <ele>40</ele>
        <time>2020-01-21T16:38:13Z</time>
      </trkpt>
      <trkpt lat="59.271742" lon="18.095009">
        <ele>40</ele>
        <time>2020-01-21T16:38:14Z</time>
      </trkpt>
      <trkpt lat="59.271782" lon="18.094986">
        <ele>40</ele>
        <time>2020-01-21T16:38:15Z</time>
      </trkpt>
      <trkpt lat="59.271822" lon="18.094959">
        <ele>40</ele>
        <time>2020-01-21T16:38:16Z</time>
      </trkpt>
      <trkpt lat="59.27186" lon="18.094928">
        <ele>40</ele>
        <time>2020-01-21T16:38:17Z</time>
      </trkpt>
      <trkpt lat="59.271899" lon="18.094894">
        <ele>40</ele>
        <time>2020-01-21T16:38:18Z</time>
      </trkpt>
      <trkpt lat="59.27194" lon="18.09486">
        <ele>40</ele>
        <time>2020-01-21T16:38:19Z</time>
      </trkpt>
      <trkpt lat="59.271981" lon="18.094835">
        <ele>40</ele>
        <time>2020-01-21T16:38:20Z</time>
      </trkpt>
      <trkpt lat="59.272021" lon="18.094811">
        <ele>41</ele>
        <time>2020-01-21T16:38:22Z</time>
      </trkpt>
      <trkpt lat="59.27206" lon="18.094795">
        <ele>41</ele>
        <time>2020-01-21T16:38:23Z</time>
      </trkpt>
      <trkpt lat="59.272099" lon="18.094777">
        <ele>41</ele>
        <time>2020-01-21T16:38:23Z</time>
      </trkpt>
      <trkpt lat="59.272137" lon="18.09476">
        <ele>41</ele>
        <time>2020-01-21T16:38:24Z</time>
      </trkpt>
      <trkpt lat="59.272176" lon="18.094745">
        <ele>41</ele>
        <time>2020-01-21T16:38:25Z</time>
      </trkpt>
      <trkpt lat="59.272214" lon="18.094734">
        <ele>42</ele>
        <time>2020-01-21T16:38:26Z</time>
      </trkpt>
      <trkpt lat="59.272254" lon="18.094723">
        <ele>42</ele>
        <time>2020-01-21T16:38:27Z</time>
      </trkpt>
      <trkpt lat="59.272294" lon="18.094712">
        <ele>42</ele>
        <time>2020-01-21T16:38:28Z</time>
      </trkpt>
      <trkpt lat="59.272334" lon="18.094701">
        <ele>42</ele>
        <time>2020-01-21T16:38:29Z</time>
      </trkpt>
      <trkpt lat="59.272374" lon="18.094694">
        <ele>42</ele>
        <time>2020-01-21T16:38:30Z</time>
      </trkpt>
      <trkpt lat="59.272414" lon="18.094684">
        <ele>42</ele>
        <time>2020-01-21T16:38:31Z</time>
      </trkpt>
      <trkpt lat="59.272454" lon="18.094674">
        <ele>42</ele>
        <time>2020-01-21T16:38:32Z</time>
      </trkpt>
      <trkpt lat="59.272493" lon="18.094664">
        <ele>42</ele>
        <time>2020-01-21T16:38:33Z</time>
      </trkpt>
      <trkpt lat="59.272533" lon="18.094653">
        <ele>43</ele>
        <time>2020-01-21T16:38:35Z</time>
      </trkpt>
      <trkpt lat="59.272572" lon="18.094643">
        <ele>43</ele>
        <time>2020-01-21T16:38:35Z</time>
      </trkpt>
      <trkpt lat="59.272611" lon="18.094634">
        <ele>43</ele>
        <time>2020-01-21T16:38:36Z</time>
      </trkpt>
      <trkpt lat="59.27265" lon="18.094622">
        <ele>43</ele>
        <time>2020-01-21T16:38:37Z</time>
      </trkpt>
      <trkpt lat="59.272689" lon="18.094609">
        <ele>43</ele>
        <time>2020-01-21T16:38:38Z</time>
      </trkpt>
      <trkpt lat="59.272724" lon="18.094596">
        <ele>43</ele>
        <time>2020-01-21T16:38:39Z</time>
      </trkpt>
      <trkpt lat="59.27276" lon="18.094581">
        <ele>43</ele>
        <time>2020-01-21T16:38:40Z</time>
      </trkpt>
      <trkpt lat="59.272795" lon="18.094567">
        <ele>43</ele>
        <time>2020-01-21T16:38:42Z</time>
      </trkpt>
      <trkpt lat="59.272833" lon="18.094552">
        <ele>43</ele>
        <time>2020-01-21T16:38:42Z</time>
      </trkpt>
      <trkpt lat="59.272871" lon="18.094536">
        <ele>43</ele>
        <time>2020-01-21T16:38:43Z</time>
      </trkpt>
      <trkpt lat="59.272912" lon="18.094522">
        <ele>43</ele>
        <time>2020-01-21T16:38:44Z</time>
      </trkpt>
      <trkpt lat="59.272954" lon="18.094507">
        <ele>44</ele>
        <time>2020-01-21T16:38:45Z</time>
      </trkpt>
      <trkpt lat="59.272996" lon="18.09449">
        <ele>44</ele>
        <time>2020-01-21T16:38:47Z</time>
      </trkpt>
      <trkpt lat="59.273039" lon="18.094471">
        <ele>44</ele>
        <time>2020-01-21T16:38:47Z</time>
      </trkpt>
      <trkpt lat="59.273084" lon="18.094454">
        <ele>44</ele>
        <time>2020-01-21T16:38:48Z</time>
      </trkpt>
      <trkpt lat="59.273132" lon="18.09444">
        <ele>44</ele>
        <time>2020-01-21T16:38:49Z</time>
      </trkpt>
      <trkpt lat="59.273182" lon="18.09443">
        <ele>43</ele>
        <time>2020-01-21T16:38:50Z</time>
      </trkpt>
      <trkpt lat="59.273235" lon="18.09442">
        <ele>43</ele>
        <time>2020-01-21T16:38:51Z</time>
      </trkpt>
      <trkpt lat="59.273291" lon="18.094407">
        <ele>43</ele>
        <time>2020-01-21T16:38:52Z</time>
      </trkpt>
      <trkpt lat="59.273348" lon="18.094388">
        <ele>43</ele>
        <time>2020-01-21T16:38:53Z</time>
      </trkpt>
      <trkpt lat="59.273407" lon="18.09436">
        <ele>43</ele>
        <time>2020-01-21T16:38:54Z</time>
      </trkpt>
      <trkpt lat="59.273469" lon="18.09433">
        <ele>43</ele>
        <time>2020-01-21T16:38:56Z</time>
      </trkpt>
      <trkpt lat="59.273532" lon="18.094298">
        <ele>43</ele>
        <time>2020-01-21T16:38:56Z</time>
      </trkpt>
      <trkpt lat="59.273596" lon="18.094257">
        <ele>43</ele>
        <time>2020-01-21T16:38:57Z</time>
      </trkpt>
      <trkpt lat="59.27366" lon="18.094207">
        <ele>43</ele>
        <time>2020-01-21T16:38:58Z</time>
      </trkpt>
      <trkpt lat="59.273724" lon="18.094159">
        <ele>42</ele>
        <time>2020-01-21T16:38:59Z</time>
      </trkpt>
      <trkpt lat="59.273791" lon="18.094117">
        <ele>42</ele>
        <time>2020-01-21T16:39:01Z</time>
      </trkpt>
      <trkpt lat="59.273861" lon="18.094081">
        <ele>42</ele>
        <time>2020-01-21T16:39:01Z</time>
      </trkpt>
      <trkpt lat="59.273933" lon="18.094047">
        <ele>42</ele>
        <time>2020-01-21T16:39:02Z</time>
      </trkpt>
      <trkpt lat="59.274006" lon="18.094013">
        <ele>41</ele>
        <time>2020-01-21T16:39:04Z</time>
      </trkpt>
      <trkpt lat="59.27408" lon="18.09398">
        <ele>41</ele>
        <time>2020-01-21T16:39:04Z</time>
      </trkpt>
      <trkpt lat="59.274153" lon="18.093948">
        <ele>41</ele>
        <time>2020-01-21T16:39:05Z</time>
      </trkpt>
      <trkpt lat="59.274226" lon="18.093916">
        <ele>40</ele>
        <time>2020-01-21T16:39:06Z</time>
      </trkpt>
      <trkpt lat="59.274301" lon="18.093881">
        <ele>40</ele>
        <time>2020-01-21T16:39:07Z</time>
      </trkpt>
      <trkpt lat="59.274377" lon="18.093851">
        <ele>40</ele>
        <time>2020-01-21T16:39:09Z</time>
      </trkpt>
      <trkpt lat="59.274453" lon="18.093819">
        <ele>40</ele>
        <time>2020-01-21T16:39:09Z</time>
      </trkpt>
      <trkpt lat="59.274525" lon="18.093791">
        <ele>39</ele>
        <time>2020-01-21T16:39:10Z</time>
      </trkpt>
      <trkpt lat="59.274597" lon="18.093761">
        <ele>39</ele>
        <time>2020-01-21T16:39:11Z</time>
      </trkpt>
      <trkpt lat="59.274668" lon="18.093735">
        <ele>39</ele>
        <time>2020-01-21T16:39:12Z</time>
      </trkpt>
      <trkpt lat="59.274738" lon="18.093713">
        <ele>38</ele>
        <time>2020-01-21T16:39:13Z</time>
      </trkpt>
      <trkpt lat="59.274809" lon="18.093688">
        <ele>38</ele>
        <time>2020-01-21T16:39:14Z</time>
      </trkpt>
      <trkpt lat="59.274879" lon="18.093661">
        <ele>38</ele>
        <time>2020-01-21T16:39:15Z</time>
      </trkpt>
      <trkpt lat="59.274947" lon="18.093634">
        <ele>38</ele>
        <time>2020-01-21T16:39:17Z</time>
      </trkpt>
      <trkpt lat="59.275015" lon="18.09361">
        <ele>38</ele>
        <time>2020-01-21T16:39:17Z</time>
      </trkpt>
      <trkpt lat="59.275083" lon="18.093586">
        <ele>38</ele>
        <time>2020-01-21T16:39:19Z</time>
      </trkpt>
      <trkpt lat="59.27515" lon="18.093559">
        <ele>38</ele>
        <time>2020-01-21T16:39:20Z</time>
      </trkpt>
      <trkpt lat="59.275217" lon="18.093536">
        <ele>38</ele>
        <time>2020-01-21T16:39:20Z</time>
      </trkpt>
      <trkpt lat="59.275283" lon="18.093516">
        <ele>38</ele>
        <time>2020-01-21T16:39:21Z</time>
      </trkpt>
      <trkpt lat="59.275349" lon="18.093499">
        <ele>38</ele>
        <time>2020-01-21T16:39:22Z</time>
      </trkpt>
      <trkpt lat="59.275417" lon="18.093482">
        <ele>37</ele>
        <time>2020-01-21T16:39:24Z</time>
      </trkpt>
      <trkpt lat="59.275484" lon="18.09347">
        <ele>37</ele>
        <time>2020-01-21T16:39:24Z</time>
      </trkpt>
      <trkpt lat="59.275551" lon="18.093457">
        <ele>37</ele>
        <time>2020-01-21T16:39:25Z</time>
      </trkpt>
      <trkpt lat="59.275617" lon="18.09344">
        <ele>37</ele>
        <time>2020-01-21T16:39:26Z</time>
      </trkpt>
      <trkpt lat="59.275682" lon="18.093422">
        <ele>37</ele>
        <time>2020-01-21T16:39:27Z</time>
      </trkpt>
      <trkpt lat="59.275746" lon="18.0934">
        <ele>37</ele>
        <time>2020-01-21T16:39:28Z</time>
      </trkpt>
      <trkpt lat="59.275809" lon="18.093381">
        <ele>37</ele>
        <time>2020-01-21T16:39:29Z</time>
      </trkpt>
      <trkpt lat="59.275871" lon="18.093363">
        <ele>37</ele>
        <time>2020-01-21T16:39:30Z</time>
      </trkpt>
      <trkpt lat="59.275931" lon="18.093346">
        <ele>37</ele>
        <time>2020-01-21T16:39:32Z</time>
      </trkpt>
      <trkpt lat="59.275992" lon="18.093331">
        <ele>37</ele>
        <time>2020-01-21T16:39:32Z</time>
      </trkpt>
      <trkpt lat="59.276053" lon="18.093318">
        <ele>37</ele>
        <time>2020-01-21T16:39:33Z</time>
      </trkpt>
      <trkpt lat="59.276115" lon="18.093307">
        <ele>37</ele>
        <time>2020-01-21T16:39:34Z</time>
      </trkpt>
      <trkpt lat="59.276177" lon="18.093299">
        <ele>37</ele>
        <time>2020-01-21T16:39:35Z</time>
      </trkpt>
      <trkpt lat="59.276238" lon="18.09329">
        <ele>37</ele>
        <time>2020-01-21T16:39:36Z</time>
      </trkpt>
      <trkpt lat="59.276299" lon="18.093277">
        <ele>37</ele>
        <time>2020-01-21T16:39:37Z</time>
      </trkpt>
      <trkpt lat="59.27636" lon="18.093266">
        <ele>37</ele>
        <time>2020-01-21T16:39:39Z</time>
      </trkpt>
      <trkpt lat="59.276419" lon="18.093258">
        <ele>37</ele>
        <time>2020-01-21T16:39:40Z</time>
      </trkpt>
      <trkpt lat="59.276479" lon="18.09325">
        <ele>37</ele>
        <time>2020-01-21T16:39:40Z</time>
      </trkpt>
      <trkpt lat="59.276538" lon="18.093239">
        <ele>37</ele>
        <time>2020-01-21T16:39:41Z</time>
      </trkpt>
      <trkpt lat="59.276598" lon="18.093228">
        <ele>37</ele>
        <time>2020-01-21T16:39:42Z</time>
      </trkpt>
      <trkpt lat="59.276657" lon="18.093216">
        <ele>37</ele>
        <time>2020-01-21T16:39:43Z</time>
      </trkpt>
      <trkpt lat="59.276717" lon="18.093205">
        <ele>37</ele>
        <time>2020-01-21T16:39:44Z</time>
      </trkpt>
      <trkpt lat="59.276777" lon="18.093193">
        <ele>37</ele>
        <time>2020-01-21T16:39:45Z</time>
      </trkpt>
      <trkpt lat="59.276836" lon="18.093181">
        <ele>36</ele>
        <time>2020-01-21T16:39:46Z</time>
      </trkpt>
      <trkpt lat="59.276895" lon="18.093169">
        <ele>36</ele>
        <time>2020-01-21T16:39:47Z</time>
      </trkpt>
      <trkpt lat="59.276953" lon="18.093157">
        <ele>36</ele>
        <time>2020-01-21T16:39:49Z</time>
      </trkpt>
      <trkpt lat="59.277012" lon="18.093144">
        <ele>36</ele>
        <time>2020-01-21T16:39:49Z</time>
      </trkpt>
      <trkpt lat="59.27707" lon="18.093127">
        <ele>36</ele>
        <time>2020-01-21T16:39:50Z</time>
      </trkpt>
      <trkpt lat="59.277129" lon="18.093108">
        <ele>36</ele>
        <time>2020-01-21T16:39:51Z</time>
      </trkpt>
      <trkpt lat="59.277188" lon="18.093089">
        <ele>36</ele>
        <time>2020-01-21T16:39:52Z</time>
      </trkpt>
      <trkpt lat="59.277248" lon="18.09307">
        <ele>36</ele>
        <time>2020-01-21T16:39:53Z</time>
      </trkpt>
      <trkpt lat="59.277308" lon="18.09305">
        <ele>36</ele>
        <time>2020-01-21T16:39:54Z</time>
      </trkpt>
      <trkpt lat="59.277368" lon="18.093027">
        <ele>36</ele>
        <time>2020-01-21T16:39:56Z</time>
      </trkpt>
      <trkpt lat="59.277428" lon="18.093003">
        <ele>36</ele>
        <time>2020-01-21T16:39:56Z</time>
      </trkpt>
      <trkpt lat="59.277489" lon="18.09298">
        <ele>36</ele>
        <time>2020-01-21T16:39:58Z</time>
      </trkpt>
      <trkpt lat="59.27755" lon="18.092958">
        <ele>36</ele>
        <time>2020-01-21T16:39:58Z</time>
      </trkpt>
      <trkpt lat="59.277612" lon="18.092937">
        <ele>35</ele>
        <time>2020-01-21T16:39:59Z</time>
      </trkpt>
      <trkpt lat="59.277673" lon="18.092916">
        <ele>35</ele>
        <time>2020-01-21T16:40:00Z</time>
      </trkpt>
      <trkpt lat="59.277733" lon="18.092893">
        <ele>35</ele>
        <time>2020-01-21T16:40:01Z</time>
      </trkpt>
      <trkpt lat="59.277792" lon="18.092867">
        <ele>35</ele>
        <time>2020-01-21T16:40:02Z</time>
      </trkpt>
      <trkpt lat="59.277853" lon="18.092843">
        <ele>35</ele>
        <time>2020-01-21T16:40:03Z</time>
      </trkpt>
      <trkpt lat="59.277914" lon="18.09282">
        <ele>35</ele>
        <time>2020-01-21T16:40:05Z</time>
      </trkpt>
      <trkpt lat="59.277974" lon="18.092794">
        <ele>35</ele>
        <time>2020-01-21T16:40:05Z</time>
      </trkpt>
      <trkpt lat="59.278034" lon="18.092767">
        <ele>35</ele>
        <time>2020-01-21T16:40:06Z</time>
      </trkpt>
      <trkpt lat="59.278093" lon="18.092744">
        <ele>35</ele>
        <time>2020-01-21T16:40:07Z</time>
      </trkpt>
      <trkpt lat="59.278151" lon="18.092722">
        <ele>35</ele>
        <time>2020-01-21T16:40:08Z</time>
      </trkpt>
      <trkpt lat="59.278208" lon="18.092699">
        <ele>34</ele>
        <time>2020-01-21T16:40:09Z</time>
      </trkpt>
      <trkpt lat="59.278266" lon="18.092676">
        <ele>34</ele>
        <time>2020-01-21T16:40:10Z</time>
      </trkpt>
      <trkpt lat="59.278323" lon="18.092651">
        <ele>34</ele>
        <time>2020-01-21T16:40:11Z</time>
      </trkpt>
      <trkpt lat="59.278381" lon="18.092626">
        <ele>34</ele>
        <time>2020-01-21T16:40:13Z</time>
      </trkpt>
      <trkpt lat="59.278439" lon="18.092603">
        <ele>34</ele>
        <time>2020-01-21T16:40:13Z</time>
      </trkpt>
      <trkpt lat="59.278498" lon="18.092577">
        <ele>34</ele>
        <time>2020-01-21T16:40:14Z</time>
      </trkpt>
      <trkpt lat="59.278556" lon="18.092553">
        <ele>34</ele>
        <time>2020-01-21T16:40:15Z</time>
      </trkpt>
      <trkpt lat="59.278614" lon="18.092529">
        <ele>34</ele>
        <time>2020-01-21T16:40:17Z</time>
      </trkpt>
      <trkpt lat="59.278673" lon="18.092506">
        <ele>34</ele>
        <time>2020-01-21T16:40:17Z</time>
      </trkpt>
      <trkpt lat="59.27873" lon="18.092481">
        <ele>34</ele>
        <time>2020-01-21T16:40:18Z</time>
      </trkpt>
      <trkpt lat="59.278788" lon="18.092456">
        <ele>34</ele>
        <time>2020-01-21T16:40:19Z</time>
      </trkpt>
      <trkpt lat="59.278846" lon="18.092431">
        <ele>34</ele>
        <time>2020-01-21T16:40:20Z</time>
      </trkpt>
      <trkpt lat="59.278902" lon="18.092406">
        <ele>34</ele>
        <time>2020-01-21T16:40:22Z</time>
      </trkpt>
      <trkpt lat="59.278958" lon="18.09238">
        <ele>34</ele>
        <time>2020-01-21T16:40:22Z</time>
      </trkpt>
      <trkpt lat="59.279013" lon="18.092358">
        <ele>34</ele>
        <time>2020-01-21T16:40:23Z</time>
      </trkpt>
      <trkpt lat="59.279068" lon="18.092341">
        <ele>34</ele>
        <time>2020-01-21T16:40:24Z</time>
      </trkpt>
      <trkpt lat="59.27912" lon="18.092326">
        <ele>34</ele>
        <time>2020-01-21T16:40:25Z</time>
      </trkpt>
      <trkpt lat="59.279162" lon="18.092316">
        <ele>34</ele>
        <time>2020-01-21T16:40:26Z</time>
      </trkpt>
      <trkpt lat="59.279189" lon="18.09231">
        <ele>34</ele>
        <time>2020-01-21T16:40:27Z</time>
      </trkpt>
      <trkpt lat="59.279211" lon="18.09231">
        <ele>34</ele>
        <time>2020-01-21T16:40:28Z</time>
      </trkpt>
      <trkpt lat="59.27923" lon="18.092315">
        <ele>34</ele>
        <time>2020-01-21T16:40:29Z</time>
      </trkpt>
      <trkpt lat="59.279257" lon="18.092315">
        <ele>35</ele>
        <time>2020-01-21T16:40:31Z</time>
      </trkpt>
      <trkpt lat="59.279265" lon="18.092316">
        <ele>35</ele>
        <time>2020-01-21T16:40:36Z</time>
      </trkpt>
      <trkpt lat="59.279331" lon="18.092299">
        <ele>35</ele>
        <time>2020-01-21T16:40:44Z</time>
      </trkpt>
      <trkpt lat="59.279357" lon="18.092283">
        <ele>37</ele>
        <time>2020-01-21T16:40:45Z</time>
      </trkpt>
      <trkpt lat="59.279357" lon="18.092283">
        <ele>0</ele>
        <time>2020-01-21T16:40:48Z</time>
      </trkpt>
      <trkpt lat="59.279396" lon="18.092258">
        <ele>37</ele>
        <time>2020-01-21T16:41:32Z</time>
      </trkpt>
      <trkpt lat="59.279428" lon="18.092243">
        <ele>37</ele>
        <time>2020-01-21T16:41:32Z</time>
      </trkpt>
      <trkpt lat="59.279467" lon="18.092223">
        <ele>37</ele>
        <time>2020-01-21T16:41:33Z</time>
      </trkpt>
      <trkpt lat="59.279505" lon="18.0922">
        <ele>37</ele>
        <time>2020-01-21T16:41:35Z</time>
      </trkpt>
      <trkpt lat="59.279544" lon="18.092179">
        <ele>37</ele>
        <time>2020-01-21T16:41:35Z</time>
      </trkpt>
      <trkpt lat="59.279583" lon="18.092161">
        <ele>37</ele>
        <time>2020-01-21T16:41:36Z</time>
      </trkpt>
      <trkpt lat="59.279624" lon="18.092143">
        <ele>37</ele>
        <time>2020-01-21T16:41:37Z</time>
      </trkpt>
      <trkpt lat="59.279668" lon="18.092124">
        <ele>37</ele>
        <time>2020-01-21T16:41:38Z</time>
      </trkpt>
      <trkpt lat="59.279714" lon="18.092096">
        <ele>37</ele>
        <time>2020-01-21T16:41:39Z</time>
      </trkpt>
      <trkpt lat="59.27976" lon="18.092063">
        <ele>37</ele>
        <time>2020-01-21T16:41:40Z</time>
      </trkpt>
      <trkpt lat="59.279808" lon="18.092034">
        <ele>38</ele>
        <time>2020-01-21T16:41:41Z</time>
      </trkpt>
      <trkpt lat="59.279858" lon="18.09201">
        <ele>38</ele>
        <time>2020-01-21T16:41:42Z</time>
      </trkpt>
      <trkpt lat="59.279907" lon="18.09199">
        <ele>38</ele>
        <time>2020-01-21T16:41:43Z</time>
      </trkpt>
      <trkpt lat="59.279957" lon="18.09197">
        <ele>38</ele>
        <time>2020-01-21T16:41:44Z</time>
      </trkpt>
      <trkpt lat="59.280011" lon="18.091948">
        <ele>38</ele>
        <time>2020-01-21T16:41:46Z</time>
      </trkpt>
      <trkpt lat="59.280063" lon="18.091927">
        <ele>37</ele>
        <time>2020-01-21T16:41:46Z</time>
      </trkpt>
      <trkpt lat="59.280116" lon="18.091908">
        <ele>37</ele>
        <time>2020-01-21T16:41:47Z</time>
      </trkpt>
      <trkpt lat="59.280169" lon="18.091893">
        <ele>37</ele>
        <time>2020-01-21T16:41:48Z</time>
      </trkpt>
      <trkpt lat="59.280221" lon="18.091879">
        <ele>37</ele>
        <time>2020-01-21T16:41:49Z</time>
      </trkpt>
      <trkpt lat="59.280272" lon="18.091859">
        <ele>37</ele>
        <time>2020-01-21T16:41:51Z</time>
      </trkpt>
      <trkpt lat="59.280324" lon="18.091837">
        <ele>37</ele>
        <time>2020-01-21T16:41:51Z</time>
      </trkpt>
      <trkpt lat="59.280375" lon="18.091821">
        <ele>37</ele>
        <time>2020-01-21T16:41:52Z</time>
      </trkpt>
      <trkpt lat="59.280428" lon="18.091802">
        <ele>37</ele>
        <time>2020-01-21T16:41:53Z</time>
      </trkpt>
      <trkpt lat="59.280483" lon="18.091784">
        <ele>36</ele>
        <time>2020-01-21T16:41:55Z</time>
      </trkpt>
      <trkpt lat="59.280536" lon="18.091767">
        <ele>37</ele>
        <time>2020-01-21T16:41:55Z</time>
      </trkpt>
      <trkpt lat="59.280591" lon="18.091749">
        <ele>36</ele>
        <time>2020-01-21T16:41:56Z</time>
      </trkpt>
      <trkpt lat="59.280647" lon="18.091736">
        <ele>36</ele>
        <time>2020-01-21T16:41:57Z</time>
      </trkpt>
      <trkpt lat="59.280704" lon="18.09172">
        <ele>36</ele>
        <time>2020-01-21T16:41:59Z</time>
      </trkpt>
      <trkpt lat="59.280759" lon="18.091702">
        <ele>36</ele>
        <time>2020-01-21T16:41:59Z</time>
      </trkpt>
      <trkpt lat="59.280813" lon="18.091682">
        <ele>36</ele>
        <time>2020-01-21T16:42:00Z</time>
      </trkpt>
      <trkpt lat="59.280866" lon="18.091664">
        <ele>36</ele>
        <time>2020-01-21T16:42:01Z</time>
      </trkpt>
      <trkpt lat="59.280918" lon="18.091645">
        <ele>36</ele>
        <time>2020-01-21T16:42:02Z</time>
      </trkpt>
      <trkpt lat="59.280969" lon="18.091627">
        <ele>36</ele>
        <time>2020-01-21T16:42:04Z</time>
      </trkpt>
      <trkpt lat="59.281021" lon="18.091612">
        <ele>36</ele>
        <time>2020-01-21T16:42:04Z</time>
      </trkpt>
      <trkpt lat="59.281072" lon="18.0916">
        <ele>36</ele>
        <time>2020-01-21T16:42:05Z</time>
      </trkpt>
      <trkpt lat="59.281124" lon="18.091584">
        <ele>36</ele>
        <time>2020-01-21T16:42:06Z</time>
      </trkpt>
      <trkpt lat="59.281177" lon="18.091571">
        <ele>36</ele>
        <time>2020-01-21T16:42:07Z</time>
      </trkpt>
      <trkpt lat="59.28123" lon="18.091555">
        <ele>35</ele>
        <time>2020-01-21T16:42:08Z</time>
      </trkpt>
      <trkpt lat="59.281283" lon="18.091539">
        <ele>35</ele>
        <time>2020-01-21T16:42:10Z</time>
      </trkpt>
      <trkpt lat="59.281337" lon="18.091522">
        <ele>35</ele>
        <time>2020-01-21T16:42:10Z</time>
      </trkpt>
      <trkpt lat="59.281391" lon="18.091504">
        <ele>35</ele>
        <time>2020-01-21T16:42:11Z</time>
      </trkpt>
      <trkpt lat="59.281444" lon="18.09149">
        <ele>35</ele>
        <time>2020-01-21T16:42:13Z</time>
      </trkpt>
      <trkpt lat="59.281498" lon="18.091478">
        <ele>35</ele>
        <time>2020-01-21T16:42:13Z</time>
      </trkpt>
      <trkpt lat="59.281549" lon="18.091459">
        <ele>34</ele>
        <time>2020-01-21T16:42:14Z</time>
      </trkpt>
      <trkpt lat="59.2816" lon="18.091443">
        <ele>34</ele>
        <time>2020-01-21T16:42:15Z</time>
      </trkpt>
      <trkpt lat="59.281652" lon="18.091429">
        <ele>34</ele>
        <time>2020-01-21T16:42:16Z</time>
      </trkpt>
      <trkpt lat="59.281704" lon="18.091413">
        <ele>34</ele>
        <time>2020-01-21T16:42:17Z</time>
      </trkpt>
      <trkpt lat="59.281754" lon="18.091393">
        <ele>34</ele>
        <time>2020-01-21T16:42:18Z</time>
      </trkpt>
      <trkpt lat="59.281804" lon="18.091377">
        <ele>34</ele>
        <time>2020-01-21T16:42:19Z</time>
      </trkpt>
      <trkpt lat="59.281856" lon="18.091358">
        <ele>34</ele>
        <time>2020-01-21T16:42:20Z</time>
      </trkpt>
      <trkpt lat="59.281911" lon="18.09134">
        <ele>34</ele>
        <time>2020-01-21T16:42:21Z</time>
      </trkpt>
      <trkpt lat="59.281969" lon="18.091327">
        <ele>34</ele>
        <time>2020-01-21T16:42:23Z</time>
      </trkpt>
      <trkpt lat="59.28202" lon="18.091311">
        <ele>34</ele>
        <time>2020-01-21T16:42:23Z</time>
      </trkpt>
      <trkpt lat="59.282073" lon="18.091293">
        <ele>34</ele>
        <time>2020-01-21T16:42:24Z</time>
      </trkpt>
      <trkpt lat="59.282132" lon="18.091276">
        <ele>34</ele>
        <time>2020-01-21T16:42:25Z</time>
      </trkpt>
      <trkpt lat="59.282188" lon="18.09126">
        <ele>34</ele>
        <time>2020-01-21T16:42:26Z</time>
      </trkpt>
      <trkpt lat="59.282242" lon="18.091244">
        <ele>34</ele>
        <time>2020-01-21T16:42:27Z</time>
      </trkpt>
      <trkpt lat="59.282292" lon="18.09122">
        <ele>34</ele>
        <time>2020-01-21T16:42:29Z</time>
      </trkpt>
      <trkpt lat="59.282342" lon="18.091197">
        <ele>34</ele>
        <time>2020-01-21T16:42:29Z</time>
      </trkpt>
      <trkpt lat="59.28239" lon="18.091169">
        <ele>34</ele>
        <time>2020-01-21T16:42:30Z</time>
      </trkpt>
      <trkpt lat="59.282437" lon="18.091141">
        <ele>34</ele>
        <time>2020-01-21T16:42:31Z</time>
      </trkpt>
      <trkpt lat="59.282485" lon="18.091114">
        <ele>34</ele>
        <time>2020-01-21T16:42:33Z</time>
      </trkpt>
      <trkpt lat="59.282529" lon="18.091083">
        <ele>35</ele>
        <time>2020-01-21T16:42:33Z</time>
      </trkpt>
      <trkpt lat="59.282572" lon="18.091053">
        <ele>35</ele>
        <time>2020-01-21T16:42:34Z</time>
      </trkpt>
      <trkpt lat="59.282614" lon="18.091017">
        <ele>35</ele>
        <time>2020-01-21T16:42:35Z</time>
      </trkpt>
      <trkpt lat="59.282664" lon="18.090986">
        <ele>35</ele>
        <time>2020-01-21T16:42:36Z</time>
      </trkpt>
      <trkpt lat="59.282715" lon="18.090958">
        <ele>35</ele>
        <time>2020-01-21T16:42:37Z</time>
      </trkpt>
      <trkpt lat="59.282768" lon="18.090931">
        <ele>35</ele>
        <time>2020-01-21T16:42:38Z</time>
      </trkpt>
      <trkpt lat="59.282813" lon="18.090903">
        <ele>35</ele>
        <time>2020-01-21T16:42:39Z</time>
      </trkpt>
      <trkpt lat="59.28286" lon="18.090874">
        <ele>35</ele>
        <time>2020-01-21T16:42:40Z</time>
      </trkpt>
      <trkpt lat="59.282905" lon="18.090844">
        <ele>35</ele>
        <time>2020-01-21T16:42:42Z</time>
      </trkpt>
      <trkpt lat="59.282956" lon="18.09082">
        <ele>35</ele>
        <time>2020-01-21T16:42:42Z</time>
      </trkpt>
      <trkpt lat="59.283024" lon="18.090801">
        <ele>35</ele>
        <time>2020-01-21T16:42:43Z</time>
      </trkpt>
      <trkpt lat="59.28309" lon="18.090782">
        <ele>35</ele>
        <time>2020-01-21T16:42:44Z</time>
      </trkpt>
      <trkpt lat="59.283155" lon="18.090755">
        <ele>35</ele>
        <time>2020-01-21T16:42:45Z</time>
      </trkpt>
      <trkpt lat="59.283213" lon="18.090732">
        <ele>35</ele>
        <time>2020-01-21T16:42:46Z</time>
      </trkpt>
      <trkpt lat="59.283264" lon="18.090707">
        <ele>35</ele>
        <time>2020-01-21T16:42:48Z</time>
      </trkpt>
      <trkpt lat="59.283315" lon="18.090683">
        <ele>35</ele>
        <time>2020-01-21T16:42:48Z</time>
      </trkpt>
      <trkpt lat="59.283366" lon="18.090659">
        <ele>35</ele>
        <time>2020-01-21T16:42:49Z</time>
      </trkpt>
      <trkpt lat="59.283422" lon="18.090636">
        <ele>35</ele>
        <time>2020-01-21T16:42:50Z</time>
      </trkpt>
      <trkpt lat="59.283479" lon="18.090615">
        <ele>35</ele>
        <time>2020-01-21T16:42:52Z</time>
      </trkpt>
      <trkpt lat="59.283532" lon="18.090593">
        <ele>35</ele>
        <time>2020-01-21T16:42:52Z</time>
      </trkpt>
      <trkpt lat="59.283579" lon="18.090566">
        <ele>35</ele>
        <time>2020-01-21T16:42:53Z</time>
      </trkpt>
      <trkpt lat="59.283624" lon="18.090539">
        <ele>35</ele>
        <time>2020-01-21T16:42:54Z</time>
      </trkpt>
      <trkpt lat="59.28367" lon="18.090507">
        <ele>35</ele>
        <time>2020-01-21T16:42:55Z</time>
      </trkpt>
      <trkpt lat="59.283725" lon="18.090478">
        <ele>35</ele>
        <time>2020-01-21T16:42:56Z</time>
      </trkpt>
      <trkpt lat="59.283781" lon="18.090452">
        <ele>35</ele>
        <time>2020-01-21T16:42:57Z</time>
      </trkpt>
      <trkpt lat="59.283834" lon="18.09043">
        <ele>35</ele>
        <time>2020-01-21T16:42:58Z</time>
      </trkpt>
      <trkpt lat="59.283883" lon="18.090407">
        <ele>35</ele>
        <time>2020-01-21T16:43:00Z</time>
      </trkpt>
      <trkpt lat="59.283932" lon="18.090377">
        <ele>35</ele>
        <time>2020-01-21T16:43:00Z</time>
      </trkpt>
      <trkpt lat="59.28398" lon="18.090344">
        <ele>35</ele>
        <time>2020-01-21T16:43:01Z</time>
      </trkpt>
      <trkpt lat="59.28403" lon="18.090311">
        <ele>36</ele>
        <time>2020-01-21T16:43:02Z</time>
      </trkpt>
      <trkpt lat="59.284081" lon="18.090282">
        <ele>36</ele>
        <time>2020-01-21T16:43:03Z</time>
      </trkpt>
      <trkpt lat="59.284129" lon="18.090252">
        <ele>36</ele>
        <time>2020-01-21T16:43:04Z</time>
      </trkpt>
      <trkpt lat="59.284175" lon="18.090225">
        <ele>36</ele>
        <time>2020-01-21T16:43:05Z</time>
      </trkpt>
      <trkpt lat="59.284224" lon="18.090207">
        <ele>36</ele>
        <time>2020-01-21T16:43:07Z</time>
      </trkpt>
      <trkpt lat="59.284267" lon="18.090184">
        <ele>36</ele>
        <time>2020-01-21T16:43:07Z</time>
      </trkpt>
      <trkpt lat="59.284312" lon="18.090156">
        <ele>36</ele>
        <time>2020-01-21T16:43:08Z</time>
      </trkpt>
      <trkpt lat="59.284356" lon="18.090126">
        <ele>36</ele>
        <time>2020-01-21T16:43:09Z</time>
      </trkpt>
      <trkpt lat="59.284402" lon="18.090099">
        <ele>37</ele>
        <time>2020-01-21T16:43:11Z</time>
      </trkpt>
      <trkpt lat="59.284448" lon="18.090078">
        <ele>37</ele>
        <time>2020-01-21T16:43:11Z</time>
      </trkpt>
      <trkpt lat="59.284496" lon="18.090055">
        <ele>37</ele>
        <time>2020-01-21T16:43:12Z</time>
      </trkpt>
      <trkpt lat="59.284544" lon="18.090029">
        <ele>37</ele>
        <time>2020-01-21T16:43:13Z</time>
      </trkpt>
      <trkpt lat="59.284596" lon="18.090003">
        <ele>37</ele>
        <time>2020-01-21T16:43:14Z</time>
      </trkpt>
      <trkpt lat="59.284656" lon="18.089978">
        <ele>37</ele>
        <time>2020-01-21T16:43:15Z</time>
      </trkpt>
      <trkpt lat="59.284708" lon="18.089958">
        <ele>37</ele>
        <time>2020-01-21T16:43:16Z</time>
      </trkpt>
      <trkpt lat="59.284764" lon="18.089942">
        <ele>37</ele>
        <time>2020-01-21T16:43:17Z</time>
      </trkpt>
      <trkpt lat="59.284821" lon="18.089918">
        <ele>37</ele>
        <time>2020-01-21T16:43:19Z</time>
      </trkpt>
      <trkpt lat="59.284879" lon="18.089891">
        <ele>37</ele>
        <time>2020-01-21T16:43:19Z</time>
      </trkpt>
      <trkpt lat="59.284935" lon="18.089867">
        <ele>37</ele>
        <time>2020-01-21T16:43:20Z</time>
      </trkpt>
      <trkpt lat="59.284988" lon="18.089844">
        <ele>37</ele>
        <time>2020-01-21T16:43:21Z</time>
      </trkpt>
      <trkpt lat="59.285038" lon="18.089818">
        <ele>37</ele>
        <time>2020-01-21T16:43:22Z</time>
      </trkpt>
      <trkpt lat="59.285088" lon="18.089795">
        <ele>37</ele>
        <time>2020-01-21T16:43:23Z</time>
      </trkpt>
      <trkpt lat="59.285136" lon="18.089773">
        <ele>37</ele>
        <time>2020-01-21T16:43:24Z</time>
      </trkpt>
      <trkpt lat="59.285184" lon="18.089751">
        <ele>37</ele>
        <time>2020-01-21T16:43:26Z</time>
      </trkpt>
      <trkpt lat="59.285235" lon="18.089734">
        <ele>37</ele>
        <time>2020-01-21T16:43:26Z</time>
      </trkpt>
      <trkpt lat="59.28528" lon="18.089709">
        <ele>37</ele>
        <time>2020-01-21T16:43:27Z</time>
      </trkpt>
      <trkpt lat="59.285326" lon="18.089674">
        <ele>37</ele>
        <time>2020-01-21T16:43:28Z</time>
      </trkpt>
      <trkpt lat="59.285369" lon="18.089648">
        <ele>37</ele>
        <time>2020-01-21T16:43:30Z</time>
      </trkpt>
      <trkpt lat="59.285424" lon="18.08962">
        <ele>38</ele>
        <time>2020-01-21T16:43:30Z</time>
      </trkpt>
      <trkpt lat="59.285475" lon="18.089596">
        <ele>38</ele>
        <time>2020-01-21T16:43:31Z</time>
      </trkpt>
      <trkpt lat="59.28552" lon="18.089571">
        <ele>38</ele>
        <time>2020-01-21T16:43:32Z</time>
      </trkpt>
      <trkpt lat="59.285568" lon="18.089543">
        <ele>38</ele>
        <time>2020-01-21T16:43:33Z</time>
      </trkpt>
      <trkpt lat="59.285625" lon="18.089513">
        <ele>38</ele>
        <time>2020-01-21T16:43:34Z</time>
      </trkpt>
      <trkpt lat="59.28568" lon="18.089485">
        <ele>38</ele>
        <time>2020-01-21T16:43:35Z</time>
      </trkpt>
      <trkpt lat="59.285733" lon="18.089459">
        <ele>38</ele>
        <time>2020-01-21T16:43:36Z</time>
      </trkpt>
      <trkpt lat="59.285787" lon="18.089435">
        <ele>38</ele>
        <time>2020-01-21T16:43:37Z</time>
      </trkpt>
      <trkpt lat="59.285836" lon="18.089417">
        <ele>38</ele>
        <time>2020-01-21T16:43:39Z</time>
      </trkpt>
      <trkpt lat="59.285888" lon="18.089395">
        <ele>38</ele>
        <time>2020-01-21T16:43:39Z</time>
      </trkpt>
      <trkpt lat="59.285939" lon="18.089372">
        <ele>38</ele>
        <time>2020-01-21T16:43:40Z</time>
      </trkpt>
      <trkpt lat="59.285987" lon="18.089351">
        <ele>38</ele>
        <time>2020-01-21T16:43:41Z</time>
      </trkpt>
      <trkpt lat="59.286038" lon="18.089332">
        <ele>38</ele>
        <time>2020-01-21T16:43:42Z</time>
      </trkpt>
      <trkpt lat="59.286091" lon="18.089313">
        <ele>38</ele>
        <time>2020-01-21T16:43:43Z</time>
      </trkpt>
      <trkpt lat="59.286143" lon="18.089288">
        <ele>38</ele>
        <time>2020-01-21T16:43:45Z</time>
      </trkpt>
      <trkpt lat="59.286192" lon="18.089264">
        <ele>38</ele>
        <time>2020-01-21T16:43:45Z</time>
      </trkpt>
      <trkpt lat="59.286244" lon="18.089239">
        <ele>38</ele>
        <time>2020-01-21T16:43:46Z</time>
      </trkpt>
      <trkpt lat="59.286295" lon="18.089216">
        <ele>38</ele>
        <time>2020-01-21T16:43:48Z</time>
      </trkpt>
      <trkpt lat="59.286345" lon="18.089195">
        <ele>38</ele>
        <time>2020-01-21T16:43:48Z</time>
      </trkpt>
      <trkpt lat="59.286397" lon="18.089178">
        <ele>38</ele>
        <time>2020-01-21T16:43:49Z</time>
      </trkpt>
      <trkpt lat="59.286448" lon="18.089161">
        <ele>38</ele>
        <time>2020-01-21T16:43:50Z</time>
      </trkpt>
      <trkpt lat="59.286499" lon="18.089147">
        <ele>38</ele>
        <time>2020-01-21T16:43:51Z</time>
      </trkpt>
      <trkpt lat="59.286551" lon="18.089137">
        <ele>38</ele>
        <time>2020-01-21T16:43:52Z</time>
      </trkpt>
      <trkpt lat="59.286601" lon="18.08912">
        <ele>38</ele>
        <time>2020-01-21T16:43:53Z</time>
      </trkpt>
      <trkpt lat="59.286651" lon="18.089102">
        <ele>38</ele>
        <time>2020-01-21T16:43:54Z</time>
      </trkpt>
      <trkpt lat="59.286699" lon="18.089083">
        <ele>38</ele>
        <time>2020-01-21T16:43:55Z</time>
      </trkpt>
      <trkpt lat="59.286747" lon="18.089064">
        <ele>38</ele>
        <time>2020-01-21T16:43:56Z</time>
      </trkpt>
      <trkpt lat="59.286795" lon="18.089046">
        <ele>38</ele>
        <time>2020-01-21T16:43:57Z</time>
      </trkpt>
      <trkpt lat="59.286843" lon="18.089028">
        <ele>38</ele>
        <time>2020-01-21T16:43:59Z</time>
      </trkpt>
      <trkpt lat="59.28689" lon="18.089004">
        <ele>37</ele>
        <time>2020-01-21T16:43:59Z</time>
      </trkpt>
      <trkpt lat="59.286937" lon="18.08898">
        <ele>37</ele>
        <time>2020-01-21T16:44:00Z</time>
      </trkpt>
      <trkpt lat="59.286984" lon="18.088957">
        <ele>37</ele>
        <time>2020-01-21T16:44:01Z</time>
      </trkpt>
      <trkpt lat="59.287029" lon="18.088932">
        <ele>37</ele>
        <time>2020-01-21T16:44:02Z</time>
      </trkpt>
      <trkpt lat="59.287073" lon="18.088907">
        <ele>36</ele>
        <time>2020-01-21T16:44:04Z</time>
      </trkpt>
      <trkpt lat="59.287116" lon="18.088877">
        <ele>36</ele>
        <time>2020-01-21T16:44:04Z</time>
      </trkpt>
      <trkpt lat="59.287163" lon="18.088854">
        <ele>36</ele>
        <time>2020-01-21T16:44:05Z</time>
      </trkpt>
      <trkpt lat="59.28721" lon="18.08883">
        <ele>36</ele>
        <time>2020-01-21T16:44:06Z</time>
      </trkpt>
      <trkpt lat="59.287254" lon="18.088807">
        <ele>36</ele>
        <time>2020-01-21T16:44:08Z</time>
      </trkpt>
      <trkpt lat="59.2873" lon="18.088782">
        <ele>36</ele>
        <time>2020-01-21T16:44:08Z</time>
      </trkpt>
      <trkpt lat="59.287346" lon="18.088765">
        <ele>36</ele>
        <time>2020-01-21T16:44:09Z</time>
      </trkpt>
      <trkpt lat="59.287392" lon="18.088758">
        <ele>36</ele>
        <time>2020-01-21T16:44:10Z</time>
      </trkpt>
      <trkpt lat="59.287436" lon="18.088775">
        <ele>36</ele>
        <time>2020-01-21T16:44:11Z</time>
      </trkpt>
      <trkpt lat="59.287472" lon="18.088827">
        <ele>36</ele>
        <time>2020-01-21T16:44:12Z</time>
      </trkpt>
      <trkpt lat="59.287496" lon="18.088907">
        <ele>37</ele>
        <time>2020-01-21T16:44:13Z</time>
      </trkpt>
      <trkpt lat="59.287518" lon="18.08899">
        <ele>37</ele>
        <time>2020-01-21T16:44:14Z</time>
      </trkpt>
      <trkpt lat="59.287544" lon="18.089067">
        <ele>37</ele>
        <time>2020-01-21T16:44:15Z</time>
      </trkpt>
      <trkpt lat="59.287577" lon="18.08913">
        <ele>37</ele>
        <time>2020-01-21T16:44:16Z</time>
      </trkpt>
      <trkpt lat="59.287615" lon="18.089166">
        <ele>37</ele>
        <time>2020-01-21T16:44:17Z</time>
      </trkpt>
      <trkpt lat="59.287659" lon="18.08918">
        <ele>37</ele>
        <time>2020-01-21T16:44:19Z</time>
      </trkpt>
      <trkpt lat="59.28771" lon="18.089179">
        <ele>37</ele>
        <time>2020-01-21T16:44:19Z</time>
      </trkpt>
      <trkpt lat="59.287761" lon="18.089175">
        <ele>37</ele>
        <time>2020-01-21T16:44:20Z</time>
      </trkpt>
      <trkpt lat="59.287805" lon="18.089174">
        <ele>37</ele>
        <time>2020-01-21T16:44:21Z</time>
      </trkpt>
      <trkpt lat="59.287845" lon="18.089171">
        <ele>38</ele>
        <time>2020-01-21T16:44:23Z</time>
      </trkpt>
      <trkpt lat="59.287884" lon="18.089156">
        <ele>38</ele>
        <time>2020-01-21T16:44:23Z</time>
      </trkpt>
      <trkpt lat="59.28792" lon="18.08914">
        <ele>38</ele>
        <time>2020-01-21T16:44:24Z</time>
      </trkpt>
      <trkpt lat="59.287956" lon="18.089115">
        <ele>38</ele>
        <time>2020-01-21T16:44:26Z</time>
      </trkpt>
      <trkpt lat="59.287993" lon="18.089083">
        <ele>39</ele>
        <time>2020-01-21T16:44:26Z</time>
      </trkpt>
      <trkpt lat="59.288028" lon="18.089054">
        <ele>39</ele>
        <time>2020-01-21T16:44:27Z</time>
      </trkpt>
      <trkpt lat="59.288065" lon="18.089029">
        <ele>39</ele>
        <time>2020-01-21T16:44:28Z</time>
      </trkpt>
      <trkpt lat="59.288104" lon="18.089003">
        <ele>40</ele>
        <time>2020-01-21T16:44:29Z</time>
      </trkpt>
      <trkpt lat="59.288141" lon="18.088972">
        <ele>40</ele>
        <time>2020-01-21T16:44:31Z</time>
      </trkpt>
      <trkpt lat="59.288176" lon="18.088945">
        <ele>40</ele>
        <time>2020-01-21T16:44:31Z</time>
      </trkpt>
      <trkpt lat="59.288211" lon="18.088924">
        <ele>40</ele>
        <time>2020-01-21T16:44:32Z</time>
      </trkpt>
      <trkpt lat="59.288247" lon="18.088901">
        <ele>40</ele>
        <time>2020-01-21T16:44:33Z</time>
      </trkpt>
      <trkpt lat="59.288284" lon="18.088876">
        <ele>40</ele>
        <time>2020-01-21T16:44:34Z</time>
      </trkpt>
      <trkpt lat="59.28833" lon="18.088843">
        <ele>40</ele>
        <time>2020-01-21T16:44:35Z</time>
      </trkpt>
      <trkpt lat="59.288379" lon="18.088823">
        <ele>40</ele>
        <time>2020-01-21T16:44:36Z</time>
      </trkpt>
      <trkpt lat="59.288424" lon="18.088815">
        <ele>41</ele>
        <time>2020-01-21T16:44:37Z</time>
      </trkpt>
      <trkpt lat="59.288468" lon="18.088828">
        <ele>42</ele>
        <time>2020-01-21T16:44:38Z</time>
      </trkpt>
      <trkpt lat="59.288504" lon="18.088824">
        <ele>43</ele>
        <time>2020-01-21T16:44:39Z</time>
      </trkpt>
      <trkpt lat="59.288532" lon="18.088822">
        <ele>43</ele>
        <time>2020-01-21T16:44:40Z</time>
      </trkpt>
      <trkpt lat="59.288554" lon="18.088819">
        <ele>43</ele>
        <time>2020-01-21T16:44:42Z</time>
      </trkpt>
      <trkpt lat="59.288578" lon="18.088818">
        <ele>43</ele>
        <time>2020-01-21T16:44:43Z</time>
      </trkpt>
      <trkpt lat="59.288583" lon="18.08882">
        <ele>0</ele>
        <time>2020-01-21T16:44:47Z</time>
      </trkpt>
      <trkpt lat="59.288624" lon="18.088808">
        <ele>42</ele>
        <time>2020-01-21T16:44:53Z</time>
      </trkpt>
      <trkpt lat="59.288652" lon="18.088795">
        <ele>41</ele>
        <time>2020-01-21T16:44:53Z</time>
      </trkpt>
      <trkpt lat="59.288684" lon="18.08878">
        <ele>41</ele>
        <time>2020-01-21T16:44:54Z</time>
      </trkpt>
      <trkpt lat="59.28872" lon="18.088764">
        <ele>41</ele>
        <time>2020-01-21T16:44:56Z</time>
      </trkpt>
      <trkpt lat="59.288756" lon="18.08874">
        <ele>41</ele>
        <time>2020-01-21T16:44:56Z</time>
      </trkpt>
      <trkpt lat="59.288784" lon="18.088691">
        <ele>41</ele>
        <time>2020-01-21T16:44:57Z</time>
      </trkpt>
      <trkpt lat="59.288791" lon="18.088622">
        <ele>41</ele>
        <time>2020-01-21T16:44:58Z</time>
      </trkpt>
      <trkpt lat="59.288788" lon="18.088548">
        <ele>41</ele>
        <time>2020-01-21T16:44:59Z</time>
      </trkpt>
      <trkpt lat="59.288799" lon="18.08847">
        <ele>40</ele>
        <time>2020-01-21T16:45:00Z</time>
      </trkpt>
      <trkpt lat="59.28882" lon="18.088402">
        <ele>40</ele>
        <time>2020-01-21T16:45:01Z</time>
      </trkpt>
      <trkpt lat="59.288852" lon="18.088346">
        <ele>40</ele>
        <time>2020-01-21T16:45:02Z</time>
      </trkpt>
      <trkpt lat="59.288893" lon="18.088311">
        <ele>39</ele>
        <time>2020-01-21T16:45:03Z</time>
      </trkpt>
      <trkpt lat="59.288942" lon="18.088286">
        <ele>39</ele>
        <time>2020-01-21T16:45:04Z</time>
      </trkpt>
      <trkpt lat="59.288993" lon="18.088262">
        <ele>39</ele>
        <time>2020-01-21T16:45:05Z</time>
      </trkpt>
      <trkpt lat="59.289045" lon="18.088237">
        <ele>39</ele>
        <time>2020-01-21T16:45:07Z</time>
      </trkpt>
      <trkpt lat="59.289097" lon="18.088212">
        <ele>39</ele>
        <time>2020-01-21T16:45:07Z</time>
      </trkpt>
      <trkpt lat="59.289147" lon="18.088185">
        <ele>39</ele>
        <time>2020-01-21T16:45:08Z</time>
      </trkpt>
      <trkpt lat="59.289198" lon="18.088159">
        <ele>39</ele>
        <time>2020-01-21T16:45:09Z</time>
      </trkpt>
      <trkpt lat="59.289249" lon="18.088132">
        <ele>38</ele>
        <time>2020-01-21T16:45:10Z</time>
      </trkpt>
      <trkpt lat="59.2893" lon="18.088107">
        <ele>38</ele>
        <time>2020-01-21T16:45:12Z</time>
      </trkpt>
      <trkpt lat="59.289349" lon="18.088082">
        <ele>38</ele>
        <time>2020-01-21T16:45:12Z</time>
      </trkpt>
      <trkpt lat="59.289397" lon="18.088059">
        <ele>38</ele>
        <time>2020-01-21T16:45:13Z</time>
      </trkpt>
      <trkpt lat="59.289446" lon="18.088035">
        <ele>38</ele>
        <time>2020-01-21T16:45:14Z</time>
      </trkpt>
      <trkpt lat="59.289494" lon="18.088012">
        <ele>38</ele>
        <time>2020-01-21T16:45:15Z</time>
      </trkpt>
      <trkpt lat="59.289543" lon="18.087991">
        <ele>38</ele>
        <time>2020-01-21T16:45:16Z</time>
      </trkpt>
      <trkpt lat="59.289592" lon="18.08797">
        <ele>38</ele>
        <time>2020-01-21T16:45:18Z</time>
      </trkpt>
      <trkpt lat="59.28964" lon="18.087946">
        <ele>37</ele>
        <time>2020-01-21T16:45:18Z</time>
      </trkpt>
      <trkpt lat="59.289687" lon="18.08792">
        <ele>37</ele>
        <time>2020-01-21T16:45:19Z</time>
      </trkpt>
      <trkpt lat="59.289735" lon="18.087897">
        <ele>37</ele>
        <time>2020-01-21T16:45:20Z</time>
      </trkpt>
      <trkpt lat="59.289781" lon="18.087872">
        <ele>37</ele>
        <time>2020-01-21T16:45:21Z</time>
      </trkpt>
      <trkpt lat="59.289827" lon="18.087847">
        <ele>38</ele>
        <time>2020-01-21T16:45:22Z</time>
      </trkpt>
      <trkpt lat="59.289872" lon="18.087819">
        <ele>38</ele>
        <time>2020-01-21T16:45:23Z</time>
      </trkpt>
      <trkpt lat="59.289916" lon="18.087793">
        <ele>38</ele>
        <time>2020-01-21T16:45:24Z</time>
      </trkpt>
      <trkpt lat="59.289959" lon="18.087762">
        <ele>38</ele>
        <time>2020-01-21T16:45:25Z</time>
      </trkpt>
      <trkpt lat="59.289999" lon="18.087724">
        <ele>38</ele>
        <time>2020-01-21T16:45:26Z</time>
      </trkpt>
      <trkpt lat="59.290037" lon="18.087682">
        <ele>38</ele>
        <time>2020-01-21T16:45:28Z</time>
      </trkpt>
      <trkpt lat="59.290074" lon="18.087638">
        <ele>38</ele>
        <time>2020-01-21T16:45:28Z</time>
      </trkpt>
      <trkpt lat="59.290113" lon="18.087599">
        <ele>38</ele>
        <time>2020-01-21T16:45:29Z</time>
      </trkpt>
      <trkpt lat="59.290155" lon="18.087565">
        <ele>38</ele>
        <time>2020-01-21T16:45:31Z</time>
      </trkpt>
      <trkpt lat="59.290198" lon="18.087533">
        <ele>38</ele>
        <time>2020-01-21T16:45:31Z</time>
      </trkpt>
      <trkpt lat="59.290241" lon="18.087501">
        <ele>38</ele>
        <time>2020-01-21T16:45:32Z</time>
      </trkpt>
      <trkpt lat="59.290285" lon="18.087468">
        <ele>38</ele>
        <time>2020-01-21T16:45:33Z</time>
      </trkpt>
      <trkpt lat="59.290328" lon="18.087435">
        <ele>38</ele>
        <time>2020-01-21T16:45:34Z</time>
      </trkpt>
      <trkpt lat="59.29037" lon="18.087404">
        <ele>38</ele>
        <time>2020-01-21T16:45:35Z</time>
      </trkpt>
      <trkpt lat="59.290414" lon="18.087373">
        <ele>38</ele>
        <time>2020-01-21T16:45:36Z</time>
      </trkpt>
      <trkpt lat="59.290457" lon="18.087345">
        <ele>39</ele>
        <time>2020-01-21T16:45:37Z</time>
      </trkpt>
      <trkpt lat="59.2905" lon="18.087317">
        <ele>39</ele>
        <time>2020-01-21T16:45:39Z</time>
      </trkpt>
      <trkpt lat="59.290543" lon="18.087288">
        <ele>39</ele>
        <time>2020-01-21T16:45:39Z</time>
      </trkpt>
      <trkpt lat="59.290586" lon="18.087259">
        <ele>39</ele>
        <time>2020-01-21T16:45:40Z</time>
      </trkpt>
      <trkpt lat="59.290628" lon="18.087233">
        <ele>39</ele>
        <time>2020-01-21T16:45:41Z</time>
      </trkpt>
      <trkpt lat="59.290671" lon="18.087209">
        <ele>39</ele>
        <time>2020-01-21T16:45:42Z</time>
      </trkpt>
      <trkpt lat="59.290715" lon="18.087186">
        <ele>39</ele>
        <time>2020-01-21T16:45:43Z</time>
      </trkpt>
      <trkpt lat="59.290758" lon="18.087161">
        <ele>39</ele>
        <time>2020-01-21T16:45:44Z</time>
      </trkpt>
      <trkpt lat="59.290799" lon="18.087138">
        <ele>39</ele>
        <time>2020-01-21T16:45:45Z</time>
      </trkpt>
      <trkpt lat="59.29084" lon="18.087111">
        <ele>39</ele>
        <time>2020-01-21T16:45:46Z</time>
      </trkpt>
      <trkpt lat="59.290882" lon="18.087083">
        <ele>39</ele>
        <time>2020-01-21T16:45:47Z</time>
      </trkpt>
      <trkpt lat="59.290927" lon="18.08706">
        <ele>39</ele>
        <time>2020-01-21T16:45:48Z</time>
      </trkpt>
      <trkpt lat="59.29097" lon="18.087041">
        <ele>39</ele>
        <time>2020-01-21T16:45:50Z</time>
      </trkpt>
      <trkpt lat="59.291011" lon="18.087021">
        <ele>39</ele>
        <time>2020-01-21T16:45:51Z</time>
      </trkpt>
      <trkpt lat="59.29105" lon="18.087005">
        <ele>39</ele>
        <time>2020-01-21T16:45:51Z</time>
      </trkpt>
      <trkpt lat="59.291088" lon="18.086985">
        <ele>39</ele>
        <time>2020-01-21T16:45:52Z</time>
      </trkpt>
      <trkpt lat="59.291125" lon="18.086964">
        <ele>39</ele>
        <time>2020-01-21T16:45:53Z</time>
      </trkpt>
      <trkpt lat="59.291162" lon="18.086941">
        <ele>40</ele>
        <time>2020-01-21T16:45:54Z</time>
      </trkpt>
      <trkpt lat="59.291198" lon="18.086922">
        <ele>40</ele>
        <time>2020-01-21T16:45:55Z</time>
      </trkpt>
      <trkpt lat="59.291236" lon="18.086903">
        <ele>40</ele>
        <time>2020-01-21T16:45:56Z</time>
      </trkpt>
      <trkpt lat="59.291278" lon="18.086883">
        <ele>40</ele>
        <time>2020-01-21T16:45:57Z</time>
      </trkpt>
      <trkpt lat="59.29132" lon="18.086861">
        <ele>40</ele>
        <time>2020-01-21T16:45:58Z</time>
      </trkpt>
      <trkpt lat="59.291362" lon="18.08684">
        <ele>40</ele>
        <time>2020-01-21T16:45:59Z</time>
      </trkpt>
      <trkpt lat="59.291405" lon="18.086818">
        <ele>41</ele>
        <time>2020-01-21T16:46:00Z</time>
      </trkpt>
      <trkpt lat="59.291447" lon="18.086795">
        <ele>41</ele>
        <time>2020-01-21T16:46:01Z</time>
      </trkpt>
      <trkpt lat="59.291489" lon="18.086772">
        <ele>40</ele>
        <time>2020-01-21T16:46:03Z</time>
      </trkpt>
      <trkpt lat="59.291532" lon="18.08675">
        <ele>40</ele>
        <time>2020-01-21T16:46:03Z</time>
      </trkpt>
      <trkpt lat="59.29157" lon="18.086728">
        <ele>40</ele>
        <time>2020-01-21T16:46:04Z</time>
      </trkpt>
      <trkpt lat="59.291606" lon="18.086708">
        <ele>40</ele>
        <time>2020-01-21T16:46:05Z</time>
      </trkpt>
      <trkpt lat="59.291648" lon="18.08669">
        <ele>40</ele>
        <time>2020-01-21T16:46:06Z</time>
      </trkpt>
      <trkpt lat="59.29169" lon="18.08667">
        <ele>40</ele>
        <time>2020-01-21T16:46:07Z</time>
      </trkpt>
      <trkpt lat="59.29173" lon="18.086651">
        <ele>41</ele>
        <time>2020-01-21T16:46:09Z</time>
      </trkpt>
      <trkpt lat="59.291771" lon="18.086631">
        <ele>41</ele>
        <time>2020-01-21T16:46:09Z</time>
      </trkpt>
      <trkpt lat="59.291812" lon="18.086611">
        <ele>41</ele>
        <time>2020-01-21T16:46:10Z</time>
      </trkpt>
      <trkpt lat="59.291851" lon="18.086589">
        <ele>41</ele>
        <time>2020-01-21T16:46:11Z</time>
      </trkpt>
      <trkpt lat="59.291887" lon="18.086566">
        <ele>41</ele>
        <time>2020-01-21T16:46:12Z</time>
      </trkpt>
      <trkpt lat="59.291922" lon="18.086541">
        <ele>41</ele>
        <time>2020-01-21T16:46:13Z</time>
      </trkpt>
      <trkpt lat="59.29196" lon="18.086518">
        <ele>41</ele>
        <time>2020-01-21T16:46:15Z</time>
      </trkpt>
      <trkpt lat="59.291996" lon="18.0865">
        <ele>41</ele>
        <time>2020-01-21T16:46:15Z</time>
      </trkpt>
      <trkpt lat="59.292035" lon="18.086484">
        <ele>41</ele>
        <time>2020-01-21T16:46:16Z</time>
      </trkpt>
      <trkpt lat="59.292076" lon="18.086467">
        <ele>41</ele>
        <time>2020-01-21T16:46:17Z</time>
      </trkpt>
      <trkpt lat="59.292117" lon="18.086451">
        <ele>41</ele>
        <time>2020-01-21T16:46:18Z</time>
      </trkpt>
      <trkpt lat="59.292155" lon="18.086433">
        <ele>41</ele>
        <time>2020-01-21T16:46:19Z</time>
      </trkpt>
      <trkpt lat="59.292192" lon="18.086414">
        <ele>41</ele>
        <time>2020-01-21T16:46:20Z</time>
      </trkpt>
      <trkpt lat="59.292235" lon="18.086391">
        <ele>41</ele>
        <time>2020-01-21T16:46:21Z</time>
      </trkpt>
      <trkpt lat="59.292278" lon="18.086369">
        <ele>41</ele>
        <time>2020-01-21T16:46:22Z</time>
      </trkpt>
      <trkpt lat="59.292317" lon="18.086345">
        <ele>41</ele>
        <time>2020-01-21T16:46:23Z</time>
      </trkpt>
      <trkpt lat="59.292359" lon="18.086325">
        <ele>41</ele>
        <time>2020-01-21T16:46:24Z</time>
      </trkpt>
      <trkpt lat="59.292406" lon="18.086304">
        <ele>42</ele>
        <time>2020-01-21T16:46:26Z</time>
      </trkpt>
      <trkpt lat="59.292455" lon="18.086281">
        <ele>42</ele>
        <time>2020-01-21T16:46:26Z</time>
      </trkpt>
      <trkpt lat="59.292503" lon="18.086254">
        <ele>42</ele>
        <time>2020-01-21T16:46:28Z</time>
      </trkpt>
      <trkpt lat="59.292553" lon="18.08623">
        <ele>42</ele>
        <time>2020-01-21T16:46:28Z</time>
      </trkpt>
      <trkpt lat="59.292605" lon="18.086206">
        <ele>43</ele>
        <time>2020-01-21T16:46:29Z</time>
      </trkpt>
      <trkpt lat="59.292656" lon="18.086183">
        <ele>43</ele>
        <time>2020-01-21T16:46:30Z</time>
      </trkpt>
      <trkpt lat="59.292707" lon="18.086161">
        <ele>43</ele>
        <time>2020-01-21T16:46:31Z</time>
      </trkpt>
      <trkpt lat="59.292757" lon="18.086139">
        <ele>43</ele>
        <time>2020-01-21T16:46:32Z</time>
      </trkpt>
      <trkpt lat="59.292808" lon="18.086118">
        <ele>43</ele>
        <time>2020-01-21T16:46:33Z</time>
      </trkpt>
      <trkpt lat="59.292859" lon="18.086095">
        <ele>43</ele>
        <time>2020-01-21T16:46:34Z</time>
      </trkpt>
      <trkpt lat="59.292909" lon="18.086069">
        <ele>43</ele>
        <time>2020-01-21T16:46:35Z</time>
      </trkpt>
      <trkpt lat="59.292961" lon="18.086045">
        <ele>43</ele>
        <time>2020-01-21T16:46:37Z</time>
      </trkpt>
      <trkpt lat="59.293014" lon="18.086024">
        <ele>44</ele>
        <time>2020-01-21T16:46:37Z</time>
      </trkpt>
      <trkpt lat="59.293066" lon="18.085998">
        <ele>44</ele>
        <time>2020-01-21T16:46:38Z</time>
      </trkpt>
      <trkpt lat="59.293115" lon="18.08597">
        <ele>44</ele>
        <time>2020-01-21T16:46:39Z</time>
      </trkpt>
      <trkpt lat="59.293164" lon="18.085943">
        <ele>44</ele>
        <time>2020-01-21T16:46:40Z</time>
      </trkpt>
      <trkpt lat="59.293213" lon="18.085915">
        <ele>44</ele>
        <time>2020-01-21T16:46:41Z</time>
      </trkpt>
      <trkpt lat="59.29326" lon="18.08589">
        <ele>45</ele>
        <time>2020-01-21T16:46:42Z</time>
      </trkpt>
      <trkpt lat="59.293308" lon="18.085863">
        <ele>45</ele>
        <time>2020-01-21T16:46:43Z</time>
      </trkpt>
      <trkpt lat="59.293354" lon="18.085835">
        <ele>45</ele>
        <time>2020-01-21T16:46:44Z</time>
      </trkpt>
      <trkpt lat="59.2934" lon="18.085808">
        <ele>45</ele>
        <time>2020-01-21T16:46:46Z</time>
      </trkpt>
      <trkpt lat="59.293449" lon="18.085778">
        <ele>45</ele>
        <time>2020-01-21T16:46:47Z</time>
      </trkpt>
      <trkpt lat="59.2935" lon="18.085747">
        <ele>46</ele>
        <time>2020-01-21T16:46:47Z</time>
      </trkpt>
      <trkpt lat="59.293554" lon="18.08572">
        <ele>46</ele>
        <time>2020-01-21T16:46:48Z</time>
      </trkpt>
      <trkpt lat="59.29361" lon="18.085698">
        <ele>46</ele>
        <time>2020-01-21T16:46:49Z</time>
      </trkpt>
      <trkpt lat="59.293662" lon="18.085669">
        <ele>46</ele>
        <time>2020-01-21T16:46:50Z</time>
      </trkpt>
      <trkpt lat="59.293718" lon="18.085646">
        <ele>46</ele>
        <time>2020-01-21T16:46:51Z</time>
      </trkpt>
      <trkpt lat="59.293821" lon="18.085579">
        <ele>46</ele>
        <time>2020-01-21T16:46:53Z</time>
      </trkpt>
      <trkpt lat="59.293934" lon="18.085504">
        <ele>46</ele>
        <time>2020-01-21T16:46:56Z</time>
      </trkpt>
      <trkpt lat="59.294031" lon="18.085443">
        <ele>46</ele>
        <time>2020-01-21T16:46:57Z</time>
      </trkpt>
      <trkpt lat="59.294138" lon="18.085366">
        <ele>46</ele>
        <time>2020-01-21T16:46:59Z</time>
      </trkpt>
      <trkpt lat="59.294224" lon="18.085306">
        <ele>46</ele>
        <time>2020-01-21T16:47:01Z</time>
      </trkpt>
      <trkpt lat="59.294317" lon="18.085224">
        <ele>46</ele>
        <time>2020-01-21T16:47:04Z</time>
      </trkpt>
      <trkpt lat="59.294449" lon="18.085151">
        <ele>46</ele>
        <time>2020-01-21T16:47:06Z</time>
      </trkpt>
      <trkpt lat="59.294541" lon="18.085095">
        <ele>45</ele>
        <time>2020-01-21T16:47:07Z</time>
      </trkpt>
      <trkpt lat="59.294655" lon="18.085022">
        <ele>46</ele>
        <time>2020-01-21T16:47:09Z</time>
      </trkpt>
      <trkpt lat="59.294755" lon="18.084993">
        <ele>47</ele>
        <time>2020-01-21T16:47:11Z</time>
      </trkpt>
      <trkpt lat="59.294859" lon="18.084949">
        <ele>47</ele>
        <time>2020-01-21T16:47:13Z</time>
      </trkpt>
      <trkpt lat="59.294959" lon="18.084891">
        <ele>47</ele>
        <time>2020-01-21T16:47:15Z</time>
      </trkpt>
      <trkpt lat="59.295054" lon="18.084839">
        <ele>47</ele>
        <time>2020-01-21T16:47:17Z</time>
      </trkpt>
      <trkpt lat="59.295154" lon="18.084801">
        <ele>47</ele>
        <time>2020-01-21T16:47:19Z</time>
      </trkpt>
      <trkpt lat="59.295248" lon="18.084742">
        <ele>47</ele>
        <time>2020-01-21T16:47:21Z</time>
      </trkpt>
      <trkpt lat="59.295295" lon="18.084717">
        <ele>47</ele>
        <time>2020-01-21T16:47:23Z</time>
      </trkpt>
      <trkpt lat="59.295342" lon="18.084692">
        <ele>49</ele>
        <time>2020-01-21T16:47:23Z</time>
      </trkpt>
      <trkpt lat="59.295371" lon="18.084584">
        <ele>50</ele>
        <time>2020-01-21T16:47:25Z</time>
      </trkpt>
      <trkpt lat="59.295411" lon="18.084526">
        <ele>50</ele>
        <time>2020-01-21T16:47:25Z</time>
      </trkpt>
      <trkpt lat="59.295458" lon="18.084488">
        <ele>51</ele>
        <time>2020-01-21T16:47:26Z</time>
      </trkpt>
      <trkpt lat="59.295507" lon="18.08445">
        <ele>51</ele>
        <time>2020-01-21T16:47:27Z</time>
      </trkpt>
      <trkpt lat="59.295555" lon="18.084419">
        <ele>51</ele>
        <time>2020-01-21T16:47:28Z</time>
      </trkpt>
      <trkpt lat="59.295605" lon="18.084389">
        <ele>51</ele>
        <time>2020-01-21T16:47:29Z</time>
      </trkpt>
      <trkpt lat="59.295656" lon="18.084361">
        <ele>52</ele>
        <time>2020-01-21T16:47:30Z</time>
      </trkpt>
      <trkpt lat="59.295704" lon="18.084334">
        <ele>52</ele>
        <time>2020-01-21T16:47:32Z</time>
      </trkpt>
      <trkpt lat="59.295754" lon="18.084307">
        <ele>52</ele>
        <time>2020-01-21T16:47:32Z</time>
      </trkpt>
      <trkpt lat="59.295806" lon="18.084279">
        <ele>52</ele>
        <time>2020-01-21T16:47:33Z</time>
      </trkpt>
      <trkpt lat="59.295858" lon="18.084251">
        <ele>52</ele>
        <time>2020-01-21T16:47:34Z</time>
      </trkpt>
      <trkpt lat="59.295907" lon="18.084225">
        <ele>52</ele>
        <time>2020-01-21T16:47:35Z</time>
      </trkpt>
      <trkpt lat="59.295955" lon="18.084197">
        <ele>52</ele>
        <time>2020-01-21T16:47:36Z</time>
      </trkpt>
      <trkpt lat="59.296003" lon="18.084169">
        <ele>53</ele>
        <time>2020-01-21T16:47:37Z</time>
      </trkpt>
      <trkpt lat="59.296052" lon="18.084142">
        <ele>53</ele>
        <time>2020-01-21T16:47:38Z</time>
      </trkpt>
      <trkpt lat="59.296102" lon="18.084117">
        <ele>53</ele>
        <time>2020-01-21T16:47:39Z</time>
      </trkpt>
      <trkpt lat="59.29615" lon="18.08409">
        <ele>53</ele>
        <time>2020-01-21T16:47:40Z</time>
      </trkpt>
      <trkpt lat="59.2962" lon="18.084068">
        <ele>53</ele>
        <time>2020-01-21T16:47:41Z</time>
      </trkpt>
      <trkpt lat="59.296252" lon="18.084054">
        <ele>53</ele>
        <time>2020-01-21T16:47:43Z</time>
      </trkpt>
      <trkpt lat="59.296303" lon="18.08405">
        <ele>53</ele>
        <time>2020-01-21T16:47:44Z</time>
      </trkpt>
      <trkpt lat="59.296354" lon="18.084071">
        <ele>53</ele>
        <time>2020-01-21T16:47:44Z</time>
      </trkpt>
      <trkpt lat="59.296398" lon="18.084129">
        <ele>53</ele>
        <time>2020-01-21T16:47:45Z</time>
      </trkpt>
      <trkpt lat="59.296429" lon="18.084217">
        <ele>53</ele>
        <time>2020-01-21T16:47:46Z</time>
      </trkpt>
      <trkpt lat="59.296448" lon="18.08432">
        <ele>52</ele>
        <time>2020-01-21T16:47:47Z</time>
      </trkpt>
      <trkpt lat="59.296467" lon="18.084422">
        <ele>52</ele>
        <time>2020-01-21T16:47:48Z</time>
      </trkpt>
      <trkpt lat="59.296494" lon="18.08451">
        <ele>51</ele>
        <time>2020-01-21T16:47:49Z</time>
      </trkpt>
      <trkpt lat="59.296531" lon="18.084572">
        <ele>51</ele>
        <time>2020-01-21T16:47:50Z</time>
      </trkpt>
      <trkpt lat="59.296574" lon="18.084605">
        <ele>50</ele>
        <time>2020-01-21T16:47:52Z</time>
      </trkpt>
      <trkpt lat="59.296618" lon="18.084615">
        <ele>50</ele>
        <time>2020-01-21T16:47:52Z</time>
      </trkpt>
      <trkpt lat="59.296662" lon="18.084615">
        <ele>50</ele>
        <time>2020-01-21T16:47:53Z</time>
      </trkpt>
      <trkpt lat="59.296706" lon="18.084617">
        <ele>50</ele>
        <time>2020-01-21T16:47:54Z</time>
      </trkpt>
      <trkpt lat="59.296752" lon="18.084618">
        <ele>50</ele>
        <time>2020-01-21T16:47:55Z</time>
      </trkpt>
      <trkpt lat="59.296798" lon="18.084621">
        <ele>50</ele>
        <time>2020-01-21T16:47:56Z</time>
      </trkpt>
      <trkpt lat="59.296846" lon="18.084624">
        <ele>50</ele>
        <time>2020-01-21T16:47:57Z</time>
      </trkpt>
      <trkpt lat="59.296897" lon="18.084631">
        <ele>49</ele>
        <time>2020-01-21T16:47:58Z</time>
      </trkpt>
      <trkpt lat="59.29695" lon="18.084636">
        <ele>49</ele>
        <time>2020-01-21T16:47:59Z</time>
      </trkpt>
      <trkpt lat="59.297007" lon="18.084635">
        <ele>49</ele>
        <time>2020-01-21T16:48:01Z</time>
      </trkpt>
      <trkpt lat="59.297062" lon="18.084615">
        <ele>49</ele>
        <time>2020-01-21T16:48:02Z</time>
      </trkpt>
      <trkpt lat="59.297114" lon="18.084564">
        <ele>49</ele>
        <time>2020-01-21T16:48:03Z</time>
      </trkpt>
      <trkpt lat="59.297159" lon="18.084486">
        <ele>48</ele>
        <time>2020-01-21T16:48:03Z</time>
      </trkpt>
      <trkpt lat="59.297198" lon="18.084388">
        <ele>48</ele>
        <time>2020-01-21T16:48:04Z</time>
      </trkpt>
      <trkpt lat="59.29723" lon="18.084274">
        <ele>48</ele>
        <time>2020-01-21T16:48:05Z</time>
      </trkpt>
      <trkpt lat="59.297254" lon="18.084148">
        <ele>48</ele>
        <time>2020-01-21T16:48:06Z</time>
      </trkpt>
      <trkpt lat="59.297269" lon="18.084014">
        <ele>48</ele>
        <time>2020-01-21T16:48:07Z</time>
      </trkpt>
      <trkpt lat="59.297276" lon="18.083877">
        <ele>48</ele>
        <time>2020-01-21T16:48:08Z</time>
      </trkpt>
      <trkpt lat="59.297272" lon="18.083744">
        <ele>48</ele>
        <time>2020-01-21T16:48:09Z</time>
      </trkpt>
      <trkpt lat="59.297263" lon="18.08362">
        <ele>48</ele>
        <time>2020-01-21T16:48:11Z</time>
      </trkpt>
      <trkpt lat="59.297264" lon="18.083506">
        <ele>48</ele>
        <time>2020-01-21T16:48:11Z</time>
      </trkpt>
      <trkpt lat="59.297283" lon="18.083405">
        <ele>48</ele>
        <time>2020-01-21T16:48:12Z</time>
      </trkpt>
      <trkpt lat="59.297316" lon="18.083328">
        <ele>48</ele>
        <time>2020-01-21T16:48:13Z</time>
      </trkpt>
      <trkpt lat="59.297361" lon="18.083275">
        <ele>47</ele>
        <time>2020-01-21T16:48:14Z</time>
      </trkpt>
      <trkpt lat="59.297415" lon="18.083236">
        <ele>47</ele>
        <time>2020-01-21T16:48:15Z</time>
      </trkpt>
      <trkpt lat="59.297469" lon="18.083205">
        <ele>47</ele>
        <time>2020-01-21T16:48:16Z</time>
      </trkpt>
      <trkpt lat="59.297524" lon="18.083174">
        <ele>47</ele>
        <time>2020-01-21T16:48:18Z</time>
      </trkpt>
      <trkpt lat="59.297582" lon="18.083141">
        <ele>47</ele>
        <time>2020-01-21T16:48:18Z</time>
      </trkpt>
      <trkpt lat="59.297639" lon="18.083108">
        <ele>47</ele>
        <time>2020-01-21T16:48:19Z</time>
      </trkpt>
      <trkpt lat="59.297697" lon="18.083077">
        <ele>47</ele>
        <time>2020-01-21T16:48:20Z</time>
      </trkpt>
      <trkpt lat="59.297755" lon="18.083057">
        <ele>46</ele>
        <time>2020-01-21T16:48:22Z</time>
      </trkpt>
      <trkpt lat="59.297815" lon="18.083052">
        <ele>46</ele>
        <time>2020-01-21T16:48:22Z</time>
      </trkpt>
      <trkpt lat="59.297878" lon="18.083053">
        <ele>46</ele>
        <time>2020-01-21T16:48:23Z</time>
      </trkpt>
      <trkpt lat="59.29794" lon="18.083046">
        <ele>46</ele>
        <time>2020-01-21T16:48:24Z</time>
      </trkpt>
      <trkpt lat="59.298004" lon="18.083022">
        <ele>46</ele>
        <time>2020-01-21T16:48:25Z</time>
      </trkpt>
      <trkpt lat="59.298069" lon="18.08299">
        <ele>46</ele>
        <time>2020-01-21T16:48:27Z</time>
      </trkpt>
      <trkpt lat="59.298134" lon="18.082955">
        <ele>46</ele>
        <time>2020-01-21T16:48:27Z</time>
      </trkpt>
      <trkpt lat="59.298199" lon="18.082912">
        <ele>46</ele>
        <time>2020-01-21T16:48:28Z</time>
      </trkpt>
      <trkpt lat="59.298264" lon="18.082862">
        <ele>46</ele>
        <time>2020-01-21T16:48:29Z</time>
      </trkpt>
      <trkpt lat="59.298327" lon="18.082807">
        <ele>46</ele>
        <time>2020-01-21T16:48:30Z</time>
      </trkpt>
      <trkpt lat="59.298388" lon="18.082747">
        <ele>46</ele>
        <time>2020-01-21T16:48:31Z</time>
      </trkpt>
      <trkpt lat="59.298447" lon="18.082685">
        <ele>46</ele>
        <time>2020-01-21T16:48:32Z</time>
      </trkpt>
      <trkpt lat="59.298506" lon="18.082624">
        <ele>45</ele>
        <time>2020-01-21T16:48:34Z</time>
      </trkpt>
      <trkpt lat="59.298566" lon="18.082569">
        <ele>45</ele>
        <time>2020-01-21T16:48:34Z</time>
      </trkpt>
      <trkpt lat="59.298627" lon="18.082524">
        <ele>45</ele>
        <time>2020-01-21T16:48:35Z</time>
      </trkpt>
      <trkpt lat="59.29869" lon="18.082485">
        <ele>45</ele>
        <time>2020-01-21T16:48:36Z</time>
      </trkpt>
      <trkpt lat="59.29875" lon="18.082446">
        <ele>45</ele>
        <time>2020-01-21T16:48:37Z</time>
      </trkpt>
      <trkpt lat="59.298812" lon="18.082404">
        <ele>45</ele>
        <time>2020-01-21T16:48:38Z</time>
      </trkpt>
      <trkpt lat="59.298877" lon="18.082361">
        <ele>45</ele>
        <time>2020-01-21T16:48:39Z</time>
      </trkpt>
      <trkpt lat="59.298943" lon="18.082319">
        <ele>45</ele>
        <time>2020-01-21T16:48:41Z</time>
      </trkpt>
      <trkpt lat="59.299011" lon="18.082279">
        <ele>45</ele>
        <time>2020-01-21T16:48:42Z</time>
      </trkpt>
      <trkpt lat="59.299079" lon="18.08225">
        <ele>45</ele>
        <time>2020-01-21T16:48:42Z</time>
      </trkpt>
      <trkpt lat="59.299145" lon="18.082231">
        <ele>45</ele>
        <time>2020-01-21T16:48:43Z</time>
      </trkpt>
      <trkpt lat="59.299209" lon="18.08222">
        <ele>45</ele>
        <time>2020-01-21T16:48:44Z</time>
      </trkpt>
      <trkpt lat="59.299274" lon="18.082219">
        <ele>45</ele>
        <time>2020-01-21T16:48:45Z</time>
      </trkpt>
      <trkpt lat="59.299342" lon="18.082232">
        <ele>45</ele>
        <time>2020-01-21T16:48:46Z</time>
      </trkpt>
      <trkpt lat="59.299406" lon="18.082247">
        <ele>45</ele>
        <time>2020-01-21T16:48:47Z</time>
      </trkpt>
      <trkpt lat="59.29947" lon="18.082235">
        <ele>45</ele>
        <time>2020-01-21T16:48:49Z</time>
      </trkpt>
      <trkpt lat="59.299538" lon="18.082212">
        <ele>45</ele>
        <time>2020-01-21T16:48:49Z</time>
      </trkpt>
      <trkpt lat="59.299607" lon="18.082185">
        <ele>45</ele>
        <time>2020-01-21T16:48:50Z</time>
      </trkpt>
      <trkpt lat="59.299673" lon="18.082157">
        <ele>45</ele>
        <time>2020-01-21T16:48:51Z</time>
      </trkpt>
      <trkpt lat="59.299737" lon="18.082124">
        <ele>45</ele>
        <time>2020-01-21T16:48:52Z</time>
      </trkpt>
      <trkpt lat="59.2998" lon="18.082088">
        <ele>45</ele>
        <time>2020-01-21T16:48:53Z</time>
      </trkpt>
      <trkpt lat="59.299863" lon="18.082051">
        <ele>45</ele>
        <time>2020-01-21T16:48:54Z</time>
      </trkpt>
      <trkpt lat="59.299924" lon="18.082012">
        <ele>45</ele>
        <time>2020-01-21T16:48:55Z</time>
      </trkpt>
      <trkpt lat="59.299985" lon="18.081966">
        <ele>45</ele>
        <time>2020-01-21T16:48:57Z</time>
      </trkpt>
      <trkpt lat="59.300042" lon="18.081917">
        <ele>45</ele>
        <time>2020-01-21T16:48:57Z</time>
      </trkpt>
      <trkpt lat="59.300099" lon="18.081864">
        <ele>45</ele>
        <time>2020-01-21T16:48:58Z</time>
      </trkpt>
      <trkpt lat="59.300157" lon="18.081815">
        <ele>45</ele>
        <time>2020-01-21T16:49:00Z</time>
      </trkpt>
      <trkpt lat="59.300215" lon="18.081774">
        <ele>45</ele>
        <time>2020-01-21T16:49:00Z</time>
      </trkpt>
      <trkpt lat="59.300272" lon="18.081736">
        <ele>45</ele>
        <time>2020-01-21T16:49:01Z</time>
      </trkpt>
      <trkpt lat="59.30033" lon="18.081697">
        <ele>45</ele>
        <time>2020-01-21T16:49:02Z</time>
      </trkpt>
      <trkpt lat="59.300389" lon="18.081654">
        <ele>45</ele>
        <time>2020-01-21T16:49:04Z</time>
      </trkpt>
      <trkpt lat="59.300449" lon="18.081615">
        <ele>45</ele>
        <time>2020-01-21T16:49:04Z</time>
      </trkpt>
      <trkpt lat="59.300508" lon="18.081576">
        <ele>45</ele>
        <time>2020-01-21T16:49:05Z</time>
      </trkpt>
      <trkpt lat="59.300566" lon="18.081535">
        <ele>45</ele>
        <time>2020-01-21T16:49:06Z</time>
      </trkpt>
      <trkpt lat="59.300625" lon="18.08149">
        <ele>45</ele>
        <time>2020-01-21T16:49:07Z</time>
      </trkpt>
      <trkpt lat="59.300685" lon="18.081444">
        <ele>45</ele>
        <time>2020-01-21T16:49:08Z</time>
      </trkpt>
      <trkpt lat="59.300748" lon="18.081394">
        <ele>45</ele>
        <time>2020-01-21T16:49:09Z</time>
      </trkpt>
      <trkpt lat="59.300809" lon="18.081345">
        <ele>45</ele>
        <time>2020-01-21T16:49:10Z</time>
      </trkpt>
      <trkpt lat="59.300868" lon="18.081291">
        <ele>45</ele>
        <time>2020-01-21T16:49:11Z</time>
      </trkpt>
      <trkpt lat="59.300928" lon="18.081232">
        <ele>45</ele>
        <time>2020-01-21T16:49:13Z</time>
      </trkpt>
      <trkpt lat="59.300988" lon="18.08117">
        <ele>45</ele>
        <time>2020-01-21T16:49:13Z</time>
      </trkpt>
      <trkpt lat="59.301046" lon="18.08111">
        <ele>45</ele>
        <time>2020-01-21T16:49:14Z</time>
      </trkpt>
      <trkpt lat="59.301105" lon="18.081049">
        <ele>45</ele>
        <time>2020-01-21T16:49:15Z</time>
      </trkpt>
      <trkpt lat="59.301164" lon="18.080991">
        <ele>46</ele>
        <time>2020-01-21T16:49:16Z</time>
      </trkpt>
      <trkpt lat="59.301225" lon="18.080932">
        <ele>46</ele>
        <time>2020-01-21T16:49:17Z</time>
      </trkpt>
      <trkpt lat="59.301283" lon="18.080876">
        <ele>46</ele>
        <time>2020-01-21T16:49:19Z</time>
      </trkpt>
      <trkpt lat="59.301342" lon="18.080823">
        <ele>46</ele>
        <time>2020-01-21T16:49:20Z</time>
      </trkpt>
      <trkpt lat="59.301403" lon="18.080771">
        <ele>46</ele>
        <time>2020-01-21T16:49:20Z</time>
      </trkpt>
      <trkpt lat="59.301464" lon="18.08072">
        <ele>46</ele>
        <time>2020-01-21T16:49:21Z</time>
      </trkpt>
      <trkpt lat="59.301526" lon="18.080671">
        <ele>46</ele>
        <time>2020-01-21T16:49:22Z</time>
      </trkpt>
      <trkpt lat="59.301587" lon="18.080622">
        <ele>46</ele>
        <time>2020-01-21T16:49:23Z</time>
      </trkpt>
      <trkpt lat="59.301646" lon="18.080572">
        <ele>46</ele>
        <time>2020-01-21T16:49:24Z</time>
      </trkpt>
      <trkpt lat="59.301706" lon="18.080522">
        <ele>45</ele>
        <time>2020-01-21T16:49:25Z</time>
      </trkpt>
      <trkpt lat="59.301766" lon="18.080474">
        <ele>45</ele>
        <time>2020-01-21T16:49:26Z</time>
      </trkpt>
      <trkpt lat="59.301827" lon="18.080428">
        <ele>45</ele>
        <time>2020-01-21T16:49:28Z</time>
      </trkpt>
      <trkpt lat="59.301888" lon="18.080386">
        <ele>44</ele>
        <time>2020-01-21T16:49:28Z</time>
      </trkpt>
      <trkpt lat="59.301949" lon="18.080345">
        <ele>44</ele>
        <time>2020-01-21T16:49:29Z</time>
      </trkpt>
      <trkpt lat="59.30201" lon="18.080304">
        <ele>44</ele>
        <time>2020-01-21T16:49:30Z</time>
      </trkpt>
      <trkpt lat="59.302072" lon="18.080262">
        <ele>43</ele>
        <time>2020-01-21T16:49:31Z</time>
      </trkpt>
      <trkpt lat="59.302135" lon="18.080223">
        <ele>43</ele>
        <time>2020-01-21T16:49:32Z</time>
      </trkpt>
      <trkpt lat="59.302198" lon="18.080186">
        <ele>43</ele>
        <time>2020-01-21T16:49:33Z</time>
      </trkpt>
      <trkpt lat="59.302263" lon="18.08015">
        <ele>43</ele>
        <time>2020-01-21T16:49:35Z</time>
      </trkpt>
      <trkpt lat="59.302327" lon="18.080112">
        <ele>43</ele>
        <time>2020-01-21T16:49:35Z</time>
      </trkpt>
      <trkpt lat="59.302393" lon="18.080072">
        <ele>43</ele>
        <time>2020-01-21T16:49:36Z</time>
      </trkpt>
      <trkpt lat="59.302459" lon="18.080031">
        <ele>42</ele>
        <time>2020-01-21T16:49:38Z</time>
      </trkpt>
      <trkpt lat="59.302525" lon="18.079988">
        <ele>42</ele>
        <time>2020-01-21T16:49:38Z</time>
      </trkpt>
      <trkpt lat="59.302591" lon="18.079944">
        <ele>42</ele>
        <time>2020-01-21T16:49:39Z</time>
      </trkpt>
      <trkpt lat="59.302656" lon="18.079902">
        <ele>42</ele>
        <time>2020-01-21T16:49:40Z</time>
      </trkpt>
      <trkpt lat="59.302723" lon="18.079859">
        <ele>42</ele>
        <time>2020-01-21T16:49:41Z</time>
      </trkpt>
      <trkpt lat="59.30279" lon="18.079818">
        <ele>42</ele>
        <time>2020-01-21T16:49:43Z</time>
      </trkpt>
      <trkpt lat="59.302856" lon="18.079776">
        <ele>42</ele>
        <time>2020-01-21T16:49:43Z</time>
      </trkpt>
      <trkpt lat="59.302922" lon="18.079734">
        <ele>42</ele>
        <time>2020-01-21T16:49:44Z</time>
      </trkpt>
      <trkpt lat="59.302987" lon="18.07969">
        <ele>42</ele>
        <time>2020-01-21T16:49:45Z</time>
      </trkpt>
      <trkpt lat="59.303053" lon="18.079648">
        <ele>41</ele>
        <time>2020-01-21T16:49:46Z</time>
      </trkpt>
      <trkpt lat="59.30312" lon="18.079609">
        <ele>41</ele>
        <time>2020-01-21T16:49:47Z</time>
      </trkpt>
      <trkpt lat="59.303186" lon="18.079569">
        <ele>41</ele>
        <time>2020-01-21T16:49:49Z</time>
      </trkpt>
      <trkpt lat="59.303253" lon="18.079527">
        <ele>41</ele>
        <time>2020-01-21T16:49:49Z</time>
      </trkpt>
      <trkpt lat="59.30332" lon="18.079484">
        <ele>41</ele>
        <time>2020-01-21T16:49:50Z</time>
      </trkpt>
      <trkpt lat="59.303388" lon="18.079442">
        <ele>41</ele>
        <time>2020-01-21T16:49:51Z</time>
      </trkpt>
      <trkpt lat="59.303457" lon="18.079399">
        <ele>41</ele>
        <time>2020-01-21T16:49:52Z</time>
      </trkpt>
      <trkpt lat="59.303526" lon="18.079356">
        <ele>41</ele>
        <time>2020-01-21T16:49:53Z</time>
      </trkpt>
      <trkpt lat="59.303596" lon="18.079312">
        <ele>41</ele>
        <time>2020-01-21T16:49:54Z</time>
      </trkpt>
      <trkpt lat="59.303666" lon="18.079264">
        <ele>41</ele>
        <time>2020-01-21T16:49:55Z</time>
      </trkpt>
      <trkpt lat="59.303736" lon="18.079216">
        <ele>0</ele>
        <time>2020-01-21T16:49:56Z</time>
      </trkpt>
      <trkpt lat="59.303808" lon="18.079168">
        <ele>40</ele>
        <time>2020-01-21T16:49:57Z</time>
      </trkpt>
      <trkpt lat="59.303881" lon="18.079123">
        <ele>40</ele>
        <time>2020-01-21T16:49:58Z</time>
      </trkpt>
      <trkpt lat="59.303955" lon="18.079079">
        <ele>40</ele>
        <time>2020-01-21T16:49:59Z</time>
      </trkpt>
      <trkpt lat="59.304029" lon="18.079035">
        <ele>39</ele>
        <time>2020-01-21T16:50:00Z</time>
      </trkpt>
      <trkpt lat="59.304104" lon="18.078989">
        <ele>39</ele>
        <time>2020-01-21T16:50:01Z</time>
      </trkpt>
      <trkpt lat="59.30418" lon="18.078942">
        <ele>39</ele>
        <time>2020-01-21T16:50:03Z</time>
      </trkpt>
      <trkpt lat="59.304256" lon="18.078894">
        <ele>38</ele>
        <time>2020-01-21T16:50:03Z</time>
      </trkpt>
      <trkpt lat="59.304332" lon="18.078847">
        <ele>38</ele>
        <time>2020-01-21T16:50:04Z</time>
      </trkpt>
      <trkpt lat="59.30441" lon="18.078798">
        <ele>37</ele>
        <time>2020-01-21T16:50:05Z</time>
      </trkpt>
      <trkpt lat="59.304488" lon="18.078748">
        <ele>37</ele>
        <time>2020-01-21T16:50:06Z</time>
      </trkpt>
      <trkpt lat="59.304568" lon="18.078698">
        <ele>36</ele>
        <time>2020-01-21T16:50:08Z</time>
      </trkpt>
      <trkpt lat="59.304648" lon="18.078645">
        <ele>36</ele>
        <time>2020-01-21T16:50:08Z</time>
      </trkpt>
      <trkpt lat="59.30473" lon="18.078591">
        <ele>36</ele>
        <time>2020-01-21T16:50:09Z</time>
      </trkpt>
      <trkpt lat="59.304812" lon="18.078538">
        <ele>36</ele>
        <time>2020-01-21T16:50:10Z</time>
      </trkpt>
      <trkpt lat="59.304894" lon="18.078485">
        <ele>35</ele>
        <time>2020-01-21T16:50:11Z</time>
      </trkpt>
      <trkpt lat="59.304979" lon="18.078432">
        <ele>35</ele>
        <time>2020-01-21T16:50:12Z</time>
      </trkpt>
      <trkpt lat="59.305062" lon="18.078378">
        <ele>34</ele>
        <time>2020-01-21T16:50:13Z</time>
      </trkpt>
      <trkpt lat="59.305148" lon="18.078322">
        <ele>34</ele>
        <time>2020-01-21T16:50:15Z</time>
      </trkpt>
      <trkpt lat="59.305232" lon="18.078269">
        <ele>33</ele>
        <time>2020-01-21T16:50:16Z</time>
      </trkpt>
      <trkpt lat="59.305316" lon="18.078218">
        <ele>33</ele>
        <time>2020-01-21T16:50:16Z</time>
      </trkpt>
      <trkpt lat="59.3054" lon="18.078169">
        <ele>33</ele>
        <time>2020-01-21T16:50:17Z</time>
      </trkpt>
      <trkpt lat="59.305484" lon="18.078119">
        <ele>32</ele>
        <time>2020-01-21T16:50:18Z</time>
      </trkpt>
      <trkpt lat="59.305566" lon="18.078069">
        <ele>32</ele>
        <time>2020-01-21T16:50:19Z</time>
      </trkpt>
      <trkpt lat="59.305645" lon="18.07802">
        <ele>32</ele>
        <time>2020-01-21T16:50:21Z</time>
      </trkpt>
      <trkpt lat="59.305722" lon="18.077971">
        <ele>31</ele>
        <time>2020-01-21T16:50:21Z</time>
      </trkpt>
      <trkpt lat="59.305798" lon="18.077923">
        <ele>31</ele>
        <time>2020-01-21T16:50:22Z</time>
      </trkpt>
      <trkpt lat="59.305871" lon="18.077877">
        <ele>30</ele>
        <time>2020-01-21T16:50:23Z</time>
      </trkpt>
      <trkpt lat="59.305944" lon="18.077832">
        <ele>30</ele>
        <time>2020-01-21T16:50:24Z</time>
      </trkpt>
      <trkpt lat="59.306014" lon="18.077787">
        <ele>30</ele>
        <time>2020-01-21T16:50:26Z</time>
      </trkpt>
      <trkpt lat="59.306085" lon="18.077739">
        <ele>30</ele>
        <time>2020-01-21T16:50:26Z</time>
      </trkpt>
      <trkpt lat="59.306154" lon="18.07769">
        <ele>30</ele>
        <time>2020-01-21T16:50:27Z</time>
      </trkpt>
      <trkpt lat="59.306226" lon="18.077639">
        <ele>29</ele>
        <time>2020-01-21T16:50:28Z</time>
      </trkpt>
      <trkpt lat="59.306299" lon="18.077586">
        <ele>29</ele>
        <time>2020-01-21T16:50:29Z</time>
      </trkpt>
      <trkpt lat="59.306372" lon="18.07753">
        <ele>29</ele>
        <time>2020-01-21T16:50:30Z</time>
      </trkpt>
      <trkpt lat="59.306445" lon="18.077472">
        <ele>29</ele>
        <time>2020-01-21T16:50:31Z</time>
      </trkpt>
      <trkpt lat="59.306516" lon="18.077414">
        <ele>28</ele>
        <time>2020-01-21T16:50:32Z</time>
      </trkpt>
      <trkpt lat="59.306589" lon="18.077365">
        <ele>28</ele>
        <time>2020-01-21T16:50:34Z</time>
      </trkpt>
      <trkpt lat="59.306664" lon="18.077325">
        <ele>28</ele>
        <time>2020-01-21T16:50:35Z</time>
      </trkpt>
      <trkpt lat="59.306739" lon="18.07729">
        <ele>28</ele>
        <time>2020-01-21T16:50:35Z</time>
      </trkpt>
      <trkpt lat="59.306811" lon="18.077255">
        <ele>29</ele>
        <time>2020-01-21T16:50:36Z</time>
      </trkpt>
      <trkpt lat="59.306884" lon="18.077216">
        <ele>29</ele>
        <time>2020-01-21T16:50:37Z</time>
      </trkpt>
      <trkpt lat="59.306954" lon="18.07718">
        <ele>29</ele>
        <time>2020-01-21T16:50:38Z</time>
      </trkpt>
      <trkpt lat="59.307021" lon="18.077144">
        <ele>29</ele>
        <time>2020-01-21T16:50:40Z</time>
      </trkpt>
      <trkpt lat="59.307088" lon="18.07711">
        <ele>29</ele>
        <time>2020-01-21T16:50:40Z</time>
      </trkpt>
      <trkpt lat="59.307149" lon="18.077075">
        <ele>29</ele>
        <time>2020-01-21T16:50:41Z</time>
      </trkpt>
      <trkpt lat="59.307208" lon="18.077043">
        <ele>29</ele>
        <time>2020-01-21T16:50:42Z</time>
      </trkpt>
      <trkpt lat="59.307264" lon="18.077009">
        <ele>29</ele>
        <time>2020-01-21T16:50:43Z</time>
      </trkpt>
      <trkpt lat="59.307316" lon="18.076979">
        <ele>29</ele>
        <time>2020-01-21T16:50:44Z</time>
      </trkpt>
      <trkpt lat="59.307368" lon="18.07695">
        <ele>29</ele>
        <time>2020-01-21T16:50:45Z</time>
      </trkpt>
      <trkpt lat="59.307412" lon="18.076918">
        <ele>29</ele>
        <time>2020-01-21T16:50:46Z</time>
      </trkpt>
      <trkpt lat="59.307464" lon="18.076883">
        <ele>31</ele>
        <time>2020-01-21T16:50:47Z</time>
      </trkpt>
      <trkpt lat="59.307509" lon="18.076855">
        <ele>33</ele>
        <time>2020-01-21T16:50:49Z</time>
      </trkpt>
      <trkpt lat="59.307542" lon="18.076837">
        <ele>33</ele>
        <time>2020-01-21T16:50:49Z</time>
      </trkpt>
      <trkpt lat="59.307567" lon="18.076823">
        <ele>33</ele>
        <time>2020-01-21T16:50:50Z</time>
      </trkpt>
      <trkpt lat="59.307584" lon="18.076814">
        <ele>34</ele>
        <time>2020-01-21T16:50:51Z</time>
      </trkpt>
      <trkpt lat="59.307604" lon="18.076806">
        <ele>34</ele>
        <time>2020-01-21T16:50:54Z</time>
      </trkpt>
      <trkpt lat="59.307606" lon="18.076805">
        <ele>34</ele>
        <time>2020-01-21T16:50:56Z</time>
      </trkpt>
      <trkpt lat="59.307633" lon="18.07679">
        <ele>34</ele>
        <time>2020-01-21T16:51:20Z</time>
      </trkpt>
      <trkpt lat="59.30766" lon="18.076777">
        <ele>34</ele>
        <time>2020-01-21T16:51:20Z</time>
      </trkpt>
      <trkpt lat="59.307694" lon="18.076765">
        <ele>34</ele>
        <time>2020-01-21T16:51:21Z</time>
      </trkpt>
      <trkpt lat="59.307733" lon="18.076743">
        <ele>34</ele>
        <time>2020-01-21T16:51:22Z</time>
      </trkpt>
      <trkpt lat="59.307774" lon="18.076713">
        <ele>34</ele>
        <time>2020-01-21T16:51:23Z</time>
      </trkpt>
      <trkpt lat="59.307821" lon="18.07668">
        <ele>34</ele>
        <time>2020-01-21T16:51:24Z</time>
      </trkpt>
      <trkpt lat="59.30787" lon="18.076646">
        <ele>34</ele>
        <time>2020-01-21T16:51:25Z</time>
      </trkpt>
      <trkpt lat="59.307921" lon="18.076604">
        <ele>34</ele>
        <time>2020-01-21T16:51:26Z</time>
      </trkpt>
      <trkpt lat="59.307972" lon="18.076564">
        <ele>34</ele>
        <time>2020-01-21T16:51:27Z</time>
      </trkpt>
      <trkpt lat="59.308025" lon="18.076532">
        <ele>34</ele>
        <time>2020-01-21T16:51:29Z</time>
      </trkpt>
      <trkpt lat="59.308077" lon="18.076503">
        <ele>34</ele>
        <time>2020-01-21T16:51:29Z</time>
      </trkpt>
      <trkpt lat="59.308127" lon="18.076468">
        <ele>34</ele>
        <time>2020-01-21T16:51:30Z</time>
      </trkpt>
      <trkpt lat="59.308178" lon="18.076424">
        <ele>34</ele>
        <time>2020-01-21T16:51:31Z</time>
      </trkpt>
      <trkpt lat="59.308232" lon="18.076385">
        <ele>34</ele>
        <time>2020-01-21T16:51:32Z</time>
      </trkpt>
      <trkpt lat="59.30829" lon="18.076345">
        <ele>34</ele>
        <time>2020-01-21T16:51:33Z</time>
      </trkpt>
      <trkpt lat="59.308352" lon="18.076305">
        <ele>35</ele>
        <time>2020-01-21T16:51:34Z</time>
      </trkpt>
      <trkpt lat="59.308415" lon="18.076269">
        <ele>35</ele>
        <time>2020-01-21T16:51:35Z</time>
      </trkpt>
      <trkpt lat="59.308478" lon="18.076237">
        <ele>35</ele>
        <time>2020-01-21T16:51:36Z</time>
      </trkpt>
      <trkpt lat="59.308537" lon="18.07621">
        <ele>35</ele>
        <time>2020-01-21T16:51:38Z</time>
      </trkpt>
      <trkpt lat="59.308595" lon="18.076185">
        <ele>35</ele>
        <time>2020-01-21T16:51:39Z</time>
      </trkpt>
      <trkpt lat="59.30866" lon="18.076164">
        <ele>35</ele>
        <time>2020-01-21T16:51:39Z</time>
      </trkpt>
      <trkpt lat="59.308722" lon="18.076129">
        <ele>35</ele>
        <time>2020-01-21T16:51:40Z</time>
      </trkpt>
      <trkpt lat="59.308782" lon="18.076089">
        <ele>35</ele>
        <time>2020-01-21T16:51:41Z</time>
      </trkpt>
      <trkpt lat="59.308843" lon="18.076057">
        <ele>35</ele>
        <time>2020-01-21T16:51:42Z</time>
      </trkpt>
      <trkpt lat="59.308902" lon="18.076023">
        <ele>35</ele>
        <time>2020-01-21T16:51:43Z</time>
      </trkpt>
      <trkpt lat="59.308961" lon="18.075993">
        <ele>35</ele>
        <time>2020-01-21T16:51:44Z</time>
      </trkpt>
      <trkpt lat="59.309023" lon="18.075963">
        <ele>35</ele>
        <time>2020-01-21T16:51:46Z</time>
      </trkpt>
      <trkpt lat="59.309074" lon="18.07592">
        <ele>34</ele>
        <time>2020-01-21T16:51:46Z</time>
      </trkpt>
      <trkpt lat="59.309128" lon="18.075875">
        <ele>35</ele>
        <time>2020-01-21T16:51:47Z</time>
      </trkpt>
      <trkpt lat="59.309189" lon="18.07584">
        <ele>35</ele>
        <time>2020-01-21T16:51:48Z</time>
      </trkpt>
      <trkpt lat="59.309249" lon="18.075804">
        <ele>35</ele>
        <time>2020-01-21T16:51:49Z</time>
      </trkpt>
      <trkpt lat="59.309313" lon="18.075769">
        <ele>35</ele>
        <time>2020-01-21T16:51:50Z</time>
      </trkpt>
      <trkpt lat="59.309371" lon="18.075719">
        <ele>35</ele>
        <time>2020-01-21T16:51:51Z</time>
      </trkpt>
      <trkpt lat="59.309437" lon="18.075687">
        <ele>35</ele>
        <time>2020-01-21T16:51:53Z</time>
      </trkpt>
      <trkpt lat="59.309495" lon="18.075643">
        <ele>35</ele>
        <time>2020-01-21T16:51:53Z</time>
      </trkpt>
      <trkpt lat="59.309557" lon="18.07558">
        <ele>36</ele>
        <time>2020-01-21T16:51:54Z</time>
      </trkpt>
      <trkpt lat="59.309618" lon="18.075509">
        <ele>36</ele>
        <time>2020-01-21T16:51:56Z</time>
      </trkpt>
      <trkpt lat="59.309678" lon="18.075453">
        <ele>36</ele>
        <time>2020-01-21T16:51:56Z</time>
      </trkpt>
      <trkpt lat="59.309742" lon="18.075406">
        <ele>35</ele>
        <time>2020-01-21T16:51:58Z</time>
      </trkpt>
      <trkpt lat="59.30982" lon="18.075382">
        <ele>37</ele>
        <time>2020-01-21T16:51:58Z</time>
      </trkpt>
      <trkpt lat="59.309893" lon="18.075351">
        <ele>37</ele>
        <time>2020-01-21T16:52:00Z</time>
      </trkpt>
      <trkpt lat="59.309962" lon="18.075322">
        <ele>37</ele>
        <time>2020-01-21T16:52:00Z</time>
      </trkpt>
      <trkpt lat="59.310027" lon="18.075283">
        <ele>37</ele>
        <time>2020-01-21T16:52:01Z</time>
      </trkpt>
      <trkpt lat="59.310091" lon="18.075247">
        <ele>37</ele>
        <time>2020-01-21T16:52:02Z</time>
      </trkpt>
      <trkpt lat="59.310156" lon="18.075212">
        <ele>37</ele>
        <time>2020-01-21T16:52:03Z</time>
      </trkpt>
      <trkpt lat="59.310221" lon="18.075184">
        <ele>36</ele>
        <time>2020-01-21T16:52:04Z</time>
      </trkpt>
      <trkpt lat="59.310284" lon="18.075147">
        <ele>36</ele>
        <time>2020-01-21T16:52:05Z</time>
      </trkpt>
      <trkpt lat="59.310348" lon="18.075113">
        <ele>36</ele>
        <time>2020-01-21T16:52:06Z</time>
      </trkpt>
      <trkpt lat="59.310413" lon="18.075082">
        <ele>36</ele>
        <time>2020-01-21T16:52:08Z</time>
      </trkpt>
      <trkpt lat="59.31049" lon="18.075072">
        <ele>39</ele>
        <time>2020-01-21T16:52:08Z</time>
      </trkpt>
      <trkpt lat="59.310564" lon="18.075077">
        <ele>39</ele>
        <time>2020-01-21T16:52:09Z</time>
      </trkpt>
      <trkpt lat="59.310627" lon="18.075037">
        <ele>39</ele>
        <time>2020-01-21T16:52:10Z</time>
      </trkpt>
      <trkpt lat="59.310692" lon="18.074993">
        <ele>40</ele>
        <time>2020-01-21T16:52:11Z</time>
      </trkpt>
      <trkpt lat="59.31075" lon="18.07494">
        <ele>40</ele>
        <time>2020-01-21T16:52:12Z</time>
      </trkpt>
      <trkpt lat="59.31081" lon="18.074891">
        <ele>40</ele>
        <time>2020-01-21T16:52:13Z</time>
      </trkpt>
      <trkpt lat="59.310868" lon="18.074833">
        <ele>41</ele>
        <time>2020-01-21T16:52:15Z</time>
      </trkpt>
      <trkpt lat="59.310928" lon="18.074788">
        <ele>41</ele>
        <time>2020-01-21T16:52:15Z</time>
      </trkpt>
      <trkpt lat="59.310991" lon="18.074743">
        <ele>41</ele>
        <time>2020-01-21T16:52:17Z</time>
      </trkpt>
      <trkpt lat="59.311053" lon="18.074709">
        <ele>42</ele>
        <time>2020-01-21T16:52:17Z</time>
      </trkpt>
      <trkpt lat="59.311116" lon="18.074682">
        <ele>42</ele>
        <time>2020-01-21T16:52:18Z</time>
      </trkpt>
      <trkpt lat="59.31118" lon="18.074655">
        <ele>43</ele>
        <time>2020-01-21T16:52:19Z</time>
      </trkpt>
      <trkpt lat="59.31124" lon="18.074629">
        <ele>44</ele>
        <time>2020-01-21T16:52:20Z</time>
      </trkpt>
      <trkpt lat="59.311291" lon="18.074587">
        <ele>44</ele>
        <time>2020-01-21T16:52:21Z</time>
      </trkpt>
      <trkpt lat="59.311337" lon="18.07454">
        <ele>45</ele>
        <time>2020-01-21T16:52:23Z</time>
      </trkpt>
      <trkpt lat="59.311393" lon="18.074508">
        <ele>45</ele>
        <time>2020-01-21T16:52:23Z</time>
      </trkpt>
      <trkpt lat="59.311455" lon="18.074488">
        <ele>45</ele>
        <time>2020-01-21T16:52:24Z</time>
      </trkpt>
      <trkpt lat="59.311538" lon="18.074497">
        <ele>46</ele>
        <time>2020-01-21T16:52:25Z</time>
      </trkpt>
      <trkpt lat="59.311619" lon="18.074519">
        <ele>47</ele>
        <time>2020-01-21T16:52:26Z</time>
      </trkpt>
      <trkpt lat="59.311677" lon="18.074498">
        <ele>47</ele>
        <time>2020-01-21T16:52:27Z</time>
      </trkpt>
      <trkpt lat="59.311733" lon="18.074465">
        <ele>47</ele>
        <time>2020-01-21T16:52:28Z</time>
      </trkpt>
      <trkpt lat="59.311789" lon="18.074444">
        <ele>47</ele>
        <time>2020-01-21T16:52:29Z</time>
      </trkpt>
      <trkpt lat="59.311849" lon="18.074422">
        <ele>47</ele>
        <time>2020-01-21T16:52:30Z</time>
      </trkpt>
      <trkpt lat="59.311907" lon="18.074402">
        <ele>47</ele>
        <time>2020-01-21T16:52:32Z</time>
      </trkpt>
      <trkpt lat="59.311967" lon="18.07435">
        <ele>47</ele>
        <time>2020-01-21T16:52:32Z</time>
      </trkpt>
      <trkpt lat="59.312036" lon="18.074297">
        <ele>47</ele>
        <time>2020-01-21T16:52:33Z</time>
      </trkpt>
      <trkpt lat="59.312094" lon="18.074251">
        <ele>47</ele>
        <time>2020-01-21T16:52:34Z</time>
      </trkpt>
      <trkpt lat="59.312147" lon="18.074206">
        <ele>48</ele>
        <time>2020-01-21T16:52:36Z</time>
      </trkpt>
      <trkpt lat="59.3122" lon="18.07417">
        <ele>48</ele>
        <time>2020-01-21T16:52:36Z</time>
      </trkpt>
      <trkpt lat="59.312247" lon="18.074149">
        <ele>48</ele>
        <time>2020-01-21T16:52:37Z</time>
      </trkpt>
      <trkpt lat="59.312286" lon="18.074122">
        <ele>48</ele>
        <time>2020-01-21T16:52:39Z</time>
      </trkpt>
      <trkpt lat="59.312327" lon="18.074107">
        <ele>48</ele>
        <time>2020-01-21T16:52:39Z</time>
      </trkpt>
      <trkpt lat="59.312368" lon="18.074085">
        <ele>48</ele>
        <time>2020-01-21T16:52:40Z</time>
      </trkpt>
      <trkpt lat="59.312404" lon="18.074064">
        <ele>48</ele>
        <time>2020-01-21T16:52:41Z</time>
      </trkpt>
      <trkpt lat="59.31244" lon="18.074044">
        <ele>48</ele>
        <time>2020-01-21T16:52:42Z</time>
      </trkpt>
      <trkpt lat="59.312472" lon="18.074025">
        <ele>49</ele>
        <time>2020-01-21T16:52:43Z</time>
      </trkpt>
      <trkpt lat="59.312504" lon="18.074003">
        <ele>49</ele>
        <time>2020-01-21T16:52:44Z</time>
      </trkpt>
      <trkpt lat="59.312534" lon="18.073983">
        <ele>50</ele>
        <time>2020-01-21T16:52:45Z</time>
      </trkpt>
      <trkpt lat="59.312563" lon="18.073963">
        <ele>50</ele>
        <time>2020-01-21T16:52:46Z</time>
      </trkpt>
      <trkpt lat="59.312586" lon="18.073944">
        <ele>50</ele>
        <time>2020-01-21T16:52:47Z</time>
      </trkpt>
      <trkpt lat="59.312603" lon="18.073931">
        <ele>50</ele>
        <time>2020-01-21T16:52:48Z</time>
      </trkpt>
      <trkpt lat="59.312616" lon="18.0739">
        <ele>51</ele>
        <time>2020-01-21T16:52:51Z</time>
      </trkpt>
      <trkpt lat="59.312606" lon="18.073848">
        <ele>51</ele>
        <time>2020-01-21T16:52:55Z</time>
      </trkpt>
      <trkpt lat="59.312596" lon="18.073786">
        <ele>50</ele>
        <time>2020-01-21T16:52:56Z</time>
      </trkpt>
      <trkpt lat="59.312589" lon="18.073749">
        <ele>48</ele>
        <time>2020-01-21T16:52:58Z</time>
      </trkpt>
      <trkpt lat="59.312614" lon="18.07371">
        <ele>48</ele>
        <time>2020-01-21T16:53:01Z</time>
      </trkpt>
      <trkpt lat="59.312644" lon="18.073687">
        <ele>48</ele>
        <time>2020-01-21T16:53:03Z</time>
      </trkpt>
      <trkpt lat="59.312673" lon="18.073653">
        <ele>47</ele>
        <time>2020-01-21T16:53:05Z</time>
      </trkpt>
      <trkpt lat="59.312702" lon="18.073639">
        <ele>47</ele>
        <time>2020-01-21T16:53:07Z</time>
      </trkpt>
      <trkpt lat="59.31275" lon="18.073652">
        <ele>50</ele>
        <time>2020-01-21T16:53:07Z</time>
      </trkpt>
      <trkpt lat="59.312818" lon="18.073697">
        <ele>51</ele>
        <time>2020-01-21T16:53:08Z</time>
      </trkpt>
      <trkpt lat="59.312871" lon="18.073712">
        <ele>52</ele>
        <time>2020-01-21T16:53:09Z</time>
      </trkpt>
      <trkpt lat="59.312922" lon="18.073713">
        <ele>52</ele>
        <time>2020-01-21T16:53:10Z</time>
      </trkpt>
      <trkpt lat="59.31296" lon="18.07367">
        <ele>52</ele>
        <time>2020-01-21T16:53:11Z</time>
      </trkpt>
      <trkpt lat="59.312994" lon="18.073626">
        <ele>52</ele>
        <time>2020-01-21T16:53:12Z</time>
      </trkpt>
      <trkpt lat="59.313046" lon="18.073608">
        <ele>52</ele>
        <time>2020-01-21T16:53:14Z</time>
      </trkpt>
      <trkpt lat="59.313103" lon="18.073594">
        <ele>52</ele>
        <time>2020-01-21T16:53:15Z</time>
      </trkpt>
      <trkpt lat="59.313155" lon="18.073575">
        <ele>52</ele>
        <time>2020-01-21T16:53:15Z</time>
      </trkpt>
      <trkpt lat="59.313201" lon="18.073553">
        <ele>52</ele>
        <time>2020-01-21T16:53:16Z</time>
      </trkpt>
      <trkpt lat="59.313249" lon="18.073533">
        <ele>52</ele>
        <time>2020-01-21T16:53:17Z</time>
      </trkpt>
      <trkpt lat="59.313297" lon="18.073514">
        <ele>52</ele>
        <time>2020-01-21T16:53:18Z</time>
      </trkpt>
      <trkpt lat="59.313349" lon="18.073507">
        <ele>52</ele>
        <time>2020-01-21T16:53:19Z</time>
      </trkpt>
      <trkpt lat="59.313407" lon="18.073511">
        <ele>52</ele>
        <time>2020-01-21T16:53:20Z</time>
      </trkpt>
      <trkpt lat="59.313464" lon="18.073514">
        <ele>52</ele>
        <time>2020-01-21T16:53:21Z</time>
      </trkpt>
      <trkpt lat="59.313514" lon="18.073502">
        <ele>52</ele>
        <time>2020-01-21T16:53:22Z</time>
      </trkpt>
      <trkpt lat="59.313562" lon="18.073484">
        <ele>52</ele>
        <time>2020-01-21T16:53:23Z</time>
      </trkpt>
      <trkpt lat="59.313603" lon="18.073464">
        <ele>52</ele>
        <time>2020-01-21T16:53:24Z</time>
      </trkpt>
      <trkpt lat="59.313645" lon="18.073448">
        <ele>52</ele>
        <time>2020-01-21T16:53:25Z</time>
      </trkpt>
      <trkpt lat="59.313685" lon="18.073428">
        <ele>52</ele>
        <time>2020-01-21T16:53:27Z</time>
      </trkpt>
      <trkpt lat="59.313721" lon="18.073409">
        <ele>52</ele>
        <time>2020-01-21T16:53:27Z</time>
      </trkpt>
      <trkpt lat="59.313755" lon="18.073395">
        <ele>52</ele>
        <time>2020-01-21T16:53:28Z</time>
      </trkpt>
      <trkpt lat="59.313785" lon="18.073381">
        <ele>52</ele>
        <time>2020-01-21T16:53:29Z</time>
      </trkpt>
      <trkpt lat="59.313811" lon="18.07337">
        <ele>52</ele>
        <time>2020-01-21T16:53:30Z</time>
      </trkpt>
      <trkpt lat="59.313829" lon="18.073359">
        <ele>53</ele>
        <time>2020-01-21T16:53:31Z</time>
      </trkpt>
      <trkpt lat="59.313848" lon="18.073348">
        <ele>52</ele>
        <time>2020-01-21T16:53:33Z</time>
      </trkpt>
      <trkpt lat="59.313877" lon="18.073333">
        <ele>52</ele>
        <time>2020-01-21T16:53:33Z</time>
      </trkpt>
      <trkpt lat="59.313901" lon="18.073317">
        <ele>52</ele>
        <time>2020-01-21T16:53:34Z</time>
      </trkpt>
      <trkpt lat="59.31393" lon="18.073299">
        <ele>52</ele>
        <time>2020-01-21T16:53:36Z</time>
      </trkpt>
      <trkpt lat="59.313949" lon="18.073297">
        <ele>53</ele>
        <time>2020-01-21T16:53:38Z</time>
      </trkpt>
      <trkpt lat="59.313967" lon="18.073286">
        <ele>52</ele>
        <time>2020-01-21T16:53:40Z</time>
      </trkpt>
      <trkpt lat="59.313976" lon="18.07328">
        <ele>0</ele>
        <time>2020-01-21T16:53:44Z</time>
      </trkpt>
      <trkpt lat="59.314044" lon="18.073309">
        <ele>53</ele>
        <time>2020-01-21T16:54:00Z</time>
      </trkpt>
      <trkpt lat="59.314085" lon="18.073316">
        <ele>53</ele>
        <time>2020-01-21T16:54:00Z</time>
      </trkpt>
      <trkpt lat="59.314132" lon="18.073314">
        <ele>53</ele>
        <time>2020-01-21T16:54:01Z</time>
      </trkpt>
      <trkpt lat="59.314178" lon="18.07331">
        <ele>53</ele>
        <time>2020-01-21T16:54:02Z</time>
      </trkpt>
      <trkpt lat="59.314222" lon="18.0733">
        <ele>53</ele>
        <time>2020-01-21T16:54:03Z</time>
      </trkpt>
      <trkpt lat="59.31426" lon="18.073281">
        <ele>53</ele>
        <time>2020-01-21T16:54:05Z</time>
      </trkpt>
      <trkpt lat="59.314295" lon="18.07326">
        <ele>54</ele>
        <time>2020-01-21T16:54:05Z</time>
      </trkpt>
      <trkpt lat="59.314326" lon="18.073239">
        <ele>54</ele>
        <time>2020-01-21T16:54:06Z</time>
      </trkpt>
      <trkpt lat="59.31436" lon="18.073215">
        <ele>54</ele>
        <time>2020-01-21T16:54:07Z</time>
      </trkpt>
      <trkpt lat="59.314387" lon="18.073183">
        <ele>54</ele>
        <time>2020-01-21T16:54:08Z</time>
      </trkpt>
      <trkpt lat="59.314432" lon="18.073145">
        <ele>54</ele>
        <time>2020-01-21T16:54:09Z</time>
      </trkpt>
      <trkpt lat="59.314477" lon="18.073114">
        <ele>54</ele>
        <time>2020-01-21T16:54:10Z</time>
      </trkpt>
      <trkpt lat="59.314542" lon="18.073068">
        <ele>54</ele>
        <time>2020-01-21T16:54:11Z</time>
      </trkpt>
      <trkpt lat="59.314601" lon="18.073035">
        <ele>54</ele>
        <time>2020-01-21T16:54:12Z</time>
      </trkpt>
      <trkpt lat="59.31468" lon="18.073034">
        <ele>54</ele>
        <time>2020-01-21T16:54:14Z</time>
      </trkpt>
      <trkpt lat="59.314756" lon="18.073049">
        <ele>54</ele>
        <time>2020-01-21T16:54:14Z</time>
      </trkpt>
      <trkpt lat="59.31482" lon="18.073041">
        <ele>54</ele>
        <time>2020-01-21T16:54:15Z</time>
      </trkpt>
      <trkpt lat="59.314878" lon="18.073024">
        <ele>54</ele>
        <time>2020-01-21T16:54:16Z</time>
      </trkpt>
      <trkpt lat="59.31494" lon="18.073018">
        <ele>53</ele>
        <time>2020-01-21T16:54:17Z</time>
      </trkpt>
      <trkpt lat="59.314999" lon="18.073004">
        <ele>53</ele>
        <time>2020-01-21T16:54:19Z</time>
      </trkpt>
      <trkpt lat="59.315059" lon="18.072992">
        <ele>52</ele>
        <time>2020-01-21T16:54:19Z</time>
      </trkpt>
      <trkpt lat="59.315116" lon="18.072985">
        <ele>51</ele>
        <time>2020-01-21T16:54:20Z</time>
      </trkpt>
      <trkpt lat="59.315173" lon="18.072971">
        <ele>50</ele>
        <time>2020-01-21T16:54:21Z</time>
      </trkpt>
      <trkpt lat="59.31523" lon="18.07296">
        <ele>49</ele>
        <time>2020-01-21T16:54:23Z</time>
      </trkpt>
      <trkpt lat="59.315283" lon="18.072953">
        <ele>47</ele>
        <time>2020-01-21T16:54:23Z</time>
      </trkpt>
      <trkpt lat="59.315335" lon="18.072943">
        <ele>46</ele>
        <time>2020-01-21T16:54:24Z</time>
      </trkpt>
      <trkpt lat="59.315386" lon="18.072924">
        <ele>45</ele>
        <time>2020-01-21T16:54:25Z</time>
      </trkpt>
      <trkpt lat="59.315435" lon="18.0729">
        <ele>45</ele>
        <time>2020-01-21T16:54:26Z</time>
      </trkpt>
      <trkpt lat="59.315484" lon="18.072875">
        <ele>44</ele>
        <time>2020-01-21T16:54:27Z</time>
      </trkpt>
      <trkpt lat="59.315531" lon="18.072845">
        <ele>44</ele>
        <time>2020-01-21T16:54:28Z</time>
      </trkpt>
      <trkpt lat="59.315578" lon="18.07281">
        <ele>44</ele>
        <time>2020-01-21T16:54:29Z</time>
      </trkpt>
      <trkpt lat="59.315623" lon="18.072771">
        <ele>44</ele>
        <time>2020-01-21T16:54:31Z</time>
      </trkpt>
      <trkpt lat="59.315664" lon="18.072722">
        <ele>44</ele>
        <time>2020-01-21T16:54:31Z</time>
      </trkpt>
      <trkpt lat="59.315699" lon="18.072661">
        <ele>44</ele>
        <time>2020-01-21T16:54:33Z</time>
      </trkpt>
      <trkpt lat="59.315729" lon="18.072595">
        <ele>44</ele>
        <time>2020-01-21T16:54:33Z</time>
      </trkpt>
      <trkpt lat="59.315761" lon="18.072542">
        <ele>44</ele>
        <time>2020-01-21T16:54:34Z</time>
      </trkpt>
      <trkpt lat="59.315794" lon="18.072508">
        <ele>44</ele>
        <time>2020-01-21T16:54:35Z</time>
      </trkpt>
      <trkpt lat="59.315823" lon="18.072476">
        <ele>44</ele>
        <time>2020-01-21T16:54:36Z</time>
      </trkpt>
      <trkpt lat="59.315853" lon="18.072443">
        <ele>44</ele>
        <time>2020-01-21T16:54:38Z</time>
      </trkpt>
      <trkpt lat="59.31589" lon="18.072414">
        <ele>44</ele>
        <time>2020-01-21T16:54:38Z</time>
      </trkpt>
      <trkpt lat="59.315933" lon="18.072387">
        <ele>44</ele>
        <time>2020-01-21T16:54:39Z</time>
      </trkpt>
      <trkpt lat="59.315974" lon="18.072362">
        <ele>44</ele>
        <time>2020-01-21T16:54:40Z</time>
      </trkpt>
      <trkpt lat="59.316019" lon="18.072335">
        <ele>44</ele>
        <time>2020-01-21T16:54:41Z</time>
      </trkpt>
      <trkpt lat="59.316064" lon="18.07231">
        <ele>44</ele>
        <time>2020-01-21T16:54:42Z</time>
      </trkpt>
      <trkpt lat="59.316103" lon="18.072286">
        <ele>44</ele>
        <time>2020-01-21T16:54:44Z</time>
      </trkpt>
      <trkpt lat="59.316142" lon="18.07226">
        <ele>44</ele>
        <time>2020-01-21T16:54:44Z</time>
      </trkpt>
      <trkpt lat="59.316181" lon="18.072233">
        <ele>44</ele>
        <time>2020-01-21T16:54:45Z</time>
      </trkpt>
      <trkpt lat="59.316217" lon="18.072205">
        <ele>44</ele>
        <time>2020-01-21T16:54:46Z</time>
      </trkpt>
      <trkpt lat="59.316256" lon="18.072182">
        <ele>45</ele>
        <time>2020-01-21T16:54:47Z</time>
      </trkpt>
      <trkpt lat="59.316292" lon="18.072161">
        <ele>45</ele>
        <time>2020-01-21T16:54:48Z</time>
      </trkpt>
      <trkpt lat="59.316326" lon="18.072143">
        <ele>45</ele>
        <time>2020-01-21T16:54:49Z</time>
      </trkpt>
      <trkpt lat="59.316357" lon="18.072126">
        <ele>45</ele>
        <time>2020-01-21T16:54:50Z</time>
      </trkpt>
      <trkpt lat="59.316387" lon="18.072112">
        <ele>45</ele>
        <time>2020-01-21T16:54:51Z</time>
      </trkpt>
      <trkpt lat="59.316426" lon="18.072107">
        <ele>45</ele>
        <time>2020-01-21T16:54:52Z</time>
      </trkpt>
      <trkpt lat="59.316477" lon="18.072107">
        <ele>45</ele>
        <time>2020-01-21T16:54:53Z</time>
      </trkpt>
      <trkpt lat="59.316518" lon="18.072101">
        <ele>45</ele>
        <time>2020-01-21T16:54:54Z</time>
      </trkpt>
      <trkpt lat="59.316546" lon="18.072084">
        <ele>45</ele>
        <time>2020-01-21T16:54:55Z</time>
      </trkpt>
      <trkpt lat="59.316571" lon="18.072062">
        <ele>45</ele>
        <time>2020-01-21T16:54:57Z</time>
      </trkpt>
      <trkpt lat="59.316608" lon="18.072043">
        <ele>45</ele>
        <time>2020-01-21T16:54:58Z</time>
      </trkpt>
      <trkpt lat="59.316651" lon="18.072024">
        <ele>45</ele>
        <time>2020-01-21T16:54:58Z</time>
      </trkpt>
      <trkpt lat="59.316695" lon="18.072">
        <ele>45</ele>
        <time>2020-01-21T16:54:59Z</time>
      </trkpt>
      <trkpt lat="59.316732" lon="18.071982">
        <ele>45</ele>
        <time>2020-01-21T16:55:00Z</time>
      </trkpt>
      <trkpt lat="59.316766" lon="18.071961">
        <ele>45</ele>
        <time>2020-01-21T16:55:01Z</time>
      </trkpt>
      <trkpt lat="59.3168" lon="18.071935">
        <ele>45</ele>
        <time>2020-01-21T16:55:02Z</time>
      </trkpt>
      <trkpt lat="59.316842" lon="18.071912">
        <ele>45</ele>
        <time>2020-01-21T16:55:03Z</time>
      </trkpt>
      <trkpt lat="59.316877" lon="18.071886">
        <ele>46</ele>
        <time>2020-01-21T16:55:04Z</time>
      </trkpt>
      <trkpt lat="59.316907" lon="18.071867">
        <ele>46</ele>
        <time>2020-01-21T16:55:05Z</time>
      </trkpt>
      <trkpt lat="59.316934" lon="18.071855">
        <ele>46</ele>
        <time>2020-01-21T16:55:06Z</time>
      </trkpt>
      <trkpt lat="59.316963" lon="18.071839">
        <ele>47</ele>
        <time>2020-01-21T16:55:07Z</time>
      </trkpt>
      <trkpt lat="59.316993" lon="18.071812">
        <ele>47</ele>
        <time>2020-01-21T16:55:08Z</time>
      </trkpt>
      <trkpt lat="59.317027" lon="18.071792">
        <ele>47</ele>
        <time>2020-01-21T16:55:09Z</time>
      </trkpt>
      <trkpt lat="59.317121" lon="18.071797">
        <ele>47</ele>
        <time>2020-01-21T16:55:11Z</time>
      </trkpt>
      <trkpt lat="59.317152" lon="18.071775">
        <ele>48</ele>
        <time>2020-01-21T16:55:12Z</time>
      </trkpt>
      <trkpt lat="59.317183" lon="18.07175">
        <ele>48</ele>
        <time>2020-01-21T16:55:13Z</time>
      </trkpt>
      <trkpt lat="59.317219" lon="18.07173">
        <ele>48</ele>
        <time>2020-01-21T16:55:14Z</time>
      </trkpt>
      <trkpt lat="59.317257" lon="18.071715">
        <ele>48</ele>
        <time>2020-01-21T16:55:16Z</time>
      </trkpt>
      <trkpt lat="59.317294" lon="18.071705">
        <ele>48</ele>
        <time>2020-01-21T16:55:16Z</time>
      </trkpt>
      <trkpt lat="59.317332" lon="18.071693">
        <ele>48</ele>
        <time>2020-01-21T16:55:17Z</time>
      </trkpt>
      <trkpt lat="59.317416" lon="18.071675">
        <ele>48</ele>
        <time>2020-01-21T16:55:19Z</time>
      </trkpt>
      <trkpt lat="59.31746" lon="18.07166">
        <ele>48</ele>
        <time>2020-01-21T16:55:20Z</time>
      </trkpt>
      <trkpt lat="59.31751" lon="18.07164">
        <ele>48</ele>
        <time>2020-01-21T16:55:21Z</time>
      </trkpt>
      <trkpt lat="59.317561" lon="18.071615">
        <ele>48</ele>
        <time>2020-01-21T16:55:22Z</time>
      </trkpt>
      <trkpt lat="59.317605" lon="18.071584">
        <ele>48</ele>
        <time>2020-01-21T16:55:24Z</time>
      </trkpt>
      <trkpt lat="59.317647" lon="18.071553">
        <ele>48</ele>
        <time>2020-01-21T16:55:24Z</time>
      </trkpt>
      <trkpt lat="59.317695" lon="18.071531">
        <ele>49</ele>
        <time>2020-01-21T16:55:25Z</time>
      </trkpt>
      <trkpt lat="59.317742" lon="18.071515">
        <ele>49</ele>
        <time>2020-01-21T16:55:26Z</time>
      </trkpt>
      <trkpt lat="59.317794" lon="18.0715">
        <ele>49</ele>
        <time>2020-01-21T16:55:27Z</time>
      </trkpt>
      <trkpt lat="59.317843" lon="18.071479">
        <ele>49</ele>
        <time>2020-01-21T16:55:28Z</time>
      </trkpt>
      <trkpt lat="59.317891" lon="18.071456">
        <ele>49</ele>
        <time>2020-01-21T16:55:29Z</time>
      </trkpt>
      <trkpt lat="59.317938" lon="18.071436">
        <ele>49</ele>
        <time>2020-01-21T16:55:30Z</time>
      </trkpt>
      <trkpt lat="59.31798" lon="18.071413">
        <ele>49</ele>
        <time>2020-01-21T16:55:31Z</time>
      </trkpt>
      <trkpt lat="59.318018" lon="18.071387">
        <ele>49</ele>
        <time>2020-01-21T16:55:32Z</time>
      </trkpt>
      <trkpt lat="59.318067" lon="18.071363">
        <ele>49</ele>
        <time>2020-01-21T16:55:34Z</time>
      </trkpt>
      <trkpt lat="59.318114" lon="18.07134">
        <ele>49</ele>
        <time>2020-01-21T16:55:35Z</time>
      </trkpt>
      <trkpt lat="59.318159" lon="18.071315">
        <ele>49</ele>
        <time>2020-01-21T16:55:35Z</time>
      </trkpt>
      <trkpt lat="59.318207" lon="18.071291">
        <ele>49</ele>
        <time>2020-01-21T16:55:36Z</time>
      </trkpt>
      <trkpt lat="59.318256" lon="18.071263">
        <ele>49</ele>
        <time>2020-01-21T16:55:37Z</time>
      </trkpt>
      <trkpt lat="59.318301" lon="18.071235">
        <ele>49</ele>
        <time>2020-01-21T16:55:38Z</time>
      </trkpt>
      <trkpt lat="59.318354" lon="18.071207">
        <ele>49</ele>
        <time>2020-01-21T16:55:39Z</time>
      </trkpt>
      <trkpt lat="59.318398" lon="18.071186">
        <ele>49</ele>
        <time>2020-01-21T16:55:40Z</time>
      </trkpt>
      <trkpt lat="59.31843" lon="18.071162">
        <ele>49</ele>
        <time>2020-01-21T16:55:41Z</time>
      </trkpt>
      <trkpt lat="59.318467" lon="18.071141">
        <ele>49</ele>
        <time>2020-01-21T16:55:42Z</time>
      </trkpt>
      <trkpt lat="59.318507" lon="18.071121">
        <ele>48</ele>
        <time>2020-01-21T16:55:43Z</time>
      </trkpt>
      <trkpt lat="59.318541" lon="18.071093">
        <ele>48</ele>
        <time>2020-01-21T16:55:45Z</time>
      </trkpt>
      <trkpt lat="59.318576" lon="18.071046">
        <ele>48</ele>
        <time>2020-01-21T16:55:45Z</time>
      </trkpt>
      <trkpt lat="59.318609" lon="18.070991">
        <ele>47</ele>
        <time>2020-01-21T16:55:46Z</time>
      </trkpt>
      <trkpt lat="59.318655" lon="18.070957">
        <ele>48</ele>
        <time>2020-01-21T16:55:47Z</time>
      </trkpt>
      <trkpt lat="59.318708" lon="18.070924">
        <ele>48</ele>
        <time>2020-01-21T16:55:48Z</time>
      </trkpt>
      <trkpt lat="59.318765" lon="18.070888">
        <ele>48</ele>
        <time>2020-01-21T16:55:49Z</time>
      </trkpt>
      <trkpt lat="59.318842" lon="18.070864">
        <ele>48</ele>
        <time>2020-01-21T16:55:50Z</time>
      </trkpt>
      <trkpt lat="59.318919" lon="18.070833">
        <ele>48</ele>
        <time>2020-01-21T16:55:51Z</time>
      </trkpt>
      <trkpt lat="59.318994" lon="18.070803">
        <ele>48</ele>
        <time>2020-01-21T16:55:53Z</time>
      </trkpt>
      <trkpt lat="59.319072" lon="18.070787">
        <ele>48</ele>
        <time>2020-01-21T16:55:54Z</time>
      </trkpt>
      <trkpt lat="59.319148" lon="18.070776">
        <ele>48</ele>
        <time>2020-01-21T16:55:54Z</time>
      </trkpt>
      <trkpt lat="59.319208" lon="18.070764">
        <ele>48</ele>
        <time>2020-01-21T16:55:55Z</time>
      </trkpt>
      <trkpt lat="59.319244" lon="18.070747">
        <ele>48</ele>
        <time>2020-01-21T16:55:56Z</time>
      </trkpt>
      <trkpt lat="59.319292" lon="18.070746">
        <ele>47</ele>
        <time>2020-01-21T16:55:57Z</time>
      </trkpt>
      <trkpt lat="59.319333" lon="18.070723">
        <ele>46</ele>
        <time>2020-01-21T16:55:58Z</time>
      </trkpt>
      <trkpt lat="59.319373" lon="18.070695">
        <ele>46</ele>
        <time>2020-01-21T16:55:59Z</time>
      </trkpt>
      <trkpt lat="59.319418" lon="18.07068">
        <ele>45</ele>
        <time>2020-01-21T16:56:00Z</time>
      </trkpt>
      <trkpt lat="59.319467" lon="18.070672">
        <ele>45</ele>
        <time>2020-01-21T16:56:02Z</time>
      </trkpt>
      <trkpt lat="59.319529" lon="18.070647">
        <ele>45</ele>
        <time>2020-01-21T16:56:02Z</time>
      </trkpt>
      <trkpt lat="59.319638" lon="18.070592">
        <ele>45</ele>
        <time>2020-01-21T16:56:04Z</time>
      </trkpt>
      <trkpt lat="59.319683" lon="18.070565">
        <ele>44</ele>
        <time>2020-01-21T16:56:05Z</time>
      </trkpt>
      <trkpt lat="59.319736" lon="18.070514">
        <ele>44</ele>
        <time>2020-01-21T16:56:06Z</time>
      </trkpt>
      <trkpt lat="59.319772" lon="18.070483">
        <ele>44</ele>
        <time>2020-01-21T16:56:07Z</time>
      </trkpt>
      <trkpt lat="59.319804" lon="18.070447">
        <ele>44</ele>
        <time>2020-01-21T16:56:08Z</time>
      </trkpt>
      <trkpt lat="59.319822" lon="18.070427">
        <ele>44</ele>
        <time>2020-01-21T16:56:09Z</time>
      </trkpt>
      <trkpt lat="59.319844" lon="18.070397">
        <ele>43</ele>
        <time>2020-01-21T16:56:11Z</time>
      </trkpt>
      <trkpt lat="59.319864" lon="18.07041">
        <ele>43</ele>
        <time>2020-01-21T16:56:13Z</time>
      </trkpt>
      <trkpt lat="59.319903" lon="18.070446">
        <ele>42</ele>
        <time>2020-01-21T16:56:13Z</time>
      </trkpt>
      <trkpt lat="59.319944" lon="18.070512">
        <ele>41</ele>
        <time>2020-01-21T16:56:14Z</time>
      </trkpt>
      <trkpt lat="59.319983" lon="18.070586">
        <ele>41</ele>
        <time>2020-01-21T16:56:16Z</time>
      </trkpt>
      <trkpt lat="59.320028" lon="18.070646">
        <ele>40</ele>
        <time>2020-01-21T16:56:16Z</time>
      </trkpt>
      <trkpt lat="59.320086" lon="18.070705">
        <ele>39</ele>
        <time>2020-01-21T16:56:17Z</time>
      </trkpt>
      <trkpt lat="59.320156" lon="18.070756">
        <ele>39</ele>
        <time>2020-01-21T16:56:18Z</time>
      </trkpt>
      <trkpt lat="59.320221" lon="18.070808">
        <ele>38</ele>
        <time>2020-01-21T16:56:19Z</time>
      </trkpt>
      <trkpt lat="59.320283" lon="18.070859">
        <ele>37</ele>
        <time>2020-01-21T16:56:20Z</time>
      </trkpt>
      <trkpt lat="59.320345" lon="18.070912">
        <ele>36</ele>
        <time>2020-01-21T16:56:21Z</time>
      </trkpt>
      <trkpt lat="59.320407" lon="18.070965">
        <ele>36</ele>
        <time>2020-01-21T16:56:23Z</time>
      </trkpt>
      <trkpt lat="59.320467" lon="18.07102">
        <ele>36</ele>
        <time>2020-01-21T16:56:23Z</time>
      </trkpt>
      <trkpt lat="59.320528" lon="18.071075">
        <ele>35</ele>
        <time>2020-01-21T16:56:24Z</time>
      </trkpt>
      <trkpt lat="59.320588" lon="18.071131">
        <ele>35</ele>
        <time>2020-01-21T16:56:25Z</time>
      </trkpt>
      <trkpt lat="59.320649" lon="18.071179">
        <ele>34</ele>
        <time>2020-01-21T16:56:26Z</time>
      </trkpt>
      <trkpt lat="59.320712" lon="18.07122">
        <ele>33</ele>
        <time>2020-01-21T16:56:27Z</time>
      </trkpt>
      <trkpt lat="59.320771" lon="18.071256">
        <ele>32</ele>
        <time>2020-01-21T16:56:28Z</time>
      </trkpt>
      <trkpt lat="59.320828" lon="18.071308">
        <ele>31</ele>
        <time>2020-01-21T16:56:29Z</time>
      </trkpt>
      <trkpt lat="59.320882" lon="18.071372">
        <ele>30</ele>
        <time>2020-01-21T16:56:31Z</time>
      </trkpt>
      <trkpt lat="59.320931" lon="18.071455">
        <ele>29</ele>
        <time>2020-01-21T16:56:32Z</time>
      </trkpt>
      <trkpt lat="59.320971" lon="18.071556">
        <ele>29</ele>
        <time>2020-01-21T16:56:32Z</time>
      </trkpt>
      <trkpt lat="59.320999" lon="18.07168">
        <ele>29</ele>
        <time>2020-01-21T16:56:33Z</time>
      </trkpt>
      <trkpt lat="59.321029" lon="18.071813">
        <ele>28</ele>
        <time>2020-01-21T16:56:34Z</time>
      </trkpt>
      <trkpt lat="59.321067" lon="18.071937">
        <ele>27</ele>
        <time>2020-01-21T16:56:35Z</time>
      </trkpt>
      <trkpt lat="59.321126" lon="18.07203">
        <ele>26</ele>
        <time>2020-01-21T16:56:37Z</time>
      </trkpt>
      <trkpt lat="59.321187" lon="18.072114">
        <ele>26</ele>
        <time>2020-01-21T16:56:37Z</time>
      </trkpt>
      <trkpt lat="59.32125" lon="18.072173">
        <ele>25</ele>
        <time>2020-01-21T16:56:38Z</time>
      </trkpt>
      <trkpt lat="59.321319" lon="18.072237">
        <ele>24</ele>
        <time>2020-01-21T16:56:39Z</time>
      </trkpt>
      <trkpt lat="59.321385" lon="18.072299">
        <ele>23</ele>
        <time>2020-01-21T16:56:40Z</time>
      </trkpt>
      <trkpt lat="59.321451" lon="18.072363">
        <ele>21</ele>
        <time>2020-01-21T16:56:41Z</time>
      </trkpt>
      <trkpt lat="59.321519" lon="18.072423">
        <ele>20</ele>
        <time>2020-01-21T16:56:42Z</time>
      </trkpt>
      <trkpt lat="59.321592" lon="18.072476">
        <ele>19</ele>
        <time>2020-01-21T16:56:43Z</time>
      </trkpt>
      <trkpt lat="59.321665" lon="18.07253">
        <ele>19</ele>
        <time>2020-01-21T16:56:45Z</time>
      </trkpt>
      <trkpt lat="59.321731" lon="18.07258">
        <ele>17</ele>
        <time>2020-01-21T16:56:45Z</time>
      </trkpt>
      <trkpt lat="59.321794" lon="18.07262">
        <ele>17</ele>
        <time>2020-01-21T16:56:46Z</time>
      </trkpt>
      <trkpt lat="59.321854" lon="18.072654">
        <ele>16</ele>
        <time>2020-01-21T16:56:47Z</time>
      </trkpt>
      <trkpt lat="59.321906" lon="18.072683">
        <ele>16</ele>
        <time>2020-01-21T16:56:48Z</time>
      </trkpt>
      <trkpt lat="59.321947" lon="18.07271">
        <ele>15</ele>
        <time>2020-01-21T16:56:49Z</time>
      </trkpt>
      <trkpt lat="59.321977" lon="18.072738">
        <ele>15</ele>
        <time>2020-01-21T16:56:51Z</time>
      </trkpt>
      <trkpt lat="59.322001" lon="18.072771">
        <ele>15</ele>
        <time>2020-01-21T16:56:51Z</time>
      </trkpt>
      <trkpt lat="59.322016" lon="18.072825">
        <ele>15</ele>
        <time>2020-01-21T16:56:52Z</time>
      </trkpt>
      <trkpt lat="59.322019" lon="18.072898">
        <ele>14</ele>
        <time>2020-01-21T16:56:54Z</time>
      </trkpt>
      <trkpt lat="59.322015" lon="18.072983">
        <ele>14</ele>
        <time>2020-01-21T16:56:54Z</time>
      </trkpt>
      <trkpt lat="59.322004" lon="18.073081">
        <ele>14</ele>
        <time>2020-01-21T16:56:55Z</time>
      </trkpt>
      <trkpt lat="59.321987" lon="18.073189">
        <ele>14</ele>
        <time>2020-01-21T16:56:56Z</time>
      </trkpt>
      <trkpt lat="59.321967" lon="18.073301">
        <ele>14</ele>
        <time>2020-01-21T16:56:57Z</time>
      </trkpt>
      <trkpt lat="59.321946" lon="18.073417">
        <ele>14</ele>
        <time>2020-01-21T16:56:58Z</time>
      </trkpt>
      <trkpt lat="59.321924" lon="18.073537">
        <ele>14</ele>
        <time>2020-01-21T16:56:59Z</time>
      </trkpt>
      <trkpt lat="59.321907" lon="18.073662">
        <ele>14</ele>
        <time>2020-01-21T16:57:00Z</time>
      </trkpt>
      <trkpt lat="59.321905" lon="18.073786">
        <ele>13</ele>
        <time>2020-01-21T16:57:01Z</time>
      </trkpt>
      <trkpt lat="59.32192" lon="18.073898">
        <ele>13</ele>
        <time>2020-01-21T16:57:03Z</time>
      </trkpt>
      <trkpt lat="59.321948" lon="18.074002">
        <ele>13</ele>
        <time>2020-01-21T16:57:03Z</time>
      </trkpt>
      <trkpt lat="59.321996" lon="18.074104">
        <ele>13</ele>
        <time>2020-01-21T16:57:04Z</time>
      </trkpt>
      <trkpt lat="59.322053" lon="18.074185">
        <ele>13</ele>
        <time>2020-01-21T16:57:05Z</time>
      </trkpt>
      <trkpt lat="59.322108" lon="18.07426">
        <ele>13</ele>
        <time>2020-01-21T16:57:06Z</time>
      </trkpt>
      <trkpt lat="59.322172" lon="18.074328">
        <ele>13</ele>
        <time>2020-01-21T16:57:07Z</time>
      </trkpt>
      <trkpt lat="59.322242" lon="18.074393">
        <ele>14</ele>
        <time>2020-01-21T16:57:08Z</time>
      </trkpt>
      <trkpt lat="59.322314" lon="18.074454">
        <ele>14</ele>
        <time>2020-01-21T16:57:10Z</time>
      </trkpt>
      <trkpt lat="59.322389" lon="18.074509">
        <ele>14</ele>
        <time>2020-01-21T16:57:11Z</time>
      </trkpt>
      <trkpt lat="59.322462" lon="18.07456">
        <ele>14</ele>
        <time>2020-01-21T16:57:11Z</time>
      </trkpt>
      <trkpt lat="59.322526" lon="18.074625">
        <ele>14</ele>
        <time>2020-01-21T16:57:12Z</time>
      </trkpt>
      <trkpt lat="59.322594" lon="18.074692">
        <ele>15</ele>
        <time>2020-01-21T16:57:13Z</time>
      </trkpt>
      <trkpt lat="59.322658" lon="18.074766">
        <ele>15</ele>
        <time>2020-01-21T16:57:14Z</time>
      </trkpt>
      <trkpt lat="59.322717" lon="18.074843">
        <ele>15</ele>
        <time>2020-01-21T16:57:16Z</time>
      </trkpt>
      <trkpt lat="59.322775" lon="18.074917">
        <ele>15</ele>
        <time>2020-01-21T16:57:16Z</time>
      </trkpt>
      <trkpt lat="59.322835" lon="18.074985">
        <ele>14</ele>
        <time>2020-01-21T16:57:17Z</time>
      </trkpt>
      <trkpt lat="59.322899" lon="18.075042">
        <ele>14</ele>
        <time>2020-01-21T16:57:18Z</time>
      </trkpt>
      <trkpt lat="59.322964" lon="18.075094">
        <ele>14</ele>
        <time>2020-01-21T16:57:19Z</time>
      </trkpt>
      <trkpt lat="59.323031" lon="18.075139">
        <ele>13</ele>
        <time>2020-01-21T16:57:20Z</time>
      </trkpt>
      <trkpt lat="59.323098" lon="18.07518">
        <ele>13</ele>
        <time>2020-01-21T16:57:21Z</time>
      </trkpt>
      <trkpt lat="59.323164" lon="18.075219">
        <ele>13</ele>
        <time>2020-01-21T16:57:23Z</time>
      </trkpt>
      <trkpt lat="59.323229" lon="18.075251">
        <ele>13</ele>
        <time>2020-01-21T16:57:23Z</time>
      </trkpt>
      <trkpt lat="59.323295" lon="18.075276">
        <ele>12</ele>
        <time>2020-01-21T16:57:24Z</time>
      </trkpt>
      <trkpt lat="59.323363" lon="18.075298">
        <ele>12</ele>
        <time>2020-01-21T16:57:25Z</time>
      </trkpt>
      <trkpt lat="59.323429" lon="18.075321">
        <ele>12</ele>
        <time>2020-01-21T16:57:26Z</time>
      </trkpt>
      <trkpt lat="59.3235" lon="18.075339">
        <ele>12</ele>
        <time>2020-01-21T16:57:27Z</time>
      </trkpt>
      <trkpt lat="59.323569" lon="18.075357">
        <ele>12</ele>
        <time>2020-01-21T16:57:29Z</time>
      </trkpt>
      <trkpt lat="59.323638" lon="18.075377">
        <ele>12</ele>
        <time>2020-01-21T16:57:29Z</time>
      </trkpt>
      <trkpt lat="59.323708" lon="18.075397">
        <ele>12</ele>
        <time>2020-01-21T16:57:31Z</time>
      </trkpt>
      <trkpt lat="59.323783" lon="18.075417">
        <ele>12</ele>
        <time>2020-01-21T16:57:31Z</time>
      </trkpt>
      <trkpt lat="59.323852" lon="18.075444">
        <ele>12</ele>
        <time>2020-01-21T16:57:32Z</time>
      </trkpt>
      <trkpt lat="59.323924" lon="18.075467">
        <ele>12</ele>
        <time>2020-01-21T16:57:33Z</time>
      </trkpt>
      <trkpt lat="59.323995" lon="18.075492">
        <ele>12</ele>
        <time>2020-01-21T16:57:34Z</time>
      </trkpt>
      <trkpt lat="59.324066" lon="18.075521">
        <ele>13</ele>
        <time>2020-01-21T16:57:35Z</time>
      </trkpt>
      <trkpt lat="59.324135" lon="18.075554">
        <ele>13</ele>
        <time>2020-01-21T16:57:36Z</time>
      </trkpt>
      <trkpt lat="59.324204" lon="18.075584">
        <ele>12</ele>
        <time>2020-01-21T16:57:38Z</time>
      </trkpt>
      <trkpt lat="59.324272" lon="18.075612">
        <ele>12</ele>
        <time>2020-01-21T16:57:38Z</time>
      </trkpt>
      <trkpt lat="59.32434" lon="18.075635">
        <ele>12</ele>
        <time>2020-01-21T16:57:39Z</time>
      </trkpt>
      <trkpt lat="59.324407" lon="18.075656">
        <ele>12</ele>
        <time>2020-01-21T16:57:40Z</time>
      </trkpt>
      <trkpt lat="59.324477" lon="18.075679">
        <ele>13</ele>
        <time>2020-01-21T16:57:41Z</time>
      </trkpt>
      <trkpt lat="59.324547" lon="18.075699">
        <ele>13</ele>
        <time>2020-01-21T16:57:42Z</time>
      </trkpt>
      <trkpt lat="59.324618" lon="18.075722">
        <ele>14</ele>
        <time>2020-01-21T16:57:43Z</time>
      </trkpt>
      <trkpt lat="59.32469" lon="18.075744">
        <ele>14</ele>
        <time>2020-01-21T16:57:45Z</time>
      </trkpt>
      <trkpt lat="59.324757" lon="18.07577">
        <ele>14</ele>
        <time>2020-01-21T16:57:45Z</time>
      </trkpt>
      <trkpt lat="59.324827" lon="18.075789">
        <ele>14</ele>
        <time>2020-01-21T16:57:46Z</time>
      </trkpt>
      <trkpt lat="59.324897" lon="18.0758">
        <ele>15</ele>
        <time>2020-01-21T16:57:48Z</time>
      </trkpt>
      <trkpt lat="59.324963" lon="18.075815">
        <ele>15</ele>
        <time>2020-01-21T16:57:48Z</time>
      </trkpt>
      <trkpt lat="59.325027" lon="18.075824">
        <ele>15</ele>
        <time>2020-01-21T16:57:49Z</time>
      </trkpt>
      <trkpt lat="59.325089" lon="18.075839">
        <ele>14</ele>
        <time>2020-01-21T16:57:50Z</time>
      </trkpt>
      <trkpt lat="59.325149" lon="18.075849">
        <ele>14</ele>
        <time>2020-01-21T16:57:51Z</time>
      </trkpt>
      <trkpt lat="59.325209" lon="18.075851">
        <ele>14</ele>
        <time>2020-01-21T16:57:53Z</time>
      </trkpt>
      <trkpt lat="59.325269" lon="18.075841">
        <ele>14</ele>
        <time>2020-01-21T16:57:53Z</time>
      </trkpt>
      <trkpt lat="59.32533" lon="18.07583">
        <ele>14</ele>
        <time>2020-01-21T16:57:54Z</time>
      </trkpt>
      <trkpt lat="59.325392" lon="18.075818">
        <ele>14</ele>
        <time>2020-01-21T16:57:55Z</time>
      </trkpt>
      <trkpt lat="59.325456" lon="18.075805">
        <ele>15</ele>
        <time>2020-01-21T16:57:56Z</time>
      </trkpt>
      <trkpt lat="59.325522" lon="18.075791">
        <ele>15</ele>
        <time>2020-01-21T16:57:57Z</time>
      </trkpt>
      <trkpt lat="59.325587" lon="18.075778">
        <ele>15</ele>
        <time>2020-01-21T16:57:58Z</time>
      </trkpt>
      <trkpt lat="59.325653" lon="18.075765">
        <ele>15</ele>
        <time>2020-01-21T16:58:00Z</time>
      </trkpt>
      <trkpt lat="59.325716" lon="18.075744">
        <ele>14</ele>
        <time>2020-01-21T16:58:00Z</time>
      </trkpt>
      <trkpt lat="59.325778" lon="18.075712">
        <ele>14</ele>
        <time>2020-01-21T16:58:01Z</time>
      </trkpt>
      <trkpt lat="59.325836" lon="18.075678">
        <ele>15</ele>
        <time>2020-01-21T16:58:02Z</time>
      </trkpt>
      <trkpt lat="59.325892" lon="18.075641">
        <ele>14</ele>
        <time>2020-01-21T16:58:03Z</time>
      </trkpt>
      <trkpt lat="59.325947" lon="18.075598">
        <ele>14</ele>
        <time>2020-01-21T16:58:04Z</time>
      </trkpt>
      <trkpt lat="59.326002" lon="18.075552">
        <ele>14</ele>
        <time>2020-01-21T16:58:05Z</time>
      </trkpt>
      <trkpt lat="59.326055" lon="18.075503">
        <ele>14</ele>
        <time>2020-01-21T16:58:07Z</time>
      </trkpt>
      <trkpt lat="59.326106" lon="18.075452">
        <ele>14</ele>
        <time>2020-01-21T16:58:07Z</time>
      </trkpt>
      <trkpt lat="59.326155" lon="18.075394">
        <ele>13</ele>
        <time>2020-01-21T16:58:08Z</time>
      </trkpt>
      <trkpt lat="59.326201" lon="18.07533">
        <ele>13</ele>
        <time>2020-01-21T16:58:10Z</time>
      </trkpt>
      <trkpt lat="59.326245" lon="18.07526">
        <ele>13</ele>
        <time>2020-01-21T16:58:11Z</time>
      </trkpt>
      <trkpt lat="59.326291" lon="18.075196">
        <ele>12</ele>
        <time>2020-01-21T16:58:11Z</time>
      </trkpt>
      <trkpt lat="59.326338" lon="18.075134">
        <ele>12</ele>
        <time>2020-01-21T16:58:12Z</time>
      </trkpt>
      <trkpt lat="59.326385" lon="18.075073">
        <ele>12</ele>
        <time>2020-01-21T16:58:13Z</time>
      </trkpt>
      <trkpt lat="59.326432" lon="18.075011">
        <ele>12</ele>
        <time>2020-01-21T16:58:14Z</time>
      </trkpt>
      <trkpt lat="59.326479" lon="18.07495">
        <ele>11</ele>
        <time>2020-01-21T16:58:15Z</time>
      </trkpt>
      <trkpt lat="59.326528" lon="18.074892">
        <ele>11</ele>
        <time>2020-01-21T16:58:17Z</time>
      </trkpt>
      <trkpt lat="59.326578" lon="18.074837">
        <ele>11</ele>
        <time>2020-01-21T16:58:17Z</time>
      </trkpt>
      <trkpt lat="59.326629" lon="18.074788">
        <ele>11</ele>
        <time>2020-01-21T16:58:18Z</time>
      </trkpt>
      <trkpt lat="59.326681" lon="18.074741">
        <ele>11</ele>
        <time>2020-01-21T16:58:19Z</time>
      </trkpt>
      <trkpt lat="59.326735" lon="18.074694">
        <ele>11</ele>
        <time>2020-01-21T16:58:20Z</time>
      </trkpt>
      <trkpt lat="59.326789" lon="18.074648">
        <ele>11</ele>
        <time>2020-01-21T16:58:21Z</time>
      </trkpt>
      <trkpt lat="59.326843" lon="18.074595">
        <ele>11</ele>
        <time>2020-01-21T16:58:22Z</time>
      </trkpt>
      <trkpt lat="59.326893" lon="18.074533">
        <ele>11</ele>
        <time>2020-01-21T16:58:23Z</time>
      </trkpt>
      <trkpt lat="59.32694" lon="18.074464">
        <ele>11</ele>
        <time>2020-01-21T16:58:24Z</time>
      </trkpt>
      <trkpt lat="59.326987" lon="18.074396">
        <ele>0</ele>
        <time>2020-01-21T16:58:25Z</time>
      </trkpt>
      <trkpt lat="59.327036" lon="18.074332">
        <ele>10</ele>
        <time>2020-01-21T16:58:26Z</time>
      </trkpt>
      <trkpt lat="59.327086" lon="18.07427">
        <ele>10</ele>
        <time>2020-01-21T16:58:27Z</time>
      </trkpt>
      <trkpt lat="59.327136" lon="18.07421">
        <ele>10</ele>
        <time>2020-01-21T16:58:28Z</time>
      </trkpt>
      <trkpt lat="59.327186" lon="18.074151">
        <ele>10</ele>
        <time>2020-01-21T16:58:29Z</time>
      </trkpt>
      <trkpt lat="59.327236" lon="18.074093">
        <ele>9</ele>
        <time>2020-01-21T16:58:30Z</time>
      </trkpt>
      <trkpt lat="59.327285" lon="18.074032">
        <ele>9</ele>
        <time>2020-01-21T16:58:31Z</time>
      </trkpt>
      <trkpt lat="59.327335" lon="18.073971">
        <ele>9</ele>
        <time>2020-01-21T16:58:32Z</time>
      </trkpt>
      <trkpt lat="59.327384" lon="18.07391">
        <ele>9</ele>
        <time>2020-01-21T16:58:33Z</time>
      </trkpt>
      <trkpt lat="59.327435" lon="18.07385">
        <ele>9</ele>
        <time>2020-01-21T16:58:35Z</time>
      </trkpt>
      <trkpt lat="59.327485" lon="18.07379">
        <ele>9</ele>
        <time>2020-01-21T16:58:35Z</time>
      </trkpt>
      <trkpt lat="59.327533" lon="18.073729">
        <ele>9</ele>
        <time>2020-01-21T16:58:36Z</time>
      </trkpt>
      <trkpt lat="59.327581" lon="18.073671">
        <ele>9</ele>
        <time>2020-01-21T16:58:37Z</time>
      </trkpt>
      <trkpt lat="59.32763" lon="18.073615">
        <ele>9</ele>
        <time>2020-01-21T16:58:38Z</time>
      </trkpt>
      <trkpt lat="59.327679" lon="18.073558">
        <ele>8</ele>
        <time>2020-01-21T16:58:40Z</time>
      </trkpt>
      <trkpt lat="59.327729" lon="18.073501">
        <ele>8</ele>
        <time>2020-01-21T16:58:40Z</time>
      </trkpt>
      <trkpt lat="59.327778" lon="18.073443">
        <ele>8</ele>
        <time>2020-01-21T16:58:41Z</time>
      </trkpt>
      <trkpt lat="59.327827" lon="18.073387">
        <ele>8</ele>
        <time>2020-01-21T16:58:42Z</time>
      </trkpt>
      <trkpt lat="59.327876" lon="18.073333">
        <ele>8</ele>
        <time>2020-01-21T16:58:44Z</time>
      </trkpt>
      <trkpt lat="59.327925" lon="18.073282">
        <ele>8</ele>
        <time>2020-01-21T16:58:45Z</time>
      </trkpt>
      <trkpt lat="59.327976" lon="18.073233">
        <ele>8</ele>
        <time>2020-01-21T16:58:45Z</time>
      </trkpt>
      <trkpt lat="59.328027" lon="18.07319">
        <ele>8</ele>
        <time>2020-01-21T16:58:46Z</time>
      </trkpt>
      <trkpt lat="59.32808" lon="18.073151">
        <ele>8</ele>
        <time>2020-01-21T16:58:47Z</time>
      </trkpt>
      <trkpt lat="59.328135" lon="18.073116">
        <ele>8</ele>
        <time>2020-01-21T16:58:48Z</time>
      </trkpt>
      <trkpt lat="59.328191" lon="18.073087">
        <ele>8</ele>
        <time>2020-01-21T16:58:49Z</time>
      </trkpt>
      <trkpt lat="59.32825" lon="18.073075">
        <ele>8</ele>
        <time>2020-01-21T16:58:50Z</time>
      </trkpt>
      <trkpt lat="59.32831" lon="18.07308">
        <ele>8</ele>
        <time>2020-01-21T16:58:52Z</time>
      </trkpt>
      <trkpt lat="59.32837" lon="18.073094">
        <ele>8</ele>
        <time>2020-01-21T16:58:52Z</time>
      </trkpt>
      <trkpt lat="59.328431" lon="18.07311">
        <ele>8</ele>
        <time>2020-01-21T16:58:53Z</time>
      </trkpt>
      <trkpt lat="59.328492" lon="18.073125">
        <ele>8</ele>
        <time>2020-01-21T16:58:54Z</time>
      </trkpt>
      <trkpt lat="59.328553" lon="18.073142">
        <ele>8</ele>
        <time>2020-01-21T16:58:55Z</time>
      </trkpt>
      <trkpt lat="59.328614" lon="18.073162">
        <ele>8</ele>
        <time>2020-01-21T16:58:56Z</time>
      </trkpt>
      <trkpt lat="59.328675" lon="18.073181">
        <ele>8</ele>
        <time>2020-01-21T16:58:57Z</time>
      </trkpt>
      <trkpt lat="59.328737" lon="18.073197">
        <ele>8</ele>
        <time>2020-01-21T16:58:58Z</time>
      </trkpt>
      <trkpt lat="59.328799" lon="18.073213">
        <ele>8</ele>
        <time>2020-01-21T16:58:59Z</time>
      </trkpt>
      <trkpt lat="59.328861" lon="18.07323">
        <ele>7</ele>
        <time>2020-01-21T16:59:01Z</time>
      </trkpt>
      <trkpt lat="59.328924" lon="18.073247">
        <ele>7</ele>
        <time>2020-01-21T16:59:01Z</time>
      </trkpt>
      <trkpt lat="59.328987" lon="18.073264">
        <ele>7</ele>
        <time>2020-01-21T16:59:02Z</time>
      </trkpt>
      <trkpt lat="59.32905" lon="18.073279">
        <ele>7</ele>
        <time>2020-01-21T16:59:04Z</time>
      </trkpt>
      <trkpt lat="59.329113" lon="18.073293">
        <ele>7</ele>
        <time>2020-01-21T16:59:04Z</time>
      </trkpt>
      <trkpt lat="59.329176" lon="18.073308">
        <ele>7</ele>
        <time>2020-01-21T16:59:05Z</time>
      </trkpt>
      <trkpt lat="59.329238" lon="18.073323">
        <ele>7</ele>
        <time>2020-01-21T16:59:06Z</time>
      </trkpt>
      <trkpt lat="59.329301" lon="18.073336">
        <ele>7</ele>
        <time>2020-01-21T16:59:08Z</time>
      </trkpt>
      <trkpt lat="59.329363" lon="18.073349">
        <ele>7</ele>
        <time>2020-01-21T16:59:08Z</time>
      </trkpt>
      <trkpt lat="59.329424" lon="18.073366">
        <ele>7</ele>
        <time>2020-01-21T16:59:09Z</time>
      </trkpt>
      <trkpt lat="59.329481" lon="18.0734">
        <ele>7</ele>
        <time>2020-01-21T16:59:10Z</time>
      </trkpt>
      <trkpt lat="59.329531" lon="18.07346">
        <ele>6</ele>
        <time>2020-01-21T16:59:11Z</time>
      </trkpt>
      <trkpt lat="59.329573" lon="18.073547">
        <ele>6</ele>
        <time>2020-01-21T16:59:12Z</time>
      </trkpt>
      <trkpt lat="59.329607" lon="18.07365">
        <ele>7</ele>
        <time>2020-01-21T16:59:13Z</time>
      </trkpt>
      <trkpt lat="59.329638" lon="18.073759">
        <ele>7</ele>
        <time>2020-01-21T16:59:14Z</time>
      </trkpt>
      <trkpt lat="59.329664" lon="18.073872">
        <ele>7</ele>
        <time>2020-01-21T16:59:15Z</time>
      </trkpt>
      <trkpt lat="59.329682" lon="18.07399">
        <ele>7</ele>
        <time>2020-01-21T16:59:17Z</time>
      </trkpt>
      <trkpt lat="59.329696" lon="18.074111">
        <ele>7</ele>
        <time>2020-01-21T16:59:17Z</time>
      </trkpt>
      <trkpt lat="59.329711" lon="18.074233">
        <ele>7</ele>
        <time>2020-01-21T16:59:18Z</time>
      </trkpt>
      <trkpt lat="59.329727" lon="18.074355">
        <ele>7</ele>
        <time>2020-01-21T16:59:19Z</time>
      </trkpt>
      <trkpt lat="59.329744" lon="18.074476">
        <ele>7</ele>
        <time>2020-01-21T16:59:20Z</time>
      </trkpt>
      <trkpt lat="59.329766" lon="18.074593">
        <ele>7</ele>
        <time>2020-01-21T16:59:21Z</time>
      </trkpt>
      <trkpt lat="59.329792" lon="18.074701">
        <ele>7</ele>
        <time>2020-01-21T16:59:23Z</time>
      </trkpt>
      <trkpt lat="59.329831" lon="18.074797">
        <ele>7</ele>
        <time>2020-01-21T16:59:24Z</time>
      </trkpt>
      <trkpt lat="59.329876" lon="18.074882">
        <ele>7</ele>
        <time>2020-01-21T16:59:24Z</time>
      </trkpt>
      <trkpt lat="59.329922" lon="18.07496">
        <ele>7</ele>
        <time>2020-01-21T16:59:26Z</time>
      </trkpt>
      <trkpt lat="59.329962" lon="18.075031">
        <ele>7</ele>
        <time>2020-01-21T16:59:26Z</time>
      </trkpt>
      <trkpt lat="59.330002" lon="18.075097">
        <ele>7</ele>
        <time>2020-01-21T16:59:27Z</time>
      </trkpt>
      <trkpt lat="59.330035" lon="18.075159">
        <ele>8</ele>
        <time>2020-01-21T16:59:28Z</time>
      </trkpt>
      <trkpt lat="59.330066" lon="18.075218">
        <ele>8</ele>
        <time>2020-01-21T16:59:29Z</time>
      </trkpt>
      <trkpt lat="59.330094" lon="18.075278">
        <ele>8</ele>
        <time>2020-01-21T16:59:30Z</time>
      </trkpt>
      <trkpt lat="59.330125" lon="18.075342">
        <ele>8</ele>
        <time>2020-01-21T16:59:31Z</time>
      </trkpt>
      <trkpt lat="59.3302" lon="18.075521">
        <ele>8</ele>
        <time>2020-01-21T16:59:35Z</time>
      </trkpt>
      <trkpt lat="59.330263" lon="18.075632">
        <ele>9</ele>
        <time>2020-01-21T16:59:36Z</time>
      </trkpt>
      <trkpt lat="59.330318" lon="18.075664">
        <ele>9</ele>
        <time>2020-01-21T16:59:37Z</time>
      </trkpt>
      <trkpt lat="59.330367" lon="18.075688">
        <ele>9</ele>
        <time>2020-01-21T16:59:38Z</time>
      </trkpt>
      <trkpt lat="59.330398" lon="18.07571">
        <ele>8</ele>
        <time>2020-01-21T16:59:39Z</time>
      </trkpt>
      <trkpt lat="59.330424" lon="18.0757">
        <ele>8</ele>
        <time>2020-01-21T16:59:40Z</time>
      </trkpt>
      <trkpt lat="59.330445" lon="18.07569">
        <ele>9</ele>
        <time>2020-01-21T16:59:42Z</time>
      </trkpt>
      <trkpt lat="59.330533" lon="18.075754">
        <ele>9</ele>
        <time>2020-01-21T16:59:43Z</time>
      </trkpt>
      <trkpt lat="59.330639" lon="18.075873">
        <ele>9</ele>
        <time>2020-01-21T16:59:45Z</time>
      </trkpt>
      <trkpt lat="59.330761" lon="18.076012">
        <ele>9</ele>
        <time>2020-01-21T16:59:47Z</time>
      </trkpt>
      <trkpt lat="59.330861" lon="18.076075">
        <ele>9</ele>
        <time>2020-01-21T16:59:48Z</time>
      </trkpt>
      <trkpt lat="59.331043" lon="18.07628">
        <ele>9</ele>
        <time>2020-01-21T16:59:49Z</time>
      </trkpt>
      <trkpt lat="59.331148" lon="18.076498">
        <ele>10</ele>
        <time>2020-01-21T16:59:51Z</time>
      </trkpt>
      <trkpt lat="59.331288" lon="18.076549">
        <ele>14</ele>
        <time>2020-01-21T16:59:52Z</time>
      </trkpt>
      <trkpt lat="59.331344" lon="18.076525">
        <ele>13</ele>
        <time>2020-01-21T16:59:53Z</time>
      </trkpt>
      <trkpt lat="59.33139" lon="18.07646">
        <ele>13</ele>
        <time>2020-01-21T16:59:54Z</time>
      </trkpt>
      <trkpt lat="59.331426" lon="18.076374">
        <ele>13</ele>
        <time>2020-01-21T16:59:55Z</time>
      </trkpt>
      <trkpt lat="59.331468" lon="18.076291">
        <ele>13</ele>
        <time>2020-01-21T16:59:57Z</time>
      </trkpt>
      <trkpt lat="59.331514" lon="18.076223">
        <ele>13</ele>
        <time>2020-01-21T16:59:57Z</time>
      </trkpt>
      <trkpt lat="59.331565" lon="18.076169">
        <ele>13</ele>
        <time>2020-01-21T16:59:58Z</time>
      </trkpt>
      <trkpt lat="59.331618" lon="18.076127">
        <ele>13</ele>
        <time>2020-01-21T16:59:59Z</time>
      </trkpt>
      <trkpt lat="59.331674" lon="18.076096">
        <ele>13</ele>
        <time>2020-01-21T17:00:01Z</time>
      </trkpt>
      <trkpt lat="59.331729" lon="18.076079">
        <ele>13</ele>
        <time>2020-01-21T17:00:01Z</time>
      </trkpt>
      <trkpt lat="59.331786" lon="18.076076">
        <ele>13</ele>
        <time>2020-01-21T17:00:02Z</time>
      </trkpt>
      <trkpt lat="59.331841" lon="18.076084">
        <ele>12</ele>
        <time>2020-01-21T17:00:03Z</time>
      </trkpt>
      <trkpt lat="59.331901" lon="18.076113">
        <ele>13</ele>
        <time>2020-01-21T17:00:04Z</time>
      </trkpt>
      <trkpt lat="59.331959" lon="18.076135">
        <ele>13</ele>
        <time>2020-01-21T17:00:06Z</time>
      </trkpt>
      <trkpt lat="59.332012" lon="18.076157">
        <ele>12</ele>
        <time>2020-01-21T17:00:06Z</time>
      </trkpt>
      <trkpt lat="59.332064" lon="18.076188">
        <ele>13</ele>
        <time>2020-01-21T17:00:07Z</time>
      </trkpt>
      <trkpt lat="59.332116" lon="18.076224">
        <ele>12</ele>
        <time>2020-01-21T17:00:08Z</time>
      </trkpt>
      <trkpt lat="59.332162" lon="18.07627">
        <ele>12</ele>
        <time>2020-01-21T17:00:09Z</time>
      </trkpt>
      <trkpt lat="59.332205" lon="18.076325">
        <ele>12</ele>
        <time>2020-01-21T17:00:10Z</time>
      </trkpt>
      <trkpt lat="59.332245" lon="18.076388">
        <ele>12</ele>
        <time>2020-01-21T17:00:11Z</time>
      </trkpt>
      <trkpt lat="59.33228" lon="18.076455">
        <ele>12</ele>
        <time>2020-01-21T17:00:12Z</time>
      </trkpt>
      <trkpt lat="59.33231" lon="18.076524">
        <ele>12</ele>
        <time>2020-01-21T17:00:13Z</time>
      </trkpt>
      <trkpt lat="59.332335" lon="18.076595">
        <ele>12</ele>
        <time>2020-01-21T17:00:14Z</time>
      </trkpt>
      <trkpt lat="59.332356" lon="18.076657">
        <ele>12</ele>
        <time>2020-01-21T17:00:16Z</time>
      </trkpt>
      <trkpt lat="59.33237" lon="18.076705">
        <ele>12</ele>
        <time>2020-01-21T17:00:16Z</time>
      </trkpt>
      <trkpt lat="59.33238" lon="18.076744">
        <ele>12</ele>
        <time>2020-01-21T17:00:17Z</time>
      </trkpt>
      <trkpt lat="59.33239" lon="18.076779">
        <ele>12</ele>
        <time>2020-01-21T17:00:18Z</time>
      </trkpt>
      <trkpt lat="59.332402" lon="18.076825">
        <ele>12</ele>
        <time>2020-01-21T17:00:20Z</time>
      </trkpt>
      <trkpt lat="59.332401" lon="18.076825">
        <ele>0</ele>
        <time>2020-01-21T17:00:26Z</time>
      </trkpt>
      <trkpt lat="59.332441" lon="18.076956">
        <ele>11</ele>
        <time>2020-01-21T17:01:06Z</time>
      </trkpt>
      <trkpt lat="59.332464" lon="18.077027">
        <ele>11</ele>
        <time>2020-01-21T17:01:06Z</time>
      </trkpt>
      <trkpt lat="59.332491" lon="18.077101">
        <ele>10</ele>
        <time>2020-01-21T17:01:07Z</time>
      </trkpt>
      <trkpt lat="59.33253" lon="18.077163">
        <ele>10</ele>
        <time>2020-01-21T17:01:08Z</time>
      </trkpt>
      <trkpt lat="59.332577" lon="18.077209">
        <ele>10</ele>
        <time>2020-01-21T17:01:09Z</time>
      </trkpt>
      <trkpt lat="59.332628" lon="18.077243">
        <ele>10</ele>
        <time>2020-01-21T17:01:10Z</time>
      </trkpt>
      <trkpt lat="59.332681" lon="18.077273">
        <ele>10</ele>
        <time>2020-01-21T17:01:11Z</time>
      </trkpt>
      <trkpt lat="59.332735" lon="18.077303">
        <ele>10</ele>
        <time>2020-01-21T17:01:13Z</time>
      </trkpt>
      <trkpt lat="59.33279" lon="18.077335">
        <ele>10</ele>
        <time>2020-01-21T17:01:13Z</time>
      </trkpt>
      <trkpt lat="59.332845" lon="18.07737">
        <ele>10</ele>
        <time>2020-01-21T17:01:14Z</time>
      </trkpt>
      <trkpt lat="59.332897" lon="18.077408">
        <ele>10</ele>
        <time>2020-01-21T17:01:15Z</time>
      </trkpt>
      <trkpt lat="59.332945" lon="18.077448">
        <ele>10</ele>
        <time>2020-01-21T17:01:16Z</time>
      </trkpt>
      <trkpt lat="59.332988" lon="18.077484">
        <ele>10</ele>
        <time>2020-01-21T17:01:17Z</time>
      </trkpt>
      <trkpt lat="59.333036" lon="18.077515">
        <ele>10</ele>
        <time>2020-01-21T17:01:18Z</time>
      </trkpt>
      <trkpt lat="59.333086" lon="18.077547">
        <ele>10</ele>
        <time>2020-01-21T17:01:19Z</time>
      </trkpt>
      <trkpt lat="59.333141" lon="18.077586">
        <ele>10</ele>
        <time>2020-01-21T17:01:20Z</time>
      </trkpt>
      <trkpt lat="59.333183" lon="18.077618">
        <ele>10</ele>
        <time>2020-01-21T17:01:21Z</time>
      </trkpt>
      <trkpt lat="59.333215" lon="18.077638">
        <ele>10</ele>
        <time>2020-01-21T17:01:22Z</time>
      </trkpt>
      <trkpt lat="59.333246" lon="18.077657">
        <ele>11</ele>
        <time>2020-01-21T17:01:24Z</time>
      </trkpt>
      <trkpt lat="59.333278" lon="18.077677">
        <ele>11</ele>
        <time>2020-01-21T17:01:25Z</time>
      </trkpt>
      <trkpt lat="59.333321" lon="18.077691">
        <ele>11</ele>
        <time>2020-01-21T17:01:25Z</time>
      </trkpt>
      <trkpt lat="59.333369" lon="18.077701">
        <ele>11</ele>
        <time>2020-01-21T17:01:26Z</time>
      </trkpt>
      <trkpt lat="59.33348" lon="18.077789">
        <ele>11</ele>
        <time>2020-01-21T17:01:29Z</time>
      </trkpt>
      <trkpt lat="59.333606" lon="18.077919">
        <ele>11</ele>
        <time>2020-01-21T17:01:32Z</time>
      </trkpt>
      <trkpt lat="59.333717" lon="18.07802">
        <ele>11</ele>
        <time>2020-01-21T17:01:34Z</time>
      </trkpt>
      <trkpt lat="59.333824" lon="18.07811">
        <ele>11</ele>
        <time>2020-01-21T17:01:36Z</time>
      </trkpt>
      <trkpt lat="59.333931" lon="18.078205">
        <ele>12</ele>
        <time>2020-01-21T17:01:39Z</time>
      </trkpt>
      <trkpt lat="59.333997" lon="18.078242">
        <ele>11</ele>
        <time>2020-01-21T17:01:40Z</time>
      </trkpt>
      <trkpt lat="59.334035" lon="18.07827">
        <ele>12</ele>
        <time>2020-01-21T17:01:41Z</time>
      </trkpt>
      <trkpt lat="59.334072" lon="18.078297">
        <ele>12</ele>
        <time>2020-01-21T17:01:42Z</time>
      </trkpt>
      <trkpt lat="59.334154" lon="18.078371">
        <ele>12</ele>
        <time>2020-01-21T17:01:44Z</time>
      </trkpt>
      <trkpt lat="59.334196" lon="18.078411">
        <ele>12</ele>
        <time>2020-01-21T17:01:46Z</time>
      </trkpt>
      <trkpt lat="59.334238" lon="18.07845">
        <ele>12</ele>
        <time>2020-01-21T17:01:46Z</time>
      </trkpt>
      <trkpt lat="59.334364" lon="18.078553">
        <ele>12</ele>
        <time>2020-01-21T17:01:49Z</time>
      </trkpt>
      <trkpt lat="59.334409" lon="18.078596">
        <ele>12</ele>
        <time>2020-01-21T17:01:50Z</time>
      </trkpt>
      <trkpt lat="59.334449" lon="18.078636">
        <ele>12</ele>
        <time>2020-01-21T17:01:51Z</time>
      </trkpt>
      <trkpt lat="59.334487" lon="18.078673">
        <ele>12</ele>
        <time>2020-01-21T17:01:52Z</time>
      </trkpt>
      <trkpt lat="59.334527" lon="18.078706">
        <ele>12</ele>
        <time>2020-01-21T17:01:53Z</time>
      </trkpt>
      <trkpt lat="59.334644" lon="18.078791">
        <ele>14</ele>
        <time>2020-01-21T17:01:55Z</time>
      </trkpt>
      <trkpt lat="59.334756" lon="18.078955">
        <ele>14</ele>
        <time>2020-01-21T17:01:56Z</time>
      </trkpt>
      <trkpt lat="59.334878" lon="18.079056">
        <ele>15</ele>
        <time>2020-01-21T17:01:58Z</time>
      </trkpt>
      <trkpt lat="59.334977" lon="18.079122">
        <ele>16</ele>
        <time>2020-01-21T17:02:00Z</time>
      </trkpt>
      <trkpt lat="59.335027" lon="18.079156">
        <ele>16</ele>
        <time>2020-01-21T17:02:01Z</time>
      </trkpt>
      <trkpt lat="59.335101" lon="18.079216">
        <ele>17</ele>
        <time>2020-01-21T17:02:03Z</time>
      </trkpt>
      <trkpt lat="59.335216" lon="18.079334">
        <ele>18</ele>
        <time>2020-01-21T17:02:06Z</time>
      </trkpt>
      <trkpt lat="59.335256" lon="18.079374">
        <ele>18</ele>
        <time>2020-01-21T17:02:07Z</time>
      </trkpt>
      <trkpt lat="59.335343" lon="18.079446">
        <ele>18</ele>
        <time>2020-01-21T17:02:10Z</time>
      </trkpt>
      <trkpt lat="59.33548" lon="18.079518">
        <ele>19</ele>
        <time>2020-01-21T17:02:13Z</time>
      </trkpt>
      <trkpt lat="59.335524" lon="18.079546">
        <ele>19</ele>
        <time>2020-01-21T17:02:14Z</time>
      </trkpt>
      <trkpt lat="59.33557" lon="18.079573">
        <ele>18</ele>
        <time>2020-01-21T17:02:16Z</time>
      </trkpt>
      <trkpt lat="59.335603" lon="18.079596">
        <ele>19</ele>
        <time>2020-01-21T17:02:16Z</time>
      </trkpt>
      <trkpt lat="59.335632" lon="18.079604">
        <ele>19</ele>
        <time>2020-01-21T17:02:17Z</time>
      </trkpt>
      <trkpt lat="59.335662" lon="18.079622">
        <ele>20</ele>
        <time>2020-01-21T17:02:18Z</time>
      </trkpt>
      <trkpt lat="59.335705" lon="18.079669">
        <ele>20</ele>
        <time>2020-01-21T17:02:19Z</time>
      </trkpt>
      <trkpt lat="59.335744" lon="18.079701">
        <ele>20</ele>
        <time>2020-01-21T17:02:20Z</time>
      </trkpt>
      <trkpt lat="59.335779" lon="18.079728">
        <ele>21</ele>
        <time>2020-01-21T17:02:22Z</time>
      </trkpt>
      <trkpt lat="59.335816" lon="18.079754">
        <ele>21</ele>
        <time>2020-01-21T17:02:22Z</time>
      </trkpt>
      <trkpt lat="59.335855" lon="18.07978">
        <ele>21</ele>
        <time>2020-01-21T17:02:23Z</time>
      </trkpt>
      <trkpt lat="59.335895" lon="18.07981">
        <ele>21</ele>
        <time>2020-01-21T17:02:24Z</time>
      </trkpt>
      <trkpt lat="59.335936" lon="18.07984">
        <ele>21</ele>
        <time>2020-01-21T17:02:25Z</time>
      </trkpt>
      <trkpt lat="59.335976" lon="18.079866">
        <ele>21</ele>
        <time>2020-01-21T17:02:26Z</time>
      </trkpt>
      <trkpt lat="59.336014" lon="18.079888">
        <ele>21</ele>
        <time>2020-01-21T17:02:28Z</time>
      </trkpt>
      <trkpt lat="59.336052" lon="18.079919">
        <ele>21</ele>
        <time>2020-01-21T17:02:28Z</time>
      </trkpt>
      <trkpt lat="59.33609" lon="18.079942">
        <ele>21</ele>
        <time>2020-01-21T17:02:29Z</time>
      </trkpt>
      <trkpt lat="59.336133" lon="18.079968">
        <ele>21</ele>
        <time>2020-01-21T17:02:30Z</time>
      </trkpt>
      <trkpt lat="59.336177" lon="18.08">
        <ele>22</ele>
        <time>2020-01-21T17:02:31Z</time>
      </trkpt>
      <trkpt lat="59.336219" lon="18.080038">
        <ele>22</ele>
        <time>2020-01-21T17:02:32Z</time>
      </trkpt>
      <trkpt lat="59.33626" lon="18.080075">
        <ele>22</ele>
        <time>2020-01-21T17:02:33Z</time>
      </trkpt>
      <trkpt lat="59.336302" lon="18.080117">
        <ele>23</ele>
        <time>2020-01-21T17:02:34Z</time>
      </trkpt>
      <trkpt lat="59.336338" lon="18.080143">
        <ele>23</ele>
        <time>2020-01-21T17:02:35Z</time>
      </trkpt>
      <trkpt lat="59.336377" lon="18.080178">
        <ele>23</ele>
        <time>2020-01-21T17:02:36Z</time>
      </trkpt>
      <trkpt lat="59.336412" lon="18.080221">
        <ele>23</ele>
        <time>2020-01-21T17:02:37Z</time>
      </trkpt>
      <trkpt lat="59.336443" lon="18.080255">
        <ele>23</ele>
        <time>2020-01-21T17:02:39Z</time>
      </trkpt>
      <trkpt lat="59.336478" lon="18.080296">
        <ele>23</ele>
        <time>2020-01-21T17:02:39Z</time>
      </trkpt>
      <trkpt lat="59.336511" lon="18.080324">
        <ele>23</ele>
        <time>2020-01-21T17:02:41Z</time>
      </trkpt>
      <trkpt lat="59.336543" lon="18.080348">
        <ele>23</ele>
        <time>2020-01-21T17:02:41Z</time>
      </trkpt>
      <trkpt lat="59.336574" lon="18.08037">
        <ele>23</ele>
        <time>2020-01-21T17:02:42Z</time>
      </trkpt>
      <trkpt lat="59.336599" lon="18.080384">
        <ele>23</ele>
        <time>2020-01-21T17:02:43Z</time>
      </trkpt>
      <trkpt lat="59.336624" lon="18.080397">
        <ele>23</ele>
        <time>2020-01-21T17:02:44Z</time>
      </trkpt>
      <trkpt lat="59.336647" lon="18.080415">
        <ele>24</ele>
        <time>2020-01-21T17:02:45Z</time>
      </trkpt>
      <trkpt lat="59.336667" lon="18.080438">
        <ele>24</ele>
        <time>2020-01-21T17:02:46Z</time>
      </trkpt>
      <trkpt lat="59.336683" lon="18.080455">
        <ele>24</ele>
        <time>2020-01-21T17:02:47Z</time>
      </trkpt>
      <trkpt lat="59.33672" lon="18.080477">
        <ele>24</ele>
        <time>2020-01-21T17:02:49Z</time>
      </trkpt>
      <trkpt lat="59.336749" lon="18.080494">
        <ele>25</ele>
        <time>2020-01-21T17:02:51Z</time>
      </trkpt>
      <trkpt lat="59.336778" lon="18.080506">
        <ele>25</ele>
        <time>2020-01-21T17:02:53Z</time>
      </trkpt>
      <trkpt lat="59.336814" lon="18.080514">
        <ele>25</ele>
        <time>2020-01-21T17:02:55Z</time>
      </trkpt>
      <trkpt lat="59.33684" lon="18.080531">
        <ele>25</ele>
        <time>2020-01-21T17:02:56Z</time>
      </trkpt>
      <trkpt lat="59.336874" lon="18.080568">
        <ele>25</ele>
        <time>2020-01-21T17:02:57Z</time>
      </trkpt>
      <trkpt lat="59.336919" lon="18.080609">
        <ele>25</ele>
        <time>2020-01-21T17:02:58Z</time>
      </trkpt>
      <trkpt lat="59.336969" lon="18.080653">
        <ele>25</ele>
        <time>2020-01-21T17:03:00Z</time>
      </trkpt>
      <trkpt lat="59.337018" lon="18.08069">
        <ele>25</ele>
        <time>2020-01-21T17:03:00Z</time>
      </trkpt>
      <trkpt lat="59.337068" lon="18.080725">
        <ele>25</ele>
        <time>2020-01-21T17:03:01Z</time>
      </trkpt>
      <trkpt lat="59.337119" lon="18.080766">
        <ele>25</ele>
        <time>2020-01-21T17:03:02Z</time>
      </trkpt>
      <trkpt lat="59.337166" lon="18.080797">
        <ele>25</ele>
        <time>2020-01-21T17:03:03Z</time>
      </trkpt>
      <trkpt lat="59.337214" lon="18.080832">
        <ele>25</ele>
        <time>2020-01-21T17:03:04Z</time>
      </trkpt>
      <trkpt lat="59.337258" lon="18.080863">
        <ele>26</ele>
        <time>2020-01-21T17:03:05Z</time>
      </trkpt>
      <trkpt lat="59.337298" lon="18.080903">
        <ele>26</ele>
        <time>2020-01-21T17:03:06Z</time>
      </trkpt>
      <trkpt lat="59.337331" lon="18.080933">
        <ele>26</ele>
        <time>2020-01-21T17:03:07Z</time>
      </trkpt>
      <trkpt lat="59.337363" lon="18.080957">
        <ele>26</ele>
        <time>2020-01-21T17:03:08Z</time>
      </trkpt>
      <trkpt lat="59.337391" lon="18.080968">
        <ele>26</ele>
        <time>2020-01-21T17:03:09Z</time>
      </trkpt>
      <trkpt lat="59.337427" lon="18.080986">
        <ele>26</ele>
        <time>2020-01-21T17:03:11Z</time>
      </trkpt>
      <trkpt lat="59.337533" lon="18.08105">
        <ele>26</ele>
        <time>2020-01-21T17:03:12Z</time>
      </trkpt>
      <trkpt lat="59.337664" lon="18.081113">
        <ele>26</ele>
        <time>2020-01-21T17:03:14Z</time>
      </trkpt>
      <trkpt lat="59.337783" lon="18.081197">
        <ele>27</ele>
        <time>2020-01-21T17:03:16Z</time>
      </trkpt>
      <trkpt lat="59.337895" lon="18.081297">
        <ele>27</ele>
        <time>2020-01-21T17:03:19Z</time>
      </trkpt>
      <trkpt lat="59.337978" lon="18.081378">
        <ele>27</ele>
        <time>2020-01-21T17:03:19Z</time>
      </trkpt>
      <trkpt lat="59.338068" lon="18.081467">
        <ele>27</ele>
        <time>2020-01-21T17:03:20Z</time>
      </trkpt>
      <trkpt lat="59.338181" lon="18.081571">
        <ele>27</ele>
        <time>2020-01-21T17:03:21Z</time>
      </trkpt>
      <trkpt lat="59.338289" lon="18.081706">
        <ele>27</ele>
        <time>2020-01-21T17:03:23Z</time>
      </trkpt>
      <trkpt lat="59.338375" lon="18.081783">
        <ele>28</ele>
        <time>2020-01-21T17:03:26Z</time>
      </trkpt>
      <trkpt lat="59.338472" lon="18.081823">
        <ele>29</ele>
        <time>2020-01-21T17:03:28Z</time>
      </trkpt>
      <trkpt lat="59.33858" lon="18.081873">
        <ele>29</ele>
        <time>2020-01-21T17:03:31Z</time>
      </trkpt>
      <trkpt lat="59.338678" lon="18.081951">
        <ele>30</ele>
        <time>2020-01-21T17:03:34Z</time>
      </trkpt>
      <trkpt lat="59.33881" lon="18.082037">
        <ele>30</ele>
        <time>2020-01-21T17:03:38Z</time>
      </trkpt>
      <trkpt lat="59.338965" lon="18.082234">
        <ele>31</ele>
        <time>2020-01-21T17:03:38Z</time>
      </trkpt>
      <trkpt lat="59.33904" lon="18.082347">
        <ele>31</ele>
        <time>2020-01-21T17:03:39Z</time>
      </trkpt>
      <trkpt lat="59.339127" lon="18.082455">
        <ele>30</ele>
        <time>2020-01-21T17:03:41Z</time>
      </trkpt>
      <trkpt lat="59.339157" lon="18.082518">
        <ele>30</ele>
        <time>2020-01-21T17:03:42Z</time>
      </trkpt>
      <trkpt lat="59.339197" lon="18.082559">
        <ele>29</ele>
        <time>2020-01-21T17:03:44Z</time>
      </trkpt>
      <trkpt lat="59.339231" lon="18.082575">
        <ele>29</ele>
        <time>2020-01-21T17:03:44Z</time>
      </trkpt>
      <trkpt lat="59.339271" lon="18.082597">
        <ele>29</ele>
        <time>2020-01-21T17:03:45Z</time>
      </trkpt>
      <trkpt lat="59.339307" lon="18.082612">
        <ele>29</ele>
        <time>2020-01-21T17:03:46Z</time>
      </trkpt>
      <trkpt lat="59.339345" lon="18.082635">
        <ele>29</ele>
        <time>2020-01-21T17:03:47Z</time>
      </trkpt>
      <trkpt lat="59.339384" lon="18.082665">
        <ele>29</ele>
        <time>2020-01-21T17:03:48Z</time>
      </trkpt>
      <trkpt lat="59.33943" lon="18.082714">
        <ele>30</ele>
        <time>2020-01-21T17:03:49Z</time>
      </trkpt>
      <trkpt lat="59.339482" lon="18.082763">
        <ele>30</ele>
        <time>2020-01-21T17:03:50Z</time>
      </trkpt>
      <trkpt lat="59.339526" lon="18.082813">
        <ele>30</ele>
        <time>2020-01-21T17:03:51Z</time>
      </trkpt>
      <trkpt lat="59.339563" lon="18.082849">
        <ele>31</ele>
        <time>2020-01-21T17:03:52Z</time>
      </trkpt>
      <trkpt lat="59.339599" lon="18.082875">
        <ele>31</ele>
        <time>2020-01-21T17:03:53Z</time>
      </trkpt>
      <trkpt lat="59.339631" lon="18.082901">
        <ele>31</ele>
        <time>2020-01-21T17:03:55Z</time>
      </trkpt>
      <trkpt lat="59.339678" lon="18.082941">
        <ele>31</ele>
        <time>2020-01-21T17:03:55Z</time>
      </trkpt>
      <trkpt lat="59.33974" lon="18.082988">
        <ele>30</ele>
        <time>2020-01-21T17:03:57Z</time>
      </trkpt>
      <trkpt lat="59.339866" lon="18.083087">
        <ele>30</ele>
        <time>2020-01-21T17:03:58Z</time>
      </trkpt>
      <trkpt lat="59.33997" lon="18.083181">
        <ele>31</ele>
        <time>2020-01-21T17:04:00Z</time>
      </trkpt>
      <trkpt lat="59.340015" lon="18.083217">
        <ele>31</ele>
        <time>2020-01-21T17:04:01Z</time>
      </trkpt>
      <trkpt lat="59.340109" lon="18.083296">
        <ele>31</ele>
        <time>2020-01-21T17:04:04Z</time>
      </trkpt>
      <trkpt lat="59.340151" lon="18.083332">
        <ele>31</ele>
        <time>2020-01-21T17:04:04Z</time>
      </trkpt>
      <trkpt lat="59.340192" lon="18.083364">
        <ele>32</ele>
        <time>2020-01-21T17:04:05Z</time>
      </trkpt>
      <trkpt lat="59.34028" lon="18.083431">
        <ele>32</ele>
        <time>2020-01-21T17:04:07Z</time>
      </trkpt>
      <trkpt lat="59.340408" lon="18.083543">
        <ele>33</ele>
        <time>2020-01-21T17:04:09Z</time>
      </trkpt>
      <trkpt lat="59.340483" lon="18.083714">
        <ele>32</ele>
        <time>2020-01-21T17:04:11Z</time>
      </trkpt>
      <trkpt lat="59.340482" lon="18.083801">
        <ele>31</ele>
        <time>2020-01-21T17:04:12Z</time>
      </trkpt>
      <trkpt lat="59.340473" lon="18.083901">
        <ele>31</ele>
        <time>2020-01-21T17:04:14Z</time>
      </trkpt>
      <trkpt lat="59.340451" lon="18.084101">
        <ele>30</ele>
        <time>2020-01-21T17:04:16Z</time>
      </trkpt>
      <trkpt lat="59.34044" lon="18.084202">
        <ele>30</ele>
        <time>2020-01-21T17:04:16Z</time>
      </trkpt>
      <trkpt lat="59.340428" lon="18.084297">
        <ele>30</ele>
        <time>2020-01-21T17:04:17Z</time>
      </trkpt>
      <trkpt lat="59.340419" lon="18.084401">
        <ele>30</ele>
        <time>2020-01-21T17:04:18Z</time>
      </trkpt>
      <trkpt lat="59.340419" lon="18.084534">
        <ele>30</ele>
        <time>2020-01-21T17:04:19Z</time>
      </trkpt>
      <trkpt lat="59.34042" lon="18.084645">
        <ele>30</ele>
        <time>2020-01-21T17:04:20Z</time>
      </trkpt>
      <trkpt lat="59.340419" lon="18.084736">
        <ele>30</ele>
        <time>2020-01-21T17:04:22Z</time>
      </trkpt>
      <trkpt lat="59.340425" lon="18.084814">
        <ele>30</ele>
        <time>2020-01-21T17:04:22Z</time>
      </trkpt>
      <trkpt lat="59.340424" lon="18.084874">
        <ele>30</ele>
        <time>2020-01-21T17:04:23Z</time>
      </trkpt>
      <trkpt lat="59.340407" lon="18.084916">
        <ele>30</ele>
        <time>2020-01-21T17:04:24Z</time>
      </trkpt>
      <trkpt lat="59.340383" lon="18.084949">
        <ele>30</ele>
        <time>2020-01-21T17:04:25Z</time>
      </trkpt>
    </trkseg>
  </trk>
</gpx>